<?xml version="1.0" encoding="UTF-8" standalone="no" ?>
<gpx xmlns="http://www.topografix.com/GPX/1/1" xmlns:xsi="http://www.w3.org/2001/XMLSchema-instance" xsi:schemaLocation="http://www.topografix.com/GPX/1/1 http://www.topografix.com/GPX/1/1/gpx.xsd" version="1.1" creator="VisuGPX - https://www.visugpx.com">
  <metadata>
    <name>2012-04-16 Biganos</name>
    <desc><![CDATA[Parcours impressionnant le long des ruisseaux entre Biganos et Marcheprime.
Technique mais sans plus et très varié.]]></desc>
  </metadata>
  <trk>
    <name><![CDATA[2012-04-16 Biganos]]></name>
    <trkseg>
      <trkpt lat="44.628" lon="-0.96022">
        <ele>8.31</ele>
        <time>2012-04-16T11:54:32Z</time>
      </trkpt>
      <trkpt lat="44.62795" lon="-0.96013">
        <ele>8.31</ele>
        <time>2012-04-16T11:55:01Z</time>
      </trkpt>
      <trkpt lat="44.62791" lon="-0.96007">
        <ele>8.31</ele>
        <time>2012-04-16T11:57:50Z</time>
      </trkpt>
      <trkpt lat="44.62786" lon="-0.95996">
        <ele>7.83</ele>
        <time>2012-04-16T11:58:12Z</time>
      </trkpt>
      <trkpt lat="44.62778" lon="-0.95991">
        <ele>7.83</ele>
        <time>2012-04-16T11:58:18Z</time>
      </trkpt>
      <trkpt lat="44.62772" lon="-0.95982">
        <ele>8.31</ele>
        <time>2012-04-16T11:58:22Z</time>
      </trkpt>
      <trkpt lat="44.62771" lon="-0.95975">
        <ele>8.31</ele>
        <time>2012-04-16T11:58:55Z</time>
      </trkpt>
      <trkpt lat="44.62779" lon="-0.95967">
        <ele>7.83</ele>
        <time>2012-04-16T11:58:59Z</time>
      </trkpt>
      <trkpt lat="44.62785" lon="-0.95947">
        <ele>7.35</ele>
        <time>2012-04-16T11:59:04Z</time>
      </trkpt>
      <trkpt lat="44.62787" lon="-0.95922">
        <ele>6.87</ele>
        <time>2012-04-16T11:59:08Z</time>
      </trkpt>
      <trkpt lat="44.6279" lon="-0.95904">
        <ele>6.87</ele>
        <time>2012-04-16T11:59:11Z</time>
      </trkpt>
      <trkpt lat="44.62793" lon="-0.95887">
        <ele>7.35</ele>
        <time>2012-04-16T11:59:14Z</time>
      </trkpt>
      <trkpt lat="44.62796" lon="-0.95871">
        <ele>7.35</ele>
        <time>2012-04-16T11:59:17Z</time>
      </trkpt>
      <trkpt lat="44.62799" lon="-0.95855">
        <ele>7.83</ele>
        <time>2012-04-16T11:59:20Z</time>
      </trkpt>
      <trkpt lat="44.62803" lon="-0.95839">
        <ele>7.83</ele>
        <time>2012-04-16T11:59:23Z</time>
      </trkpt>
      <trkpt lat="44.62806" lon="-0.95824">
        <ele>7.83</ele>
        <time>2012-04-16T11:59:26Z</time>
      </trkpt>
      <trkpt lat="44.62809" lon="-0.95808">
        <ele>7.83</ele>
        <time>2012-04-16T11:59:29Z</time>
      </trkpt>
      <trkpt lat="44.62814" lon="-0.95791">
        <ele>7.35</ele>
        <time>2012-04-16T11:59:32Z</time>
      </trkpt>
      <trkpt lat="44.62817" lon="-0.95776">
        <ele>7.35</ele>
        <time>2012-04-16T11:59:35Z</time>
      </trkpt>
      <trkpt lat="44.6282" lon="-0.95762">
        <ele>7.83</ele>
        <time>2012-04-16T11:59:38Z</time>
      </trkpt>
      <trkpt lat="44.62824" lon="-0.95746">
        <ele>7.83</ele>
        <time>2012-04-16T11:59:41Z</time>
      </trkpt>
      <trkpt lat="44.62827" lon="-0.95729">
        <ele>7.83</ele>
        <time>2012-04-16T11:59:44Z</time>
      </trkpt>
      <trkpt lat="44.6283" lon="-0.95713">
        <ele>6.87</ele>
        <time>2012-04-16T11:59:47Z</time>
      </trkpt>
      <trkpt lat="44.62833" lon="-0.95695">
        <ele>7.35</ele>
        <time>2012-04-16T11:59:50Z</time>
      </trkpt>
      <trkpt lat="44.62836" lon="-0.95683">
        <ele>7.35</ele>
        <time>2012-04-16T11:59:52Z</time>
      </trkpt>
      <trkpt lat="44.62839" lon="-0.95671">
        <ele>7.35</ele>
        <time>2012-04-16T11:59:54Z</time>
      </trkpt>
      <trkpt lat="44.62841" lon="-0.95659">
        <ele>6.87</ele>
        <time>2012-04-16T11:59:56Z</time>
      </trkpt>
      <trkpt lat="44.62845" lon="-0.9564">
        <ele>6.39</ele>
        <time>2012-04-16T11:59:59Z</time>
      </trkpt>
      <trkpt lat="44.62849" lon="-0.95624">
        <ele>6.87</ele>
        <time>2012-04-16T12:00:02Z</time>
      </trkpt>
      <trkpt lat="44.62852" lon="-0.95609">
        <ele>7.83</ele>
        <time>2012-04-16T12:00:05Z</time>
      </trkpt>
      <trkpt lat="44.62855" lon="-0.95594">
        <ele>7.83</ele>
        <time>2012-04-16T12:00:08Z</time>
      </trkpt>
      <trkpt lat="44.62858" lon="-0.95579">
        <ele>7.83</ele>
        <time>2012-04-16T12:00:11Z</time>
      </trkpt>
      <trkpt lat="44.62861" lon="-0.95563">
        <ele>7.83</ele>
        <time>2012-04-16T12:00:14Z</time>
      </trkpt>
      <trkpt lat="44.62865" lon="-0.95548">
        <ele>7.83</ele>
        <time>2012-04-16T12:00:17Z</time>
      </trkpt>
      <trkpt lat="44.62868" lon="-0.95531">
        <ele>8.31</ele>
        <time>2012-04-16T12:00:20Z</time>
      </trkpt>
      <trkpt lat="44.62872" lon="-0.95514">
        <ele>8.31</ele>
        <time>2012-04-16T12:00:23Z</time>
      </trkpt>
      <trkpt lat="44.62875" lon="-0.95498">
        <ele>8.79</ele>
        <time>2012-04-16T12:00:26Z</time>
      </trkpt>
      <trkpt lat="44.62878" lon="-0.95481">
        <ele>8.31</ele>
        <time>2012-04-16T12:00:29Z</time>
      </trkpt>
      <trkpt lat="44.62882" lon="-0.95464">
        <ele>9.27</ele>
        <time>2012-04-16T12:00:32Z</time>
      </trkpt>
      <trkpt lat="44.62886" lon="-0.95447">
        <ele>9.27</ele>
        <time>2012-04-16T12:00:35Z</time>
      </trkpt>
      <trkpt lat="44.62889" lon="-0.95433">
        <ele>9.75</ele>
        <time>2012-04-16T12:00:38Z</time>
      </trkpt>
      <trkpt lat="44.62893" lon="-0.95418">
        <ele>9.75</ele>
        <time>2012-04-16T12:00:41Z</time>
      </trkpt>
      <trkpt lat="44.62895" lon="-0.95402">
        <ele>9.75</ele>
        <time>2012-04-16T12:00:44Z</time>
      </trkpt>
      <trkpt lat="44.62898" lon="-0.95386">
        <ele>10.23</ele>
        <time>2012-04-16T12:00:47Z</time>
      </trkpt>
      <trkpt lat="44.62901" lon="-0.9537">
        <ele>10.23</ele>
        <time>2012-04-16T12:00:50Z</time>
      </trkpt>
      <trkpt lat="44.62905" lon="-0.95354">
        <ele>10.23</ele>
        <time>2012-04-16T12:00:53Z</time>
      </trkpt>
      <trkpt lat="44.62909" lon="-0.95336">
        <ele>9.75</ele>
        <time>2012-04-16T12:00:56Z</time>
      </trkpt>
      <trkpt lat="44.62913" lon="-0.95319">
        <ele>9.75</ele>
        <time>2012-04-16T12:00:59Z</time>
      </trkpt>
      <trkpt lat="44.62917" lon="-0.95302">
        <ele>9.75</ele>
        <time>2012-04-16T12:01:02Z</time>
      </trkpt>
      <trkpt lat="44.62921" lon="-0.95286">
        <ele>9.75</ele>
        <time>2012-04-16T12:01:05Z</time>
      </trkpt>
      <trkpt lat="44.62924" lon="-0.95269">
        <ele>10.23</ele>
        <time>2012-04-16T12:01:08Z</time>
      </trkpt>
      <trkpt lat="44.62927" lon="-0.95252">
        <ele>9.75</ele>
        <time>2012-04-16T12:01:11Z</time>
      </trkpt>
      <trkpt lat="44.62931" lon="-0.95234">
        <ele>10.23</ele>
        <time>2012-04-16T12:01:14Z</time>
      </trkpt>
      <trkpt lat="44.62936" lon="-0.95217">
        <ele>10.23</ele>
        <time>2012-04-16T12:01:17Z</time>
      </trkpt>
      <trkpt lat="44.6294" lon="-0.952">
        <ele>10.71</ele>
        <time>2012-04-16T12:01:20Z</time>
      </trkpt>
      <trkpt lat="44.62944" lon="-0.95182">
        <ele>10.71</ele>
        <time>2012-04-16T12:01:23Z</time>
      </trkpt>
      <trkpt lat="44.62948" lon="-0.95164">
        <ele>11.19</ele>
        <time>2012-04-16T12:01:26Z</time>
      </trkpt>
      <trkpt lat="44.62952" lon="-0.95148">
        <ele>11.67</ele>
        <time>2012-04-16T12:01:29Z</time>
      </trkpt>
      <trkpt lat="44.62955" lon="-0.95132">
        <ele>10.71</ele>
        <time>2012-04-16T12:01:32Z</time>
      </trkpt>
      <trkpt lat="44.62958" lon="-0.95117">
        <ele>10.71</ele>
        <time>2012-04-16T12:01:35Z</time>
      </trkpt>
      <trkpt lat="44.62962" lon="-0.951">
        <ele>11.19</ele>
        <time>2012-04-16T12:01:38Z</time>
      </trkpt>
      <trkpt lat="44.62966" lon="-0.95084">
        <ele>11.67</ele>
        <time>2012-04-16T12:01:41Z</time>
      </trkpt>
      <trkpt lat="44.62969" lon="-0.95066">
        <ele>11.19</ele>
        <time>2012-04-16T12:01:44Z</time>
      </trkpt>
      <trkpt lat="44.62971" lon="-0.95048">
        <ele>11.19</ele>
        <time>2012-04-16T12:01:47Z</time>
      </trkpt>
      <trkpt lat="44.62973" lon="-0.95031">
        <ele>11.67</ele>
        <time>2012-04-16T12:01:50Z</time>
      </trkpt>
      <trkpt lat="44.62972" lon="-0.95013">
        <ele>12.15</ele>
        <time>2012-04-16T12:01:53Z</time>
      </trkpt>
      <trkpt lat="44.62968" lon="-0.94998">
        <ele>11.67</ele>
        <time>2012-04-16T12:01:56Z</time>
      </trkpt>
      <trkpt lat="44.62962" lon="-0.94984">
        <ele>12.15</ele>
        <time>2012-04-16T12:01:59Z</time>
      </trkpt>
      <trkpt lat="44.62956" lon="-0.94969">
        <ele>11.19</ele>
        <time>2012-04-16T12:02:02Z</time>
      </trkpt>
      <trkpt lat="44.62952" lon="-0.94954">
        <ele>12.15</ele>
        <time>2012-04-16T12:02:05Z</time>
      </trkpt>
      <trkpt lat="44.62948" lon="-0.94938">
        <ele>11.19</ele>
        <time>2012-04-16T12:02:08Z</time>
      </trkpt>
      <trkpt lat="44.62945" lon="-0.94922">
        <ele>11.67</ele>
        <time>2012-04-16T12:02:11Z</time>
      </trkpt>
      <trkpt lat="44.62944" lon="-0.94907">
        <ele>11.19</ele>
        <time>2012-04-16T12:02:14Z</time>
      </trkpt>
      <trkpt lat="44.62943" lon="-0.94891">
        <ele>11.67</ele>
        <time>2012-04-16T12:02:17Z</time>
      </trkpt>
      <trkpt lat="44.62941" lon="-0.94874">
        <ele>11.19</ele>
        <time>2012-04-16T12:02:20Z</time>
      </trkpt>
      <trkpt lat="44.62939" lon="-0.94856">
        <ele>11.67</ele>
        <time>2012-04-16T12:02:23Z</time>
      </trkpt>
      <trkpt lat="44.62936" lon="-0.94838">
        <ele>12.15</ele>
        <time>2012-04-16T12:02:26Z</time>
      </trkpt>
      <trkpt lat="44.62935" lon="-0.94821">
        <ele>12.15</ele>
        <time>2012-04-16T12:02:29Z</time>
      </trkpt>
      <trkpt lat="44.62935" lon="-0.94803">
        <ele>11.19</ele>
        <time>2012-04-16T12:02:32Z</time>
      </trkpt>
      <trkpt lat="44.62935" lon="-0.94785">
        <ele>11.67</ele>
        <time>2012-04-16T12:02:35Z</time>
      </trkpt>
      <trkpt lat="44.62934" lon="-0.94767">
        <ele>12.15</ele>
        <time>2012-04-16T12:02:38Z</time>
      </trkpt>
      <trkpt lat="44.62934" lon="-0.9475">
        <ele>12.15</ele>
        <time>2012-04-16T12:02:41Z</time>
      </trkpt>
      <trkpt lat="44.62933" lon="-0.9473">
        <ele>12.15</ele>
        <time>2012-04-16T12:02:44Z</time>
      </trkpt>
      <trkpt lat="44.62933" lon="-0.94711">
        <ele>12.63</ele>
        <time>2012-04-16T12:02:47Z</time>
      </trkpt>
      <trkpt lat="44.62934" lon="-0.94698">
        <ele>12.15</ele>
        <time>2012-04-16T12:02:49Z</time>
      </trkpt>
      <trkpt lat="44.62935" lon="-0.94686">
        <ele>12.15</ele>
        <time>2012-04-16T12:02:51Z</time>
      </trkpt>
      <trkpt lat="44.62935" lon="-0.94667">
        <ele>12.15</ele>
        <time>2012-04-16T12:02:54Z</time>
      </trkpt>
      <trkpt lat="44.62933" lon="-0.94649">
        <ele>12.15</ele>
        <time>2012-04-16T12:02:57Z</time>
      </trkpt>
      <trkpt lat="44.6293" lon="-0.94633">
        <ele>12.15</ele>
        <time>2012-04-16T12:03:00Z</time>
      </trkpt>
      <trkpt lat="44.62926" lon="-0.94617">
        <ele>12.15</ele>
        <time>2012-04-16T12:03:03Z</time>
      </trkpt>
      <trkpt lat="44.62926" lon="-0.946">
        <ele>12.15</ele>
        <time>2012-04-16T12:03:06Z</time>
      </trkpt>
      <trkpt lat="44.62929" lon="-0.94583">
        <ele>12.63</ele>
        <time>2012-04-16T12:03:09Z</time>
      </trkpt>
      <trkpt lat="44.62933" lon="-0.94564">
        <ele>12.63</ele>
        <time>2012-04-16T12:03:12Z</time>
      </trkpt>
      <trkpt lat="44.62935" lon="-0.94552">
        <ele>12.63</ele>
        <time>2012-04-16T12:03:14Z</time>
      </trkpt>
      <trkpt lat="44.62937" lon="-0.94539">
        <ele>13.12</ele>
        <time>2012-04-16T12:03:16Z</time>
      </trkpt>
      <trkpt lat="44.6294" lon="-0.94526">
        <ele>12.15</ele>
        <time>2012-04-16T12:03:18Z</time>
      </trkpt>
      <trkpt lat="44.62942" lon="-0.94514">
        <ele>12.63</ele>
        <time>2012-04-16T12:03:20Z</time>
      </trkpt>
      <trkpt lat="44.62945" lon="-0.94502">
        <ele>12.63</ele>
        <time>2012-04-16T12:03:22Z</time>
      </trkpt>
      <trkpt lat="44.62948" lon="-0.94488">
        <ele>13.12</ele>
        <time>2012-04-16T12:03:24Z</time>
      </trkpt>
      <trkpt lat="44.6295" lon="-0.94475">
        <ele>13.12</ele>
        <time>2012-04-16T12:03:26Z</time>
      </trkpt>
      <trkpt lat="44.62954" lon="-0.94462">
        <ele>13.6</ele>
        <time>2012-04-16T12:03:28Z</time>
      </trkpt>
      <trkpt lat="44.62956" lon="-0.94449">
        <ele>13.6</ele>
        <time>2012-04-16T12:03:30Z</time>
      </trkpt>
      <trkpt lat="44.62959" lon="-0.94436">
        <ele>13.6</ele>
        <time>2012-04-16T12:03:32Z</time>
      </trkpt>
      <trkpt lat="44.62961" lon="-0.94423">
        <ele>13.6</ele>
        <time>2012-04-16T12:03:34Z</time>
      </trkpt>
      <trkpt lat="44.62964" lon="-0.9441">
        <ele>14.08</ele>
        <time>2012-04-16T12:03:36Z</time>
      </trkpt>
      <trkpt lat="44.62966" lon="-0.94396">
        <ele>13.6</ele>
        <time>2012-04-16T12:03:38Z</time>
      </trkpt>
      <trkpt lat="44.62969" lon="-0.94383">
        <ele>14.08</ele>
        <time>2012-04-16T12:03:40Z</time>
      </trkpt>
      <trkpt lat="44.62972" lon="-0.94369">
        <ele>14.08</ele>
        <time>2012-04-16T12:03:42Z</time>
      </trkpt>
      <trkpt lat="44.62975" lon="-0.94356">
        <ele>14.08</ele>
        <time>2012-04-16T12:03:44Z</time>
      </trkpt>
      <trkpt lat="44.62978" lon="-0.94342">
        <ele>14.56</ele>
        <time>2012-04-16T12:03:46Z</time>
      </trkpt>
      <trkpt lat="44.62983" lon="-0.94329">
        <ele>14.56</ele>
        <time>2012-04-16T12:03:48Z</time>
      </trkpt>
      <trkpt lat="44.6299" lon="-0.9432">
        <ele>14.56</ele>
        <time>2012-04-16T12:03:50Z</time>
      </trkpt>
      <trkpt lat="44.62999" lon="-0.94313">
        <ele>14.56</ele>
        <time>2012-04-16T12:03:52Z</time>
      </trkpt>
      <trkpt lat="44.63008" lon="-0.9431">
        <ele>14.56</ele>
        <time>2012-04-16T12:03:54Z</time>
      </trkpt>
      <trkpt lat="44.63019" lon="-0.94308">
        <ele>14.08</ele>
        <time>2012-04-16T12:03:56Z</time>
      </trkpt>
      <trkpt lat="44.6303" lon="-0.94306">
        <ele>13.6</ele>
        <time>2012-04-16T12:03:58Z</time>
      </trkpt>
      <trkpt lat="44.63041" lon="-0.94301">
        <ele>14.08</ele>
        <time>2012-04-16T12:04:00Z</time>
      </trkpt>
      <trkpt lat="44.6305" lon="-0.94294">
        <ele>13.6</ele>
        <time>2012-04-16T12:04:02Z</time>
      </trkpt>
      <trkpt lat="44.63059" lon="-0.94285">
        <ele>13.6</ele>
        <time>2012-04-16T12:04:04Z</time>
      </trkpt>
      <trkpt lat="44.63067" lon="-0.94277">
        <ele>14.08</ele>
        <time>2012-04-16T12:04:06Z</time>
      </trkpt>
      <trkpt lat="44.63076" lon="-0.9427">
        <ele>14.08</ele>
        <time>2012-04-16T12:04:08Z</time>
      </trkpt>
      <trkpt lat="44.63084" lon="-0.94265">
        <ele>14.56</ele>
        <time>2012-04-16T12:04:10Z</time>
      </trkpt>
      <trkpt lat="44.63094" lon="-0.94261">
        <ele>14.56</ele>
        <time>2012-04-16T12:04:12Z</time>
      </trkpt>
      <trkpt lat="44.63103" lon="-0.94257">
        <ele>14.56</ele>
        <time>2012-04-16T12:04:14Z</time>
      </trkpt>
      <trkpt lat="44.63112" lon="-0.94255">
        <ele>15.04</ele>
        <time>2012-04-16T12:04:16Z</time>
      </trkpt>
      <trkpt lat="44.63121" lon="-0.94254">
        <ele>15.04</ele>
        <time>2012-04-16T12:04:18Z</time>
      </trkpt>
      <trkpt lat="44.63131" lon="-0.94254">
        <ele>14.56</ele>
        <time>2012-04-16T12:04:20Z</time>
      </trkpt>
      <trkpt lat="44.63141" lon="-0.94256">
        <ele>14.56</ele>
        <time>2012-04-16T12:04:22Z</time>
      </trkpt>
      <trkpt lat="44.63151" lon="-0.94259">
        <ele>14.56</ele>
        <time>2012-04-16T12:04:24Z</time>
      </trkpt>
      <trkpt lat="44.6316" lon="-0.94263">
        <ele>14.56</ele>
        <time>2012-04-16T12:04:26Z</time>
      </trkpt>
      <trkpt lat="44.63169" lon="-0.94266">
        <ele>15.04</ele>
        <time>2012-04-16T12:04:28Z</time>
      </trkpt>
      <trkpt lat="44.63179" lon="-0.9427">
        <ele>15.04</ele>
        <time>2012-04-16T12:04:30Z</time>
      </trkpt>
      <trkpt lat="44.6319" lon="-0.94271">
        <ele>14.56</ele>
        <time>2012-04-16T12:04:32Z</time>
      </trkpt>
      <trkpt lat="44.632" lon="-0.94273">
        <ele>14.56</ele>
        <time>2012-04-16T12:04:34Z</time>
      </trkpt>
      <trkpt lat="44.6321" lon="-0.94275">
        <ele>14.56</ele>
        <time>2012-04-16T12:04:36Z</time>
      </trkpt>
      <trkpt lat="44.63219" lon="-0.94278">
        <ele>14.56</ele>
        <time>2012-04-16T12:04:38Z</time>
      </trkpt>
      <trkpt lat="44.63229" lon="-0.94281">
        <ele>14.08</ele>
        <time>2012-04-16T12:04:40Z</time>
      </trkpt>
      <trkpt lat="44.63239" lon="-0.94282">
        <ele>14.56</ele>
        <time>2012-04-16T12:04:42Z</time>
      </trkpt>
      <trkpt lat="44.63249" lon="-0.94284">
        <ele>14.08</ele>
        <time>2012-04-16T12:04:44Z</time>
      </trkpt>
      <trkpt lat="44.63259" lon="-0.94286">
        <ele>14.08</ele>
        <time>2012-04-16T12:04:46Z</time>
      </trkpt>
      <trkpt lat="44.63268" lon="-0.94288">
        <ele>14.56</ele>
        <time>2012-04-16T12:04:48Z</time>
      </trkpt>
      <trkpt lat="44.63277" lon="-0.9429">
        <ele>14.08</ele>
        <time>2012-04-16T12:04:50Z</time>
      </trkpt>
      <trkpt lat="44.63291" lon="-0.94291">
        <ele>14.08</ele>
        <time>2012-04-16T12:04:53Z</time>
      </trkpt>
      <trkpt lat="44.63304" lon="-0.94291">
        <ele>14.08</ele>
        <time>2012-04-16T12:04:56Z</time>
      </trkpt>
      <trkpt lat="44.63318" lon="-0.94289">
        <ele>14.56</ele>
        <time>2012-04-16T12:04:59Z</time>
      </trkpt>
      <trkpt lat="44.63327" lon="-0.94286">
        <ele>13.12</ele>
        <time>2012-04-16T12:05:01Z</time>
      </trkpt>
      <trkpt lat="44.63336" lon="-0.94285">
        <ele>13.6</ele>
        <time>2012-04-16T12:05:03Z</time>
      </trkpt>
      <trkpt lat="44.63345" lon="-0.94284">
        <ele>13.6</ele>
        <time>2012-04-16T12:05:05Z</time>
      </trkpt>
      <trkpt lat="44.63354" lon="-0.94283">
        <ele>13.12</ele>
        <time>2012-04-16T12:05:07Z</time>
      </trkpt>
      <trkpt lat="44.63363" lon="-0.94282">
        <ele>13.6</ele>
        <time>2012-04-16T12:05:09Z</time>
      </trkpt>
      <trkpt lat="44.63377" lon="-0.94281">
        <ele>13.6</ele>
        <time>2012-04-16T12:05:12Z</time>
      </trkpt>
      <trkpt lat="44.63386" lon="-0.9428">
        <ele>13.6</ele>
        <time>2012-04-16T12:05:14Z</time>
      </trkpt>
      <trkpt lat="44.63396" lon="-0.94279">
        <ele>12.63</ele>
        <time>2012-04-16T12:05:16Z</time>
      </trkpt>
      <trkpt lat="44.63405" lon="-0.94278">
        <ele>13.12</ele>
        <time>2012-04-16T12:05:18Z</time>
      </trkpt>
      <trkpt lat="44.63416" lon="-0.94278">
        <ele>12.63</ele>
        <time>2012-04-16T12:05:21Z</time>
      </trkpt>
      <trkpt lat="44.63428" lon="-0.94277">
        <ele>13.12</ele>
        <time>2012-04-16T12:05:24Z</time>
      </trkpt>
      <trkpt lat="44.63441" lon="-0.94275">
        <ele>14.08</ele>
        <time>2012-04-16T12:05:27Z</time>
      </trkpt>
      <trkpt lat="44.6345" lon="-0.94271">
        <ele>13.12</ele>
        <time>2012-04-16T12:05:29Z</time>
      </trkpt>
      <trkpt lat="44.63459" lon="-0.94267">
        <ele>12.63</ele>
        <time>2012-04-16T12:05:31Z</time>
      </trkpt>
      <trkpt lat="44.63467" lon="-0.94262">
        <ele>12.63</ele>
        <time>2012-04-16T12:05:33Z</time>
      </trkpt>
      <trkpt lat="44.6348" lon="-0.94262">
        <ele>12.63</ele>
        <time>2012-04-16T12:05:36Z</time>
      </trkpt>
      <trkpt lat="44.6349" lon="-0.94264">
        <ele>13.12</ele>
        <time>2012-04-16T12:05:39Z</time>
      </trkpt>
      <trkpt lat="44.63504" lon="-0.94266">
        <ele>13.12</ele>
        <time>2012-04-16T12:05:43Z</time>
      </trkpt>
      <trkpt lat="44.63516" lon="-0.94268">
        <ele>13.12</ele>
        <time>2012-04-16T12:05:46Z</time>
      </trkpt>
      <trkpt lat="44.63528" lon="-0.94268">
        <ele>12.63</ele>
        <time>2012-04-16T12:05:49Z</time>
      </trkpt>
      <trkpt lat="44.6354" lon="-0.94269">
        <ele>13.12</ele>
        <time>2012-04-16T12:05:52Z</time>
      </trkpt>
      <trkpt lat="44.63552" lon="-0.9427">
        <ele>13.12</ele>
        <time>2012-04-16T12:05:55Z</time>
      </trkpt>
      <trkpt lat="44.63565" lon="-0.94271">
        <ele>12.63</ele>
        <time>2012-04-16T12:05:58Z</time>
      </trkpt>
      <trkpt lat="44.63579" lon="-0.94269">
        <ele>12.63</ele>
        <time>2012-04-16T12:06:01Z</time>
      </trkpt>
      <trkpt lat="44.63593" lon="-0.94269">
        <ele>12.63</ele>
        <time>2012-04-16T12:06:04Z</time>
      </trkpt>
      <trkpt lat="44.63606" lon="-0.9427">
        <ele>12.15</ele>
        <time>2012-04-16T12:06:07Z</time>
      </trkpt>
      <trkpt lat="44.63619" lon="-0.9427">
        <ele>12.15</ele>
        <time>2012-04-16T12:06:10Z</time>
      </trkpt>
      <trkpt lat="44.63633" lon="-0.9427">
        <ele>12.15</ele>
        <time>2012-04-16T12:06:13Z</time>
      </trkpt>
      <trkpt lat="44.63646" lon="-0.94269">
        <ele>12.63</ele>
        <time>2012-04-16T12:06:16Z</time>
      </trkpt>
      <trkpt lat="44.63659" lon="-0.94269">
        <ele>12.63</ele>
        <time>2012-04-16T12:06:19Z</time>
      </trkpt>
      <trkpt lat="44.63673" lon="-0.94269">
        <ele>12.15</ele>
        <time>2012-04-16T12:06:22Z</time>
      </trkpt>
      <trkpt lat="44.63686" lon="-0.94269">
        <ele>12.15</ele>
        <time>2012-04-16T12:06:25Z</time>
      </trkpt>
      <trkpt lat="44.63698" lon="-0.94268">
        <ele>12.63</ele>
        <time>2012-04-16T12:06:28Z</time>
      </trkpt>
      <trkpt lat="44.63709" lon="-0.94267">
        <ele>13.12</ele>
        <time>2012-04-16T12:06:31Z</time>
      </trkpt>
      <trkpt lat="44.63719" lon="-0.94266">
        <ele>13.12</ele>
        <time>2012-04-16T12:06:34Z</time>
      </trkpt>
      <trkpt lat="44.6373" lon="-0.94266">
        <ele>12.63</ele>
        <time>2012-04-16T12:06:37Z</time>
      </trkpt>
      <trkpt lat="44.63742" lon="-0.94269">
        <ele>12.63</ele>
        <time>2012-04-16T12:06:40Z</time>
      </trkpt>
      <trkpt lat="44.63756" lon="-0.94272">
        <ele>12.63</ele>
        <time>2012-04-16T12:06:43Z</time>
      </trkpt>
      <trkpt lat="44.63769" lon="-0.94272">
        <ele>12.63</ele>
        <time>2012-04-16T12:06:46Z</time>
      </trkpt>
      <trkpt lat="44.63781" lon="-0.94268">
        <ele>12.63</ele>
        <time>2012-04-16T12:06:49Z</time>
      </trkpt>
      <trkpt lat="44.6379" lon="-0.94261">
        <ele>12.63</ele>
        <time>2012-04-16T12:06:52Z</time>
      </trkpt>
      <trkpt lat="44.63796" lon="-0.94254">
        <ele>12.63</ele>
        <time>2012-04-16T12:06:56Z</time>
      </trkpt>
      <trkpt lat="44.63792" lon="-0.94246">
        <ele>12.63</ele>
        <time>2012-04-16T12:07:00Z</time>
      </trkpt>
      <trkpt lat="44.6378" lon="-0.94223">
        <ele>13.12</ele>
        <time>2012-04-16T12:07:05Z</time>
      </trkpt>
      <trkpt lat="44.63773" lon="-0.94207">
        <ele>13.12</ele>
        <time>2012-04-16T12:07:08Z</time>
      </trkpt>
      <trkpt lat="44.6376" lon="-0.94192">
        <ele>13.12</ele>
        <time>2012-04-16T12:07:11Z</time>
      </trkpt>
      <trkpt lat="44.63752" lon="-0.94177">
        <ele>12.63</ele>
        <time>2012-04-16T12:07:13Z</time>
      </trkpt>
      <trkpt lat="44.63747" lon="-0.94162">
        <ele>13.12</ele>
        <time>2012-04-16T12:07:15Z</time>
      </trkpt>
      <trkpt lat="44.63744" lon="-0.94147">
        <ele>12.63</ele>
        <time>2012-04-16T12:07:17Z</time>
      </trkpt>
      <trkpt lat="44.63742" lon="-0.94132">
        <ele>13.12</ele>
        <time>2012-04-16T12:07:19Z</time>
      </trkpt>
      <trkpt lat="44.63742" lon="-0.94118">
        <ele>12.63</ele>
        <time>2012-04-16T12:07:21Z</time>
      </trkpt>
      <trkpt lat="44.63742" lon="-0.94104">
        <ele>12.63</ele>
        <time>2012-04-16T12:07:23Z</time>
      </trkpt>
      <trkpt lat="44.63743" lon="-0.94091">
        <ele>13.12</ele>
        <time>2012-04-16T12:07:25Z</time>
      </trkpt>
      <trkpt lat="44.63746" lon="-0.94078">
        <ele>13.12</ele>
        <time>2012-04-16T12:07:27Z</time>
      </trkpt>
      <trkpt lat="44.63747" lon="-0.94064">
        <ele>13.12</ele>
        <time>2012-04-16T12:07:29Z</time>
      </trkpt>
      <trkpt lat="44.63746" lon="-0.94051">
        <ele>13.12</ele>
        <time>2012-04-16T12:07:31Z</time>
      </trkpt>
      <trkpt lat="44.63744" lon="-0.94038">
        <ele>13.6</ele>
        <time>2012-04-16T12:07:33Z</time>
      </trkpt>
      <trkpt lat="44.63742" lon="-0.94025">
        <ele>13.12</ele>
        <time>2012-04-16T12:07:35Z</time>
      </trkpt>
      <trkpt lat="44.6374" lon="-0.94012">
        <ele>13.12</ele>
        <time>2012-04-16T12:07:37Z</time>
      </trkpt>
      <trkpt lat="44.63738" lon="-0.93999">
        <ele>13.12</ele>
        <time>2012-04-16T12:07:39Z</time>
      </trkpt>
      <trkpt lat="44.63736" lon="-0.93985">
        <ele>12.63</ele>
        <time>2012-04-16T12:07:41Z</time>
      </trkpt>
      <trkpt lat="44.63734" lon="-0.93972">
        <ele>12.63</ele>
        <time>2012-04-16T12:07:43Z</time>
      </trkpt>
      <trkpt lat="44.63733" lon="-0.93957">
        <ele>12.63</ele>
        <time>2012-04-16T12:07:45Z</time>
      </trkpt>
      <trkpt lat="44.63731" lon="-0.93942">
        <ele>12.63</ele>
        <time>2012-04-16T12:07:47Z</time>
      </trkpt>
      <trkpt lat="44.6373" lon="-0.93928">
        <ele>13.6</ele>
        <time>2012-04-16T12:07:49Z</time>
      </trkpt>
      <trkpt lat="44.6373" lon="-0.93914">
        <ele>12.63</ele>
        <time>2012-04-16T12:07:51Z</time>
      </trkpt>
      <trkpt lat="44.63728" lon="-0.939">
        <ele>12.63</ele>
        <time>2012-04-16T12:07:53Z</time>
      </trkpt>
      <trkpt lat="44.63726" lon="-0.93886">
        <ele>12.63</ele>
        <time>2012-04-16T12:07:55Z</time>
      </trkpt>
      <trkpt lat="44.63724" lon="-0.93872">
        <ele>13.12</ele>
        <time>2012-04-16T12:07:57Z</time>
      </trkpt>
      <trkpt lat="44.63724" lon="-0.93859">
        <ele>12.63</ele>
        <time>2012-04-16T12:07:59Z</time>
      </trkpt>
      <trkpt lat="44.63723" lon="-0.93846">
        <ele>12.63</ele>
        <time>2012-04-16T12:08:01Z</time>
      </trkpt>
      <trkpt lat="44.63722" lon="-0.93833">
        <ele>12.63</ele>
        <time>2012-04-16T12:08:03Z</time>
      </trkpt>
      <trkpt lat="44.6372" lon="-0.9382">
        <ele>12.63</ele>
        <time>2012-04-16T12:08:05Z</time>
      </trkpt>
      <trkpt lat="44.63717" lon="-0.93802">
        <ele>12.63</ele>
        <time>2012-04-16T12:08:08Z</time>
      </trkpt>
      <trkpt lat="44.63715" lon="-0.9379">
        <ele>13.12</ele>
        <time>2012-04-16T12:08:10Z</time>
      </trkpt>
      <trkpt lat="44.63715" lon="-0.93771">
        <ele>13.12</ele>
        <time>2012-04-16T12:08:13Z</time>
      </trkpt>
      <trkpt lat="44.63715" lon="-0.93759">
        <ele>13.12</ele>
        <time>2012-04-16T12:08:15Z</time>
      </trkpt>
      <trkpt lat="44.63714" lon="-0.93739">
        <ele>13.12</ele>
        <time>2012-04-16T12:08:18Z</time>
      </trkpt>
      <trkpt lat="44.63714" lon="-0.93726">
        <ele>13.12</ele>
        <time>2012-04-16T12:08:20Z</time>
      </trkpt>
      <trkpt lat="44.63713" lon="-0.93712">
        <ele>13.6</ele>
        <time>2012-04-16T12:08:22Z</time>
      </trkpt>
      <trkpt lat="44.63712" lon="-0.93699">
        <ele>13.6</ele>
        <time>2012-04-16T12:08:24Z</time>
      </trkpt>
      <trkpt lat="44.63713" lon="-0.93686">
        <ele>13.12</ele>
        <time>2012-04-16T12:08:26Z</time>
      </trkpt>
      <trkpt lat="44.63714" lon="-0.93673">
        <ele>13.12</ele>
        <time>2012-04-16T12:08:28Z</time>
      </trkpt>
      <trkpt lat="44.63714" lon="-0.93654">
        <ele>13.12</ele>
        <time>2012-04-16T12:08:31Z</time>
      </trkpt>
      <trkpt lat="44.63714" lon="-0.93636">
        <ele>13.6</ele>
        <time>2012-04-16T12:08:34Z</time>
      </trkpt>
      <trkpt lat="44.63714" lon="-0.93618">
        <ele>14.08</ele>
        <time>2012-04-16T12:08:37Z</time>
      </trkpt>
      <trkpt lat="44.63715" lon="-0.93599">
        <ele>14.08</ele>
        <time>2012-04-16T12:08:40Z</time>
      </trkpt>
      <trkpt lat="44.63715" lon="-0.93581">
        <ele>15.04</ele>
        <time>2012-04-16T12:08:43Z</time>
      </trkpt>
      <trkpt lat="44.63715" lon="-0.93562">
        <ele>15.04</ele>
        <time>2012-04-16T12:08:46Z</time>
      </trkpt>
      <trkpt lat="44.63715" lon="-0.93544">
        <ele>14.56</ele>
        <time>2012-04-16T12:08:49Z</time>
      </trkpt>
      <trkpt lat="44.63715" lon="-0.93526">
        <ele>15.04</ele>
        <time>2012-04-16T12:08:52Z</time>
      </trkpt>
      <trkpt lat="44.63714" lon="-0.93508">
        <ele>15.52</ele>
        <time>2012-04-16T12:08:55Z</time>
      </trkpt>
      <trkpt lat="44.63713" lon="-0.93491">
        <ele>16</ele>
        <time>2012-04-16T12:08:58Z</time>
      </trkpt>
      <trkpt lat="44.63713" lon="-0.93474">
        <ele>16</ele>
        <time>2012-04-16T12:09:01Z</time>
      </trkpt>
      <trkpt lat="44.63714" lon="-0.93457">
        <ele>16</ele>
        <time>2012-04-16T12:09:04Z</time>
      </trkpt>
      <trkpt lat="44.63713" lon="-0.9344">
        <ele>16.48</ele>
        <time>2012-04-16T12:09:07Z</time>
      </trkpt>
      <trkpt lat="44.63714" lon="-0.93424">
        <ele>16.48</ele>
        <time>2012-04-16T12:09:10Z</time>
      </trkpt>
      <trkpt lat="44.63714" lon="-0.93407">
        <ele>16.96</ele>
        <time>2012-04-16T12:09:13Z</time>
      </trkpt>
      <trkpt lat="44.63715" lon="-0.93389">
        <ele>16.96</ele>
        <time>2012-04-16T12:09:16Z</time>
      </trkpt>
      <trkpt lat="44.63717" lon="-0.93376">
        <ele>16.96</ele>
        <time>2012-04-16T12:09:18Z</time>
      </trkpt>
      <trkpt lat="44.63718" lon="-0.93363">
        <ele>16.48</ele>
        <time>2012-04-16T12:09:20Z</time>
      </trkpt>
      <trkpt lat="44.6372" lon="-0.9335">
        <ele>16.48</ele>
        <time>2012-04-16T12:09:22Z</time>
      </trkpt>
      <trkpt lat="44.63722" lon="-0.93336">
        <ele>16.48</ele>
        <time>2012-04-16T12:09:24Z</time>
      </trkpt>
      <trkpt lat="44.63724" lon="-0.93323">
        <ele>15.52</ele>
        <time>2012-04-16T12:09:26Z</time>
      </trkpt>
      <trkpt lat="44.63726" lon="-0.9331">
        <ele>16</ele>
        <time>2012-04-16T12:09:28Z</time>
      </trkpt>
      <trkpt lat="44.63728" lon="-0.93291">
        <ele>16</ele>
        <time>2012-04-16T12:09:31Z</time>
      </trkpt>
      <trkpt lat="44.63731" lon="-0.93273">
        <ele>16</ele>
        <time>2012-04-16T12:09:34Z</time>
      </trkpt>
      <trkpt lat="44.63733" lon="-0.9326">
        <ele>16.48</ele>
        <time>2012-04-16T12:09:36Z</time>
      </trkpt>
      <trkpt lat="44.63735" lon="-0.93247">
        <ele>16.48</ele>
        <time>2012-04-16T12:09:38Z</time>
      </trkpt>
      <trkpt lat="44.63737" lon="-0.93234">
        <ele>16.48</ele>
        <time>2012-04-16T12:09:40Z</time>
      </trkpt>
      <trkpt lat="44.63738" lon="-0.9322">
        <ele>16.48</ele>
        <time>2012-04-16T12:09:42Z</time>
      </trkpt>
      <trkpt lat="44.6374" lon="-0.93207">
        <ele>16</ele>
        <time>2012-04-16T12:09:44Z</time>
      </trkpt>
      <trkpt lat="44.63742" lon="-0.93194">
        <ele>16</ele>
        <time>2012-04-16T12:09:46Z</time>
      </trkpt>
      <trkpt lat="44.63744" lon="-0.93182">
        <ele>16</ele>
        <time>2012-04-16T12:09:48Z</time>
      </trkpt>
      <trkpt lat="44.63746" lon="-0.93163">
        <ele>16.48</ele>
        <time>2012-04-16T12:09:51Z</time>
      </trkpt>
      <trkpt lat="44.63748" lon="-0.93151">
        <ele>16.48</ele>
        <time>2012-04-16T12:09:53Z</time>
      </trkpt>
      <trkpt lat="44.6375" lon="-0.93138">
        <ele>16.48</ele>
        <time>2012-04-16T12:09:55Z</time>
      </trkpt>
      <trkpt lat="44.63752" lon="-0.93126">
        <ele>16.48</ele>
        <time>2012-04-16T12:09:57Z</time>
      </trkpt>
      <trkpt lat="44.63756" lon="-0.93108">
        <ele>16.96</ele>
        <time>2012-04-16T12:10:00Z</time>
      </trkpt>
      <trkpt lat="44.63759" lon="-0.93091">
        <ele>16.48</ele>
        <time>2012-04-16T12:10:03Z</time>
      </trkpt>
      <trkpt lat="44.6376" lon="-0.93073">
        <ele>16.48</ele>
        <time>2012-04-16T12:10:06Z</time>
      </trkpt>
      <trkpt lat="44.63762" lon="-0.93056">
        <ele>16.48</ele>
        <time>2012-04-16T12:10:09Z</time>
      </trkpt>
      <trkpt lat="44.63764" lon="-0.93043">
        <ele>16.48</ele>
        <time>2012-04-16T12:10:11Z</time>
      </trkpt>
      <trkpt lat="44.63767" lon="-0.93029">
        <ele>16.48</ele>
        <time>2012-04-16T12:10:13Z</time>
      </trkpt>
      <trkpt lat="44.63769" lon="-0.93016">
        <ele>16.48</ele>
        <time>2012-04-16T12:10:15Z</time>
      </trkpt>
      <trkpt lat="44.6377" lon="-0.93003">
        <ele>16.48</ele>
        <time>2012-04-16T12:10:17Z</time>
      </trkpt>
      <trkpt lat="44.63771" lon="-0.92984">
        <ele>16.96</ele>
        <time>2012-04-16T12:10:20Z</time>
      </trkpt>
      <trkpt lat="44.63773" lon="-0.92966">
        <ele>17.44</ele>
        <time>2012-04-16T12:10:23Z</time>
      </trkpt>
      <trkpt lat="44.63774" lon="-0.92947">
        <ele>17.44</ele>
        <time>2012-04-16T12:10:26Z</time>
      </trkpt>
      <trkpt lat="44.63775" lon="-0.92934">
        <ele>16.96</ele>
        <time>2012-04-16T12:10:28Z</time>
      </trkpt>
      <trkpt lat="44.63777" lon="-0.92915">
        <ele>16.96</ele>
        <time>2012-04-16T12:10:31Z</time>
      </trkpt>
      <trkpt lat="44.63779" lon="-0.92903">
        <ele>16.96</ele>
        <time>2012-04-16T12:10:33Z</time>
      </trkpt>
      <trkpt lat="44.63781" lon="-0.9289">
        <ele>17.44</ele>
        <time>2012-04-16T12:10:35Z</time>
      </trkpt>
      <trkpt lat="44.63782" lon="-0.92877">
        <ele>16.96</ele>
        <time>2012-04-16T12:10:37Z</time>
      </trkpt>
      <trkpt lat="44.63783" lon="-0.92864">
        <ele>16.96</ele>
        <time>2012-04-16T12:10:39Z</time>
      </trkpt>
      <trkpt lat="44.63784" lon="-0.92845">
        <ele>17.44</ele>
        <time>2012-04-16T12:10:42Z</time>
      </trkpt>
      <trkpt lat="44.63787" lon="-0.92827">
        <ele>16.96</ele>
        <time>2012-04-16T12:10:45Z</time>
      </trkpt>
      <trkpt lat="44.63788" lon="-0.92814">
        <ele>16.48</ele>
        <time>2012-04-16T12:10:47Z</time>
      </trkpt>
      <trkpt lat="44.63789" lon="-0.92801">
        <ele>16.96</ele>
        <time>2012-04-16T12:10:49Z</time>
      </trkpt>
      <trkpt lat="44.6379" lon="-0.92788">
        <ele>17.44</ele>
        <time>2012-04-16T12:10:51Z</time>
      </trkpt>
      <trkpt lat="44.63791" lon="-0.92775">
        <ele>16.96</ele>
        <time>2012-04-16T12:10:53Z</time>
      </trkpt>
      <trkpt lat="44.63792" lon="-0.92762">
        <ele>16.96</ele>
        <time>2012-04-16T12:10:55Z</time>
      </trkpt>
      <trkpt lat="44.63794" lon="-0.92749">
        <ele>17.44</ele>
        <time>2012-04-16T12:10:57Z</time>
      </trkpt>
      <trkpt lat="44.63795" lon="-0.92736">
        <ele>17.44</ele>
        <time>2012-04-16T12:10:59Z</time>
      </trkpt>
      <trkpt lat="44.63796" lon="-0.92723">
        <ele>17.44</ele>
        <time>2012-04-16T12:11:01Z</time>
      </trkpt>
      <trkpt lat="44.63798" lon="-0.9271">
        <ele>17.92</ele>
        <time>2012-04-16T12:11:03Z</time>
      </trkpt>
      <trkpt lat="44.638" lon="-0.92697">
        <ele>17.44</ele>
        <time>2012-04-16T12:11:05Z</time>
      </trkpt>
      <trkpt lat="44.63802" lon="-0.92684">
        <ele>17.92</ele>
        <time>2012-04-16T12:11:07Z</time>
      </trkpt>
      <trkpt lat="44.63807" lon="-0.92672">
        <ele>17.92</ele>
        <time>2012-04-16T12:11:09Z</time>
      </trkpt>
      <trkpt lat="44.63812" lon="-0.92661">
        <ele>17.92</ele>
        <time>2012-04-16T12:11:11Z</time>
      </trkpt>
      <trkpt lat="44.63818" lon="-0.9265">
        <ele>17.92</ele>
        <time>2012-04-16T12:11:13Z</time>
      </trkpt>
      <trkpt lat="44.63824" lon="-0.92639">
        <ele>17.92</ele>
        <time>2012-04-16T12:11:15Z</time>
      </trkpt>
      <trkpt lat="44.6383" lon="-0.92629">
        <ele>17.92</ele>
        <time>2012-04-16T12:11:17Z</time>
      </trkpt>
      <trkpt lat="44.63835" lon="-0.92619">
        <ele>18.4</ele>
        <time>2012-04-16T12:11:19Z</time>
      </trkpt>
      <trkpt lat="44.63841" lon="-0.92609">
        <ele>17.92</ele>
        <time>2012-04-16T12:11:21Z</time>
      </trkpt>
      <trkpt lat="44.63847" lon="-0.92599">
        <ele>17.92</ele>
        <time>2012-04-16T12:11:23Z</time>
      </trkpt>
      <trkpt lat="44.63853" lon="-0.92589">
        <ele>17.92</ele>
        <time>2012-04-16T12:11:25Z</time>
      </trkpt>
      <trkpt lat="44.63858" lon="-0.92578">
        <ele>17.92</ele>
        <time>2012-04-16T12:11:27Z</time>
      </trkpt>
      <trkpt lat="44.63865" lon="-0.92568">
        <ele>18.4</ele>
        <time>2012-04-16T12:11:29Z</time>
      </trkpt>
      <trkpt lat="44.6387" lon="-0.92559">
        <ele>17.92</ele>
        <time>2012-04-16T12:11:31Z</time>
      </trkpt>
      <trkpt lat="44.63876" lon="-0.92548">
        <ele>18.4</ele>
        <time>2012-04-16T12:11:33Z</time>
      </trkpt>
      <trkpt lat="44.63883" lon="-0.92538">
        <ele>17.92</ele>
        <time>2012-04-16T12:11:35Z</time>
      </trkpt>
      <trkpt lat="44.63889" lon="-0.92527">
        <ele>18.4</ele>
        <time>2012-04-16T12:11:37Z</time>
      </trkpt>
      <trkpt lat="44.63896" lon="-0.92516">
        <ele>17.92</ele>
        <time>2012-04-16T12:11:39Z</time>
      </trkpt>
      <trkpt lat="44.63902" lon="-0.92506">
        <ele>18.4</ele>
        <time>2012-04-16T12:11:41Z</time>
      </trkpt>
      <trkpt lat="44.63909" lon="-0.92496">
        <ele>17.92</ele>
        <time>2012-04-16T12:11:43Z</time>
      </trkpt>
      <trkpt lat="44.63915" lon="-0.92486">
        <ele>18.4</ele>
        <time>2012-04-16T12:11:45Z</time>
      </trkpt>
      <trkpt lat="44.63921" lon="-0.92476">
        <ele>18.4</ele>
        <time>2012-04-16T12:11:47Z</time>
      </trkpt>
      <trkpt lat="44.63928" lon="-0.92465">
        <ele>18.4</ele>
        <time>2012-04-16T12:11:49Z</time>
      </trkpt>
      <trkpt lat="44.63934" lon="-0.92455">
        <ele>17.92</ele>
        <time>2012-04-16T12:11:51Z</time>
      </trkpt>
      <trkpt lat="44.63936" lon="-0.92443">
        <ele>18.4</ele>
        <time>2012-04-16T12:11:53Z</time>
      </trkpt>
      <trkpt lat="44.63926" lon="-0.92429">
        <ele>18.4</ele>
        <time>2012-04-16T12:11:56Z</time>
      </trkpt>
      <trkpt lat="44.63921" lon="-0.92417">
        <ele>18.4</ele>
        <time>2012-04-16T12:11:58Z</time>
      </trkpt>
      <trkpt lat="44.63918" lon="-0.92404">
        <ele>18.4</ele>
        <time>2012-04-16T12:12:00Z</time>
      </trkpt>
      <trkpt lat="44.63914" lon="-0.92391">
        <ele>19.36</ele>
        <time>2012-04-16T12:12:02Z</time>
      </trkpt>
      <trkpt lat="44.63912" lon="-0.92378">
        <ele>19.36</ele>
        <time>2012-04-16T12:12:04Z</time>
      </trkpt>
      <trkpt lat="44.63909" lon="-0.92365">
        <ele>19.36</ele>
        <time>2012-04-16T12:12:06Z</time>
      </trkpt>
      <trkpt lat="44.63907" lon="-0.92352">
        <ele>19.84</ele>
        <time>2012-04-16T12:12:08Z</time>
      </trkpt>
      <trkpt lat="44.63905" lon="-0.92339">
        <ele>18.88</ele>
        <time>2012-04-16T12:12:10Z</time>
      </trkpt>
      <trkpt lat="44.63902" lon="-0.92327">
        <ele>19.36</ele>
        <time>2012-04-16T12:12:12Z</time>
      </trkpt>
      <trkpt lat="44.639" lon="-0.92314">
        <ele>19.84</ele>
        <time>2012-04-16T12:12:14Z</time>
      </trkpt>
      <trkpt lat="44.63897" lon="-0.92299">
        <ele>19.84</ele>
        <time>2012-04-16T12:12:17Z</time>
      </trkpt>
      <trkpt lat="44.63893" lon="-0.92285">
        <ele>19.36</ele>
        <time>2012-04-16T12:12:20Z</time>
      </trkpt>
      <trkpt lat="44.63887" lon="-0.92276">
        <ele>19.36</ele>
        <time>2012-04-16T12:12:23Z</time>
      </trkpt>
      <trkpt lat="44.63877" lon="-0.92272">
        <ele>19.36</ele>
        <time>2012-04-16T12:12:27Z</time>
      </trkpt>
      <trkpt lat="44.63868" lon="-0.92267">
        <ele>18.88</ele>
        <time>2012-04-16T12:12:30Z</time>
      </trkpt>
      <trkpt lat="44.63858" lon="-0.92266">
        <ele>18.88</ele>
        <time>2012-04-16T12:12:33Z</time>
      </trkpt>
      <trkpt lat="44.63846" lon="-0.9227">
        <ele>19.36</ele>
        <time>2012-04-16T12:12:36Z</time>
      </trkpt>
      <trkpt lat="44.63837" lon="-0.92273">
        <ele>18.88</ele>
        <time>2012-04-16T12:12:38Z</time>
      </trkpt>
      <trkpt lat="44.63828" lon="-0.92276">
        <ele>19.36</ele>
        <time>2012-04-16T12:12:40Z</time>
      </trkpt>
      <trkpt lat="44.63818" lon="-0.9228">
        <ele>19.36</ele>
        <time>2012-04-16T12:12:42Z</time>
      </trkpt>
      <trkpt lat="44.63808" lon="-0.92283">
        <ele>18.88</ele>
        <time>2012-04-16T12:12:44Z</time>
      </trkpt>
      <trkpt lat="44.63797" lon="-0.92288">
        <ele>18.88</ele>
        <time>2012-04-16T12:12:46Z</time>
      </trkpt>
      <trkpt lat="44.63786" lon="-0.92291">
        <ele>19.84</ele>
        <time>2012-04-16T12:12:48Z</time>
      </trkpt>
      <trkpt lat="44.63775" lon="-0.92294">
        <ele>19.36</ele>
        <time>2012-04-16T12:12:50Z</time>
      </trkpt>
      <trkpt lat="44.63763" lon="-0.92298">
        <ele>19.36</ele>
        <time>2012-04-16T12:12:52Z</time>
      </trkpt>
      <trkpt lat="44.63752" lon="-0.92302">
        <ele>19.36</ele>
        <time>2012-04-16T12:12:54Z</time>
      </trkpt>
      <trkpt lat="44.63742" lon="-0.92306">
        <ele>19.84</ele>
        <time>2012-04-16T12:12:56Z</time>
      </trkpt>
      <trkpt lat="44.63731" lon="-0.9231">
        <ele>19.36</ele>
        <time>2012-04-16T12:12:58Z</time>
      </trkpt>
      <trkpt lat="44.63721" lon="-0.92313">
        <ele>19.36</ele>
        <time>2012-04-16T12:13:00Z</time>
      </trkpt>
      <trkpt lat="44.63712" lon="-0.92316">
        <ele>19.36</ele>
        <time>2012-04-16T12:13:02Z</time>
      </trkpt>
      <trkpt lat="44.63699" lon="-0.92319">
        <ele>19.36</ele>
        <time>2012-04-16T12:13:05Z</time>
      </trkpt>
      <trkpt lat="44.63691" lon="-0.92308">
        <ele>19.84</ele>
        <time>2012-04-16T12:13:08Z</time>
      </trkpt>
      <trkpt lat="44.63693" lon="-0.92291">
        <ele>20.32</ele>
        <time>2012-04-16T12:13:11Z</time>
      </trkpt>
      <trkpt lat="44.63698" lon="-0.92274">
        <ele>19.84</ele>
        <time>2012-04-16T12:13:14Z</time>
      </trkpt>
      <trkpt lat="44.637" lon="-0.9226">
        <ele>19.84</ele>
        <time>2012-04-16T12:13:16Z</time>
      </trkpt>
      <trkpt lat="44.63702" lon="-0.92247">
        <ele>19.84</ele>
        <time>2012-04-16T12:13:18Z</time>
      </trkpt>
      <trkpt lat="44.63704" lon="-0.92234">
        <ele>19.84</ele>
        <time>2012-04-16T12:13:20Z</time>
      </trkpt>
      <trkpt lat="44.63707" lon="-0.9222">
        <ele>19.84</ele>
        <time>2012-04-16T12:13:22Z</time>
      </trkpt>
      <trkpt lat="44.63708" lon="-0.92208">
        <ele>20.32</ele>
        <time>2012-04-16T12:13:24Z</time>
      </trkpt>
      <trkpt lat="44.6371" lon="-0.92196">
        <ele>19.84</ele>
        <time>2012-04-16T12:13:26Z</time>
      </trkpt>
      <trkpt lat="44.63713" lon="-0.92183">
        <ele>20.32</ele>
        <time>2012-04-16T12:13:28Z</time>
      </trkpt>
      <trkpt lat="44.63716" lon="-0.92171">
        <ele>20.81</ele>
        <time>2012-04-16T12:13:30Z</time>
      </trkpt>
      <trkpt lat="44.63718" lon="-0.92157">
        <ele>21.29</ele>
        <time>2012-04-16T12:13:32Z</time>
      </trkpt>
      <trkpt lat="44.63721" lon="-0.92145">
        <ele>20.81</ele>
        <time>2012-04-16T12:13:34Z</time>
      </trkpt>
      <trkpt lat="44.63723" lon="-0.92132">
        <ele>21.29</ele>
        <time>2012-04-16T12:13:36Z</time>
      </trkpt>
      <trkpt lat="44.63726" lon="-0.92119">
        <ele>20.32</ele>
        <time>2012-04-16T12:13:38Z</time>
      </trkpt>
      <trkpt lat="44.63728" lon="-0.92105">
        <ele>21.29</ele>
        <time>2012-04-16T12:13:40Z</time>
      </trkpt>
      <trkpt lat="44.63731" lon="-0.92092">
        <ele>20.32</ele>
        <time>2012-04-16T12:13:42Z</time>
      </trkpt>
      <trkpt lat="44.63734" lon="-0.92078">
        <ele>20.32</ele>
        <time>2012-04-16T12:13:44Z</time>
      </trkpt>
      <trkpt lat="44.63736" lon="-0.92064">
        <ele>20.32</ele>
        <time>2012-04-16T12:13:46Z</time>
      </trkpt>
      <trkpt lat="44.63738" lon="-0.9205">
        <ele>20.81</ele>
        <time>2012-04-16T12:13:48Z</time>
      </trkpt>
      <trkpt lat="44.6374" lon="-0.92037">
        <ele>21.29</ele>
        <time>2012-04-16T12:13:50Z</time>
      </trkpt>
      <trkpt lat="44.63743" lon="-0.92022">
        <ele>21.29</ele>
        <time>2012-04-16T12:13:52Z</time>
      </trkpt>
      <trkpt lat="44.63746" lon="-0.92008">
        <ele>21.29</ele>
        <time>2012-04-16T12:13:54Z</time>
      </trkpt>
      <trkpt lat="44.63748" lon="-0.91994">
        <ele>21.29</ele>
        <time>2012-04-16T12:13:56Z</time>
      </trkpt>
      <trkpt lat="44.63751" lon="-0.9198">
        <ele>21.29</ele>
        <time>2012-04-16T12:13:58Z</time>
      </trkpt>
      <trkpt lat="44.63753" lon="-0.91966">
        <ele>21.77</ele>
        <time>2012-04-16T12:14:00Z</time>
      </trkpt>
      <trkpt lat="44.63756" lon="-0.91952">
        <ele>21.77</ele>
        <time>2012-04-16T12:14:02Z</time>
      </trkpt>
      <trkpt lat="44.63759" lon="-0.91939">
        <ele>21.29</ele>
        <time>2012-04-16T12:14:04Z</time>
      </trkpt>
      <trkpt lat="44.63761" lon="-0.91926">
        <ele>21.77</ele>
        <time>2012-04-16T12:14:06Z</time>
      </trkpt>
      <trkpt lat="44.63763" lon="-0.91913">
        <ele>20.81</ele>
        <time>2012-04-16T12:14:08Z</time>
      </trkpt>
      <trkpt lat="44.63766" lon="-0.919">
        <ele>21.77</ele>
        <time>2012-04-16T12:14:10Z</time>
      </trkpt>
      <trkpt lat="44.63768" lon="-0.91886">
        <ele>21.77</ele>
        <time>2012-04-16T12:14:12Z</time>
      </trkpt>
      <trkpt lat="44.63771" lon="-0.91872">
        <ele>22.25</ele>
        <time>2012-04-16T12:14:14Z</time>
      </trkpt>
      <trkpt lat="44.63773" lon="-0.91859">
        <ele>21.29</ele>
        <time>2012-04-16T12:14:16Z</time>
      </trkpt>
      <trkpt lat="44.63776" lon="-0.91846">
        <ele>21.29</ele>
        <time>2012-04-16T12:14:18Z</time>
      </trkpt>
      <trkpt lat="44.63778" lon="-0.91833">
        <ele>21.77</ele>
        <time>2012-04-16T12:14:20Z</time>
      </trkpt>
      <trkpt lat="44.63781" lon="-0.91819">
        <ele>21.29</ele>
        <time>2012-04-16T12:14:22Z</time>
      </trkpt>
      <trkpt lat="44.63783" lon="-0.91806">
        <ele>21.29</ele>
        <time>2012-04-16T12:14:24Z</time>
      </trkpt>
      <trkpt lat="44.63786" lon="-0.91793">
        <ele>21.77</ele>
        <time>2012-04-16T12:14:26Z</time>
      </trkpt>
      <trkpt lat="44.63788" lon="-0.91779">
        <ele>21.77</ele>
        <time>2012-04-16T12:14:28Z</time>
      </trkpt>
      <trkpt lat="44.63791" lon="-0.91766">
        <ele>21.77</ele>
        <time>2012-04-16T12:14:30Z</time>
      </trkpt>
      <trkpt lat="44.63794" lon="-0.91752">
        <ele>21.77</ele>
        <time>2012-04-16T12:14:32Z</time>
      </trkpt>
      <trkpt lat="44.63796" lon="-0.91738">
        <ele>21.77</ele>
        <time>2012-04-16T12:14:34Z</time>
      </trkpt>
      <trkpt lat="44.63798" lon="-0.91724">
        <ele>21.77</ele>
        <time>2012-04-16T12:14:36Z</time>
      </trkpt>
      <trkpt lat="44.638" lon="-0.9171">
        <ele>21.77</ele>
        <time>2012-04-16T12:14:38Z</time>
      </trkpt>
      <trkpt lat="44.63803" lon="-0.91696">
        <ele>21.77</ele>
        <time>2012-04-16T12:14:40Z</time>
      </trkpt>
      <trkpt lat="44.63806" lon="-0.91682">
        <ele>22.25</ele>
        <time>2012-04-16T12:14:42Z</time>
      </trkpt>
      <trkpt lat="44.63808" lon="-0.91668">
        <ele>21.77</ele>
        <time>2012-04-16T12:14:44Z</time>
      </trkpt>
      <trkpt lat="44.63812" lon="-0.91654">
        <ele>21.77</ele>
        <time>2012-04-16T12:14:46Z</time>
      </trkpt>
      <trkpt lat="44.63813" lon="-0.9164">
        <ele>21.77</ele>
        <time>2012-04-16T12:14:48Z</time>
      </trkpt>
      <trkpt lat="44.63816" lon="-0.91626">
        <ele>21.77</ele>
        <time>2012-04-16T12:14:50Z</time>
      </trkpt>
      <trkpt lat="44.63819" lon="-0.91611">
        <ele>21.77</ele>
        <time>2012-04-16T12:14:52Z</time>
      </trkpt>
      <trkpt lat="44.63822" lon="-0.91596">
        <ele>21.77</ele>
        <time>2012-04-16T12:14:54Z</time>
      </trkpt>
      <trkpt lat="44.63825" lon="-0.91582">
        <ele>22.25</ele>
        <time>2012-04-16T12:14:56Z</time>
      </trkpt>
      <trkpt lat="44.63827" lon="-0.91567">
        <ele>22.25</ele>
        <time>2012-04-16T12:14:58Z</time>
      </trkpt>
      <trkpt lat="44.6383" lon="-0.91553">
        <ele>22.25</ele>
        <time>2012-04-16T12:15:00Z</time>
      </trkpt>
      <trkpt lat="44.63833" lon="-0.91538">
        <ele>22.25</ele>
        <time>2012-04-16T12:15:02Z</time>
      </trkpt>
      <trkpt lat="44.63836" lon="-0.91523">
        <ele>22.73</ele>
        <time>2012-04-16T12:15:04Z</time>
      </trkpt>
      <trkpt lat="44.63839" lon="-0.91508">
        <ele>22.73</ele>
        <time>2012-04-16T12:15:06Z</time>
      </trkpt>
      <trkpt lat="44.63841" lon="-0.91494">
        <ele>22.73</ele>
        <time>2012-04-16T12:15:08Z</time>
      </trkpt>
      <trkpt lat="44.63843" lon="-0.91479">
        <ele>22.73</ele>
        <time>2012-04-16T12:15:10Z</time>
      </trkpt>
      <trkpt lat="44.63845" lon="-0.91464">
        <ele>22.73</ele>
        <time>2012-04-16T12:15:12Z</time>
      </trkpt>
      <trkpt lat="44.63845" lon="-0.91448">
        <ele>22.73</ele>
        <time>2012-04-16T12:15:14Z</time>
      </trkpt>
      <trkpt lat="44.63845" lon="-0.91432">
        <ele>22.73</ele>
        <time>2012-04-16T12:15:16Z</time>
      </trkpt>
      <trkpt lat="44.63845" lon="-0.91417">
        <ele>22.73</ele>
        <time>2012-04-16T12:15:18Z</time>
      </trkpt>
      <trkpt lat="44.63844" lon="-0.91402">
        <ele>22.73</ele>
        <time>2012-04-16T12:15:20Z</time>
      </trkpt>
      <trkpt lat="44.63842" lon="-0.91386">
        <ele>22.25</ele>
        <time>2012-04-16T12:15:22Z</time>
      </trkpt>
      <trkpt lat="44.63841" lon="-0.9137">
        <ele>22.73</ele>
        <time>2012-04-16T12:15:24Z</time>
      </trkpt>
      <trkpt lat="44.63841" lon="-0.91355">
        <ele>23.21</ele>
        <time>2012-04-16T12:15:26Z</time>
      </trkpt>
      <trkpt lat="44.63839" lon="-0.9134">
        <ele>22.73</ele>
        <time>2012-04-16T12:15:28Z</time>
      </trkpt>
      <trkpt lat="44.63838" lon="-0.91325">
        <ele>23.21</ele>
        <time>2012-04-16T12:15:30Z</time>
      </trkpt>
      <trkpt lat="44.63837" lon="-0.9131">
        <ele>22.73</ele>
        <time>2012-04-16T12:15:32Z</time>
      </trkpt>
      <trkpt lat="44.63836" lon="-0.91295">
        <ele>23.21</ele>
        <time>2012-04-16T12:15:34Z</time>
      </trkpt>
      <trkpt lat="44.63836" lon="-0.91281">
        <ele>23.21</ele>
        <time>2012-04-16T12:15:36Z</time>
      </trkpt>
      <trkpt lat="44.63835" lon="-0.91265">
        <ele>23.69</ele>
        <time>2012-04-16T12:15:38Z</time>
      </trkpt>
      <trkpt lat="44.63834" lon="-0.91249">
        <ele>23.21</ele>
        <time>2012-04-16T12:15:40Z</time>
      </trkpt>
      <trkpt lat="44.63832" lon="-0.91234">
        <ele>23.21</ele>
        <time>2012-04-16T12:15:42Z</time>
      </trkpt>
      <trkpt lat="44.63831" lon="-0.91219">
        <ele>23.69</ele>
        <time>2012-04-16T12:15:44Z</time>
      </trkpt>
      <trkpt lat="44.63831" lon="-0.91204">
        <ele>23.69</ele>
        <time>2012-04-16T12:15:46Z</time>
      </trkpt>
      <trkpt lat="44.6383" lon="-0.91189">
        <ele>23.21</ele>
        <time>2012-04-16T12:15:48Z</time>
      </trkpt>
      <trkpt lat="44.63829" lon="-0.91174">
        <ele>23.69</ele>
        <time>2012-04-16T12:15:50Z</time>
      </trkpt>
      <trkpt lat="44.63828" lon="-0.91159">
        <ele>24.17</ele>
        <time>2012-04-16T12:15:52Z</time>
      </trkpt>
      <trkpt lat="44.63826" lon="-0.91144">
        <ele>24.17</ele>
        <time>2012-04-16T12:15:54Z</time>
      </trkpt>
      <trkpt lat="44.63826" lon="-0.91129">
        <ele>23.69</ele>
        <time>2012-04-16T12:15:56Z</time>
      </trkpt>
      <trkpt lat="44.63825" lon="-0.91114">
        <ele>24.65</ele>
        <time>2012-04-16T12:15:58Z</time>
      </trkpt>
      <trkpt lat="44.63824" lon="-0.911">
        <ele>24.17</ele>
        <time>2012-04-16T12:16:00Z</time>
      </trkpt>
      <trkpt lat="44.63823" lon="-0.91085">
        <ele>24.17</ele>
        <time>2012-04-16T12:16:02Z</time>
      </trkpt>
      <trkpt lat="44.63822" lon="-0.9107">
        <ele>24.17</ele>
        <time>2012-04-16T12:16:04Z</time>
      </trkpt>
      <trkpt lat="44.63821" lon="-0.91055">
        <ele>23.69</ele>
        <time>2012-04-16T12:16:06Z</time>
      </trkpt>
      <trkpt lat="44.6382" lon="-0.9104">
        <ele>24.17</ele>
        <time>2012-04-16T12:16:08Z</time>
      </trkpt>
      <trkpt lat="44.63819" lon="-0.91025">
        <ele>23.69</ele>
        <time>2012-04-16T12:16:10Z</time>
      </trkpt>
      <trkpt lat="44.63818" lon="-0.91009">
        <ele>23.69</ele>
        <time>2012-04-16T12:16:12Z</time>
      </trkpt>
      <trkpt lat="44.63816" lon="-0.90995">
        <ele>23.69</ele>
        <time>2012-04-16T12:16:14Z</time>
      </trkpt>
      <trkpt lat="44.63816" lon="-0.9098">
        <ele>23.69</ele>
        <time>2012-04-16T12:16:16Z</time>
      </trkpt>
      <trkpt lat="44.6382" lon="-0.90967">
        <ele>24.17</ele>
        <time>2012-04-16T12:16:18Z</time>
      </trkpt>
      <trkpt lat="44.63828" lon="-0.9096">
        <ele>24.65</ele>
        <time>2012-04-16T12:16:20Z</time>
      </trkpt>
      <trkpt lat="44.63837" lon="-0.90956">
        <ele>24.65</ele>
        <time>2012-04-16T12:16:22Z</time>
      </trkpt>
      <trkpt lat="44.63848" lon="-0.90955">
        <ele>23.69</ele>
        <time>2012-04-16T12:16:24Z</time>
      </trkpt>
      <trkpt lat="44.63858" lon="-0.90953">
        <ele>23.21</ele>
        <time>2012-04-16T12:16:26Z</time>
      </trkpt>
      <trkpt lat="44.63868" lon="-0.90951">
        <ele>22.73</ele>
        <time>2012-04-16T12:16:28Z</time>
      </trkpt>
      <trkpt lat="44.63878" lon="-0.9095">
        <ele>23.69</ele>
        <time>2012-04-16T12:16:30Z</time>
      </trkpt>
      <trkpt lat="44.6389" lon="-0.90951">
        <ele>23.69</ele>
        <time>2012-04-16T12:16:33Z</time>
      </trkpt>
      <trkpt lat="44.63903" lon="-0.90951">
        <ele>23.69</ele>
        <time>2012-04-16T12:16:36Z</time>
      </trkpt>
      <trkpt lat="44.63916" lon="-0.90951">
        <ele>24.17</ele>
        <time>2012-04-16T12:16:39Z</time>
      </trkpt>
      <trkpt lat="44.63926" lon="-0.90951">
        <ele>23.69</ele>
        <time>2012-04-16T12:16:41Z</time>
      </trkpt>
      <trkpt lat="44.63935" lon="-0.90949">
        <ele>24.17</ele>
        <time>2012-04-16T12:16:43Z</time>
      </trkpt>
      <trkpt lat="44.63945" lon="-0.90948">
        <ele>24.17</ele>
        <time>2012-04-16T12:16:45Z</time>
      </trkpt>
      <trkpt lat="44.63954" lon="-0.90947">
        <ele>24.17</ele>
        <time>2012-04-16T12:16:47Z</time>
      </trkpt>
      <trkpt lat="44.63964" lon="-0.90946">
        <ele>24.65</ele>
        <time>2012-04-16T12:16:49Z</time>
      </trkpt>
      <trkpt lat="44.63974" lon="-0.90945">
        <ele>24.65</ele>
        <time>2012-04-16T12:16:51Z</time>
      </trkpt>
      <trkpt lat="44.63987" lon="-0.90943">
        <ele>24.65</ele>
        <time>2012-04-16T12:16:54Z</time>
      </trkpt>
      <trkpt lat="44.63997" lon="-0.90942">
        <ele>24.17</ele>
        <time>2012-04-16T12:16:56Z</time>
      </trkpt>
      <trkpt lat="44.64007" lon="-0.90941">
        <ele>24.17</ele>
        <time>2012-04-16T12:16:58Z</time>
      </trkpt>
      <trkpt lat="44.64016" lon="-0.9094">
        <ele>24.17</ele>
        <time>2012-04-16T12:17:00Z</time>
      </trkpt>
      <trkpt lat="44.64026" lon="-0.90939">
        <ele>23.69</ele>
        <time>2012-04-16T12:17:02Z</time>
      </trkpt>
      <trkpt lat="44.64036" lon="-0.90936">
        <ele>24.17</ele>
        <time>2012-04-16T12:17:04Z</time>
      </trkpt>
      <trkpt lat="44.64045" lon="-0.90933">
        <ele>23.69</ele>
        <time>2012-04-16T12:17:06Z</time>
      </trkpt>
      <trkpt lat="44.64055" lon="-0.90929">
        <ele>24.17</ele>
        <time>2012-04-16T12:17:08Z</time>
      </trkpt>
      <trkpt lat="44.64065" lon="-0.90926">
        <ele>24.17</ele>
        <time>2012-04-16T12:17:10Z</time>
      </trkpt>
      <trkpt lat="44.64075" lon="-0.90923">
        <ele>24.17</ele>
        <time>2012-04-16T12:17:12Z</time>
      </trkpt>
      <trkpt lat="44.64084" lon="-0.90923">
        <ele>24.17</ele>
        <time>2012-04-16T12:17:14Z</time>
      </trkpt>
      <trkpt lat="44.64094" lon="-0.90923">
        <ele>24.17</ele>
        <time>2012-04-16T12:17:16Z</time>
      </trkpt>
      <trkpt lat="44.64104" lon="-0.90923">
        <ele>24.17</ele>
        <time>2012-04-16T12:17:18Z</time>
      </trkpt>
      <trkpt lat="44.64113" lon="-0.90923">
        <ele>24.17</ele>
        <time>2012-04-16T12:17:20Z</time>
      </trkpt>
      <trkpt lat="44.64122" lon="-0.90924">
        <ele>23.69</ele>
        <time>2012-04-16T12:17:22Z</time>
      </trkpt>
      <trkpt lat="44.64136" lon="-0.90926">
        <ele>23.21</ele>
        <time>2012-04-16T12:17:25Z</time>
      </trkpt>
      <trkpt lat="44.64145" lon="-0.90927">
        <ele>23.69</ele>
        <time>2012-04-16T12:17:27Z</time>
      </trkpt>
      <trkpt lat="44.64155" lon="-0.90927">
        <ele>24.65</ele>
        <time>2012-04-16T12:17:29Z</time>
      </trkpt>
      <trkpt lat="44.64168" lon="-0.90924">
        <ele>25.13</ele>
        <time>2012-04-16T12:17:32Z</time>
      </trkpt>
      <trkpt lat="44.64177" lon="-0.90919">
        <ele>23.69</ele>
        <time>2012-04-16T12:17:34Z</time>
      </trkpt>
      <trkpt lat="44.64186" lon="-0.90914">
        <ele>23.21</ele>
        <time>2012-04-16T12:17:36Z</time>
      </trkpt>
      <trkpt lat="44.64196" lon="-0.9091">
        <ele>23.21</ele>
        <time>2012-04-16T12:17:38Z</time>
      </trkpt>
      <trkpt lat="44.64205" lon="-0.90908">
        <ele>23.21</ele>
        <time>2012-04-16T12:17:40Z</time>
      </trkpt>
      <trkpt lat="44.64218" lon="-0.90906">
        <ele>23.21</ele>
        <time>2012-04-16T12:17:43Z</time>
      </trkpt>
      <trkpt lat="44.6423" lon="-0.90902">
        <ele>22.73</ele>
        <time>2012-04-16T12:17:46Z</time>
      </trkpt>
      <trkpt lat="44.64241" lon="-0.90895">
        <ele>23.21</ele>
        <time>2012-04-16T12:17:49Z</time>
      </trkpt>
      <trkpt lat="44.64252" lon="-0.90887">
        <ele>23.69</ele>
        <time>2012-04-16T12:17:52Z</time>
      </trkpt>
      <trkpt lat="44.64264" lon="-0.90881">
        <ele>23.69</ele>
        <time>2012-04-16T12:17:55Z</time>
      </trkpt>
      <trkpt lat="44.64275" lon="-0.90879">
        <ele>23.69</ele>
        <time>2012-04-16T12:17:58Z</time>
      </trkpt>
      <trkpt lat="44.64287" lon="-0.90877">
        <ele>24.17</ele>
        <time>2012-04-16T12:18:01Z</time>
      </trkpt>
      <trkpt lat="44.64299" lon="-0.90875">
        <ele>24.17</ele>
        <time>2012-04-16T12:18:04Z</time>
      </trkpt>
      <trkpt lat="44.64312" lon="-0.90873">
        <ele>24.17</ele>
        <time>2012-04-16T12:18:07Z</time>
      </trkpt>
      <trkpt lat="44.64325" lon="-0.90871">
        <ele>23.69</ele>
        <time>2012-04-16T12:18:10Z</time>
      </trkpt>
      <trkpt lat="44.64337" lon="-0.90869">
        <ele>23.69</ele>
        <time>2012-04-16T12:18:13Z</time>
      </trkpt>
      <trkpt lat="44.64351" lon="-0.90867">
        <ele>23.21</ele>
        <time>2012-04-16T12:18:16Z</time>
      </trkpt>
      <trkpt lat="44.64364" lon="-0.90866">
        <ele>24.65</ele>
        <time>2012-04-16T12:18:19Z</time>
      </trkpt>
      <trkpt lat="44.64375" lon="-0.90864">
        <ele>24.65</ele>
        <time>2012-04-16T12:18:22Z</time>
      </trkpt>
      <trkpt lat="44.64388" lon="-0.90862">
        <ele>23.69</ele>
        <time>2012-04-16T12:18:25Z</time>
      </trkpt>
      <trkpt lat="44.644" lon="-0.90861">
        <ele>24.65</ele>
        <time>2012-04-16T12:18:28Z</time>
      </trkpt>
      <trkpt lat="44.64413" lon="-0.90861">
        <ele>24.17</ele>
        <time>2012-04-16T12:18:31Z</time>
      </trkpt>
      <trkpt lat="44.64427" lon="-0.90862">
        <ele>23.69</ele>
        <time>2012-04-16T12:18:34Z</time>
      </trkpt>
      <trkpt lat="44.64439" lon="-0.90862">
        <ele>23.69</ele>
        <time>2012-04-16T12:18:37Z</time>
      </trkpt>
      <trkpt lat="44.64449" lon="-0.9086">
        <ele>23.69</ele>
        <time>2012-04-16T12:18:40Z</time>
      </trkpt>
      <trkpt lat="44.64459" lon="-0.90858">
        <ele>23.69</ele>
        <time>2012-04-16T12:18:43Z</time>
      </trkpt>
      <trkpt lat="44.6447" lon="-0.90856">
        <ele>24.17</ele>
        <time>2012-04-16T12:18:46Z</time>
      </trkpt>
      <trkpt lat="44.64481" lon="-0.90854">
        <ele>23.69</ele>
        <time>2012-04-16T12:18:49Z</time>
      </trkpt>
      <trkpt lat="44.64493" lon="-0.90853">
        <ele>23.69</ele>
        <time>2012-04-16T12:18:52Z</time>
      </trkpt>
      <trkpt lat="44.64505" lon="-0.90854">
        <ele>23.69</ele>
        <time>2012-04-16T12:18:55Z</time>
      </trkpt>
      <trkpt lat="44.64517" lon="-0.90852">
        <ele>24.17</ele>
        <time>2012-04-16T12:18:58Z</time>
      </trkpt>
      <trkpt lat="44.64529" lon="-0.90849">
        <ele>23.21</ele>
        <time>2012-04-16T12:19:01Z</time>
      </trkpt>
      <trkpt lat="44.64539" lon="-0.90844">
        <ele>24.17</ele>
        <time>2012-04-16T12:19:04Z</time>
      </trkpt>
      <trkpt lat="44.6455" lon="-0.90839">
        <ele>23.69</ele>
        <time>2012-04-16T12:19:07Z</time>
      </trkpt>
      <trkpt lat="44.6456" lon="-0.90833">
        <ele>24.17</ele>
        <time>2012-04-16T12:19:10Z</time>
      </trkpt>
      <trkpt lat="44.64571" lon="-0.90827">
        <ele>24.17</ele>
        <time>2012-04-16T12:19:13Z</time>
      </trkpt>
      <trkpt lat="44.6458" lon="-0.90823">
        <ele>24.17</ele>
        <time>2012-04-16T12:19:16Z</time>
      </trkpt>
      <trkpt lat="44.64589" lon="-0.90819">
        <ele>23.69</ele>
        <time>2012-04-16T12:19:19Z</time>
      </trkpt>
      <trkpt lat="44.64599" lon="-0.90814">
        <ele>23.69</ele>
        <time>2012-04-16T12:19:22Z</time>
      </trkpt>
      <trkpt lat="44.64608" lon="-0.90809">
        <ele>23.69</ele>
        <time>2012-04-16T12:19:25Z</time>
      </trkpt>
      <trkpt lat="44.64617" lon="-0.90805">
        <ele>23.69</ele>
        <time>2012-04-16T12:19:28Z</time>
      </trkpt>
      <trkpt lat="44.64629" lon="-0.908">
        <ele>23.69</ele>
        <time>2012-04-16T12:19:32Z</time>
      </trkpt>
      <trkpt lat="44.6464" lon="-0.90796">
        <ele>23.69</ele>
        <time>2012-04-16T12:19:36Z</time>
      </trkpt>
      <trkpt lat="44.64649" lon="-0.90797">
        <ele>23.69</ele>
        <time>2012-04-16T12:19:39Z</time>
      </trkpt>
      <trkpt lat="44.6466" lon="-0.90799">
        <ele>23.21</ele>
        <time>2012-04-16T12:19:42Z</time>
      </trkpt>
      <trkpt lat="44.64669" lon="-0.90806">
        <ele>23.21</ele>
        <time>2012-04-16T12:19:45Z</time>
      </trkpt>
      <trkpt lat="44.64679" lon="-0.90814">
        <ele>23.21</ele>
        <time>2012-04-16T12:19:48Z</time>
      </trkpt>
      <trkpt lat="44.6469" lon="-0.9082">
        <ele>23.69</ele>
        <time>2012-04-16T12:19:51Z</time>
      </trkpt>
      <trkpt lat="44.64701" lon="-0.90826">
        <ele>23.69</ele>
        <time>2012-04-16T12:19:54Z</time>
      </trkpt>
      <trkpt lat="44.64711" lon="-0.90834">
        <ele>24.65</ele>
        <time>2012-04-16T12:19:57Z</time>
      </trkpt>
      <trkpt lat="44.64722" lon="-0.90844">
        <ele>24.65</ele>
        <time>2012-04-16T12:20:00Z</time>
      </trkpt>
      <trkpt lat="44.64732" lon="-0.90855">
        <ele>24.65</ele>
        <time>2012-04-16T12:20:03Z</time>
      </trkpt>
      <trkpt lat="44.64742" lon="-0.90863">
        <ele>23.69</ele>
        <time>2012-04-16T12:20:06Z</time>
      </trkpt>
      <trkpt lat="44.64753" lon="-0.90863">
        <ele>22.73</ele>
        <time>2012-04-16T12:20:09Z</time>
      </trkpt>
      <trkpt lat="44.64764" lon="-0.90855">
        <ele>22.25</ele>
        <time>2012-04-16T12:20:12Z</time>
      </trkpt>
      <trkpt lat="44.64774" lon="-0.90845">
        <ele>21.29</ele>
        <time>2012-04-16T12:20:15Z</time>
      </trkpt>
      <trkpt lat="44.64779" lon="-0.90834">
        <ele>21.77</ele>
        <time>2012-04-16T12:20:18Z</time>
      </trkpt>
      <trkpt lat="44.64786" lon="-0.90825">
        <ele>21.77</ele>
        <time>2012-04-16T12:20:21Z</time>
      </trkpt>
      <trkpt lat="44.64796" lon="-0.90825">
        <ele>22.25</ele>
        <time>2012-04-16T12:20:25Z</time>
      </trkpt>
      <trkpt lat="44.64807" lon="-0.90831">
        <ele>22.25</ele>
        <time>2012-04-16T12:20:29Z</time>
      </trkpt>
      <trkpt lat="44.64818" lon="-0.90838">
        <ele>23.21</ele>
        <time>2012-04-16T12:20:33Z</time>
      </trkpt>
      <trkpt lat="44.64828" lon="-0.90843">
        <ele>22.73</ele>
        <time>2012-04-16T12:21:19Z</time>
      </trkpt>
      <trkpt lat="44.64826" lon="-0.90827">
        <ele>22.73</ele>
        <time>2012-04-16T12:21:26Z</time>
      </trkpt>
      <trkpt lat="44.64823" lon="-0.90812">
        <ele>23.21</ele>
        <time>2012-04-16T12:21:32Z</time>
      </trkpt>
      <trkpt lat="44.6482" lon="-0.90798">
        <ele>22.25</ele>
        <time>2012-04-16T12:21:37Z</time>
      </trkpt>
      <trkpt lat="44.64817" lon="-0.90785">
        <ele>23.21</ele>
        <time>2012-04-16T12:21:42Z</time>
      </trkpt>
      <trkpt lat="44.64815" lon="-0.90772">
        <ele>23.21</ele>
        <time>2012-04-16T12:21:47Z</time>
      </trkpt>
      <trkpt lat="44.64813" lon="-0.90759">
        <ele>23.21</ele>
        <time>2012-04-16T12:21:52Z</time>
      </trkpt>
      <trkpt lat="44.64811" lon="-0.90745">
        <ele>23.69</ele>
        <time>2012-04-16T12:21:58Z</time>
      </trkpt>
      <trkpt lat="44.64807" lon="-0.90733">
        <ele>23.21</ele>
        <time>2012-04-16T12:22:03Z</time>
      </trkpt>
      <trkpt lat="44.64805" lon="-0.90721">
        <ele>23.69</ele>
        <time>2012-04-16T12:22:09Z</time>
      </trkpt>
      <trkpt lat="44.64802" lon="-0.90707">
        <ele>23.69</ele>
        <time>2012-04-16T12:22:15Z</time>
      </trkpt>
      <trkpt lat="44.64799" lon="-0.90693">
        <ele>23.69</ele>
        <time>2012-04-16T12:22:21Z</time>
      </trkpt>
      <trkpt lat="44.64796" lon="-0.90678">
        <ele>23.69</ele>
        <time>2012-04-16T12:22:27Z</time>
      </trkpt>
      <trkpt lat="44.64794" lon="-0.90665">
        <ele>23.69</ele>
        <time>2012-04-16T12:22:33Z</time>
      </trkpt>
      <trkpt lat="44.64791" lon="-0.90652">
        <ele>24.17</ele>
        <time>2012-04-16T12:22:38Z</time>
      </trkpt>
      <trkpt lat="44.64793" lon="-0.9064">
        <ele>24.17</ele>
        <time>2012-04-16T12:22:44Z</time>
      </trkpt>
      <trkpt lat="44.64801" lon="-0.9064">
        <ele>24.17</ele>
        <time>2012-04-16T12:23:02Z</time>
      </trkpt>
      <trkpt lat="44.64812" lon="-0.90643">
        <ele>24.17</ele>
        <time>2012-04-16T12:23:09Z</time>
      </trkpt>
      <trkpt lat="44.64823" lon="-0.90639">
        <ele>24.17</ele>
        <time>2012-04-16T12:23:15Z</time>
      </trkpt>
      <trkpt lat="44.64834" lon="-0.90638">
        <ele>24.17</ele>
        <time>2012-04-16T12:23:21Z</time>
      </trkpt>
      <trkpt lat="44.64843" lon="-0.90634">
        <ele>24.17</ele>
        <time>2012-04-16T12:23:27Z</time>
      </trkpt>
      <trkpt lat="44.64851" lon="-0.90628">
        <ele>23.69</ele>
        <time>2012-04-16T12:23:33Z</time>
      </trkpt>
      <trkpt lat="44.64861" lon="-0.9063">
        <ele>24.17</ele>
        <time>2012-04-16T12:23:41Z</time>
      </trkpt>
      <trkpt lat="44.64872" lon="-0.90631">
        <ele>24.65</ele>
        <time>2012-04-16T12:23:49Z</time>
      </trkpt>
      <trkpt lat="44.64881" lon="-0.90637">
        <ele>23.69</ele>
        <time>2012-04-16T12:23:57Z</time>
      </trkpt>
      <trkpt lat="44.64889" lon="-0.90636">
        <ele>22.25</ele>
        <time>2012-04-16T12:24:15Z</time>
      </trkpt>
      <trkpt lat="44.64895" lon="-0.90625">
        <ele>22.25</ele>
        <time>2012-04-16T12:24:29Z</time>
      </trkpt>
      <trkpt lat="44.64898" lon="-0.90612">
        <ele>22.73</ele>
        <time>2012-04-16T12:24:41Z</time>
      </trkpt>
      <trkpt lat="44.64895" lon="-0.90598">
        <ele>23.69</ele>
        <time>2012-04-16T12:24:47Z</time>
      </trkpt>
      <trkpt lat="44.64896" lon="-0.90583">
        <ele>22.73</ele>
        <time>2012-04-16T12:24:53Z</time>
      </trkpt>
      <trkpt lat="44.64898" lon="-0.90568">
        <ele>22.73</ele>
        <time>2012-04-16T12:25:09Z</time>
      </trkpt>
      <trkpt lat="44.64903" lon="-0.90555">
        <ele>22.25</ele>
        <time>2012-04-16T12:25:21Z</time>
      </trkpt>
      <trkpt lat="44.64909" lon="-0.90549">
        <ele>18.4</ele>
        <time>2012-04-16T12:25:51Z</time>
      </trkpt>
      <trkpt lat="44.64912" lon="-0.90544">
        <ele>16.48</ele>
        <time>2012-04-16T12:26:14Z</time>
      </trkpt>
      <trkpt lat="44.64907" lon="-0.90541">
        <ele>17.92</ele>
        <time>2012-04-16T12:26:40Z</time>
      </trkpt>
      <trkpt lat="44.64898" lon="-0.90539">
        <ele>22.25</ele>
        <time>2012-04-16T12:27:14Z</time>
      </trkpt>
      <trkpt lat="44.64889" lon="-0.90528">
        <ele>18.88</ele>
        <time>2012-04-16T12:27:51Z</time>
      </trkpt>
      <trkpt lat="44.64887" lon="-0.90511">
        <ele>17.44</ele>
        <time>2012-04-16T12:28:06Z</time>
      </trkpt>
      <trkpt lat="44.64889" lon="-0.90501">
        <ele>16.96</ele>
        <time>2012-04-16T12:28:21Z</time>
      </trkpt>
      <trkpt lat="44.64891" lon="-0.90487">
        <ele>21.77</ele>
        <time>2012-04-16T12:28:42Z</time>
      </trkpt>
      <trkpt lat="44.64891" lon="-0.9047">
        <ele>22.73</ele>
        <time>2012-04-16T12:28:56Z</time>
      </trkpt>
      <trkpt lat="44.64885" lon="-0.90461">
        <ele>22.73</ele>
        <time>2012-04-16T12:29:15Z</time>
      </trkpt>
      <trkpt lat="44.64878" lon="-0.90449">
        <ele>23.69</ele>
        <time>2012-04-16T12:29:23Z</time>
      </trkpt>
      <trkpt lat="44.6487" lon="-0.90435">
        <ele>24.17</ele>
        <time>2012-04-16T12:29:55Z</time>
      </trkpt>
      <trkpt lat="44.64867" lon="-0.90419">
        <ele>23.69</ele>
        <time>2012-04-16T12:30:03Z</time>
      </trkpt>
      <trkpt lat="44.64863" lon="-0.90404">
        <ele>24.17</ele>
        <time>2012-04-16T12:30:10Z</time>
      </trkpt>
      <trkpt lat="44.64862" lon="-0.90387">
        <ele>24.17</ele>
        <time>2012-04-16T12:30:17Z</time>
      </trkpt>
      <trkpt lat="44.6486" lon="-0.90372">
        <ele>23.69</ele>
        <time>2012-04-16T12:30:24Z</time>
      </trkpt>
      <trkpt lat="44.64852" lon="-0.9036">
        <ele>23.69</ele>
        <time>2012-04-16T12:30:32Z</time>
      </trkpt>
      <trkpt lat="44.64849" lon="-0.90347">
        <ele>22.73</ele>
        <time>2012-04-16T12:30:56Z</time>
      </trkpt>
      <trkpt lat="44.64843" lon="-0.90338">
        <ele>21.29</ele>
        <time>2012-04-16T12:31:30Z</time>
      </trkpt>
      <trkpt lat="44.6484" lon="-0.90324">
        <ele>19.84</ele>
        <time>2012-04-16T12:31:37Z</time>
      </trkpt>
      <trkpt lat="44.6483" lon="-0.90319">
        <ele>21.29</ele>
        <time>2012-04-16T12:33:23Z</time>
      </trkpt>
      <trkpt lat="44.6482" lon="-0.90314">
        <ele>22.25</ele>
        <time>2012-04-16T12:33:31Z</time>
      </trkpt>
      <trkpt lat="44.64811" lon="-0.90309">
        <ele>23.21</ele>
        <time>2012-04-16T12:33:38Z</time>
      </trkpt>
      <trkpt lat="44.64801" lon="-0.90305">
        <ele>23.69</ele>
        <time>2012-04-16T12:33:44Z</time>
      </trkpt>
      <trkpt lat="44.64791" lon="-0.90299">
        <ele>24.17</ele>
        <time>2012-04-16T12:33:49Z</time>
      </trkpt>
      <trkpt lat="44.6478" lon="-0.90292">
        <ele>24.17</ele>
        <time>2012-04-16T12:33:54Z</time>
      </trkpt>
      <trkpt lat="44.64773" lon="-0.9028">
        <ele>24.65</ele>
        <time>2012-04-16T12:33:58Z</time>
      </trkpt>
      <trkpt lat="44.64772" lon="-0.90265">
        <ele>24.65</ele>
        <time>2012-04-16T12:34:02Z</time>
      </trkpt>
      <trkpt lat="44.64779" lon="-0.9025">
        <ele>24.65</ele>
        <time>2012-04-16T12:34:06Z</time>
      </trkpt>
      <trkpt lat="44.64785" lon="-0.9024">
        <ele>24.17</ele>
        <time>2012-04-16T12:34:09Z</time>
      </trkpt>
      <trkpt lat="44.64791" lon="-0.9023">
        <ele>24.17</ele>
        <time>2012-04-16T12:34:12Z</time>
      </trkpt>
      <trkpt lat="44.64797" lon="-0.90219">
        <ele>24.65</ele>
        <time>2012-04-16T12:34:15Z</time>
      </trkpt>
      <trkpt lat="44.64802" lon="-0.90205">
        <ele>24.65</ele>
        <time>2012-04-16T12:34:18Z</time>
      </trkpt>
      <trkpt lat="44.64803" lon="-0.90191">
        <ele>24.17</ele>
        <time>2012-04-16T12:34:21Z</time>
      </trkpt>
      <trkpt lat="44.64804" lon="-0.90177">
        <ele>24.65</ele>
        <time>2012-04-16T12:34:24Z</time>
      </trkpt>
      <trkpt lat="44.64806" lon="-0.90164">
        <ele>24.65</ele>
        <time>2012-04-16T12:34:27Z</time>
      </trkpt>
      <trkpt lat="44.64806" lon="-0.9015">
        <ele>24.17</ele>
        <time>2012-04-16T12:34:30Z</time>
      </trkpt>
      <trkpt lat="44.64804" lon="-0.90137">
        <ele>24.65</ele>
        <time>2012-04-16T12:34:34Z</time>
      </trkpt>
      <trkpt lat="44.64802" lon="-0.90122">
        <ele>24.65</ele>
        <time>2012-04-16T12:34:38Z</time>
      </trkpt>
      <trkpt lat="44.648" lon="-0.90106">
        <ele>25.13</ele>
        <time>2012-04-16T12:34:42Z</time>
      </trkpt>
      <trkpt lat="44.648" lon="-0.9009">
        <ele>25.13</ele>
        <time>2012-04-16T12:34:46Z</time>
      </trkpt>
      <trkpt lat="44.648" lon="-0.90078">
        <ele>25.13</ele>
        <time>2012-04-16T12:34:49Z</time>
      </trkpt>
      <trkpt lat="44.64798" lon="-0.90065">
        <ele>25.13</ele>
        <time>2012-04-16T12:34:52Z</time>
      </trkpt>
      <trkpt lat="44.64795" lon="-0.9005">
        <ele>25.13</ele>
        <time>2012-04-16T12:34:56Z</time>
      </trkpt>
      <trkpt lat="44.64792" lon="-0.90037">
        <ele>25.61</ele>
        <time>2012-04-16T12:35:00Z</time>
      </trkpt>
      <trkpt lat="44.64792" lon="-0.90024">
        <ele>25.61</ele>
        <time>2012-04-16T12:35:04Z</time>
      </trkpt>
      <trkpt lat="44.64797" lon="-0.90009">
        <ele>25.13</ele>
        <time>2012-04-16T12:35:08Z</time>
      </trkpt>
      <trkpt lat="44.64801" lon="-0.89997">
        <ele>25.61</ele>
        <time>2012-04-16T12:35:11Z</time>
      </trkpt>
      <trkpt lat="44.64804" lon="-0.89983">
        <ele>25.13</ele>
        <time>2012-04-16T12:35:14Z</time>
      </trkpt>
      <trkpt lat="44.64809" lon="-0.89968">
        <ele>25.13</ele>
        <time>2012-04-16T12:35:17Z</time>
      </trkpt>
      <trkpt lat="44.64813" lon="-0.89952">
        <ele>25.61</ele>
        <time>2012-04-16T12:35:20Z</time>
      </trkpt>
      <trkpt lat="44.64817" lon="-0.89936">
        <ele>26.09</ele>
        <time>2012-04-16T12:35:23Z</time>
      </trkpt>
      <trkpt lat="44.64822" lon="-0.8992">
        <ele>26.09</ele>
        <time>2012-04-16T12:35:26Z</time>
      </trkpt>
      <trkpt lat="44.64824" lon="-0.89904">
        <ele>26.09</ele>
        <time>2012-04-16T12:35:29Z</time>
      </trkpt>
      <trkpt lat="44.64827" lon="-0.89887">
        <ele>25.61</ele>
        <time>2012-04-16T12:35:32Z</time>
      </trkpt>
      <trkpt lat="44.64833" lon="-0.89874">
        <ele>24.65</ele>
        <time>2012-04-16T12:35:35Z</time>
      </trkpt>
      <trkpt lat="44.64844" lon="-0.89867">
        <ele>24.17</ele>
        <time>2012-04-16T12:35:38Z</time>
      </trkpt>
      <trkpt lat="44.64856" lon="-0.89868">
        <ele>23.69</ele>
        <time>2012-04-16T12:35:41Z</time>
      </trkpt>
      <trkpt lat="44.64871" lon="-0.89878">
        <ele>22.73</ele>
        <time>2012-04-16T12:35:44Z</time>
      </trkpt>
      <trkpt lat="44.64889" lon="-0.89888">
        <ele>21.77</ele>
        <time>2012-04-16T12:35:47Z</time>
      </trkpt>
      <trkpt lat="44.64901" lon="-0.89894">
        <ele>21.29</ele>
        <time>2012-04-16T12:35:49Z</time>
      </trkpt>
      <trkpt lat="44.64914" lon="-0.89899">
        <ele>20.81</ele>
        <time>2012-04-16T12:35:51Z</time>
      </trkpt>
      <trkpt lat="44.64928" lon="-0.89905">
        <ele>19.36</ele>
        <time>2012-04-16T12:35:53Z</time>
      </trkpt>
      <trkpt lat="44.64941" lon="-0.89912">
        <ele>18.88</ele>
        <time>2012-04-16T12:35:55Z</time>
      </trkpt>
      <trkpt lat="44.64955" lon="-0.89918">
        <ele>18.4</ele>
        <time>2012-04-16T12:35:57Z</time>
      </trkpt>
      <trkpt lat="44.6497" lon="-0.89923">
        <ele>18.4</ele>
        <time>2012-04-16T12:35:59Z</time>
      </trkpt>
      <trkpt lat="44.64984" lon="-0.89925">
        <ele>16.48</ele>
        <time>2012-04-16T12:36:01Z</time>
      </trkpt>
      <trkpt lat="44.64997" lon="-0.89923">
        <ele>16.96</ele>
        <time>2012-04-16T12:36:03Z</time>
      </trkpt>
      <trkpt lat="44.65009" lon="-0.89919">
        <ele>16.48</ele>
        <time>2012-04-16T12:36:05Z</time>
      </trkpt>
      <trkpt lat="44.6502" lon="-0.89914">
        <ele>16.48</ele>
        <time>2012-04-16T12:36:07Z</time>
      </trkpt>
      <trkpt lat="44.6503" lon="-0.89908">
        <ele>16.48</ele>
        <time>2012-04-16T12:36:09Z</time>
      </trkpt>
      <trkpt lat="44.65039" lon="-0.89902">
        <ele>16.48</ele>
        <time>2012-04-16T12:36:11Z</time>
      </trkpt>
      <trkpt lat="44.65047" lon="-0.89896">
        <ele>16</ele>
        <time>2012-04-16T12:36:13Z</time>
      </trkpt>
      <trkpt lat="44.65056" lon="-0.8989">
        <ele>16</ele>
        <time>2012-04-16T12:36:15Z</time>
      </trkpt>
      <trkpt lat="44.65065" lon="-0.8988">
        <ele>16</ele>
        <time>2012-04-16T12:36:18Z</time>
      </trkpt>
      <trkpt lat="44.6507" lon="-0.89868">
        <ele>15.52</ele>
        <time>2012-04-16T12:36:21Z</time>
      </trkpt>
      <trkpt lat="44.65073" lon="-0.89854">
        <ele>15.52</ele>
        <time>2012-04-16T12:36:24Z</time>
      </trkpt>
      <trkpt lat="44.65079" lon="-0.8984">
        <ele>16</ele>
        <time>2012-04-16T12:36:27Z</time>
      </trkpt>
      <trkpt lat="44.65083" lon="-0.89824">
        <ele>16</ele>
        <time>2012-04-16T12:36:30Z</time>
      </trkpt>
      <trkpt lat="44.65086" lon="-0.89809">
        <ele>16</ele>
        <time>2012-04-16T12:36:33Z</time>
      </trkpt>
      <trkpt lat="44.65091" lon="-0.89793">
        <ele>16</ele>
        <time>2012-04-16T12:36:36Z</time>
      </trkpt>
      <trkpt lat="44.65093" lon="-0.89779">
        <ele>16.48</ele>
        <time>2012-04-16T12:36:39Z</time>
      </trkpt>
      <trkpt lat="44.65095" lon="-0.89765">
        <ele>16.96</ele>
        <time>2012-04-16T12:36:42Z</time>
      </trkpt>
      <trkpt lat="44.65097" lon="-0.8975">
        <ele>16.96</ele>
        <time>2012-04-16T12:36:45Z</time>
      </trkpt>
      <trkpt lat="44.65098" lon="-0.89734">
        <ele>16.96</ele>
        <time>2012-04-16T12:36:48Z</time>
      </trkpt>
      <trkpt lat="44.651" lon="-0.89717">
        <ele>17.44</ele>
        <time>2012-04-16T12:36:51Z</time>
      </trkpt>
      <trkpt lat="44.65103" lon="-0.89699">
        <ele>17.92</ele>
        <time>2012-04-16T12:36:54Z</time>
      </trkpt>
      <trkpt lat="44.65106" lon="-0.89681">
        <ele>17.44</ele>
        <time>2012-04-16T12:36:57Z</time>
      </trkpt>
      <trkpt lat="44.65115" lon="-0.89667">
        <ele>17.92</ele>
        <time>2012-04-16T12:37:00Z</time>
      </trkpt>
      <trkpt lat="44.65126" lon="-0.89657">
        <ele>17.44</ele>
        <time>2012-04-16T12:37:03Z</time>
      </trkpt>
      <trkpt lat="44.65135" lon="-0.89644">
        <ele>16.96</ele>
        <time>2012-04-16T12:37:06Z</time>
      </trkpt>
      <trkpt lat="44.65136" lon="-0.89627">
        <ele>16.96</ele>
        <time>2012-04-16T12:37:09Z</time>
      </trkpt>
      <trkpt lat="44.65133" lon="-0.89606">
        <ele>17.44</ele>
        <time>2012-04-16T12:37:12Z</time>
      </trkpt>
      <trkpt lat="44.65131" lon="-0.89592">
        <ele>17.44</ele>
        <time>2012-04-16T12:37:14Z</time>
      </trkpt>
      <trkpt lat="44.65128" lon="-0.89574">
        <ele>16.96</ele>
        <time>2012-04-16T12:37:17Z</time>
      </trkpt>
      <trkpt lat="44.65127" lon="-0.89559">
        <ele>16.96</ele>
        <time>2012-04-16T12:37:20Z</time>
      </trkpt>
      <trkpt lat="44.65124" lon="-0.89544">
        <ele>16.96</ele>
        <time>2012-04-16T12:37:24Z</time>
      </trkpt>
      <trkpt lat="44.65112" lon="-0.89538">
        <ele>17.44</ele>
        <time>2012-04-16T12:37:30Z</time>
      </trkpt>
      <trkpt lat="44.65099" lon="-0.89538">
        <ele>17.44</ele>
        <time>2012-04-16T12:37:35Z</time>
      </trkpt>
      <trkpt lat="44.65087" lon="-0.89533">
        <ele>17.92</ele>
        <time>2012-04-16T12:37:39Z</time>
      </trkpt>
      <trkpt lat="44.65078" lon="-0.89527">
        <ele>18.88</ele>
        <time>2012-04-16T12:37:43Z</time>
      </trkpt>
      <trkpt lat="44.65067" lon="-0.89516">
        <ele>21.29</ele>
        <time>2012-04-16T12:37:51Z</time>
      </trkpt>
      <trkpt lat="44.65055" lon="-0.89519">
        <ele>24.17</ele>
        <time>2012-04-16T12:38:00Z</time>
      </trkpt>
      <trkpt lat="44.65043" lon="-0.89524">
        <ele>26.57</ele>
        <time>2012-04-16T12:38:08Z</time>
      </trkpt>
      <trkpt lat="44.65033" lon="-0.89537">
        <ele>27.05</ele>
        <time>2012-04-16T12:38:15Z</time>
      </trkpt>
      <trkpt lat="44.65023" lon="-0.89548">
        <ele>26.57</ele>
        <time>2012-04-16T12:38:21Z</time>
      </trkpt>
      <trkpt lat="44.65015" lon="-0.89561">
        <ele>26.57</ele>
        <time>2012-04-16T12:38:26Z</time>
      </trkpt>
      <trkpt lat="44.65008" lon="-0.89573">
        <ele>26.57</ele>
        <time>2012-04-16T12:38:31Z</time>
      </trkpt>
      <trkpt lat="44.64999" lon="-0.89569">
        <ele>26.09</ele>
        <time>2012-04-16T12:38:36Z</time>
      </trkpt>
      <trkpt lat="44.64989" lon="-0.89557">
        <ele>24.65</ele>
        <time>2012-04-16T12:38:40Z</time>
      </trkpt>
      <trkpt lat="44.64978" lon="-0.89546">
        <ele>23.21</ele>
        <time>2012-04-16T12:38:43Z</time>
      </trkpt>
      <trkpt lat="44.64968" lon="-0.89541">
        <ele>23.21</ele>
        <time>2012-04-16T12:38:45Z</time>
      </trkpt>
      <trkpt lat="44.64957" lon="-0.89532">
        <ele>22.25</ele>
        <time>2012-04-16T12:38:48Z</time>
      </trkpt>
      <trkpt lat="44.64951" lon="-0.89522">
        <ele>21.77</ele>
        <time>2012-04-16T12:38:51Z</time>
      </trkpt>
      <trkpt lat="44.64941" lon="-0.89515">
        <ele>21.77</ele>
        <time>2012-04-16T12:38:57Z</time>
      </trkpt>
      <trkpt lat="44.64937" lon="-0.89501">
        <ele>21.77</ele>
        <time>2012-04-16T12:39:03Z</time>
      </trkpt>
      <trkpt lat="44.64938" lon="-0.89487">
        <ele>21.29</ele>
        <time>2012-04-16T12:39:08Z</time>
      </trkpt>
      <trkpt lat="44.64939" lon="-0.89473">
        <ele>21.77</ele>
        <time>2012-04-16T12:39:13Z</time>
      </trkpt>
      <trkpt lat="44.64939" lon="-0.89458">
        <ele>21.29</ele>
        <time>2012-04-16T12:39:18Z</time>
      </trkpt>
      <trkpt lat="44.64936" lon="-0.89446">
        <ele>21.77</ele>
        <time>2012-04-16T12:39:26Z</time>
      </trkpt>
      <trkpt lat="44.64938" lon="-0.89431">
        <ele>21.77</ele>
        <time>2012-04-16T12:39:31Z</time>
      </trkpt>
      <trkpt lat="44.64946" lon="-0.89421">
        <ele>21.29</ele>
        <time>2012-04-16T12:39:36Z</time>
      </trkpt>
      <trkpt lat="44.64953" lon="-0.89411">
        <ele>21.29</ele>
        <time>2012-04-16T12:39:41Z</time>
      </trkpt>
      <trkpt lat="44.64957" lon="-0.89397">
        <ele>21.77</ele>
        <time>2012-04-16T12:39:46Z</time>
      </trkpt>
      <trkpt lat="44.64949" lon="-0.89392">
        <ele>21.77</ele>
        <time>2012-04-16T12:39:53Z</time>
      </trkpt>
      <trkpt lat="44.64939" lon="-0.89401">
        <ele>22.25</ele>
        <time>2012-04-16T12:39:58Z</time>
      </trkpt>
      <trkpt lat="44.64928" lon="-0.89411">
        <ele>23.21</ele>
        <time>2012-04-16T12:40:04Z</time>
      </trkpt>
      <trkpt lat="44.64921" lon="-0.8942">
        <ele>24.65</ele>
        <time>2012-04-16T12:40:09Z</time>
      </trkpt>
      <trkpt lat="44.64914" lon="-0.8943">
        <ele>25.13</ele>
        <time>2012-04-16T12:40:14Z</time>
      </trkpt>
      <trkpt lat="44.64906" lon="-0.89441">
        <ele>25.13</ele>
        <time>2012-04-16T12:40:19Z</time>
      </trkpt>
      <trkpt lat="44.64899" lon="-0.89454">
        <ele>25.13</ele>
        <time>2012-04-16T12:40:23Z</time>
      </trkpt>
      <trkpt lat="44.64889" lon="-0.89471">
        <ele>25.61</ele>
        <time>2012-04-16T12:40:27Z</time>
      </trkpt>
      <trkpt lat="44.64881" lon="-0.89484">
        <ele>25.61</ele>
        <time>2012-04-16T12:40:30Z</time>
      </trkpt>
      <trkpt lat="44.64873" lon="-0.89497">
        <ele>25.13</ele>
        <time>2012-04-16T12:40:33Z</time>
      </trkpt>
      <trkpt lat="44.64866" lon="-0.89509">
        <ele>24.17</ele>
        <time>2012-04-16T12:40:36Z</time>
      </trkpt>
      <trkpt lat="44.64856" lon="-0.89519">
        <ele>24.17</ele>
        <time>2012-04-16T12:40:39Z</time>
      </trkpt>
      <trkpt lat="44.64848" lon="-0.89531">
        <ele>24.65</ele>
        <time>2012-04-16T12:40:42Z</time>
      </trkpt>
      <trkpt lat="44.6484" lon="-0.89542">
        <ele>23.69</ele>
        <time>2012-04-16T12:40:45Z</time>
      </trkpt>
      <trkpt lat="44.64832" lon="-0.89554">
        <ele>23.21</ele>
        <time>2012-04-16T12:40:48Z</time>
      </trkpt>
      <trkpt lat="44.64821" lon="-0.8957">
        <ele>22.25</ele>
        <time>2012-04-16T12:40:51Z</time>
      </trkpt>
      <trkpt lat="44.6481" lon="-0.89578">
        <ele>22.25</ele>
        <time>2012-04-16T12:40:54Z</time>
      </trkpt>
      <trkpt lat="44.64798" lon="-0.89568">
        <ele>21.77</ele>
        <time>2012-04-16T12:40:57Z</time>
      </trkpt>
      <trkpt lat="44.64793" lon="-0.89556">
        <ele>22.25</ele>
        <time>2012-04-16T12:41:01Z</time>
      </trkpt>
      <trkpt lat="44.64785" lon="-0.89549">
        <ele>22.73</ele>
        <time>2012-04-16T12:41:04Z</time>
      </trkpt>
      <trkpt lat="44.64775" lon="-0.89537">
        <ele>22.25</ele>
        <time>2012-04-16T12:41:08Z</time>
      </trkpt>
      <trkpt lat="44.64767" lon="-0.89525">
        <ele>22.25</ele>
        <time>2012-04-16T12:41:12Z</time>
      </trkpt>
      <trkpt lat="44.64762" lon="-0.89508">
        <ele>22.25</ele>
        <time>2012-04-16T12:41:16Z</time>
      </trkpt>
      <trkpt lat="44.64758" lon="-0.89493">
        <ele>22.25</ele>
        <time>2012-04-16T12:41:22Z</time>
      </trkpt>
      <trkpt lat="44.64751" lon="-0.8948">
        <ele>21.77</ele>
        <time>2012-04-16T12:41:28Z</time>
      </trkpt>
      <trkpt lat="44.64754" lon="-0.89463">
        <ele>22.73</ele>
        <time>2012-04-16T12:41:35Z</time>
      </trkpt>
      <trkpt lat="44.64751" lon="-0.89447">
        <ele>22.73</ele>
        <time>2012-04-16T12:41:40Z</time>
      </trkpt>
      <trkpt lat="44.64754" lon="-0.89431">
        <ele>22.73</ele>
        <time>2012-04-16T12:41:45Z</time>
      </trkpt>
      <trkpt lat="44.64762" lon="-0.89418">
        <ele>23.21</ele>
        <time>2012-04-16T12:41:49Z</time>
      </trkpt>
      <trkpt lat="44.64768" lon="-0.89402">
        <ele>23.69</ele>
        <time>2012-04-16T12:41:53Z</time>
      </trkpt>
      <trkpt lat="44.6477" lon="-0.89386">
        <ele>24.17</ele>
        <time>2012-04-16T12:41:57Z</time>
      </trkpt>
      <trkpt lat="44.64777" lon="-0.89375">
        <ele>24.17</ele>
        <time>2012-04-16T12:42:00Z</time>
      </trkpt>
      <trkpt lat="44.64788" lon="-0.89367">
        <ele>24.17</ele>
        <time>2012-04-16T12:42:04Z</time>
      </trkpt>
      <trkpt lat="44.64801" lon="-0.89359">
        <ele>23.69</ele>
        <time>2012-04-16T12:42:08Z</time>
      </trkpt>
      <trkpt lat="44.64814" lon="-0.89353">
        <ele>24.17</ele>
        <time>2012-04-16T12:42:12Z</time>
      </trkpt>
      <trkpt lat="44.64822" lon="-0.89345">
        <ele>24.65</ele>
        <time>2012-04-16T12:42:15Z</time>
      </trkpt>
      <trkpt lat="44.64829" lon="-0.89337">
        <ele>24.65</ele>
        <time>2012-04-16T12:42:18Z</time>
      </trkpt>
      <trkpt lat="44.64836" lon="-0.89327">
        <ele>25.61</ele>
        <time>2012-04-16T12:42:21Z</time>
      </trkpt>
      <trkpt lat="44.64841" lon="-0.89314">
        <ele>25.13</ele>
        <time>2012-04-16T12:42:24Z</time>
      </trkpt>
      <trkpt lat="44.64845" lon="-0.893">
        <ele>26.09</ele>
        <time>2012-04-16T12:42:27Z</time>
      </trkpt>
      <trkpt lat="44.64849" lon="-0.89286">
        <ele>25.61</ele>
        <time>2012-04-16T12:42:30Z</time>
      </trkpt>
      <trkpt lat="44.64851" lon="-0.89271">
        <ele>26.09</ele>
        <time>2012-04-16T12:42:33Z</time>
      </trkpt>
      <trkpt lat="44.64853" lon="-0.89256">
        <ele>26.09</ele>
        <time>2012-04-16T12:42:36Z</time>
      </trkpt>
      <trkpt lat="44.64855" lon="-0.89241">
        <ele>25.61</ele>
        <time>2012-04-16T12:42:39Z</time>
      </trkpt>
      <trkpt lat="44.6486" lon="-0.89228">
        <ele>25.61</ele>
        <time>2012-04-16T12:42:42Z</time>
      </trkpt>
      <trkpt lat="44.64867" lon="-0.89218">
        <ele>25.61</ele>
        <time>2012-04-16T12:42:45Z</time>
      </trkpt>
      <trkpt lat="44.64874" lon="-0.8921">
        <ele>25.61</ele>
        <time>2012-04-16T12:42:48Z</time>
      </trkpt>
      <trkpt lat="44.64882" lon="-0.89199">
        <ele>26.09</ele>
        <time>2012-04-16T12:42:52Z</time>
      </trkpt>
      <trkpt lat="44.6488" lon="-0.89184">
        <ele>26.09</ele>
        <time>2012-04-16T12:42:57Z</time>
      </trkpt>
      <trkpt lat="44.64877" lon="-0.8917">
        <ele>26.09</ele>
        <time>2012-04-16T12:43:01Z</time>
      </trkpt>
      <trkpt lat="44.64876" lon="-0.89154">
        <ele>26.09</ele>
        <time>2012-04-16T12:43:05Z</time>
      </trkpt>
      <trkpt lat="44.64874" lon="-0.89141">
        <ele>26.09</ele>
        <time>2012-04-16T12:43:08Z</time>
      </trkpt>
      <trkpt lat="44.6487" lon="-0.89129">
        <ele>26.57</ele>
        <time>2012-04-16T12:43:11Z</time>
      </trkpt>
      <trkpt lat="44.64869" lon="-0.89112">
        <ele>25.61</ele>
        <time>2012-04-16T12:43:15Z</time>
      </trkpt>
      <trkpt lat="44.64873" lon="-0.89097">
        <ele>25.61</ele>
        <time>2012-04-16T12:43:19Z</time>
      </trkpt>
      <trkpt lat="44.64875" lon="-0.89082">
        <ele>24.65</ele>
        <time>2012-04-16T12:43:22Z</time>
      </trkpt>
      <trkpt lat="44.64879" lon="-0.89068">
        <ele>25.13</ele>
        <time>2012-04-16T12:43:25Z</time>
      </trkpt>
      <trkpt lat="44.64882" lon="-0.89054">
        <ele>24.65</ele>
        <time>2012-04-16T12:43:28Z</time>
      </trkpt>
      <trkpt lat="44.64883" lon="-0.89037">
        <ele>24.17</ele>
        <time>2012-04-16T12:43:31Z</time>
      </trkpt>
      <trkpt lat="44.64882" lon="-0.89022">
        <ele>24.17</ele>
        <time>2012-04-16T12:43:34Z</time>
      </trkpt>
      <trkpt lat="44.64879" lon="-0.89011">
        <ele>23.21</ele>
        <time>2012-04-16T12:43:37Z</time>
      </trkpt>
      <trkpt lat="44.64879" lon="-0.88995">
        <ele>22.25</ele>
        <time>2012-04-16T12:43:41Z</time>
      </trkpt>
      <trkpt lat="44.64882" lon="-0.8898">
        <ele>20.81</ele>
        <time>2012-04-16T12:43:45Z</time>
      </trkpt>
      <trkpt lat="44.64888" lon="-0.88967">
        <ele>20.32</ele>
        <time>2012-04-16T12:43:49Z</time>
      </trkpt>
      <trkpt lat="44.64894" lon="-0.88955">
        <ele>19.84</ele>
        <time>2012-04-16T12:43:53Z</time>
      </trkpt>
      <trkpt lat="44.64899" lon="-0.88942">
        <ele>19.36</ele>
        <time>2012-04-16T12:43:57Z</time>
      </trkpt>
      <trkpt lat="44.64904" lon="-0.88929">
        <ele>19.36</ele>
        <time>2012-04-16T12:44:04Z</time>
      </trkpt>
      <trkpt lat="44.64908" lon="-0.88913">
        <ele>19.36</ele>
        <time>2012-04-16T12:44:13Z</time>
      </trkpt>
      <trkpt lat="44.64912" lon="-0.88899">
        <ele>19.84</ele>
        <time>2012-04-16T12:44:18Z</time>
      </trkpt>
      <trkpt lat="44.64916" lon="-0.88884">
        <ele>19.84</ele>
        <time>2012-04-16T12:44:24Z</time>
      </trkpt>
      <trkpt lat="44.64912" lon="-0.88865">
        <ele>19.36</ele>
        <time>2012-04-16T12:44:29Z</time>
      </trkpt>
      <trkpt lat="44.64908" lon="-0.8885">
        <ele>18.4</ele>
        <time>2012-04-16T12:44:33Z</time>
      </trkpt>
      <trkpt lat="44.64905" lon="-0.88836">
        <ele>19.36</ele>
        <time>2012-04-16T12:44:37Z</time>
      </trkpt>
      <trkpt lat="44.64906" lon="-0.88821">
        <ele>19.36</ele>
        <time>2012-04-16T12:44:41Z</time>
      </trkpt>
      <trkpt lat="44.64911" lon="-0.88808">
        <ele>20.32</ele>
        <time>2012-04-16T12:44:45Z</time>
      </trkpt>
      <trkpt lat="44.64917" lon="-0.88798">
        <ele>19.36</ele>
        <time>2012-04-16T12:44:49Z</time>
      </trkpt>
      <trkpt lat="44.64926" lon="-0.88793">
        <ele>20.32</ele>
        <time>2012-04-16T12:44:53Z</time>
      </trkpt>
      <trkpt lat="44.64935" lon="-0.88798">
        <ele>21.77</ele>
        <time>2012-04-16T12:45:00Z</time>
      </trkpt>
      <trkpt lat="44.64944" lon="-0.8879">
        <ele>20.81</ele>
        <time>2012-04-16T12:45:07Z</time>
      </trkpt>
      <trkpt lat="44.64955" lon="-0.8878">
        <ele>21.77</ele>
        <time>2012-04-16T12:45:15Z</time>
      </trkpt>
      <trkpt lat="44.64965" lon="-0.88772">
        <ele>22.25</ele>
        <time>2012-04-16T12:45:20Z</time>
      </trkpt>
      <trkpt lat="44.64973" lon="-0.88763">
        <ele>21.29</ele>
        <time>2012-04-16T12:45:24Z</time>
      </trkpt>
      <trkpt lat="44.64981" lon="-0.88753">
        <ele>21.77</ele>
        <time>2012-04-16T12:45:28Z</time>
      </trkpt>
      <trkpt lat="44.64987" lon="-0.88739">
        <ele>22.25</ele>
        <time>2012-04-16T12:45:33Z</time>
      </trkpt>
      <trkpt lat="44.64994" lon="-0.88727">
        <ele>23.21</ele>
        <time>2012-04-16T12:45:39Z</time>
      </trkpt>
      <trkpt lat="44.65" lon="-0.88712">
        <ele>23.21</ele>
        <time>2012-04-16T12:45:44Z</time>
      </trkpt>
      <trkpt lat="44.6501" lon="-0.887">
        <ele>22.25</ele>
        <time>2012-04-16T12:45:50Z</time>
      </trkpt>
      <trkpt lat="44.65017" lon="-0.8869">
        <ele>22.73</ele>
        <time>2012-04-16T12:45:54Z</time>
      </trkpt>
      <trkpt lat="44.65023" lon="-0.88676">
        <ele>23.69</ele>
        <time>2012-04-16T12:45:59Z</time>
      </trkpt>
      <trkpt lat="44.65027" lon="-0.88663">
        <ele>23.69</ele>
        <time>2012-04-16T12:46:03Z</time>
      </trkpt>
      <trkpt lat="44.65033" lon="-0.8865">
        <ele>22.73</ele>
        <time>2012-04-16T12:46:08Z</time>
      </trkpt>
      <trkpt lat="44.6504" lon="-0.88635">
        <ele>23.69</ele>
        <time>2012-04-16T12:46:12Z</time>
      </trkpt>
      <trkpt lat="44.6505" lon="-0.88621">
        <ele>25.13</ele>
        <time>2012-04-16T12:46:17Z</time>
      </trkpt>
      <trkpt lat="44.65054" lon="-0.88604">
        <ele>25.61</ele>
        <time>2012-04-16T12:46:22Z</time>
      </trkpt>
      <trkpt lat="44.65058" lon="-0.88589">
        <ele>24.17</ele>
        <time>2012-04-16T12:46:27Z</time>
      </trkpt>
      <trkpt lat="44.65064" lon="-0.88575">
        <ele>22.25</ele>
        <time>2012-04-16T12:46:32Z</time>
      </trkpt>
      <trkpt lat="44.65067" lon="-0.88553">
        <ele>22.25</ele>
        <time>2012-04-16T12:46:36Z</time>
      </trkpt>
      <trkpt lat="44.6507" lon="-0.88534">
        <ele>23.21</ele>
        <time>2012-04-16T12:46:40Z</time>
      </trkpt>
      <trkpt lat="44.65069" lon="-0.88515">
        <ele>23.69</ele>
        <time>2012-04-16T12:46:45Z</time>
      </trkpt>
      <trkpt lat="44.65068" lon="-0.88498">
        <ele>23.69</ele>
        <time>2012-04-16T12:47:42Z</time>
      </trkpt>
      <trkpt lat="44.65077" lon="-0.88482">
        <ele>24.65</ele>
        <time>2012-04-16T12:47:49Z</time>
      </trkpt>
      <trkpt lat="44.65086" lon="-0.88471">
        <ele>26.09</ele>
        <time>2012-04-16T12:47:56Z</time>
      </trkpt>
      <trkpt lat="44.65094" lon="-0.88459">
        <ele>27.53</ele>
        <time>2012-04-16T12:48:02Z</time>
      </trkpt>
      <trkpt lat="44.651" lon="-0.88447">
        <ele>27.53</ele>
        <time>2012-04-16T12:48:08Z</time>
      </trkpt>
      <trkpt lat="44.65104" lon="-0.88436">
        <ele>27.53</ele>
        <time>2012-04-16T12:49:02Z</time>
      </trkpt>
      <trkpt lat="44.65107" lon="-0.88425">
        <ele>27.05</ele>
        <time>2012-04-16T12:50:41Z</time>
      </trkpt>
      <trkpt lat="44.65113" lon="-0.88408">
        <ele>26.57</ele>
        <time>2012-04-16T12:50:47Z</time>
      </trkpt>
      <trkpt lat="44.65118" lon="-0.88392">
        <ele>24.17</ele>
        <time>2012-04-16T12:50:51Z</time>
      </trkpt>
      <trkpt lat="44.65128" lon="-0.88376">
        <ele>23.69</ele>
        <time>2012-04-16T12:50:54Z</time>
      </trkpt>
      <trkpt lat="44.6514" lon="-0.88369">
        <ele>24.17</ele>
        <time>2012-04-16T12:50:58Z</time>
      </trkpt>
      <trkpt lat="44.65156" lon="-0.8837">
        <ele>25.13</ele>
        <time>2012-04-16T12:51:03Z</time>
      </trkpt>
      <trkpt lat="44.65168" lon="-0.88365">
        <ele>26.09</ele>
        <time>2012-04-16T12:51:08Z</time>
      </trkpt>
      <trkpt lat="44.65177" lon="-0.88356">
        <ele>25.61</ele>
        <time>2012-04-16T12:51:12Z</time>
      </trkpt>
      <trkpt lat="44.65186" lon="-0.88349">
        <ele>25.61</ele>
        <time>2012-04-16T12:51:16Z</time>
      </trkpt>
      <trkpt lat="44.65194" lon="-0.88343">
        <ele>26.09</ele>
        <time>2012-04-16T12:51:20Z</time>
      </trkpt>
      <trkpt lat="44.65202" lon="-0.88332">
        <ele>25.61</ele>
        <time>2012-04-16T12:51:25Z</time>
      </trkpt>
      <trkpt lat="44.65208" lon="-0.88321">
        <ele>25.61</ele>
        <time>2012-04-16T12:51:30Z</time>
      </trkpt>
      <trkpt lat="44.65212" lon="-0.88306">
        <ele>25.13</ele>
        <time>2012-04-16T12:51:34Z</time>
      </trkpt>
      <trkpt lat="44.65215" lon="-0.88292">
        <ele>25.61</ele>
        <time>2012-04-16T12:51:38Z</time>
      </trkpt>
      <trkpt lat="44.65217" lon="-0.88279">
        <ele>25.61</ele>
        <time>2012-04-16T12:51:42Z</time>
      </trkpt>
      <trkpt lat="44.65216" lon="-0.88266">
        <ele>25.13</ele>
        <time>2012-04-16T12:51:46Z</time>
      </trkpt>
      <trkpt lat="44.65213" lon="-0.88252">
        <ele>25.61</ele>
        <time>2012-04-16T12:51:50Z</time>
      </trkpt>
      <trkpt lat="44.65208" lon="-0.88237">
        <ele>24.65</ele>
        <time>2012-04-16T12:51:54Z</time>
      </trkpt>
      <trkpt lat="44.65203" lon="-0.88224">
        <ele>25.13</ele>
        <time>2012-04-16T12:51:58Z</time>
      </trkpt>
      <trkpt lat="44.65196" lon="-0.88214">
        <ele>25.61</ele>
        <time>2012-04-16T12:52:02Z</time>
      </trkpt>
      <trkpt lat="44.65187" lon="-0.88205">
        <ele>24.65</ele>
        <time>2012-04-16T12:52:06Z</time>
      </trkpt>
      <trkpt lat="44.65179" lon="-0.88198">
        <ele>25.61</ele>
        <time>2012-04-16T12:52:10Z</time>
      </trkpt>
      <trkpt lat="44.65173" lon="-0.88187">
        <ele>26.09</ele>
        <time>2012-04-16T12:52:14Z</time>
      </trkpt>
      <trkpt lat="44.65173" lon="-0.88175">
        <ele>27.05</ele>
        <time>2012-04-16T12:52:19Z</time>
      </trkpt>
      <trkpt lat="44.65184" lon="-0.88169">
        <ele>28.02</ele>
        <time>2012-04-16T12:52:24Z</time>
      </trkpt>
      <trkpt lat="44.65187" lon="-0.88165">
        <ele>27.53</ele>
        <time>2012-04-16T13:02:10Z</time>
      </trkpt>
      <trkpt lat="44.65195" lon="-0.88159">
        <ele>28.98</ele>
        <time>2012-04-16T13:04:07Z</time>
      </trkpt>
      <trkpt lat="44.65205" lon="-0.88149">
        <ele>29.46</ele>
        <time>2012-04-16T13:04:14Z</time>
      </trkpt>
      <trkpt lat="44.65213" lon="-0.88141">
        <ele>30.42</ele>
        <time>2012-04-16T13:04:19Z</time>
      </trkpt>
      <trkpt lat="44.65221" lon="-0.88131">
        <ele>30.9</ele>
        <time>2012-04-16T13:04:24Z</time>
      </trkpt>
      <trkpt lat="44.6523" lon="-0.88122">
        <ele>30.9</ele>
        <time>2012-04-16T13:04:28Z</time>
      </trkpt>
      <trkpt lat="44.65238" lon="-0.88114">
        <ele>29.94</ele>
        <time>2012-04-16T13:04:31Z</time>
      </trkpt>
      <trkpt lat="44.65247" lon="-0.88105">
        <ele>30.42</ele>
        <time>2012-04-16T13:04:34Z</time>
      </trkpt>
      <trkpt lat="44.65257" lon="-0.88095">
        <ele>29.94</ele>
        <time>2012-04-16T13:04:38Z</time>
      </trkpt>
      <trkpt lat="44.65265" lon="-0.88089">
        <ele>29.94</ele>
        <time>2012-04-16T13:04:41Z</time>
      </trkpt>
      <trkpt lat="44.65273" lon="-0.88082">
        <ele>30.9</ele>
        <time>2012-04-16T13:04:44Z</time>
      </trkpt>
      <trkpt lat="44.65281" lon="-0.88072">
        <ele>30.42</ele>
        <time>2012-04-16T13:04:48Z</time>
      </trkpt>
      <trkpt lat="44.65291" lon="-0.88065">
        <ele>29.94</ele>
        <time>2012-04-16T13:04:52Z</time>
      </trkpt>
      <trkpt lat="44.65292" lon="-0.88051">
        <ele>29.46</ele>
        <time>2012-04-16T13:04:56Z</time>
      </trkpt>
      <trkpt lat="44.65293" lon="-0.88035">
        <ele>29.46</ele>
        <time>2012-04-16T13:05:00Z</time>
      </trkpt>
      <trkpt lat="44.65293" lon="-0.88022">
        <ele>29.46</ele>
        <time>2012-04-16T13:05:03Z</time>
      </trkpt>
      <trkpt lat="44.65292" lon="-0.88004">
        <ele>29.46</ele>
        <time>2012-04-16T13:05:07Z</time>
      </trkpt>
      <trkpt lat="44.65292" lon="-0.8799">
        <ele>29.46</ele>
        <time>2012-04-16T13:05:10Z</time>
      </trkpt>
      <trkpt lat="44.65292" lon="-0.87976">
        <ele>29.46</ele>
        <time>2012-04-16T13:05:13Z</time>
      </trkpt>
      <trkpt lat="44.65293" lon="-0.87962">
        <ele>29.94</ele>
        <time>2012-04-16T13:05:16Z</time>
      </trkpt>
      <trkpt lat="44.65295" lon="-0.87948">
        <ele>30.42</ele>
        <time>2012-04-16T13:05:19Z</time>
      </trkpt>
      <trkpt lat="44.65295" lon="-0.87934">
        <ele>30.42</ele>
        <time>2012-04-16T13:05:22Z</time>
      </trkpt>
      <trkpt lat="44.65292" lon="-0.8792">
        <ele>29.94</ele>
        <time>2012-04-16T13:05:25Z</time>
      </trkpt>
      <trkpt lat="44.65289" lon="-0.87906">
        <ele>30.42</ele>
        <time>2012-04-16T13:05:28Z</time>
      </trkpt>
      <trkpt lat="44.65287" lon="-0.87891">
        <ele>30.9</ele>
        <time>2012-04-16T13:05:31Z</time>
      </trkpt>
      <trkpt lat="44.65284" lon="-0.87877">
        <ele>30.42</ele>
        <time>2012-04-16T13:05:34Z</time>
      </trkpt>
      <trkpt lat="44.65283" lon="-0.87861">
        <ele>30.42</ele>
        <time>2012-04-16T13:05:37Z</time>
      </trkpt>
      <trkpt lat="44.65282" lon="-0.87845">
        <ele>30.9</ele>
        <time>2012-04-16T13:05:40Z</time>
      </trkpt>
      <trkpt lat="44.6528" lon="-0.87828">
        <ele>30.9</ele>
        <time>2012-04-16T13:05:43Z</time>
      </trkpt>
      <trkpt lat="44.65279" lon="-0.87813">
        <ele>30.9</ele>
        <time>2012-04-16T13:05:46Z</time>
      </trkpt>
      <trkpt lat="44.65278" lon="-0.87799">
        <ele>30.9</ele>
        <time>2012-04-16T13:05:49Z</time>
      </trkpt>
      <trkpt lat="44.65276" lon="-0.87783">
        <ele>29.94</ele>
        <time>2012-04-16T13:05:52Z</time>
      </trkpt>
      <trkpt lat="44.65273" lon="-0.87765">
        <ele>28.98</ele>
        <time>2012-04-16T13:05:55Z</time>
      </trkpt>
      <trkpt lat="44.6527" lon="-0.87751">
        <ele>28.02</ele>
        <time>2012-04-16T13:05:57Z</time>
      </trkpt>
      <trkpt lat="44.65267" lon="-0.87736">
        <ele>27.05</ele>
        <time>2012-04-16T13:05:59Z</time>
      </trkpt>
      <trkpt lat="44.65266" lon="-0.87719">
        <ele>27.05</ele>
        <time>2012-04-16T13:06:01Z</time>
      </trkpt>
      <trkpt lat="44.65264" lon="-0.87702">
        <ele>27.05</ele>
        <time>2012-04-16T13:06:03Z</time>
      </trkpt>
      <trkpt lat="44.65259" lon="-0.87687">
        <ele>26.57</ele>
        <time>2012-04-16T13:06:05Z</time>
      </trkpt>
      <trkpt lat="44.65255" lon="-0.87673">
        <ele>26.57</ele>
        <time>2012-04-16T13:06:07Z</time>
      </trkpt>
      <trkpt lat="44.65251" lon="-0.87661">
        <ele>26.09</ele>
        <time>2012-04-16T13:06:09Z</time>
      </trkpt>
      <trkpt lat="44.65242" lon="-0.87649">
        <ele>26.09</ele>
        <time>2012-04-16T13:06:12Z</time>
      </trkpt>
      <trkpt lat="44.65232" lon="-0.87636">
        <ele>26.09</ele>
        <time>2012-04-16T13:06:15Z</time>
      </trkpt>
      <trkpt lat="44.65222" lon="-0.87624">
        <ele>25.61</ele>
        <time>2012-04-16T13:06:18Z</time>
      </trkpt>
      <trkpt lat="44.65212" lon="-0.87611">
        <ele>25.13</ele>
        <time>2012-04-16T13:06:21Z</time>
      </trkpt>
      <trkpt lat="44.65202" lon="-0.87599">
        <ele>24.65</ele>
        <time>2012-04-16T13:06:24Z</time>
      </trkpt>
      <trkpt lat="44.65194" lon="-0.87591">
        <ele>24.17</ele>
        <time>2012-04-16T13:06:26Z</time>
      </trkpt>
      <trkpt lat="44.65182" lon="-0.87583">
        <ele>24.17</ele>
        <time>2012-04-16T13:06:29Z</time>
      </trkpt>
      <trkpt lat="44.65171" lon="-0.87577">
        <ele>23.69</ele>
        <time>2012-04-16T13:06:32Z</time>
      </trkpt>
      <trkpt lat="44.65157" lon="-0.87572">
        <ele>23.69</ele>
        <time>2012-04-16T13:06:35Z</time>
      </trkpt>
      <trkpt lat="44.65144" lon="-0.87568">
        <ele>23.21</ele>
        <time>2012-04-16T13:06:38Z</time>
      </trkpt>
      <trkpt lat="44.65134" lon="-0.87565">
        <ele>23.69</ele>
        <time>2012-04-16T13:06:40Z</time>
      </trkpt>
      <trkpt lat="44.65125" lon="-0.8756">
        <ele>23.21</ele>
        <time>2012-04-16T13:06:42Z</time>
      </trkpt>
      <trkpt lat="44.65115" lon="-0.87556">
        <ele>23.21</ele>
        <time>2012-04-16T13:06:44Z</time>
      </trkpt>
      <trkpt lat="44.65105" lon="-0.87551">
        <ele>23.21</ele>
        <time>2012-04-16T13:06:46Z</time>
      </trkpt>
      <trkpt lat="44.65096" lon="-0.87546">
        <ele>22.73</ele>
        <time>2012-04-16T13:06:48Z</time>
      </trkpt>
      <trkpt lat="44.65087" lon="-0.8754">
        <ele>22.73</ele>
        <time>2012-04-16T13:06:50Z</time>
      </trkpt>
      <trkpt lat="44.65077" lon="-0.87528">
        <ele>22.25</ele>
        <time>2012-04-16T13:06:53Z</time>
      </trkpt>
      <trkpt lat="44.65072" lon="-0.87513">
        <ele>22.25</ele>
        <time>2012-04-16T13:06:56Z</time>
      </trkpt>
      <trkpt lat="44.65073" lon="-0.87495">
        <ele>22.25</ele>
        <time>2012-04-16T13:06:59Z</time>
      </trkpt>
      <trkpt lat="44.65074" lon="-0.87479">
        <ele>23.69</ele>
        <time>2012-04-16T13:07:02Z</time>
      </trkpt>
      <trkpt lat="44.6507" lon="-0.87463">
        <ele>23.69</ele>
        <time>2012-04-16T13:07:05Z</time>
      </trkpt>
      <trkpt lat="44.65064" lon="-0.87449">
        <ele>22.73</ele>
        <time>2012-04-16T13:07:08Z</time>
      </trkpt>
      <trkpt lat="44.6506" lon="-0.87436">
        <ele>22.25</ele>
        <time>2012-04-16T13:07:10Z</time>
      </trkpt>
      <trkpt lat="44.65056" lon="-0.87422">
        <ele>21.77</ele>
        <time>2012-04-16T13:07:12Z</time>
      </trkpt>
      <trkpt lat="44.65054" lon="-0.87407">
        <ele>22.25</ele>
        <time>2012-04-16T13:07:14Z</time>
      </trkpt>
      <trkpt lat="44.6505" lon="-0.87393">
        <ele>22.25</ele>
        <time>2012-04-16T13:07:16Z</time>
      </trkpt>
      <trkpt lat="44.65046" lon="-0.8738">
        <ele>21.77</ele>
        <time>2012-04-16T13:07:18Z</time>
      </trkpt>
      <trkpt lat="44.65043" lon="-0.87367">
        <ele>22.25</ele>
        <time>2012-04-16T13:07:20Z</time>
      </trkpt>
      <trkpt lat="44.6504" lon="-0.87354">
        <ele>21.77</ele>
        <time>2012-04-16T13:07:22Z</time>
      </trkpt>
      <trkpt lat="44.65037" lon="-0.8734">
        <ele>22.25</ele>
        <time>2012-04-16T13:07:24Z</time>
      </trkpt>
      <trkpt lat="44.65035" lon="-0.87326">
        <ele>22.73</ele>
        <time>2012-04-16T13:07:26Z</time>
      </trkpt>
      <trkpt lat="44.65034" lon="-0.87313">
        <ele>22.73</ele>
        <time>2012-04-16T13:07:28Z</time>
      </trkpt>
      <trkpt lat="44.65034" lon="-0.87295">
        <ele>23.21</ele>
        <time>2012-04-16T13:07:31Z</time>
      </trkpt>
      <trkpt lat="44.65034" lon="-0.87278">
        <ele>23.69</ele>
        <time>2012-04-16T13:07:34Z</time>
      </trkpt>
      <trkpt lat="44.65033" lon="-0.87261">
        <ele>24.17</ele>
        <time>2012-04-16T13:07:37Z</time>
      </trkpt>
      <trkpt lat="44.65027" lon="-0.87244">
        <ele>24.17</ele>
        <time>2012-04-16T13:07:40Z</time>
      </trkpt>
      <trkpt lat="44.65019" lon="-0.8723">
        <ele>24.65</ele>
        <time>2012-04-16T13:07:43Z</time>
      </trkpt>
      <trkpt lat="44.65009" lon="-0.8722">
        <ele>25.13</ele>
        <time>2012-04-16T13:07:46Z</time>
      </trkpt>
      <trkpt lat="44.64999" lon="-0.87219">
        <ele>25.61</ele>
        <time>2012-04-16T13:07:49Z</time>
      </trkpt>
      <trkpt lat="44.64988" lon="-0.87224">
        <ele>26.57</ele>
        <time>2012-04-16T13:07:53Z</time>
      </trkpt>
      <trkpt lat="44.64976" lon="-0.8723">
        <ele>27.53</ele>
        <time>2012-04-16T13:07:57Z</time>
      </trkpt>
      <trkpt lat="44.64967" lon="-0.87236">
        <ele>27.53</ele>
        <time>2012-04-16T13:08:00Z</time>
      </trkpt>
      <trkpt lat="44.64958" lon="-0.87238">
        <ele>28.98</ele>
        <time>2012-04-16T13:08:03Z</time>
      </trkpt>
      <trkpt lat="44.64947" lon="-0.87243">
        <ele>29.94</ele>
        <time>2012-04-16T13:08:07Z</time>
      </trkpt>
      <trkpt lat="44.64936" lon="-0.87245">
        <ele>31.38</ele>
        <time>2012-04-16T13:08:11Z</time>
      </trkpt>
      <trkpt lat="44.64924" lon="-0.87246">
        <ele>33.3</ele>
        <time>2012-04-16T13:08:15Z</time>
      </trkpt>
      <trkpt lat="44.64914" lon="-0.87247">
        <ele>34.26</ele>
        <time>2012-04-16T13:08:18Z</time>
      </trkpt>
      <trkpt lat="44.64905" lon="-0.87245">
        <ele>34.74</ele>
        <time>2012-04-16T13:08:21Z</time>
      </trkpt>
      <trkpt lat="44.64894" lon="-0.87241">
        <ele>35.23</ele>
        <time>2012-04-16T13:08:25Z</time>
      </trkpt>
      <trkpt lat="44.64885" lon="-0.87234">
        <ele>35.71</ele>
        <time>2012-04-16T13:08:29Z</time>
      </trkpt>
      <trkpt lat="44.64876" lon="-0.8724">
        <ele>36.67</ele>
        <time>2012-04-16T13:08:33Z</time>
      </trkpt>
      <trkpt lat="44.64869" lon="-0.87251">
        <ele>36.67</ele>
        <time>2012-04-16T13:08:36Z</time>
      </trkpt>
      <trkpt lat="44.64862" lon="-0.87262">
        <ele>36.67</ele>
        <time>2012-04-16T13:08:39Z</time>
      </trkpt>
      <trkpt lat="44.64856" lon="-0.87276">
        <ele>36.67</ele>
        <time>2012-04-16T13:08:42Z</time>
      </trkpt>
      <trkpt lat="44.64854" lon="-0.8729">
        <ele>36.67</ele>
        <time>2012-04-16T13:08:45Z</time>
      </trkpt>
      <trkpt lat="44.64854" lon="-0.87306">
        <ele>37.15</ele>
        <time>2012-04-16T13:08:48Z</time>
      </trkpt>
      <trkpt lat="44.64855" lon="-0.8732">
        <ele>37.15</ele>
        <time>2012-04-16T13:08:51Z</time>
      </trkpt>
      <trkpt lat="44.64857" lon="-0.87333">
        <ele>36.67</ele>
        <time>2012-04-16T13:08:54Z</time>
      </trkpt>
      <trkpt lat="44.64862" lon="-0.87347">
        <ele>36.67</ele>
        <time>2012-04-16T13:08:57Z</time>
      </trkpt>
      <trkpt lat="44.64866" lon="-0.87361">
        <ele>37.63</ele>
        <time>2012-04-16T13:09:00Z</time>
      </trkpt>
      <trkpt lat="44.64871" lon="-0.87375">
        <ele>37.15</ele>
        <time>2012-04-16T13:09:03Z</time>
      </trkpt>
      <trkpt lat="44.64876" lon="-0.87391">
        <ele>37.15</ele>
        <time>2012-04-16T13:09:06Z</time>
      </trkpt>
      <trkpt lat="44.6488" lon="-0.87406">
        <ele>37.15</ele>
        <time>2012-04-16T13:09:09Z</time>
      </trkpt>
      <trkpt lat="44.64885" lon="-0.87422">
        <ele>37.15</ele>
        <time>2012-04-16T13:09:12Z</time>
      </trkpt>
      <trkpt lat="44.64888" lon="-0.87438">
        <ele>37.15</ele>
        <time>2012-04-16T13:09:15Z</time>
      </trkpt>
      <trkpt lat="44.64889" lon="-0.87454">
        <ele>37.15</ele>
        <time>2012-04-16T13:09:18Z</time>
      </trkpt>
      <trkpt lat="44.64888" lon="-0.87471">
        <ele>36.19</ele>
        <time>2012-04-16T13:09:21Z</time>
      </trkpt>
      <trkpt lat="44.64883" lon="-0.87487">
        <ele>36.19</ele>
        <time>2012-04-16T13:09:24Z</time>
      </trkpt>
      <trkpt lat="44.64878" lon="-0.87502">
        <ele>36.19</ele>
        <time>2012-04-16T13:09:27Z</time>
      </trkpt>
      <trkpt lat="44.64871" lon="-0.87516">
        <ele>35.71</ele>
        <time>2012-04-16T13:09:30Z</time>
      </trkpt>
      <trkpt lat="44.64865" lon="-0.87532">
        <ele>36.19</ele>
        <time>2012-04-16T13:09:33Z</time>
      </trkpt>
      <trkpt lat="44.6486" lon="-0.87547">
        <ele>36.67</ele>
        <time>2012-04-16T13:09:36Z</time>
      </trkpt>
      <trkpt lat="44.64854" lon="-0.87562">
        <ele>36.67</ele>
        <time>2012-04-16T13:09:39Z</time>
      </trkpt>
      <trkpt lat="44.64853" lon="-0.87578">
        <ele>36.67</ele>
        <time>2012-04-16T13:09:42Z</time>
      </trkpt>
      <trkpt lat="44.64852" lon="-0.87596">
        <ele>36.67</ele>
        <time>2012-04-16T13:09:45Z</time>
      </trkpt>
      <trkpt lat="44.64853" lon="-0.87615">
        <ele>36.67</ele>
        <time>2012-04-16T13:09:48Z</time>
      </trkpt>
      <trkpt lat="44.64854" lon="-0.87634">
        <ele>36.67</ele>
        <time>2012-04-16T13:09:51Z</time>
      </trkpt>
      <trkpt lat="44.64857" lon="-0.87652">
        <ele>36.67</ele>
        <time>2012-04-16T13:09:54Z</time>
      </trkpt>
      <trkpt lat="44.64859" lon="-0.87669">
        <ele>35.71</ele>
        <time>2012-04-16T13:09:57Z</time>
      </trkpt>
      <trkpt lat="44.64861" lon="-0.87687">
        <ele>35.23</ele>
        <time>2012-04-16T13:10:00Z</time>
      </trkpt>
      <trkpt lat="44.64863" lon="-0.87704">
        <ele>35.23</ele>
        <time>2012-04-16T13:10:03Z</time>
      </trkpt>
      <trkpt lat="44.64866" lon="-0.87723">
        <ele>34.74</ele>
        <time>2012-04-16T13:10:06Z</time>
      </trkpt>
      <trkpt lat="44.64868" lon="-0.8774">
        <ele>34.74</ele>
        <time>2012-04-16T13:10:09Z</time>
      </trkpt>
      <trkpt lat="44.6487" lon="-0.87758">
        <ele>34.26</ele>
        <time>2012-04-16T13:10:12Z</time>
      </trkpt>
      <trkpt lat="44.64873" lon="-0.87775">
        <ele>34.74</ele>
        <time>2012-04-16T13:10:15Z</time>
      </trkpt>
      <trkpt lat="44.64879" lon="-0.87792">
        <ele>34.74</ele>
        <time>2012-04-16T13:10:18Z</time>
      </trkpt>
      <trkpt lat="44.64883" lon="-0.8781">
        <ele>34.74</ele>
        <time>2012-04-16T13:10:21Z</time>
      </trkpt>
      <trkpt lat="44.64887" lon="-0.87828">
        <ele>34.74</ele>
        <time>2012-04-16T13:10:24Z</time>
      </trkpt>
      <trkpt lat="44.64891" lon="-0.87847">
        <ele>35.23</ele>
        <time>2012-04-16T13:10:27Z</time>
      </trkpt>
      <trkpt lat="44.64896" lon="-0.87863">
        <ele>34.74</ele>
        <time>2012-04-16T13:10:30Z</time>
      </trkpt>
      <trkpt lat="44.64902" lon="-0.8788">
        <ele>34.74</ele>
        <time>2012-04-16T13:10:33Z</time>
      </trkpt>
      <trkpt lat="44.64906" lon="-0.87891">
        <ele>34.26</ele>
        <time>2012-04-16T13:10:35Z</time>
      </trkpt>
      <trkpt lat="44.6491" lon="-0.87903">
        <ele>34.26</ele>
        <time>2012-04-16T13:10:37Z</time>
      </trkpt>
      <trkpt lat="44.64915" lon="-0.87915">
        <ele>33.78</ele>
        <time>2012-04-16T13:10:39Z</time>
      </trkpt>
      <trkpt lat="44.6492" lon="-0.87926">
        <ele>33.3</ele>
        <time>2012-04-16T13:10:41Z</time>
      </trkpt>
      <trkpt lat="44.64928" lon="-0.87942">
        <ele>33.3</ele>
        <time>2012-04-16T13:10:44Z</time>
      </trkpt>
      <trkpt lat="44.64934" lon="-0.87959">
        <ele>33.3</ele>
        <time>2012-04-16T13:10:47Z</time>
      </trkpt>
      <trkpt lat="44.64937" lon="-0.87977">
        <ele>33.3</ele>
        <time>2012-04-16T13:10:50Z</time>
      </trkpt>
      <trkpt lat="44.6494" lon="-0.87995">
        <ele>32.82</ele>
        <time>2012-04-16T13:10:53Z</time>
      </trkpt>
      <trkpt lat="44.64942" lon="-0.88013">
        <ele>33.78</ele>
        <time>2012-04-16T13:10:56Z</time>
      </trkpt>
      <trkpt lat="44.64938" lon="-0.88031">
        <ele>32.82</ele>
        <time>2012-04-16T13:10:59Z</time>
      </trkpt>
      <trkpt lat="44.6493" lon="-0.88042">
        <ele>32.82</ele>
        <time>2012-04-16T13:11:02Z</time>
      </trkpt>
      <trkpt lat="44.64919" lon="-0.88051">
        <ele>32.82</ele>
        <time>2012-04-16T13:11:05Z</time>
      </trkpt>
      <trkpt lat="44.64906" lon="-0.88056">
        <ele>32.82</ele>
        <time>2012-04-16T13:11:08Z</time>
      </trkpt>
      <trkpt lat="44.64893" lon="-0.88063">
        <ele>32.82</ele>
        <time>2012-04-16T13:11:11Z</time>
      </trkpt>
      <trkpt lat="44.64882" lon="-0.88073">
        <ele>32.82</ele>
        <time>2012-04-16T13:11:14Z</time>
      </trkpt>
      <trkpt lat="44.64872" lon="-0.88086">
        <ele>33.3</ele>
        <time>2012-04-16T13:11:17Z</time>
      </trkpt>
      <trkpt lat="44.64865" lon="-0.88101">
        <ele>33.3</ele>
        <time>2012-04-16T13:11:20Z</time>
      </trkpt>
      <trkpt lat="44.64859" lon="-0.88117">
        <ele>33.3</ele>
        <time>2012-04-16T13:11:23Z</time>
      </trkpt>
      <trkpt lat="44.64853" lon="-0.88134">
        <ele>33.78</ele>
        <time>2012-04-16T13:11:26Z</time>
      </trkpt>
      <trkpt lat="44.64846" lon="-0.88149">
        <ele>33.78</ele>
        <time>2012-04-16T13:11:29Z</time>
      </trkpt>
      <trkpt lat="44.64837" lon="-0.88165">
        <ele>33.78</ele>
        <time>2012-04-16T13:11:32Z</time>
      </trkpt>
      <trkpt lat="44.6483" lon="-0.88181">
        <ele>34.26</ele>
        <time>2012-04-16T13:11:35Z</time>
      </trkpt>
      <trkpt lat="44.64826" lon="-0.88192">
        <ele>34.26</ele>
        <time>2012-04-16T13:11:37Z</time>
      </trkpt>
      <trkpt lat="44.64819" lon="-0.88207">
        <ele>34.26</ele>
        <time>2012-04-16T13:11:40Z</time>
      </trkpt>
      <trkpt lat="44.64813" lon="-0.88221">
        <ele>34.26</ele>
        <time>2012-04-16T13:11:43Z</time>
      </trkpt>
      <trkpt lat="44.64806" lon="-0.88235">
        <ele>33.78</ele>
        <time>2012-04-16T13:11:46Z</time>
      </trkpt>
      <trkpt lat="44.64799" lon="-0.88251">
        <ele>33.78</ele>
        <time>2012-04-16T13:11:49Z</time>
      </trkpt>
      <trkpt lat="44.64792" lon="-0.88266">
        <ele>33.3</ele>
        <time>2012-04-16T13:11:52Z</time>
      </trkpt>
      <trkpt lat="44.64786" lon="-0.8828">
        <ele>33.3</ele>
        <time>2012-04-16T13:11:55Z</time>
      </trkpt>
      <trkpt lat="44.64782" lon="-0.88294">
        <ele>33.3</ele>
        <time>2012-04-16T13:11:58Z</time>
      </trkpt>
      <trkpt lat="44.64785" lon="-0.883">
        <ele>33.3</ele>
        <time>2012-04-16T13:12:01Z</time>
      </trkpt>
      <trkpt lat="44.64798" lon="-0.88296">
        <ele>33.78</ele>
        <time>2012-04-16T13:12:05Z</time>
      </trkpt>
      <trkpt lat="44.64822" lon="-0.88294">
        <ele>33.3</ele>
        <time>2012-04-16T13:12:09Z</time>
      </trkpt>
      <trkpt lat="44.64846" lon="-0.8829">
        <ele>32.34</ele>
        <time>2012-04-16T13:12:13Z</time>
      </trkpt>
      <trkpt lat="44.64842" lon="-0.88299">
        <ele>32.34</ele>
        <time>2012-04-16T13:13:23Z</time>
      </trkpt>
      <trkpt lat="44.64835" lon="-0.88321">
        <ele>33.78</ele>
        <time>2012-04-16T13:13:28Z</time>
      </trkpt>
      <trkpt lat="44.6483" lon="-0.88336">
        <ele>34.74</ele>
        <time>2012-04-16T13:13:32Z</time>
      </trkpt>
      <trkpt lat="44.64827" lon="-0.88352">
        <ele>34.26</ele>
        <time>2012-04-16T13:13:36Z</time>
      </trkpt>
      <trkpt lat="44.6482" lon="-0.88366">
        <ele>34.26</ele>
        <time>2012-04-16T13:13:40Z</time>
      </trkpt>
      <trkpt lat="44.64807" lon="-0.88367">
        <ele>33.3</ele>
        <time>2012-04-16T13:13:44Z</time>
      </trkpt>
      <trkpt lat="44.64792" lon="-0.88359">
        <ele>33.78</ele>
        <time>2012-04-16T13:13:48Z</time>
      </trkpt>
      <trkpt lat="44.6478" lon="-0.88359">
        <ele>33.3</ele>
        <time>2012-04-16T13:13:51Z</time>
      </trkpt>
      <trkpt lat="44.64772" lon="-0.88364">
        <ele>33.78</ele>
        <time>2012-04-16T13:13:54Z</time>
      </trkpt>
      <trkpt lat="44.64768" lon="-0.88378">
        <ele>33.3</ele>
        <time>2012-04-16T13:13:58Z</time>
      </trkpt>
      <trkpt lat="44.64775" lon="-0.88396">
        <ele>33.3</ele>
        <time>2012-04-16T13:14:02Z</time>
      </trkpt>
      <trkpt lat="44.64787" lon="-0.88413">
        <ele>33.3</ele>
        <time>2012-04-16T13:14:06Z</time>
      </trkpt>
      <trkpt lat="44.64796" lon="-0.88426">
        <ele>33.3</ele>
        <time>2012-04-16T13:14:09Z</time>
      </trkpt>
      <trkpt lat="44.648" lon="-0.8844">
        <ele>32.82</ele>
        <time>2012-04-16T13:14:13Z</time>
      </trkpt>
      <trkpt lat="44.64792" lon="-0.88451">
        <ele>32.82</ele>
        <time>2012-04-16T13:14:20Z</time>
      </trkpt>
      <trkpt lat="44.64789" lon="-0.88464">
        <ele>32.82</ele>
        <time>2012-04-16T13:14:26Z</time>
      </trkpt>
      <trkpt lat="44.64782" lon="-0.88476">
        <ele>32.34</ele>
        <time>2012-04-16T13:14:31Z</time>
      </trkpt>
      <trkpt lat="44.64778" lon="-0.88488">
        <ele>29.94</ele>
        <time>2012-04-16T13:14:37Z</time>
      </trkpt>
      <trkpt lat="44.6478" lon="-0.88509">
        <ele>28.5</ele>
        <time>2012-04-16T13:14:42Z</time>
      </trkpt>
      <trkpt lat="44.64782" lon="-0.88527">
        <ele>27.53</ele>
        <time>2012-04-16T13:14:45Z</time>
      </trkpt>
      <trkpt lat="44.64782" lon="-0.88544">
        <ele>26.09</ele>
        <time>2012-04-16T13:14:48Z</time>
      </trkpt>
      <trkpt lat="44.64781" lon="-0.8856">
        <ele>25.13</ele>
        <time>2012-04-16T13:14:54Z</time>
      </trkpt>
      <trkpt lat="44.64774" lon="-0.88574">
        <ele>24.17</ele>
        <time>2012-04-16T13:15:02Z</time>
      </trkpt>
      <trkpt lat="44.6477" lon="-0.88589">
        <ele>23.69</ele>
        <time>2012-04-16T13:15:07Z</time>
      </trkpt>
      <trkpt lat="44.64769" lon="-0.88603">
        <ele>23.21</ele>
        <time>2012-04-16T13:15:10Z</time>
      </trkpt>
      <trkpt lat="44.64767" lon="-0.88617">
        <ele>22.25</ele>
        <time>2012-04-16T13:15:13Z</time>
      </trkpt>
      <trkpt lat="44.64764" lon="-0.88635">
        <ele>22.25</ele>
        <time>2012-04-16T13:15:17Z</time>
      </trkpt>
      <trkpt lat="44.64762" lon="-0.88651">
        <ele>22.25</ele>
        <time>2012-04-16T13:15:21Z</time>
      </trkpt>
      <trkpt lat="44.64764" lon="-0.88666">
        <ele>21.29</ele>
        <time>2012-04-16T13:15:25Z</time>
      </trkpt>
      <trkpt lat="44.64767" lon="-0.88683">
        <ele>22.25</ele>
        <time>2012-04-16T13:15:30Z</time>
      </trkpt>
      <trkpt lat="44.64765" lon="-0.88697">
        <ele>21.29</ele>
        <time>2012-04-16T13:15:37Z</time>
      </trkpt>
      <trkpt lat="44.64761" lon="-0.88713">
        <ele>21.29</ele>
        <time>2012-04-16T13:15:42Z</time>
      </trkpt>
      <trkpt lat="44.64759" lon="-0.88731">
        <ele>21.29</ele>
        <time>2012-04-16T13:15:47Z</time>
      </trkpt>
      <trkpt lat="44.64757" lon="-0.88749">
        <ele>20.81</ele>
        <time>2012-04-16T13:15:51Z</time>
      </trkpt>
      <trkpt lat="44.64755" lon="-0.88763">
        <ele>20.32</ele>
        <time>2012-04-16T13:15:54Z</time>
      </trkpt>
      <trkpt lat="44.64754" lon="-0.88777">
        <ele>19.84</ele>
        <time>2012-04-16T13:15:57Z</time>
      </trkpt>
      <trkpt lat="44.6476" lon="-0.88794">
        <ele>19.36</ele>
        <time>2012-04-16T13:16:01Z</time>
      </trkpt>
      <trkpt lat="44.64768" lon="-0.88814">
        <ele>19.84</ele>
        <time>2012-04-16T13:16:05Z</time>
      </trkpt>
      <trkpt lat="44.64776" lon="-0.8883">
        <ele>20.81</ele>
        <time>2012-04-16T13:16:09Z</time>
      </trkpt>
      <trkpt lat="44.64787" lon="-0.88845">
        <ele>19.84</ele>
        <time>2012-04-16T13:16:13Z</time>
      </trkpt>
      <trkpt lat="44.64796" lon="-0.88859">
        <ele>19.84</ele>
        <time>2012-04-16T13:16:16Z</time>
      </trkpt>
      <trkpt lat="44.64799" lon="-0.88877">
        <ele>19.36</ele>
        <time>2012-04-16T13:16:20Z</time>
      </trkpt>
      <trkpt lat="44.64795" lon="-0.88897">
        <ele>19.84</ele>
        <time>2012-04-16T13:16:24Z</time>
      </trkpt>
      <trkpt lat="44.64787" lon="-0.88911">
        <ele>19.36</ele>
        <time>2012-04-16T13:16:28Z</time>
      </trkpt>
      <trkpt lat="44.64778" lon="-0.88918">
        <ele>18.88</ele>
        <time>2012-04-16T13:16:32Z</time>
      </trkpt>
      <trkpt lat="44.64772" lon="-0.8891">
        <ele>20.81</ele>
        <time>2012-04-16T13:16:36Z</time>
      </trkpt>
      <trkpt lat="44.64769" lon="-0.88902">
        <ele>22.25</ele>
        <time>2012-04-16T13:16:45Z</time>
      </trkpt>
      <trkpt lat="44.64768" lon="-0.8889">
        <ele>24.65</ele>
        <time>2012-04-16T13:17:02Z</time>
      </trkpt>
      <trkpt lat="44.6476" lon="-0.8888">
        <ele>27.05</ele>
        <time>2012-04-16T13:17:15Z</time>
      </trkpt>
      <trkpt lat="44.6475" lon="-0.88873">
        <ele>29.94</ele>
        <time>2012-04-16T13:17:26Z</time>
      </trkpt>
      <trkpt lat="44.64743" lon="-0.88878">
        <ele>30.42</ele>
        <time>2012-04-16T13:17:35Z</time>
      </trkpt>
      <trkpt lat="44.64739" lon="-0.88892">
        <ele>30.42</ele>
        <time>2012-04-16T13:17:42Z</time>
      </trkpt>
      <trkpt lat="44.64732" lon="-0.88901">
        <ele>29.94</ele>
        <time>2012-04-16T13:17:48Z</time>
      </trkpt>
      <trkpt lat="44.64727" lon="-0.88912">
        <ele>29.46</ele>
        <time>2012-04-16T13:17:54Z</time>
      </trkpt>
      <trkpt lat="44.64723" lon="-0.88928">
        <ele>27.05</ele>
        <time>2012-04-16T13:17:59Z</time>
      </trkpt>
      <trkpt lat="44.64719" lon="-0.88951">
        <ele>25.13</ele>
        <time>2012-04-16T13:18:03Z</time>
      </trkpt>
      <trkpt lat="44.64712" lon="-0.88963">
        <ele>24.65</ele>
        <time>2012-04-16T13:18:07Z</time>
      </trkpt>
      <trkpt lat="44.64706" lon="-0.88974">
        <ele>24.17</ele>
        <time>2012-04-16T13:18:11Z</time>
      </trkpt>
      <trkpt lat="44.64701" lon="-0.88985">
        <ele>24.17</ele>
        <time>2012-04-16T13:18:15Z</time>
      </trkpt>
      <trkpt lat="44.64691" lon="-0.88993">
        <ele>24.17</ele>
        <time>2012-04-16T13:18:20Z</time>
      </trkpt>
      <trkpt lat="44.64682" lon="-0.8899">
        <ele>24.17</ele>
        <time>2012-04-16T13:18:24Z</time>
      </trkpt>
      <trkpt lat="44.64673" lon="-0.88993">
        <ele>24.17</ele>
        <time>2012-04-16T13:18:28Z</time>
      </trkpt>
      <trkpt lat="44.64666" lon="-0.89005">
        <ele>24.17</ele>
        <time>2012-04-16T13:18:32Z</time>
      </trkpt>
      <trkpt lat="44.64658" lon="-0.89016">
        <ele>24.17</ele>
        <time>2012-04-16T13:18:36Z</time>
      </trkpt>
      <trkpt lat="44.6465" lon="-0.89028">
        <ele>23.69</ele>
        <time>2012-04-16T13:18:40Z</time>
      </trkpt>
      <trkpt lat="44.64643" lon="-0.8904">
        <ele>23.69</ele>
        <time>2012-04-16T13:18:44Z</time>
      </trkpt>
      <trkpt lat="44.64637" lon="-0.89052">
        <ele>23.69</ele>
        <time>2012-04-16T13:18:48Z</time>
      </trkpt>
      <trkpt lat="44.64632" lon="-0.89063">
        <ele>23.69</ele>
        <time>2012-04-16T13:18:51Z</time>
      </trkpt>
      <trkpt lat="44.64623" lon="-0.89071">
        <ele>25.13</ele>
        <time>2012-04-16T13:18:55Z</time>
      </trkpt>
      <trkpt lat="44.6462" lon="-0.89074">
        <ele>27.53</ele>
        <time>2012-04-16T13:19:11Z</time>
      </trkpt>
      <trkpt lat="44.64621" lon="-0.89085">
        <ele>28.5</ele>
        <time>2012-04-16T13:19:22Z</time>
      </trkpt>
      <trkpt lat="44.64629" lon="-0.89091">
        <ele>27.53</ele>
        <time>2012-04-16T13:19:32Z</time>
      </trkpt>
      <trkpt lat="44.64641" lon="-0.89083">
        <ele>25.13</ele>
        <time>2012-04-16T13:19:37Z</time>
      </trkpt>
      <trkpt lat="44.64655" lon="-0.89083">
        <ele>23.69</ele>
        <time>2012-04-16T13:19:41Z</time>
      </trkpt>
      <trkpt lat="44.64666" lon="-0.89092">
        <ele>23.21</ele>
        <time>2012-04-16T13:19:45Z</time>
      </trkpt>
      <trkpt lat="44.64672" lon="-0.89103">
        <ele>25.13</ele>
        <time>2012-04-16T13:19:50Z</time>
      </trkpt>
      <trkpt lat="44.64676" lon="-0.89115">
        <ele>27.53</ele>
        <time>2012-04-16T13:20:11Z</time>
      </trkpt>
      <trkpt lat="44.64682" lon="-0.89124">
        <ele>28.02</ele>
        <time>2012-04-16T13:20:29Z</time>
      </trkpt>
      <trkpt lat="44.64692" lon="-0.89131">
        <ele>27.05</ele>
        <time>2012-04-16T13:20:33Z</time>
      </trkpt>
      <trkpt lat="44.64702" lon="-0.89137">
        <ele>24.65</ele>
        <time>2012-04-16T13:20:36Z</time>
      </trkpt>
      <trkpt lat="44.64707" lon="-0.89148">
        <ele>24.17</ele>
        <time>2012-04-16T13:20:39Z</time>
      </trkpt>
      <trkpt lat="44.64707" lon="-0.89163">
        <ele>24.17</ele>
        <time>2012-04-16T13:20:44Z</time>
      </trkpt>
      <trkpt lat="44.64702" lon="-0.89177">
        <ele>25.13</ele>
        <time>2012-04-16T13:20:50Z</time>
      </trkpt>
      <trkpt lat="44.64694" lon="-0.89188">
        <ele>27.05</ele>
        <time>2012-04-16T13:21:01Z</time>
      </trkpt>
      <trkpt lat="44.64689" lon="-0.89199">
        <ele>28.02</ele>
        <time>2012-04-16T13:21:10Z</time>
      </trkpt>
      <trkpt lat="44.64681" lon="-0.89207">
        <ele>27.53</ele>
        <time>2012-04-16T13:21:16Z</time>
      </trkpt>
      <trkpt lat="44.64673" lon="-0.89217">
        <ele>28.02</ele>
        <time>2012-04-16T13:21:22Z</time>
      </trkpt>
      <trkpt lat="44.64663" lon="-0.89223">
        <ele>28.5</ele>
        <time>2012-04-16T13:21:27Z</time>
      </trkpt>
      <trkpt lat="44.64654" lon="-0.89227">
        <ele>28.5</ele>
        <time>2012-04-16T13:21:31Z</time>
      </trkpt>
      <trkpt lat="44.64645" lon="-0.89236">
        <ele>28.5</ele>
        <time>2012-04-16T13:21:35Z</time>
      </trkpt>
      <trkpt lat="44.64639" lon="-0.89246">
        <ele>28.98</ele>
        <time>2012-04-16T13:21:40Z</time>
      </trkpt>
      <trkpt lat="44.64633" lon="-0.89235">
        <ele>28.98</ele>
        <time>2012-04-16T13:21:48Z</time>
      </trkpt>
      <trkpt lat="44.6463" lon="-0.89219">
        <ele>28.98</ele>
        <time>2012-04-16T13:21:55Z</time>
      </trkpt>
      <trkpt lat="44.64628" lon="-0.89205">
        <ele>28.98</ele>
        <time>2012-04-16T13:22:00Z</time>
      </trkpt>
      <trkpt lat="44.64626" lon="-0.89192">
        <ele>28.5</ele>
        <time>2012-04-16T13:22:06Z</time>
      </trkpt>
      <trkpt lat="44.64622" lon="-0.8918">
        <ele>28.5</ele>
        <time>2012-04-16T13:22:12Z</time>
      </trkpt>
      <trkpt lat="44.64618" lon="-0.89167">
        <ele>28.98</ele>
        <time>2012-04-16T13:22:16Z</time>
      </trkpt>
      <trkpt lat="44.64614" lon="-0.89156">
        <ele>29.46</ele>
        <time>2012-04-16T13:22:20Z</time>
      </trkpt>
      <trkpt lat="44.6461" lon="-0.89144">
        <ele>28.98</ele>
        <time>2012-04-16T13:22:24Z</time>
      </trkpt>
      <trkpt lat="44.64604" lon="-0.89131">
        <ele>29.46</ele>
        <time>2012-04-16T13:22:29Z</time>
      </trkpt>
      <trkpt lat="44.64602" lon="-0.89116">
        <ele>29.46</ele>
        <time>2012-04-16T13:22:34Z</time>
      </trkpt>
      <trkpt lat="44.64605" lon="-0.89104">
        <ele>29.94</ele>
        <time>2012-04-16T13:22:42Z</time>
      </trkpt>
      <trkpt lat="44.64599" lon="-0.89091">
        <ele>28.02</ele>
        <time>2012-04-16T13:23:00Z</time>
      </trkpt>
      <trkpt lat="44.64589" lon="-0.89082">
        <ele>27.05</ele>
        <time>2012-04-16T13:23:03Z</time>
      </trkpt>
      <trkpt lat="44.64575" lon="-0.89068">
        <ele>25.61</ele>
        <time>2012-04-16T13:23:06Z</time>
      </trkpt>
      <trkpt lat="44.64569" lon="-0.89056">
        <ele>25.13</ele>
        <time>2012-04-16T13:23:08Z</time>
      </trkpt>
      <trkpt lat="44.64565" lon="-0.89045">
        <ele>24.65</ele>
        <time>2012-04-16T13:23:10Z</time>
      </trkpt>
      <trkpt lat="44.64559" lon="-0.89032">
        <ele>24.65</ele>
        <time>2012-04-16T13:23:13Z</time>
      </trkpt>
      <trkpt lat="44.64552" lon="-0.8902">
        <ele>24.65</ele>
        <time>2012-04-16T13:23:17Z</time>
      </trkpt>
      <trkpt lat="44.64549" lon="-0.89006">
        <ele>26.09</ele>
        <time>2012-04-16T13:23:21Z</time>
      </trkpt>
      <trkpt lat="44.64543" lon="-0.88996">
        <ele>26.09</ele>
        <time>2012-04-16T13:23:25Z</time>
      </trkpt>
      <trkpt lat="44.64531" lon="-0.88994">
        <ele>26.09</ele>
        <time>2012-04-16T13:23:29Z</time>
      </trkpt>
      <trkpt lat="44.64521" lon="-0.88988">
        <ele>24.65</ele>
        <time>2012-04-16T13:23:32Z</time>
      </trkpt>
      <trkpt lat="44.64517" lon="-0.88971">
        <ele>24.17</ele>
        <time>2012-04-16T13:23:35Z</time>
      </trkpt>
      <trkpt lat="44.64513" lon="-0.88959">
        <ele>24.65</ele>
        <time>2012-04-16T13:23:38Z</time>
      </trkpt>
      <trkpt lat="44.6451" lon="-0.88947">
        <ele>26.09</ele>
        <time>2012-04-16T13:23:41Z</time>
      </trkpt>
      <trkpt lat="44.64505" lon="-0.88935">
        <ele>25.13</ele>
        <time>2012-04-16T13:23:44Z</time>
      </trkpt>
      <trkpt lat="44.64502" lon="-0.88922">
        <ele>25.61</ele>
        <time>2012-04-16T13:23:47Z</time>
      </trkpt>
      <trkpt lat="44.64497" lon="-0.88908">
        <ele>27.05</ele>
        <time>2012-04-16T13:23:51Z</time>
      </trkpt>
      <trkpt lat="44.64491" lon="-0.88898">
        <ele>26.57</ele>
        <time>2012-04-16T13:23:54Z</time>
      </trkpt>
      <trkpt lat="44.64493" lon="-0.88884">
        <ele>28.5</ele>
        <time>2012-04-16T13:23:58Z</time>
      </trkpt>
      <trkpt lat="44.64498" lon="-0.88869">
        <ele>28.02</ele>
        <time>2012-04-16T13:24:02Z</time>
      </trkpt>
      <trkpt lat="44.64502" lon="-0.88856">
        <ele>27.05</ele>
        <time>2012-04-16T13:24:05Z</time>
      </trkpt>
      <trkpt lat="44.64508" lon="-0.88846">
        <ele>27.53</ele>
        <time>2012-04-16T13:24:08Z</time>
      </trkpt>
      <trkpt lat="44.64516" lon="-0.88838">
        <ele>28.02</ele>
        <time>2012-04-16T13:24:11Z</time>
      </trkpt>
      <trkpt lat="44.64526" lon="-0.88833">
        <ele>29.94</ele>
        <time>2012-04-16T13:24:15Z</time>
      </trkpt>
      <trkpt lat="44.64532" lon="-0.88826">
        <ele>31.86</ele>
        <time>2012-04-16T13:24:20Z</time>
      </trkpt>
      <trkpt lat="44.6454" lon="-0.88817">
        <ele>32.34</ele>
        <time>2012-04-16T13:24:26Z</time>
      </trkpt>
      <trkpt lat="44.64548" lon="-0.88809">
        <ele>32.82</ele>
        <time>2012-04-16T13:24:31Z</time>
      </trkpt>
      <trkpt lat="44.64555" lon="-0.88802">
        <ele>32.82</ele>
        <time>2012-04-16T13:24:36Z</time>
      </trkpt>
      <trkpt lat="44.64561" lon="-0.88791">
        <ele>32.82</ele>
        <time>2012-04-16T13:24:42Z</time>
      </trkpt>
      <trkpt lat="44.64566" lon="-0.88781">
        <ele>32.82</ele>
        <time>2012-04-16T13:24:48Z</time>
      </trkpt>
      <trkpt lat="44.6457" lon="-0.88769">
        <ele>32.34</ele>
        <time>2012-04-16T13:24:53Z</time>
      </trkpt>
      <trkpt lat="44.64576" lon="-0.88757">
        <ele>32.34</ele>
        <time>2012-04-16T13:24:58Z</time>
      </trkpt>
      <trkpt lat="44.64581" lon="-0.88745">
        <ele>32.82</ele>
        <time>2012-04-16T13:25:03Z</time>
      </trkpt>
      <trkpt lat="44.64586" lon="-0.88734">
        <ele>33.3</ele>
        <time>2012-04-16T13:25:07Z</time>
      </trkpt>
      <trkpt lat="44.64592" lon="-0.88723">
        <ele>33.3</ele>
        <time>2012-04-16T13:25:11Z</time>
      </trkpt>
      <trkpt lat="44.64596" lon="-0.88712">
        <ele>34.26</ele>
        <time>2012-04-16T13:25:15Z</time>
      </trkpt>
      <trkpt lat="44.64601" lon="-0.887">
        <ele>34.26</ele>
        <time>2012-04-16T13:25:19Z</time>
      </trkpt>
      <trkpt lat="44.64607" lon="-0.88687">
        <ele>34.26</ele>
        <time>2012-04-16T13:25:23Z</time>
      </trkpt>
      <trkpt lat="44.64611" lon="-0.88676">
        <ele>34.26</ele>
        <time>2012-04-16T13:25:26Z</time>
      </trkpt>
      <trkpt lat="44.64616" lon="-0.88665">
        <ele>34.26</ele>
        <time>2012-04-16T13:25:29Z</time>
      </trkpt>
      <trkpt lat="44.64622" lon="-0.88654">
        <ele>34.26</ele>
        <time>2012-04-16T13:25:32Z</time>
      </trkpt>
      <trkpt lat="44.64627" lon="-0.88643">
        <ele>33.78</ele>
        <time>2012-04-16T13:25:35Z</time>
      </trkpt>
      <trkpt lat="44.64632" lon="-0.88632">
        <ele>33.78</ele>
        <time>2012-04-16T13:25:38Z</time>
      </trkpt>
      <trkpt lat="44.64637" lon="-0.88622">
        <ele>33.78</ele>
        <time>2012-04-16T13:25:41Z</time>
      </trkpt>
      <trkpt lat="44.64643" lon="-0.8861">
        <ele>33.78</ele>
        <time>2012-04-16T13:25:44Z</time>
      </trkpt>
      <trkpt lat="44.64648" lon="-0.886">
        <ele>33.78</ele>
        <time>2012-04-16T13:25:47Z</time>
      </trkpt>
      <trkpt lat="44.64653" lon="-0.88586">
        <ele>33.78</ele>
        <time>2012-04-16T13:25:51Z</time>
      </trkpt>
      <trkpt lat="44.6465" lon="-0.8857">
        <ele>33.3</ele>
        <time>2012-04-16T13:25:55Z</time>
      </trkpt>
      <trkpt lat="44.64645" lon="-0.88559">
        <ele>33.78</ele>
        <time>2012-04-16T13:25:58Z</time>
      </trkpt>
      <trkpt lat="44.6464" lon="-0.88547">
        <ele>33.78</ele>
        <time>2012-04-16T13:26:01Z</time>
      </trkpt>
      <trkpt lat="44.64636" lon="-0.88534">
        <ele>33.78</ele>
        <time>2012-04-16T13:26:04Z</time>
      </trkpt>
      <trkpt lat="44.6463" lon="-0.88522">
        <ele>33.78</ele>
        <time>2012-04-16T13:26:07Z</time>
      </trkpt>
      <trkpt lat="44.64625" lon="-0.88508">
        <ele>33.78</ele>
        <time>2012-04-16T13:26:10Z</time>
      </trkpt>
      <trkpt lat="44.6462" lon="-0.88495">
        <ele>33.78</ele>
        <time>2012-04-16T13:26:13Z</time>
      </trkpt>
      <trkpt lat="44.64616" lon="-0.88481">
        <ele>34.26</ele>
        <time>2012-04-16T13:26:16Z</time>
      </trkpt>
      <trkpt lat="44.6461" lon="-0.88469">
        <ele>33.78</ele>
        <time>2012-04-16T13:26:19Z</time>
      </trkpt>
      <trkpt lat="44.64601" lon="-0.88457">
        <ele>34.26</ele>
        <time>2012-04-16T13:26:22Z</time>
      </trkpt>
      <trkpt lat="44.64594" lon="-0.88445">
        <ele>34.26</ele>
        <time>2012-04-16T13:26:25Z</time>
      </trkpt>
      <trkpt lat="44.64586" lon="-0.88434">
        <ele>34.26</ele>
        <time>2012-04-16T13:26:28Z</time>
      </trkpt>
      <trkpt lat="44.64577" lon="-0.88424">
        <ele>33.78</ele>
        <time>2012-04-16T13:26:31Z</time>
      </trkpt>
      <trkpt lat="44.64569" lon="-0.88413">
        <ele>34.26</ele>
        <time>2012-04-16T13:26:34Z</time>
      </trkpt>
      <trkpt lat="44.64561" lon="-0.88403">
        <ele>34.26</ele>
        <time>2012-04-16T13:26:37Z</time>
      </trkpt>
      <trkpt lat="44.64553" lon="-0.88391">
        <ele>33.78</ele>
        <time>2012-04-16T13:26:40Z</time>
      </trkpt>
      <trkpt lat="44.64545" lon="-0.88379">
        <ele>33.78</ele>
        <time>2012-04-16T13:26:43Z</time>
      </trkpt>
      <trkpt lat="44.64538" lon="-0.88367">
        <ele>34.26</ele>
        <time>2012-04-16T13:26:46Z</time>
      </trkpt>
      <trkpt lat="44.64529" lon="-0.88357">
        <ele>33.78</ele>
        <time>2012-04-16T13:26:49Z</time>
      </trkpt>
      <trkpt lat="44.6452" lon="-0.88347">
        <ele>33.78</ele>
        <time>2012-04-16T13:26:52Z</time>
      </trkpt>
      <trkpt lat="44.64516" lon="-0.88333">
        <ele>33.78</ele>
        <time>2012-04-16T13:26:55Z</time>
      </trkpt>
      <trkpt lat="44.64512" lon="-0.88318">
        <ele>34.26</ele>
        <time>2012-04-16T13:26:58Z</time>
      </trkpt>
      <trkpt lat="44.64505" lon="-0.88308">
        <ele>33.78</ele>
        <time>2012-04-16T13:27:01Z</time>
      </trkpt>
      <trkpt lat="44.64496" lon="-0.88303">
        <ele>33.3</ele>
        <time>2012-04-16T13:27:04Z</time>
      </trkpt>
      <trkpt lat="44.64484" lon="-0.88304">
        <ele>32.82</ele>
        <time>2012-04-16T13:27:07Z</time>
      </trkpt>
      <trkpt lat="44.64473" lon="-0.8831">
        <ele>32.34</ele>
        <time>2012-04-16T13:27:10Z</time>
      </trkpt>
      <trkpt lat="44.64462" lon="-0.88319">
        <ele>32.34</ele>
        <time>2012-04-16T13:27:13Z</time>
      </trkpt>
      <trkpt lat="44.64452" lon="-0.88321">
        <ele>32.34</ele>
        <time>2012-04-16T13:27:16Z</time>
      </trkpt>
      <trkpt lat="44.6444" lon="-0.88322">
        <ele>32.82</ele>
        <time>2012-04-16T13:27:19Z</time>
      </trkpt>
      <trkpt lat="44.64429" lon="-0.88323">
        <ele>32.82</ele>
        <time>2012-04-16T13:27:22Z</time>
      </trkpt>
      <trkpt lat="44.64419" lon="-0.88326">
        <ele>33.78</ele>
        <time>2012-04-16T13:27:25Z</time>
      </trkpt>
      <trkpt lat="44.64409" lon="-0.88329">
        <ele>33.78</ele>
        <time>2012-04-16T13:27:28Z</time>
      </trkpt>
      <trkpt lat="44.64397" lon="-0.88331">
        <ele>33.78</ele>
        <time>2012-04-16T13:27:31Z</time>
      </trkpt>
      <trkpt lat="44.64387" lon="-0.88335">
        <ele>34.26</ele>
        <time>2012-04-16T13:27:34Z</time>
      </trkpt>
      <trkpt lat="44.64377" lon="-0.88341">
        <ele>34.74</ele>
        <time>2012-04-16T13:27:37Z</time>
      </trkpt>
      <trkpt lat="44.64367" lon="-0.88346">
        <ele>34.74</ele>
        <time>2012-04-16T13:27:40Z</time>
      </trkpt>
      <trkpt lat="44.64356" lon="-0.88348">
        <ele>34.74</ele>
        <time>2012-04-16T13:27:43Z</time>
      </trkpt>
      <trkpt lat="44.64345" lon="-0.88352">
        <ele>34.74</ele>
        <time>2012-04-16T13:27:46Z</time>
      </trkpt>
      <trkpt lat="44.64334" lon="-0.88354">
        <ele>34.74</ele>
        <time>2012-04-16T13:27:49Z</time>
      </trkpt>
      <trkpt lat="44.64323" lon="-0.88358">
        <ele>34.26</ele>
        <time>2012-04-16T13:27:52Z</time>
      </trkpt>
      <trkpt lat="44.64312" lon="-0.88361">
        <ele>34.26</ele>
        <time>2012-04-16T13:27:55Z</time>
      </trkpt>
      <trkpt lat="44.64301" lon="-0.88365">
        <ele>34.26</ele>
        <time>2012-04-16T13:27:58Z</time>
      </trkpt>
      <trkpt lat="44.64289" lon="-0.88369">
        <ele>34.74</ele>
        <time>2012-04-16T13:28:01Z</time>
      </trkpt>
      <trkpt lat="44.64278" lon="-0.88373">
        <ele>35.23</ele>
        <time>2012-04-16T13:28:04Z</time>
      </trkpt>
      <trkpt lat="44.64267" lon="-0.88377">
        <ele>35.23</ele>
        <time>2012-04-16T13:28:07Z</time>
      </trkpt>
      <trkpt lat="44.64255" lon="-0.8838">
        <ele>35.23</ele>
        <time>2012-04-16T13:28:10Z</time>
      </trkpt>
      <trkpt lat="44.64244" lon="-0.88384">
        <ele>35.23</ele>
        <time>2012-04-16T13:28:13Z</time>
      </trkpt>
      <trkpt lat="44.64234" lon="-0.88389">
        <ele>35.23</ele>
        <time>2012-04-16T13:28:16Z</time>
      </trkpt>
      <trkpt lat="44.64223" lon="-0.88392">
        <ele>35.23</ele>
        <time>2012-04-16T13:28:19Z</time>
      </trkpt>
      <trkpt lat="44.64212" lon="-0.88395">
        <ele>35.23</ele>
        <time>2012-04-16T13:28:22Z</time>
      </trkpt>
      <trkpt lat="44.64201" lon="-0.88399">
        <ele>35.23</ele>
        <time>2012-04-16T13:28:25Z</time>
      </trkpt>
      <trkpt lat="44.6419" lon="-0.88403">
        <ele>35.23</ele>
        <time>2012-04-16T13:28:28Z</time>
      </trkpt>
      <trkpt lat="44.64179" lon="-0.88406">
        <ele>35.71</ele>
        <time>2012-04-16T13:28:31Z</time>
      </trkpt>
      <trkpt lat="44.64168" lon="-0.88409">
        <ele>36.19</ele>
        <time>2012-04-16T13:28:34Z</time>
      </trkpt>
      <trkpt lat="44.64157" lon="-0.88412">
        <ele>35.71</ele>
        <time>2012-04-16T13:28:37Z</time>
      </trkpt>
      <trkpt lat="44.64146" lon="-0.88416">
        <ele>35.71</ele>
        <time>2012-04-16T13:28:40Z</time>
      </trkpt>
      <trkpt lat="44.64135" lon="-0.88421">
        <ele>35.71</ele>
        <time>2012-04-16T13:28:43Z</time>
      </trkpt>
      <trkpt lat="44.64125" lon="-0.88425">
        <ele>35.71</ele>
        <time>2012-04-16T13:28:46Z</time>
      </trkpt>
      <trkpt lat="44.64115" lon="-0.88428">
        <ele>36.19</ele>
        <time>2012-04-16T13:28:49Z</time>
      </trkpt>
      <trkpt lat="44.64105" lon="-0.88431">
        <ele>36.19</ele>
        <time>2012-04-16T13:28:52Z</time>
      </trkpt>
      <trkpt lat="44.64097" lon="-0.88435">
        <ele>36.19</ele>
        <time>2012-04-16T13:28:56Z</time>
      </trkpt>
      <trkpt lat="44.64087" lon="-0.88442">
        <ele>36.19</ele>
        <time>2012-04-16T13:29:00Z</time>
      </trkpt>
      <trkpt lat="44.64083" lon="-0.88431">
        <ele>36.19</ele>
        <time>2012-04-16T13:29:04Z</time>
      </trkpt>
      <trkpt lat="44.64075" lon="-0.88424">
        <ele>36.67</ele>
        <time>2012-04-16T13:29:33Z</time>
      </trkpt>
      <trkpt lat="44.64069" lon="-0.8841">
        <ele>37.15</ele>
        <time>2012-04-16T13:29:37Z</time>
      </trkpt>
      <trkpt lat="44.64066" lon="-0.88385">
        <ele>37.15</ele>
        <time>2012-04-16T13:29:41Z</time>
      </trkpt>
      <trkpt lat="44.64063" lon="-0.88366">
        <ele>37.15</ele>
        <time>2012-04-16T13:29:44Z</time>
      </trkpt>
      <trkpt lat="44.64059" lon="-0.88353">
        <ele>37.15</ele>
        <time>2012-04-16T13:29:47Z</time>
      </trkpt>
      <trkpt lat="44.64055" lon="-0.88338">
        <ele>37.63</ele>
        <time>2012-04-16T13:29:50Z</time>
      </trkpt>
      <trkpt lat="44.6405" lon="-0.88322">
        <ele>37.63</ele>
        <time>2012-04-16T13:29:53Z</time>
      </trkpt>
      <trkpt lat="44.64046" lon="-0.88307">
        <ele>37.63</ele>
        <time>2012-04-16T13:29:56Z</time>
      </trkpt>
      <trkpt lat="44.64041" lon="-0.88292">
        <ele>37.15</ele>
        <time>2012-04-16T13:29:59Z</time>
      </trkpt>
      <trkpt lat="44.64037" lon="-0.88276">
        <ele>37.63</ele>
        <time>2012-04-16T13:30:02Z</time>
      </trkpt>
      <trkpt lat="44.64031" lon="-0.88259">
        <ele>37.63</ele>
        <time>2012-04-16T13:30:05Z</time>
      </trkpt>
      <trkpt lat="44.64025" lon="-0.88243">
        <ele>38.59</ele>
        <time>2012-04-16T13:30:08Z</time>
      </trkpt>
      <trkpt lat="44.64019" lon="-0.88228">
        <ele>38.11</ele>
        <time>2012-04-16T13:30:11Z</time>
      </trkpt>
      <trkpt lat="44.64013" lon="-0.88211">
        <ele>38.11</ele>
        <time>2012-04-16T13:30:14Z</time>
      </trkpt>
      <trkpt lat="44.64006" lon="-0.88195">
        <ele>38.59</ele>
        <time>2012-04-16T13:30:17Z</time>
      </trkpt>
      <trkpt lat="44.64" lon="-0.8818">
        <ele>38.59</ele>
        <time>2012-04-16T13:30:20Z</time>
      </trkpt>
      <trkpt lat="44.63994" lon="-0.88164">
        <ele>38.59</ele>
        <time>2012-04-16T13:30:23Z</time>
      </trkpt>
      <trkpt lat="44.63987" lon="-0.88146">
        <ele>39.07</ele>
        <time>2012-04-16T13:30:26Z</time>
      </trkpt>
      <trkpt lat="44.6398" lon="-0.8813">
        <ele>38.59</ele>
        <time>2012-04-16T13:30:29Z</time>
      </trkpt>
      <trkpt lat="44.63974" lon="-0.88114">
        <ele>38.59</ele>
        <time>2012-04-16T13:30:32Z</time>
      </trkpt>
      <trkpt lat="44.63969" lon="-0.88102">
        <ele>38.59</ele>
        <time>2012-04-16T13:30:34Z</time>
      </trkpt>
      <trkpt lat="44.63965" lon="-0.8809">
        <ele>39.07</ele>
        <time>2012-04-16T13:30:36Z</time>
      </trkpt>
      <trkpt lat="44.6396" lon="-0.88078">
        <ele>38.59</ele>
        <time>2012-04-16T13:30:38Z</time>
      </trkpt>
      <trkpt lat="44.63955" lon="-0.88067">
        <ele>39.07</ele>
        <time>2012-04-16T13:30:40Z</time>
      </trkpt>
      <trkpt lat="44.63951" lon="-0.88055">
        <ele>39.07</ele>
        <time>2012-04-16T13:30:42Z</time>
      </trkpt>
      <trkpt lat="44.63946" lon="-0.88044">
        <ele>39.07</ele>
        <time>2012-04-16T13:30:44Z</time>
      </trkpt>
      <trkpt lat="44.63942" lon="-0.88032">
        <ele>39.07</ele>
        <time>2012-04-16T13:30:46Z</time>
      </trkpt>
      <trkpt lat="44.63937" lon="-0.88019">
        <ele>39.07</ele>
        <time>2012-04-16T13:30:48Z</time>
      </trkpt>
      <trkpt lat="44.63932" lon="-0.88007">
        <ele>39.07</ele>
        <time>2012-04-16T13:30:50Z</time>
      </trkpt>
      <trkpt lat="44.63927" lon="-0.87995">
        <ele>39.07</ele>
        <time>2012-04-16T13:30:52Z</time>
      </trkpt>
      <trkpt lat="44.63923" lon="-0.87984">
        <ele>39.55</ele>
        <time>2012-04-16T13:30:54Z</time>
      </trkpt>
      <trkpt lat="44.63919" lon="-0.87973">
        <ele>39.55</ele>
        <time>2012-04-16T13:30:56Z</time>
      </trkpt>
      <trkpt lat="44.63915" lon="-0.87962">
        <ele>39.55</ele>
        <time>2012-04-16T13:30:58Z</time>
      </trkpt>
      <trkpt lat="44.6391" lon="-0.8795">
        <ele>39.55</ele>
        <time>2012-04-16T13:31:00Z</time>
      </trkpt>
      <trkpt lat="44.63905" lon="-0.87938">
        <ele>39.55</ele>
        <time>2012-04-16T13:31:02Z</time>
      </trkpt>
      <trkpt lat="44.639" lon="-0.87926">
        <ele>39.55</ele>
        <time>2012-04-16T13:31:04Z</time>
      </trkpt>
      <trkpt lat="44.63896" lon="-0.87914">
        <ele>39.55</ele>
        <time>2012-04-16T13:31:06Z</time>
      </trkpt>
      <trkpt lat="44.63891" lon="-0.87902">
        <ele>39.07</ele>
        <time>2012-04-16T13:31:08Z</time>
      </trkpt>
      <trkpt lat="44.63886" lon="-0.87889">
        <ele>39.55</ele>
        <time>2012-04-16T13:31:10Z</time>
      </trkpt>
      <trkpt lat="44.63881" lon="-0.87877">
        <ele>39.55</ele>
        <time>2012-04-16T13:31:12Z</time>
      </trkpt>
      <trkpt lat="44.63877" lon="-0.87864">
        <ele>39.55</ele>
        <time>2012-04-16T13:31:14Z</time>
      </trkpt>
      <trkpt lat="44.63872" lon="-0.87852">
        <ele>39.55</ele>
        <time>2012-04-16T13:31:16Z</time>
      </trkpt>
      <trkpt lat="44.63867" lon="-0.8784">
        <ele>39.55</ele>
        <time>2012-04-16T13:31:18Z</time>
      </trkpt>
      <trkpt lat="44.63863" lon="-0.87828">
        <ele>39.55</ele>
        <time>2012-04-16T13:31:20Z</time>
      </trkpt>
      <trkpt lat="44.63858" lon="-0.87816">
        <ele>40.03</ele>
        <time>2012-04-16T13:31:22Z</time>
      </trkpt>
      <trkpt lat="44.63853" lon="-0.87804">
        <ele>40.03</ele>
        <time>2012-04-16T13:31:24Z</time>
      </trkpt>
      <trkpt lat="44.63848" lon="-0.87792">
        <ele>40.51</ele>
        <time>2012-04-16T13:31:26Z</time>
      </trkpt>
      <trkpt lat="44.63843" lon="-0.87781">
        <ele>40.51</ele>
        <time>2012-04-16T13:31:28Z</time>
      </trkpt>
      <trkpt lat="44.63838" lon="-0.87768">
        <ele>40.51</ele>
        <time>2012-04-16T13:31:30Z</time>
      </trkpt>
      <trkpt lat="44.63833" lon="-0.87756">
        <ele>40.51</ele>
        <time>2012-04-16T13:31:32Z</time>
      </trkpt>
      <trkpt lat="44.63829" lon="-0.87743">
        <ele>40.51</ele>
        <time>2012-04-16T13:31:34Z</time>
      </trkpt>
      <trkpt lat="44.63824" lon="-0.87731">
        <ele>40.51</ele>
        <time>2012-04-16T13:31:36Z</time>
      </trkpt>
      <trkpt lat="44.63819" lon="-0.87719">
        <ele>40.51</ele>
        <time>2012-04-16T13:31:38Z</time>
      </trkpt>
      <trkpt lat="44.63815" lon="-0.87707">
        <ele>40.51</ele>
        <time>2012-04-16T13:31:40Z</time>
      </trkpt>
      <trkpt lat="44.6381" lon="-0.87695">
        <ele>40.51</ele>
        <time>2012-04-16T13:31:42Z</time>
      </trkpt>
      <trkpt lat="44.63805" lon="-0.87682">
        <ele>40.51</ele>
        <time>2012-04-16T13:31:44Z</time>
      </trkpt>
      <trkpt lat="44.638" lon="-0.87669">
        <ele>40.51</ele>
        <time>2012-04-16T13:31:46Z</time>
      </trkpt>
      <trkpt lat="44.63795" lon="-0.87657">
        <ele>40.51</ele>
        <time>2012-04-16T13:31:48Z</time>
      </trkpt>
      <trkpt lat="44.6379" lon="-0.87645">
        <ele>40.51</ele>
        <time>2012-04-16T13:31:50Z</time>
      </trkpt>
      <trkpt lat="44.63785" lon="-0.87632">
        <ele>40.51</ele>
        <time>2012-04-16T13:31:52Z</time>
      </trkpt>
      <trkpt lat="44.6378" lon="-0.8762">
        <ele>40.51</ele>
        <time>2012-04-16T13:31:54Z</time>
      </trkpt>
      <trkpt lat="44.63775" lon="-0.87607">
        <ele>40.99</ele>
        <time>2012-04-16T13:31:56Z</time>
      </trkpt>
      <trkpt lat="44.63771" lon="-0.87595">
        <ele>40.99</ele>
        <time>2012-04-16T13:31:58Z</time>
      </trkpt>
      <trkpt lat="44.63766" lon="-0.87582">
        <ele>41.47</ele>
        <time>2012-04-16T13:32:00Z</time>
      </trkpt>
      <trkpt lat="44.63762" lon="-0.8757">
        <ele>41.95</ele>
        <time>2012-04-16T13:32:02Z</time>
      </trkpt>
      <trkpt lat="44.63756" lon="-0.87557">
        <ele>41.47</ele>
        <time>2012-04-16T13:32:04Z</time>
      </trkpt>
      <trkpt lat="44.63751" lon="-0.87544">
        <ele>41.95</ele>
        <time>2012-04-16T13:32:06Z</time>
      </trkpt>
      <trkpt lat="44.63746" lon="-0.87532">
        <ele>41.47</ele>
        <time>2012-04-16T13:32:08Z</time>
      </trkpt>
      <trkpt lat="44.63741" lon="-0.87519">
        <ele>41.95</ele>
        <time>2012-04-16T13:32:10Z</time>
      </trkpt>
      <trkpt lat="44.63736" lon="-0.87506">
        <ele>41.95</ele>
        <time>2012-04-16T13:32:12Z</time>
      </trkpt>
      <trkpt lat="44.63731" lon="-0.87493">
        <ele>42.44</ele>
        <time>2012-04-16T13:32:14Z</time>
      </trkpt>
      <trkpt lat="44.63726" lon="-0.87479">
        <ele>41.95</ele>
        <time>2012-04-16T13:32:16Z</time>
      </trkpt>
      <trkpt lat="44.63721" lon="-0.87466">
        <ele>41.95</ele>
        <time>2012-04-16T13:32:18Z</time>
      </trkpt>
      <trkpt lat="44.63716" lon="-0.87454">
        <ele>42.44</ele>
        <time>2012-04-16T13:32:20Z</time>
      </trkpt>
      <trkpt lat="44.63711" lon="-0.87442">
        <ele>42.44</ele>
        <time>2012-04-16T13:32:22Z</time>
      </trkpt>
      <trkpt lat="44.63707" lon="-0.8743">
        <ele>42.44</ele>
        <time>2012-04-16T13:32:24Z</time>
      </trkpt>
      <trkpt lat="44.63702" lon="-0.87417">
        <ele>41.47</ele>
        <time>2012-04-16T13:32:26Z</time>
      </trkpt>
      <trkpt lat="44.63699" lon="-0.87402">
        <ele>41.95</ele>
        <time>2012-04-16T13:32:28Z</time>
      </trkpt>
      <trkpt lat="44.63697" lon="-0.87387">
        <ele>42.44</ele>
        <time>2012-04-16T13:32:30Z</time>
      </trkpt>
      <trkpt lat="44.63697" lon="-0.87373">
        <ele>42.44</ele>
        <time>2012-04-16T13:32:32Z</time>
      </trkpt>
      <trkpt lat="44.63699" lon="-0.87358">
        <ele>42.44</ele>
        <time>2012-04-16T13:32:34Z</time>
      </trkpt>
      <trkpt lat="44.63701" lon="-0.87343">
        <ele>42.92</ele>
        <time>2012-04-16T13:32:36Z</time>
      </trkpt>
      <trkpt lat="44.63702" lon="-0.87328">
        <ele>42.44</ele>
        <time>2012-04-16T13:32:38Z</time>
      </trkpt>
      <trkpt lat="44.63704" lon="-0.87313">
        <ele>42.44</ele>
        <time>2012-04-16T13:32:40Z</time>
      </trkpt>
      <trkpt lat="44.63707" lon="-0.87298">
        <ele>42.92</ele>
        <time>2012-04-16T13:32:42Z</time>
      </trkpt>
      <trkpt lat="44.63709" lon="-0.87284">
        <ele>42.44</ele>
        <time>2012-04-16T13:32:44Z</time>
      </trkpt>
      <trkpt lat="44.63711" lon="-0.87269">
        <ele>42.92</ele>
        <time>2012-04-16T13:32:46Z</time>
      </trkpt>
      <trkpt lat="44.63713" lon="-0.87254">
        <ele>42.92</ele>
        <time>2012-04-16T13:32:48Z</time>
      </trkpt>
      <trkpt lat="44.63715" lon="-0.87239">
        <ele>42.92</ele>
        <time>2012-04-16T13:32:50Z</time>
      </trkpt>
      <trkpt lat="44.63717" lon="-0.87224">
        <ele>42.92</ele>
        <time>2012-04-16T13:32:52Z</time>
      </trkpt>
      <trkpt lat="44.63719" lon="-0.87209">
        <ele>42.44</ele>
        <time>2012-04-16T13:32:54Z</time>
      </trkpt>
      <trkpt lat="44.63721" lon="-0.87195">
        <ele>42.44</ele>
        <time>2012-04-16T13:32:56Z</time>
      </trkpt>
      <trkpt lat="44.63723" lon="-0.8718">
        <ele>42.92</ele>
        <time>2012-04-16T13:32:58Z</time>
      </trkpt>
      <trkpt lat="44.63724" lon="-0.87165">
        <ele>42.92</ele>
        <time>2012-04-16T13:33:00Z</time>
      </trkpt>
      <trkpt lat="44.63724" lon="-0.8715">
        <ele>42.92</ele>
        <time>2012-04-16T13:33:02Z</time>
      </trkpt>
      <trkpt lat="44.63723" lon="-0.87135">
        <ele>41.95</ele>
        <time>2012-04-16T13:33:04Z</time>
      </trkpt>
      <trkpt lat="44.6372" lon="-0.87121">
        <ele>42.44</ele>
        <time>2012-04-16T13:33:06Z</time>
      </trkpt>
      <trkpt lat="44.63717" lon="-0.87108">
        <ele>42.92</ele>
        <time>2012-04-16T13:33:08Z</time>
      </trkpt>
      <trkpt lat="44.63712" lon="-0.87094">
        <ele>42.44</ele>
        <time>2012-04-16T13:33:10Z</time>
      </trkpt>
      <trkpt lat="44.63708" lon="-0.87081">
        <ele>42.44</ele>
        <time>2012-04-16T13:33:12Z</time>
      </trkpt>
      <trkpt lat="44.63703" lon="-0.87068">
        <ele>42.44</ele>
        <time>2012-04-16T13:33:14Z</time>
      </trkpt>
      <trkpt lat="44.63698" lon="-0.87056">
        <ele>42.44</ele>
        <time>2012-04-16T13:33:16Z</time>
      </trkpt>
      <trkpt lat="44.63694" lon="-0.87043">
        <ele>42.44</ele>
        <time>2012-04-16T13:33:18Z</time>
      </trkpt>
      <trkpt lat="44.63689" lon="-0.87029">
        <ele>42.44</ele>
        <time>2012-04-16T13:33:20Z</time>
      </trkpt>
      <trkpt lat="44.63685" lon="-0.87016">
        <ele>42.44</ele>
        <time>2012-04-16T13:33:22Z</time>
      </trkpt>
      <trkpt lat="44.6368" lon="-0.87002">
        <ele>43.4</ele>
        <time>2012-04-16T13:33:24Z</time>
      </trkpt>
      <trkpt lat="44.63676" lon="-0.86989">
        <ele>42.92</ele>
        <time>2012-04-16T13:33:26Z</time>
      </trkpt>
      <trkpt lat="44.63671" lon="-0.86975">
        <ele>43.4</ele>
        <time>2012-04-16T13:33:28Z</time>
      </trkpt>
      <trkpt lat="44.63667" lon="-0.86962">
        <ele>43.4</ele>
        <time>2012-04-16T13:33:30Z</time>
      </trkpt>
      <trkpt lat="44.63662" lon="-0.86948">
        <ele>42.92</ele>
        <time>2012-04-16T13:33:32Z</time>
      </trkpt>
      <trkpt lat="44.63658" lon="-0.86935">
        <ele>43.4</ele>
        <time>2012-04-16T13:33:34Z</time>
      </trkpt>
      <trkpt lat="44.63653" lon="-0.86922">
        <ele>43.88</ele>
        <time>2012-04-16T13:33:36Z</time>
      </trkpt>
      <trkpt lat="44.63649" lon="-0.86909">
        <ele>43.88</ele>
        <time>2012-04-16T13:33:38Z</time>
      </trkpt>
      <trkpt lat="44.63645" lon="-0.86897">
        <ele>44.36</ele>
        <time>2012-04-16T13:33:40Z</time>
      </trkpt>
      <trkpt lat="44.63641" lon="-0.86884">
        <ele>43.4</ele>
        <time>2012-04-16T13:33:42Z</time>
      </trkpt>
      <trkpt lat="44.63636" lon="-0.86871">
        <ele>43.4</ele>
        <time>2012-04-16T13:33:44Z</time>
      </trkpt>
      <trkpt lat="44.63632" lon="-0.86858">
        <ele>43.4</ele>
        <time>2012-04-16T13:33:46Z</time>
      </trkpt>
      <trkpt lat="44.63628" lon="-0.86846">
        <ele>43.88</ele>
        <time>2012-04-16T13:33:48Z</time>
      </trkpt>
      <trkpt lat="44.63624" lon="-0.86833">
        <ele>43.88</ele>
        <time>2012-04-16T13:33:50Z</time>
      </trkpt>
      <trkpt lat="44.6362" lon="-0.8682">
        <ele>44.36</ele>
        <time>2012-04-16T13:33:52Z</time>
      </trkpt>
      <trkpt lat="44.63616" lon="-0.86807">
        <ele>43.88</ele>
        <time>2012-04-16T13:33:54Z</time>
      </trkpt>
      <trkpt lat="44.63611" lon="-0.86795">
        <ele>43.88</ele>
        <time>2012-04-16T13:33:56Z</time>
      </trkpt>
      <trkpt lat="44.63607" lon="-0.86782">
        <ele>43.88</ele>
        <time>2012-04-16T13:33:58Z</time>
      </trkpt>
      <trkpt lat="44.63603" lon="-0.8677">
        <ele>43.88</ele>
        <time>2012-04-16T13:34:00Z</time>
      </trkpt>
      <trkpt lat="44.63599" lon="-0.86758">
        <ele>44.36</ele>
        <time>2012-04-16T13:34:02Z</time>
      </trkpt>
      <trkpt lat="44.63595" lon="-0.86745">
        <ele>44.36</ele>
        <time>2012-04-16T13:34:04Z</time>
      </trkpt>
      <trkpt lat="44.63591" lon="-0.86733">
        <ele>44.36</ele>
        <time>2012-04-16T13:34:06Z</time>
      </trkpt>
      <trkpt lat="44.63586" lon="-0.8672">
        <ele>44.36</ele>
        <time>2012-04-16T13:34:08Z</time>
      </trkpt>
      <trkpt lat="44.63582" lon="-0.86708">
        <ele>44.36</ele>
        <time>2012-04-16T13:34:10Z</time>
      </trkpt>
      <trkpt lat="44.63578" lon="-0.86696">
        <ele>44.36</ele>
        <time>2012-04-16T13:34:12Z</time>
      </trkpt>
      <trkpt lat="44.63573" lon="-0.86683">
        <ele>44.36</ele>
        <time>2012-04-16T13:34:14Z</time>
      </trkpt>
      <trkpt lat="44.63569" lon="-0.86671">
        <ele>44.36</ele>
        <time>2012-04-16T13:34:16Z</time>
      </trkpt>
      <trkpt lat="44.63565" lon="-0.86659">
        <ele>43.88</ele>
        <time>2012-04-16T13:34:18Z</time>
      </trkpt>
      <trkpt lat="44.6356" lon="-0.86646">
        <ele>43.4</ele>
        <time>2012-04-16T13:34:20Z</time>
      </trkpt>
      <trkpt lat="44.63556" lon="-0.86634">
        <ele>43.88</ele>
        <time>2012-04-16T13:34:22Z</time>
      </trkpt>
      <trkpt lat="44.63552" lon="-0.86621">
        <ele>44.36</ele>
        <time>2012-04-16T13:34:24Z</time>
      </trkpt>
      <trkpt lat="44.63547" lon="-0.86608">
        <ele>43.88</ele>
        <time>2012-04-16T13:34:26Z</time>
      </trkpt>
      <trkpt lat="44.63543" lon="-0.86595">
        <ele>43.88</ele>
        <time>2012-04-16T13:34:28Z</time>
      </trkpt>
      <trkpt lat="44.63539" lon="-0.86581">
        <ele>44.36</ele>
        <time>2012-04-16T13:34:30Z</time>
      </trkpt>
      <trkpt lat="44.63534" lon="-0.86567">
        <ele>44.36</ele>
        <time>2012-04-16T13:34:32Z</time>
      </trkpt>
      <trkpt lat="44.6353" lon="-0.86553">
        <ele>44.36</ele>
        <time>2012-04-16T13:34:34Z</time>
      </trkpt>
      <trkpt lat="44.63525" lon="-0.86539">
        <ele>44.84</ele>
        <time>2012-04-16T13:34:36Z</time>
      </trkpt>
      <trkpt lat="44.6352" lon="-0.86525">
        <ele>43.88</ele>
        <time>2012-04-16T13:34:38Z</time>
      </trkpt>
      <trkpt lat="44.63515" lon="-0.8651">
        <ele>44.36</ele>
        <time>2012-04-16T13:34:40Z</time>
      </trkpt>
      <trkpt lat="44.6351" lon="-0.86496">
        <ele>44.36</ele>
        <time>2012-04-16T13:34:42Z</time>
      </trkpt>
      <trkpt lat="44.63506" lon="-0.86482">
        <ele>44.84</ele>
        <time>2012-04-16T13:34:44Z</time>
      </trkpt>
      <trkpt lat="44.63501" lon="-0.86467">
        <ele>44.36</ele>
        <time>2012-04-16T13:34:46Z</time>
      </trkpt>
      <trkpt lat="44.63496" lon="-0.86454">
        <ele>44.36</ele>
        <time>2012-04-16T13:34:48Z</time>
      </trkpt>
      <trkpt lat="44.63491" lon="-0.8644">
        <ele>44.84</ele>
        <time>2012-04-16T13:34:50Z</time>
      </trkpt>
      <trkpt lat="44.63487" lon="-0.86426">
        <ele>43.88</ele>
        <time>2012-04-16T13:34:52Z</time>
      </trkpt>
      <trkpt lat="44.63482" lon="-0.86412">
        <ele>43.88</ele>
        <time>2012-04-16T13:34:54Z</time>
      </trkpt>
      <trkpt lat="44.63478" lon="-0.86399">
        <ele>44.36</ele>
        <time>2012-04-16T13:34:56Z</time>
      </trkpt>
      <trkpt lat="44.63474" lon="-0.86386">
        <ele>44.84</ele>
        <time>2012-04-16T13:34:58Z</time>
      </trkpt>
      <trkpt lat="44.63469" lon="-0.86373">
        <ele>44.84</ele>
        <time>2012-04-16T13:35:00Z</time>
      </trkpt>
      <trkpt lat="44.63465" lon="-0.86359">
        <ele>44.84</ele>
        <time>2012-04-16T13:35:02Z</time>
      </trkpt>
      <trkpt lat="44.63462" lon="-0.86346">
        <ele>45.32</ele>
        <time>2012-04-16T13:35:04Z</time>
      </trkpt>
      <trkpt lat="44.63458" lon="-0.86334">
        <ele>45.32</ele>
        <time>2012-04-16T13:35:06Z</time>
      </trkpt>
      <trkpt lat="44.63453" lon="-0.86321">
        <ele>45.32</ele>
        <time>2012-04-16T13:35:08Z</time>
      </trkpt>
      <trkpt lat="44.63448" lon="-0.86308">
        <ele>44.84</ele>
        <time>2012-04-16T13:35:10Z</time>
      </trkpt>
      <trkpt lat="44.63443" lon="-0.86294">
        <ele>45.8</ele>
        <time>2012-04-16T13:35:12Z</time>
      </trkpt>
      <trkpt lat="44.63439" lon="-0.8628">
        <ele>44.84</ele>
        <time>2012-04-16T13:35:14Z</time>
      </trkpt>
      <trkpt lat="44.63435" lon="-0.86266">
        <ele>45.32</ele>
        <time>2012-04-16T13:35:16Z</time>
      </trkpt>
      <trkpt lat="44.6343" lon="-0.86253">
        <ele>45.32</ele>
        <time>2012-04-16T13:35:18Z</time>
      </trkpt>
      <trkpt lat="44.63426" lon="-0.8624">
        <ele>45.32</ele>
        <time>2012-04-16T13:35:20Z</time>
      </trkpt>
      <trkpt lat="44.63422" lon="-0.86226">
        <ele>45.8</ele>
        <time>2012-04-16T13:35:22Z</time>
      </trkpt>
      <trkpt lat="44.63417" lon="-0.86213">
        <ele>45.8</ele>
        <time>2012-04-16T13:35:24Z</time>
      </trkpt>
      <trkpt lat="44.63412" lon="-0.86199">
        <ele>45.8</ele>
        <time>2012-04-16T13:35:26Z</time>
      </trkpt>
      <trkpt lat="44.63408" lon="-0.86186">
        <ele>45.8</ele>
        <time>2012-04-16T13:35:28Z</time>
      </trkpt>
      <trkpt lat="44.63403" lon="-0.86172">
        <ele>46.28</ele>
        <time>2012-04-16T13:35:30Z</time>
      </trkpt>
      <trkpt lat="44.63398" lon="-0.86159">
        <ele>46.28</ele>
        <time>2012-04-16T13:35:32Z</time>
      </trkpt>
      <trkpt lat="44.63394" lon="-0.86147">
        <ele>46.28</ele>
        <time>2012-04-16T13:35:34Z</time>
      </trkpt>
      <trkpt lat="44.6339" lon="-0.86133">
        <ele>46.76</ele>
        <time>2012-04-16T13:35:37Z</time>
      </trkpt>
      <trkpt lat="44.63386" lon="-0.86124">
        <ele>44.84</ele>
        <time>2012-04-16T13:38:40Z</time>
      </trkpt>
      <trkpt lat="44.6338" lon="-0.86112">
        <ele>44.84</ele>
        <time>2012-04-16T13:38:44Z</time>
      </trkpt>
      <trkpt lat="44.63376" lon="-0.86097">
        <ele>44.84</ele>
        <time>2012-04-16T13:38:47Z</time>
      </trkpt>
      <trkpt lat="44.63371" lon="-0.86081">
        <ele>44.84</ele>
        <time>2012-04-16T13:38:50Z</time>
      </trkpt>
      <trkpt lat="44.63367" lon="-0.86064">
        <ele>44.84</ele>
        <time>2012-04-16T13:38:53Z</time>
      </trkpt>
      <trkpt lat="44.63361" lon="-0.86048">
        <ele>44.84</ele>
        <time>2012-04-16T13:38:56Z</time>
      </trkpt>
      <trkpt lat="44.63356" lon="-0.86032">
        <ele>45.32</ele>
        <time>2012-04-16T13:38:59Z</time>
      </trkpt>
      <trkpt lat="44.6335" lon="-0.86015">
        <ele>45.32</ele>
        <time>2012-04-16T13:39:02Z</time>
      </trkpt>
      <trkpt lat="44.63345" lon="-0.85997">
        <ele>45.8</ele>
        <time>2012-04-16T13:39:05Z</time>
      </trkpt>
      <trkpt lat="44.63339" lon="-0.8598">
        <ele>45.32</ele>
        <time>2012-04-16T13:39:08Z</time>
      </trkpt>
      <trkpt lat="44.63334" lon="-0.85963">
        <ele>45.32</ele>
        <time>2012-04-16T13:39:11Z</time>
      </trkpt>
      <trkpt lat="44.6333" lon="-0.85951">
        <ele>45.8</ele>
        <time>2012-04-16T13:39:13Z</time>
      </trkpt>
      <trkpt lat="44.63324" lon="-0.85934">
        <ele>45.8</ele>
        <time>2012-04-16T13:39:16Z</time>
      </trkpt>
      <trkpt lat="44.6332" lon="-0.85922">
        <ele>45.8</ele>
        <time>2012-04-16T13:39:18Z</time>
      </trkpt>
      <trkpt lat="44.63316" lon="-0.85911">
        <ele>45.8</ele>
        <time>2012-04-16T13:39:20Z</time>
      </trkpt>
      <trkpt lat="44.63312" lon="-0.85899">
        <ele>46.28</ele>
        <time>2012-04-16T13:39:22Z</time>
      </trkpt>
      <trkpt lat="44.63308" lon="-0.85886">
        <ele>45.8</ele>
        <time>2012-04-16T13:39:24Z</time>
      </trkpt>
      <trkpt lat="44.63304" lon="-0.85874">
        <ele>46.28</ele>
        <time>2012-04-16T13:39:26Z</time>
      </trkpt>
      <trkpt lat="44.633" lon="-0.85862">
        <ele>46.28</ele>
        <time>2012-04-16T13:39:28Z</time>
      </trkpt>
      <trkpt lat="44.63294" lon="-0.85847">
        <ele>46.28</ele>
        <time>2012-04-16T13:39:31Z</time>
      </trkpt>
      <trkpt lat="44.63297" lon="-0.85845">
        <ele>46.76</ele>
        <time>2012-04-16T13:39:45Z</time>
      </trkpt>
      <trkpt lat="44.63308" lon="-0.85838">
        <ele>46.28</ele>
        <time>2012-04-16T13:39:49Z</time>
      </trkpt>
      <trkpt lat="44.63316" lon="-0.85827">
        <ele>46.28</ele>
        <time>2012-04-16T13:39:53Z</time>
      </trkpt>
      <trkpt lat="44.63326" lon="-0.85818">
        <ele>46.28</ele>
        <time>2012-04-16T13:39:57Z</time>
      </trkpt>
      <trkpt lat="44.63335" lon="-0.85807">
        <ele>46.28</ele>
        <time>2012-04-16T13:40:01Z</time>
      </trkpt>
      <trkpt lat="44.63343" lon="-0.85797">
        <ele>46.28</ele>
        <time>2012-04-16T13:40:04Z</time>
      </trkpt>
      <trkpt lat="44.63352" lon="-0.85788">
        <ele>46.28</ele>
        <time>2012-04-16T13:40:07Z</time>
      </trkpt>
      <trkpt lat="44.63359" lon="-0.85779">
        <ele>46.28</ele>
        <time>2012-04-16T13:40:10Z</time>
      </trkpt>
      <trkpt lat="44.63368" lon="-0.85769">
        <ele>46.28</ele>
        <time>2012-04-16T13:40:13Z</time>
      </trkpt>
      <trkpt lat="44.63377" lon="-0.85761">
        <ele>46.28</ele>
        <time>2012-04-16T13:40:16Z</time>
      </trkpt>
      <trkpt lat="44.63386" lon="-0.85753">
        <ele>46.28</ele>
        <time>2012-04-16T13:40:19Z</time>
      </trkpt>
      <trkpt lat="44.63395" lon="-0.85744">
        <ele>46.76</ele>
        <time>2012-04-16T13:40:22Z</time>
      </trkpt>
      <trkpt lat="44.63403" lon="-0.85735">
        <ele>46.76</ele>
        <time>2012-04-16T13:40:25Z</time>
      </trkpt>
      <trkpt lat="44.63412" lon="-0.85727">
        <ele>46.76</ele>
        <time>2012-04-16T13:40:28Z</time>
      </trkpt>
      <trkpt lat="44.63421" lon="-0.85718">
        <ele>46.28</ele>
        <time>2012-04-16T13:40:31Z</time>
      </trkpt>
      <trkpt lat="44.6343" lon="-0.85709">
        <ele>46.76</ele>
        <time>2012-04-16T13:40:34Z</time>
      </trkpt>
      <trkpt lat="44.6344" lon="-0.85701">
        <ele>46.76</ele>
        <time>2012-04-16T13:40:37Z</time>
      </trkpt>
      <trkpt lat="44.63449" lon="-0.85694">
        <ele>46.76</ele>
        <time>2012-04-16T13:40:40Z</time>
      </trkpt>
      <trkpt lat="44.63459" lon="-0.85685">
        <ele>46.76</ele>
        <time>2012-04-16T13:40:43Z</time>
      </trkpt>
      <trkpt lat="44.63467" lon="-0.85675">
        <ele>46.76</ele>
        <time>2012-04-16T13:40:46Z</time>
      </trkpt>
      <trkpt lat="44.63475" lon="-0.85666">
        <ele>46.76</ele>
        <time>2012-04-16T13:40:49Z</time>
      </trkpt>
      <trkpt lat="44.63484" lon="-0.85657">
        <ele>47.24</ele>
        <time>2012-04-16T13:40:52Z</time>
      </trkpt>
      <trkpt lat="44.63493" lon="-0.85646">
        <ele>46.76</ele>
        <time>2012-04-16T13:40:55Z</time>
      </trkpt>
      <trkpt lat="44.63501" lon="-0.85635">
        <ele>46.76</ele>
        <time>2012-04-16T13:40:58Z</time>
      </trkpt>
      <trkpt lat="44.6351" lon="-0.85626">
        <ele>46.28</ele>
        <time>2012-04-16T13:41:01Z</time>
      </trkpt>
      <trkpt lat="44.63519" lon="-0.85618">
        <ele>46.28</ele>
        <time>2012-04-16T13:41:04Z</time>
      </trkpt>
      <trkpt lat="44.6353" lon="-0.85608">
        <ele>46.28</ele>
        <time>2012-04-16T13:41:07Z</time>
      </trkpt>
      <trkpt lat="44.6354" lon="-0.85598">
        <ele>46.28</ele>
        <time>2012-04-16T13:41:10Z</time>
      </trkpt>
      <trkpt lat="44.63549" lon="-0.8559">
        <ele>46.28</ele>
        <time>2012-04-16T13:41:13Z</time>
      </trkpt>
      <trkpt lat="44.63559" lon="-0.85583">
        <ele>46.28</ele>
        <time>2012-04-16T13:41:16Z</time>
      </trkpt>
      <trkpt lat="44.6357" lon="-0.85572">
        <ele>45.8</ele>
        <time>2012-04-16T13:41:19Z</time>
      </trkpt>
      <trkpt lat="44.6358" lon="-0.85562">
        <ele>45.32</ele>
        <time>2012-04-16T13:41:22Z</time>
      </trkpt>
      <trkpt lat="44.63589" lon="-0.85553">
        <ele>46.28</ele>
        <time>2012-04-16T13:41:25Z</time>
      </trkpt>
      <trkpt lat="44.63599" lon="-0.85543">
        <ele>45.8</ele>
        <time>2012-04-16T13:41:28Z</time>
      </trkpt>
      <trkpt lat="44.63609" lon="-0.85533">
        <ele>46.28</ele>
        <time>2012-04-16T13:41:31Z</time>
      </trkpt>
      <trkpt lat="44.63619" lon="-0.85523">
        <ele>45.8</ele>
        <time>2012-04-16T13:41:34Z</time>
      </trkpt>
      <trkpt lat="44.63628" lon="-0.85514">
        <ele>46.28</ele>
        <time>2012-04-16T13:41:37Z</time>
      </trkpt>
      <trkpt lat="44.63637" lon="-0.85505">
        <ele>46.28</ele>
        <time>2012-04-16T13:41:42Z</time>
      </trkpt>
      <trkpt lat="44.63646" lon="-0.85498">
        <ele>45.8</ele>
        <time>2012-04-16T13:41:47Z</time>
      </trkpt>
      <trkpt lat="44.63655" lon="-0.85488">
        <ele>45.8</ele>
        <time>2012-04-16T13:41:51Z</time>
      </trkpt>
      <trkpt lat="44.63663" lon="-0.85481">
        <ele>46.28</ele>
        <time>2012-04-16T13:41:54Z</time>
      </trkpt>
      <trkpt lat="44.63671" lon="-0.85472">
        <ele>45.8</ele>
        <time>2012-04-16T13:41:57Z</time>
      </trkpt>
      <trkpt lat="44.63679" lon="-0.85464">
        <ele>46.28</ele>
        <time>2012-04-16T13:42:00Z</time>
      </trkpt>
      <trkpt lat="44.63688" lon="-0.85455">
        <ele>45.8</ele>
        <time>2012-04-16T13:42:03Z</time>
      </trkpt>
      <trkpt lat="44.63697" lon="-0.85447">
        <ele>46.28</ele>
        <time>2012-04-16T13:42:06Z</time>
      </trkpt>
      <trkpt lat="44.63705" lon="-0.85438">
        <ele>46.76</ele>
        <time>2012-04-16T13:42:09Z</time>
      </trkpt>
      <trkpt lat="44.63715" lon="-0.85429">
        <ele>46.76</ele>
        <time>2012-04-16T13:42:12Z</time>
      </trkpt>
      <trkpt lat="44.63723" lon="-0.8542">
        <ele>46.28</ele>
        <time>2012-04-16T13:42:15Z</time>
      </trkpt>
      <trkpt lat="44.63731" lon="-0.85412">
        <ele>46.76</ele>
        <time>2012-04-16T13:42:18Z</time>
      </trkpt>
      <trkpt lat="44.63739" lon="-0.85404">
        <ele>46.28</ele>
        <time>2012-04-16T13:42:21Z</time>
      </trkpt>
      <trkpt lat="44.63747" lon="-0.85396">
        <ele>46.28</ele>
        <time>2012-04-16T13:42:24Z</time>
      </trkpt>
      <trkpt lat="44.63756" lon="-0.85387">
        <ele>46.28</ele>
        <time>2012-04-16T13:42:27Z</time>
      </trkpt>
      <trkpt lat="44.63764" lon="-0.85376">
        <ele>46.76</ele>
        <time>2012-04-16T13:42:30Z</time>
      </trkpt>
      <trkpt lat="44.63773" lon="-0.85367">
        <ele>46.28</ele>
        <time>2012-04-16T13:42:33Z</time>
      </trkpt>
      <trkpt lat="44.6378" lon="-0.85359">
        <ele>46.28</ele>
        <time>2012-04-16T13:42:36Z</time>
      </trkpt>
      <trkpt lat="44.63788" lon="-0.85351">
        <ele>46.28</ele>
        <time>2012-04-16T13:42:39Z</time>
      </trkpt>
      <trkpt lat="44.63797" lon="-0.85343">
        <ele>46.28</ele>
        <time>2012-04-16T13:42:42Z</time>
      </trkpt>
      <trkpt lat="44.63805" lon="-0.85334">
        <ele>46.28</ele>
        <time>2012-04-16T13:42:45Z</time>
      </trkpt>
      <trkpt lat="44.63815" lon="-0.85327">
        <ele>46.28</ele>
        <time>2012-04-16T13:42:48Z</time>
      </trkpt>
      <trkpt lat="44.63823" lon="-0.85317">
        <ele>46.28</ele>
        <time>2012-04-16T13:42:51Z</time>
      </trkpt>
      <trkpt lat="44.63827" lon="-0.85304">
        <ele>46.76</ele>
        <time>2012-04-16T13:42:54Z</time>
      </trkpt>
      <trkpt lat="44.63828" lon="-0.8529">
        <ele>46.76</ele>
        <time>2012-04-16T13:42:57Z</time>
      </trkpt>
      <trkpt lat="44.63831" lon="-0.85276">
        <ele>46.28</ele>
        <time>2012-04-16T13:43:00Z</time>
      </trkpt>
      <trkpt lat="44.63835" lon="-0.85261">
        <ele>46.28</ele>
        <time>2012-04-16T13:43:03Z</time>
      </trkpt>
      <trkpt lat="44.63839" lon="-0.85247">
        <ele>46.28</ele>
        <time>2012-04-16T13:43:06Z</time>
      </trkpt>
      <trkpt lat="44.63843" lon="-0.85235">
        <ele>45.8</ele>
        <time>2012-04-16T13:43:09Z</time>
      </trkpt>
      <trkpt lat="44.63847" lon="-0.85223">
        <ele>46.28</ele>
        <time>2012-04-16T13:43:12Z</time>
      </trkpt>
      <trkpt lat="44.6385" lon="-0.85208">
        <ele>45.8</ele>
        <time>2012-04-16T13:43:15Z</time>
      </trkpt>
      <trkpt lat="44.63853" lon="-0.85196">
        <ele>45.8</ele>
        <time>2012-04-16T13:43:18Z</time>
      </trkpt>
      <trkpt lat="44.63859" lon="-0.85181">
        <ele>46.28</ele>
        <time>2012-04-16T13:43:22Z</time>
      </trkpt>
      <trkpt lat="44.63863" lon="-0.85169">
        <ele>45.8</ele>
        <time>2012-04-16T13:43:27Z</time>
      </trkpt>
      <trkpt lat="44.63866" lon="-0.85153">
        <ele>45.8</ele>
        <time>2012-04-16T13:43:32Z</time>
      </trkpt>
      <trkpt lat="44.63874" lon="-0.85141">
        <ele>45.8</ele>
        <time>2012-04-16T13:43:37Z</time>
      </trkpt>
      <trkpt lat="44.63885" lon="-0.85135">
        <ele>46.28</ele>
        <time>2012-04-16T13:43:42Z</time>
      </trkpt>
      <trkpt lat="44.63894" lon="-0.8513">
        <ele>45.32</ele>
        <time>2012-04-16T13:43:47Z</time>
      </trkpt>
      <trkpt lat="44.63904" lon="-0.85125">
        <ele>45.32</ele>
        <time>2012-04-16T13:43:52Z</time>
      </trkpt>
      <trkpt lat="44.63914" lon="-0.85121">
        <ele>45.8</ele>
        <time>2012-04-16T13:43:57Z</time>
      </trkpt>
      <trkpt lat="44.63924" lon="-0.85115">
        <ele>45.8</ele>
        <time>2012-04-16T13:44:02Z</time>
      </trkpt>
      <trkpt lat="44.63931" lon="-0.85105">
        <ele>46.28</ele>
        <time>2012-04-16T13:44:06Z</time>
      </trkpt>
      <trkpt lat="44.63935" lon="-0.85092">
        <ele>45.8</ele>
        <time>2012-04-16T13:44:10Z</time>
      </trkpt>
      <trkpt lat="44.63939" lon="-0.85078">
        <ele>46.28</ele>
        <time>2012-04-16T13:44:14Z</time>
      </trkpt>
      <trkpt lat="44.63945" lon="-0.85068">
        <ele>45.8</ele>
        <time>2012-04-16T13:44:17Z</time>
      </trkpt>
      <trkpt lat="44.6395" lon="-0.85057">
        <ele>45.8</ele>
        <time>2012-04-16T13:44:20Z</time>
      </trkpt>
      <trkpt lat="44.63956" lon="-0.85046">
        <ele>45.8</ele>
        <time>2012-04-16T13:44:23Z</time>
      </trkpt>
      <trkpt lat="44.63964" lon="-0.85036">
        <ele>45.8</ele>
        <time>2012-04-16T13:44:26Z</time>
      </trkpt>
      <trkpt lat="44.63972" lon="-0.85027">
        <ele>45.8</ele>
        <time>2012-04-16T13:44:29Z</time>
      </trkpt>
      <trkpt lat="44.6398" lon="-0.85018">
        <ele>45.8</ele>
        <time>2012-04-16T13:44:32Z</time>
      </trkpt>
      <trkpt lat="44.63988" lon="-0.85008">
        <ele>45.8</ele>
        <time>2012-04-16T13:44:35Z</time>
      </trkpt>
      <trkpt lat="44.63992" lon="-0.84993">
        <ele>45.8</ele>
        <time>2012-04-16T13:44:38Z</time>
      </trkpt>
      <trkpt lat="44.63993" lon="-0.84979">
        <ele>45.32</ele>
        <time>2012-04-16T13:44:41Z</time>
      </trkpt>
      <trkpt lat="44.63995" lon="-0.84965">
        <ele>45.32</ele>
        <time>2012-04-16T13:44:44Z</time>
      </trkpt>
      <trkpt lat="44.63996" lon="-0.84951">
        <ele>45.32</ele>
        <time>2012-04-16T13:44:47Z</time>
      </trkpt>
      <trkpt lat="44.63996" lon="-0.84939">
        <ele>45.8</ele>
        <time>2012-04-16T13:44:50Z</time>
      </trkpt>
      <trkpt lat="44.63996" lon="-0.84926">
        <ele>45.32</ele>
        <time>2012-04-16T13:44:54Z</time>
      </trkpt>
      <trkpt lat="44.63992" lon="-0.84913">
        <ele>45.32</ele>
        <time>2012-04-16T13:44:59Z</time>
      </trkpt>
      <trkpt lat="44.63987" lon="-0.849">
        <ele>45.8</ele>
        <time>2012-04-16T13:45:03Z</time>
      </trkpt>
      <trkpt lat="44.6398" lon="-0.84887">
        <ele>45.32</ele>
        <time>2012-04-16T13:45:07Z</time>
      </trkpt>
      <trkpt lat="44.63975" lon="-0.84871">
        <ele>45.32</ele>
        <time>2012-04-16T13:45:11Z</time>
      </trkpt>
      <trkpt lat="44.63973" lon="-0.84859">
        <ele>45.32</ele>
        <time>2012-04-16T13:45:14Z</time>
      </trkpt>
      <trkpt lat="44.63973" lon="-0.84843">
        <ele>45.8</ele>
        <time>2012-04-16T13:45:18Z</time>
      </trkpt>
      <trkpt lat="44.63976" lon="-0.84828">
        <ele>45.8</ele>
        <time>2012-04-16T13:45:22Z</time>
      </trkpt>
      <trkpt lat="44.63986" lon="-0.84827">
        <ele>45.8</ele>
        <time>2012-04-16T13:45:26Z</time>
      </trkpt>
      <trkpt lat="44.64002" lon="-0.84835">
        <ele>45.8</ele>
        <time>2012-04-16T13:45:30Z</time>
      </trkpt>
      <trkpt lat="44.64013" lon="-0.84838">
        <ele>45.8</ele>
        <time>2012-04-16T13:45:33Z</time>
      </trkpt>
      <trkpt lat="44.64026" lon="-0.84839">
        <ele>45.8</ele>
        <time>2012-04-16T13:45:36Z</time>
      </trkpt>
      <trkpt lat="44.64039" lon="-0.84839">
        <ele>45.8</ele>
        <time>2012-04-16T13:45:39Z</time>
      </trkpt>
      <trkpt lat="44.64052" lon="-0.8484">
        <ele>45.32</ele>
        <time>2012-04-16T13:45:42Z</time>
      </trkpt>
      <trkpt lat="44.64066" lon="-0.84839">
        <ele>45.32</ele>
        <time>2012-04-16T13:45:45Z</time>
      </trkpt>
      <trkpt lat="44.64075" lon="-0.84839">
        <ele>45.8</ele>
        <time>2012-04-16T13:45:47Z</time>
      </trkpt>
      <trkpt lat="44.64084" lon="-0.84837">
        <ele>45.8</ele>
        <time>2012-04-16T13:45:49Z</time>
      </trkpt>
      <trkpt lat="44.64093" lon="-0.84835">
        <ele>45.32</ele>
        <time>2012-04-16T13:45:51Z</time>
      </trkpt>
      <trkpt lat="44.64103" lon="-0.84831">
        <ele>45.32</ele>
        <time>2012-04-16T13:45:53Z</time>
      </trkpt>
      <trkpt lat="44.64111" lon="-0.84825">
        <ele>44.84</ele>
        <time>2012-04-16T13:45:55Z</time>
      </trkpt>
      <trkpt lat="44.64121" lon="-0.84819">
        <ele>45.32</ele>
        <time>2012-04-16T13:45:57Z</time>
      </trkpt>
      <trkpt lat="44.6413" lon="-0.84814">
        <ele>45.32</ele>
        <time>2012-04-16T13:45:59Z</time>
      </trkpt>
      <trkpt lat="44.64138" lon="-0.84808">
        <ele>45.32</ele>
        <time>2012-04-16T13:46:01Z</time>
      </trkpt>
      <trkpt lat="44.64147" lon="-0.84802">
        <ele>45.32</ele>
        <time>2012-04-16T13:46:03Z</time>
      </trkpt>
      <trkpt lat="44.64156" lon="-0.84797">
        <ele>45.32</ele>
        <time>2012-04-16T13:46:05Z</time>
      </trkpt>
      <trkpt lat="44.64164" lon="-0.84791">
        <ele>45.32</ele>
        <time>2012-04-16T13:46:07Z</time>
      </trkpt>
      <trkpt lat="44.64172" lon="-0.84785">
        <ele>44.84</ele>
        <time>2012-04-16T13:46:09Z</time>
      </trkpt>
      <trkpt lat="44.64181" lon="-0.84779">
        <ele>44.84</ele>
        <time>2012-04-16T13:46:11Z</time>
      </trkpt>
      <trkpt lat="44.6419" lon="-0.84774">
        <ele>44.84</ele>
        <time>2012-04-16T13:46:13Z</time>
      </trkpt>
      <trkpt lat="44.64199" lon="-0.84769">
        <ele>44.84</ele>
        <time>2012-04-16T13:46:15Z</time>
      </trkpt>
      <trkpt lat="44.64208" lon="-0.84763">
        <ele>44.84</ele>
        <time>2012-04-16T13:46:17Z</time>
      </trkpt>
      <trkpt lat="44.64217" lon="-0.84758">
        <ele>44.84</ele>
        <time>2012-04-16T13:46:19Z</time>
      </trkpt>
      <trkpt lat="44.64226" lon="-0.84752">
        <ele>44.84</ele>
        <time>2012-04-16T13:46:21Z</time>
      </trkpt>
      <trkpt lat="44.64235" lon="-0.84747">
        <ele>43.4</ele>
        <time>2012-04-16T13:46:23Z</time>
      </trkpt>
      <trkpt lat="44.64244" lon="-0.84742">
        <ele>42.92</ele>
        <time>2012-04-16T13:46:25Z</time>
      </trkpt>
      <trkpt lat="44.64253" lon="-0.84737">
        <ele>44.36</ele>
        <time>2012-04-16T13:46:27Z</time>
      </trkpt>
      <trkpt lat="44.64263" lon="-0.84732">
        <ele>44.84</ele>
        <time>2012-04-16T13:46:29Z</time>
      </trkpt>
      <trkpt lat="44.64273" lon="-0.84727">
        <ele>44.36</ele>
        <time>2012-04-16T13:46:31Z</time>
      </trkpt>
      <trkpt lat="44.64283" lon="-0.84722">
        <ele>44.36</ele>
        <time>2012-04-16T13:46:33Z</time>
      </trkpt>
      <trkpt lat="44.64292" lon="-0.84717">
        <ele>44.36</ele>
        <time>2012-04-16T13:46:35Z</time>
      </trkpt>
      <trkpt lat="44.64301" lon="-0.84712">
        <ele>43.88</ele>
        <time>2012-04-16T13:46:37Z</time>
      </trkpt>
      <trkpt lat="44.64311" lon="-0.84707">
        <ele>44.36</ele>
        <time>2012-04-16T13:46:39Z</time>
      </trkpt>
      <trkpt lat="44.64321" lon="-0.84702">
        <ele>43.88</ele>
        <time>2012-04-16T13:46:41Z</time>
      </trkpt>
      <trkpt lat="44.6433" lon="-0.84698">
        <ele>43.88</ele>
        <time>2012-04-16T13:46:43Z</time>
      </trkpt>
      <trkpt lat="44.64339" lon="-0.84693">
        <ele>43.88</ele>
        <time>2012-04-16T13:46:45Z</time>
      </trkpt>
      <trkpt lat="44.64349" lon="-0.84688">
        <ele>43.88</ele>
        <time>2012-04-16T13:46:47Z</time>
      </trkpt>
      <trkpt lat="44.64358" lon="-0.84684">
        <ele>43.4</ele>
        <time>2012-04-16T13:46:49Z</time>
      </trkpt>
      <trkpt lat="44.64371" lon="-0.84679">
        <ele>43.4</ele>
        <time>2012-04-16T13:46:52Z</time>
      </trkpt>
      <trkpt lat="44.64381" lon="-0.84674">
        <ele>42.92</ele>
        <time>2012-04-16T13:46:55Z</time>
      </trkpt>
      <trkpt lat="44.64389" lon="-0.84661">
        <ele>42.44</ele>
        <time>2012-04-16T13:46:59Z</time>
      </trkpt>
      <trkpt lat="44.64389" lon="-0.84647">
        <ele>42.44</ele>
        <time>2012-04-16T13:47:02Z</time>
      </trkpt>
      <trkpt lat="44.64389" lon="-0.84631">
        <ele>42.92</ele>
        <time>2012-04-16T13:47:05Z</time>
      </trkpt>
      <trkpt lat="44.64388" lon="-0.84613">
        <ele>42.92</ele>
        <time>2012-04-16T13:47:08Z</time>
      </trkpt>
      <trkpt lat="44.64387" lon="-0.84595">
        <ele>42.92</ele>
        <time>2012-04-16T13:47:11Z</time>
      </trkpt>
      <trkpt lat="44.64387" lon="-0.84576">
        <ele>42.92</ele>
        <time>2012-04-16T13:47:14Z</time>
      </trkpt>
      <trkpt lat="44.6439" lon="-0.84559">
        <ele>43.88</ele>
        <time>2012-04-16T13:47:17Z</time>
      </trkpt>
      <trkpt lat="44.64394" lon="-0.84542">
        <ele>43.4</ele>
        <time>2012-04-16T13:47:20Z</time>
      </trkpt>
      <trkpt lat="44.64398" lon="-0.84527">
        <ele>43.4</ele>
        <time>2012-04-16T13:47:23Z</time>
      </trkpt>
      <trkpt lat="44.64402" lon="-0.84511">
        <ele>43.4</ele>
        <time>2012-04-16T13:47:26Z</time>
      </trkpt>
      <trkpt lat="44.64409" lon="-0.84496">
        <ele>43.4</ele>
        <time>2012-04-16T13:47:29Z</time>
      </trkpt>
      <trkpt lat="44.64413" lon="-0.84479">
        <ele>42.92</ele>
        <time>2012-04-16T13:47:32Z</time>
      </trkpt>
      <trkpt lat="44.64417" lon="-0.84463">
        <ele>42.92</ele>
        <time>2012-04-16T13:47:35Z</time>
      </trkpt>
      <trkpt lat="44.6442" lon="-0.84446">
        <ele>42.92</ele>
        <time>2012-04-16T13:47:38Z</time>
      </trkpt>
      <trkpt lat="44.64424" lon="-0.84428">
        <ele>42.92</ele>
        <time>2012-04-16T13:47:41Z</time>
      </trkpt>
      <trkpt lat="44.64428" lon="-0.84411">
        <ele>42.92</ele>
        <time>2012-04-16T13:47:44Z</time>
      </trkpt>
      <trkpt lat="44.64433" lon="-0.84394">
        <ele>42.92</ele>
        <time>2012-04-16T13:47:47Z</time>
      </trkpt>
      <trkpt lat="44.64439" lon="-0.84377">
        <ele>42.92</ele>
        <time>2012-04-16T13:47:50Z</time>
      </trkpt>
      <trkpt lat="44.64446" lon="-0.84361">
        <ele>42.92</ele>
        <time>2012-04-16T13:47:53Z</time>
      </trkpt>
      <trkpt lat="44.64452" lon="-0.84345">
        <ele>42.92</ele>
        <time>2012-04-16T13:47:56Z</time>
      </trkpt>
      <trkpt lat="44.64459" lon="-0.84329">
        <ele>43.4</ele>
        <time>2012-04-16T13:47:59Z</time>
      </trkpt>
      <trkpt lat="44.64466" lon="-0.84316">
        <ele>42.92</ele>
        <time>2012-04-16T13:48:02Z</time>
      </trkpt>
      <trkpt lat="44.64475" lon="-0.84308">
        <ele>42.92</ele>
        <time>2012-04-16T13:48:06Z</time>
      </trkpt>
      <trkpt lat="44.64473" lon="-0.84304">
        <ele>43.88</ele>
        <time>2012-04-16T13:52:20Z</time>
      </trkpt>
      <trkpt lat="44.64467" lon="-0.84291">
        <ele>44.36</ele>
        <time>2012-04-16T13:52:24Z</time>
      </trkpt>
      <trkpt lat="44.64467" lon="-0.84274">
        <ele>44.36</ele>
        <time>2012-04-16T13:52:27Z</time>
      </trkpt>
      <trkpt lat="44.64468" lon="-0.84254">
        <ele>44.36</ele>
        <time>2012-04-16T13:52:30Z</time>
      </trkpt>
      <trkpt lat="44.64468" lon="-0.84235">
        <ele>44.84</ele>
        <time>2012-04-16T13:52:33Z</time>
      </trkpt>
      <trkpt lat="44.64468" lon="-0.84216">
        <ele>44.84</ele>
        <time>2012-04-16T13:52:36Z</time>
      </trkpt>
      <trkpt lat="44.64467" lon="-0.84196">
        <ele>44.84</ele>
        <time>2012-04-16T13:52:39Z</time>
      </trkpt>
      <trkpt lat="44.64466" lon="-0.84183">
        <ele>44.84</ele>
        <time>2012-04-16T13:52:41Z</time>
      </trkpt>
      <trkpt lat="44.64466" lon="-0.8417">
        <ele>45.32</ele>
        <time>2012-04-16T13:52:43Z</time>
      </trkpt>
      <trkpt lat="44.64467" lon="-0.84152">
        <ele>44.84</ele>
        <time>2012-04-16T13:52:46Z</time>
      </trkpt>
      <trkpt lat="44.6447" lon="-0.8414">
        <ele>44.36</ele>
        <time>2012-04-16T13:52:48Z</time>
      </trkpt>
      <trkpt lat="44.64474" lon="-0.84128">
        <ele>43.88</ele>
        <time>2012-04-16T13:52:50Z</time>
      </trkpt>
      <trkpt lat="44.64474" lon="-0.8411">
        <ele>43.88</ele>
        <time>2012-04-16T13:52:53Z</time>
      </trkpt>
      <trkpt lat="44.64476" lon="-0.84093">
        <ele>44.36</ele>
        <time>2012-04-16T13:52:56Z</time>
      </trkpt>
      <trkpt lat="44.64479" lon="-0.84077">
        <ele>43.88</ele>
        <time>2012-04-16T13:52:59Z</time>
      </trkpt>
      <trkpt lat="44.64482" lon="-0.84062">
        <ele>43.88</ele>
        <time>2012-04-16T13:53:02Z</time>
      </trkpt>
      <trkpt lat="44.64484" lon="-0.84048">
        <ele>43.88</ele>
        <time>2012-04-16T13:53:05Z</time>
      </trkpt>
      <trkpt lat="44.64483" lon="-0.84033">
        <ele>43.88</ele>
        <time>2012-04-16T13:53:09Z</time>
      </trkpt>
      <trkpt lat="44.64482" lon="-0.84017">
        <ele>43.88</ele>
        <time>2012-04-16T13:53:13Z</time>
      </trkpt>
      <trkpt lat="44.64482" lon="-0.84003">
        <ele>44.84</ele>
        <time>2012-04-16T13:53:16Z</time>
      </trkpt>
      <trkpt lat="44.64482" lon="-0.83988">
        <ele>43.88</ele>
        <time>2012-04-16T13:53:19Z</time>
      </trkpt>
      <trkpt lat="44.64484" lon="-0.83971">
        <ele>44.36</ele>
        <time>2012-04-16T13:53:22Z</time>
      </trkpt>
      <trkpt lat="44.64488" lon="-0.83955">
        <ele>43.88</ele>
        <time>2012-04-16T13:53:25Z</time>
      </trkpt>
      <trkpt lat="44.64495" lon="-0.83941">
        <ele>44.36</ele>
        <time>2012-04-16T13:53:28Z</time>
      </trkpt>
      <trkpt lat="44.64505" lon="-0.8393">
        <ele>43.88</ele>
        <time>2012-04-16T13:53:31Z</time>
      </trkpt>
      <trkpt lat="44.64515" lon="-0.83925">
        <ele>43.4</ele>
        <time>2012-04-16T13:53:33Z</time>
      </trkpt>
      <trkpt lat="44.64523" lon="-0.8392">
        <ele>43.4</ele>
        <time>2012-04-16T13:53:35Z</time>
      </trkpt>
      <trkpt lat="44.64535" lon="-0.83913">
        <ele>42.44</ele>
        <time>2012-04-16T13:53:38Z</time>
      </trkpt>
      <trkpt lat="44.64548" lon="-0.83906">
        <ele>42.44</ele>
        <time>2012-04-16T13:53:41Z</time>
      </trkpt>
      <trkpt lat="44.64561" lon="-0.839">
        <ele>42.92</ele>
        <time>2012-04-16T13:53:44Z</time>
      </trkpt>
      <trkpt lat="44.64574" lon="-0.83892">
        <ele>42.92</ele>
        <time>2012-04-16T13:53:47Z</time>
      </trkpt>
      <trkpt lat="44.64584" lon="-0.83886">
        <ele>43.4</ele>
        <time>2012-04-16T13:53:50Z</time>
      </trkpt>
      <trkpt lat="44.64595" lon="-0.83879">
        <ele>43.88</ele>
        <time>2012-04-16T13:53:53Z</time>
      </trkpt>
      <trkpt lat="44.64605" lon="-0.83873">
        <ele>44.36</ele>
        <time>2012-04-16T13:53:56Z</time>
      </trkpt>
      <trkpt lat="44.64616" lon="-0.8387">
        <ele>44.84</ele>
        <time>2012-04-16T13:53:59Z</time>
      </trkpt>
      <trkpt lat="44.64629" lon="-0.83869">
        <ele>44.36</ele>
        <time>2012-04-16T13:54:02Z</time>
      </trkpt>
      <trkpt lat="44.64642" lon="-0.83869">
        <ele>44.36</ele>
        <time>2012-04-16T13:54:05Z</time>
      </trkpt>
      <trkpt lat="44.64653" lon="-0.83868">
        <ele>43.88</ele>
        <time>2012-04-16T13:54:08Z</time>
      </trkpt>
      <trkpt lat="44.64665" lon="-0.83867">
        <ele>44.36</ele>
        <time>2012-04-16T13:54:11Z</time>
      </trkpt>
      <trkpt lat="44.64678" lon="-0.83869">
        <ele>44.36</ele>
        <time>2012-04-16T13:54:14Z</time>
      </trkpt>
      <trkpt lat="44.64691" lon="-0.83871">
        <ele>44.84</ele>
        <time>2012-04-16T13:54:17Z</time>
      </trkpt>
      <trkpt lat="44.64702" lon="-0.83876">
        <ele>44.84</ele>
        <time>2012-04-16T13:54:20Z</time>
      </trkpt>
      <trkpt lat="44.64711" lon="-0.83886">
        <ele>43.88</ele>
        <time>2012-04-16T13:54:23Z</time>
      </trkpt>
      <trkpt lat="44.64718" lon="-0.839">
        <ele>43.88</ele>
        <time>2012-04-16T13:54:26Z</time>
      </trkpt>
      <trkpt lat="44.64723" lon="-0.83916">
        <ele>44.36</ele>
        <time>2012-04-16T13:54:29Z</time>
      </trkpt>
      <trkpt lat="44.64728" lon="-0.83932">
        <ele>43.4</ele>
        <time>2012-04-16T13:54:32Z</time>
      </trkpt>
      <trkpt lat="44.64734" lon="-0.83948">
        <ele>42.44</ele>
        <time>2012-04-16T13:54:35Z</time>
      </trkpt>
      <trkpt lat="44.64741" lon="-0.83963">
        <ele>42.92</ele>
        <time>2012-04-16T13:54:38Z</time>
      </trkpt>
      <trkpt lat="44.6475" lon="-0.83976">
        <ele>42.92</ele>
        <time>2012-04-16T13:54:41Z</time>
      </trkpt>
      <trkpt lat="44.6476" lon="-0.83985">
        <ele>42.44</ele>
        <time>2012-04-16T13:54:44Z</time>
      </trkpt>
      <trkpt lat="44.6477" lon="-0.83992">
        <ele>41.95</ele>
        <time>2012-04-16T13:54:47Z</time>
      </trkpt>
      <trkpt lat="44.6478" lon="-0.84004">
        <ele>40.99</ele>
        <time>2012-04-16T13:54:50Z</time>
      </trkpt>
      <trkpt lat="44.64787" lon="-0.84014">
        <ele>40.51</ele>
        <time>2012-04-16T13:54:52Z</time>
      </trkpt>
      <trkpt lat="44.64796" lon="-0.84026">
        <ele>40.03</ele>
        <time>2012-04-16T13:54:55Z</time>
      </trkpt>
      <trkpt lat="44.64807" lon="-0.84036">
        <ele>38.59</ele>
        <time>2012-04-16T13:54:58Z</time>
      </trkpt>
      <trkpt lat="44.64817" lon="-0.84045">
        <ele>39.07</ele>
        <time>2012-04-16T13:55:01Z</time>
      </trkpt>
      <trkpt lat="44.64829" lon="-0.84051">
        <ele>39.07</ele>
        <time>2012-04-16T13:55:04Z</time>
      </trkpt>
      <trkpt lat="44.6484" lon="-0.84051">
        <ele>39.55</ele>
        <time>2012-04-16T13:55:08Z</time>
      </trkpt>
      <trkpt lat="44.6485" lon="-0.84049">
        <ele>39.55</ele>
        <time>2012-04-16T13:55:13Z</time>
      </trkpt>
      <trkpt lat="44.6486" lon="-0.84053">
        <ele>38.59</ele>
        <time>2012-04-16T13:55:18Z</time>
      </trkpt>
      <trkpt lat="44.64872" lon="-0.84059">
        <ele>38.59</ele>
        <time>2012-04-16T13:55:21Z</time>
      </trkpt>
      <trkpt lat="44.64883" lon="-0.84063">
        <ele>37.63</ele>
        <time>2012-04-16T13:55:25Z</time>
      </trkpt>
      <trkpt lat="44.64899" lon="-0.84057">
        <ele>36.67</ele>
        <time>2012-04-16T13:55:29Z</time>
      </trkpt>
      <trkpt lat="44.64914" lon="-0.84056">
        <ele>36.19</ele>
        <time>2012-04-16T13:55:32Z</time>
      </trkpt>
      <trkpt lat="44.6493" lon="-0.84073">
        <ele>35.23</ele>
        <time>2012-04-16T13:55:36Z</time>
      </trkpt>
      <trkpt lat="44.64938" lon="-0.84094">
        <ele>33.78</ele>
        <time>2012-04-16T13:55:40Z</time>
      </trkpt>
      <trkpt lat="44.64946" lon="-0.84096">
        <ele>33.78</ele>
        <time>2012-04-16T13:55:52Z</time>
      </trkpt>
      <trkpt lat="44.64949" lon="-0.8409">
        <ele>33.3</ele>
        <time>2012-04-16T13:57:30Z</time>
      </trkpt>
      <trkpt lat="44.64959" lon="-0.84083">
        <ele>33.3</ele>
        <time>2012-04-16T13:57:41Z</time>
      </trkpt>
      <trkpt lat="44.64967" lon="-0.84072">
        <ele>33.3</ele>
        <time>2012-04-16T13:57:47Z</time>
      </trkpt>
      <trkpt lat="44.64975" lon="-0.84068">
        <ele>32.82</ele>
        <time>2012-04-16T13:57:58Z</time>
      </trkpt>
      <trkpt lat="44.64983" lon="-0.84073">
        <ele>32.82</ele>
        <time>2012-04-16T13:58:10Z</time>
      </trkpt>
      <trkpt lat="44.64989" lon="-0.84087">
        <ele>33.3</ele>
        <time>2012-04-16T13:58:17Z</time>
      </trkpt>
      <trkpt lat="44.64994" lon="-0.841">
        <ele>33.78</ele>
        <time>2012-04-16T13:58:22Z</time>
      </trkpt>
      <trkpt lat="44.65003" lon="-0.8411">
        <ele>33.78</ele>
        <time>2012-04-16T13:58:27Z</time>
      </trkpt>
      <trkpt lat="44.65009" lon="-0.84121">
        <ele>35.71</ele>
        <time>2012-04-16T13:58:33Z</time>
      </trkpt>
      <trkpt lat="44.65008" lon="-0.84125">
        <ele>36.67</ele>
        <time>2012-04-16T13:58:47Z</time>
      </trkpt>
      <trkpt lat="44.65014" lon="-0.84136">
        <ele>37.15</ele>
        <time>2012-04-16T13:59:05Z</time>
      </trkpt>
      <trkpt lat="44.6502" lon="-0.84148">
        <ele>38.11</ele>
        <time>2012-04-16T13:59:12Z</time>
      </trkpt>
      <trkpt lat="44.65027" lon="-0.84158">
        <ele>38.59</ele>
        <time>2012-04-16T13:59:18Z</time>
      </trkpt>
      <trkpt lat="44.6503" lon="-0.84171">
        <ele>38.59</ele>
        <time>2012-04-16T13:59:25Z</time>
      </trkpt>
      <trkpt lat="44.65026" lon="-0.84185">
        <ele>38.11</ele>
        <time>2012-04-16T13:59:31Z</time>
      </trkpt>
      <trkpt lat="44.65017" lon="-0.84195">
        <ele>40.03</ele>
        <time>2012-04-16T13:59:38Z</time>
      </trkpt>
      <trkpt lat="44.65027" lon="-0.84213">
        <ele>38.59</ele>
        <time>2012-04-16T13:59:45Z</time>
      </trkpt>
      <trkpt lat="44.65044" lon="-0.84212">
        <ele>39.07</ele>
        <time>2012-04-16T13:59:51Z</time>
      </trkpt>
      <trkpt lat="44.65057" lon="-0.84211">
        <ele>39.55</ele>
        <time>2012-04-16T13:59:57Z</time>
      </trkpt>
      <trkpt lat="44.65068" lon="-0.84213">
        <ele>39.55</ele>
        <time>2012-04-16T14:00:02Z</time>
      </trkpt>
      <trkpt lat="44.65079" lon="-0.84212">
        <ele>39.55</ele>
        <time>2012-04-16T14:00:06Z</time>
      </trkpt>
      <trkpt lat="44.65089" lon="-0.84211">
        <ele>40.03</ele>
        <time>2012-04-16T14:00:10Z</time>
      </trkpt>
      <trkpt lat="44.65099" lon="-0.84212">
        <ele>40.99</ele>
        <time>2012-04-16T14:00:14Z</time>
      </trkpt>
      <trkpt lat="44.65109" lon="-0.84208">
        <ele>40.51</ele>
        <time>2012-04-16T14:00:18Z</time>
      </trkpt>
      <trkpt lat="44.65118" lon="-0.84204">
        <ele>41.47</ele>
        <time>2012-04-16T14:00:22Z</time>
      </trkpt>
      <trkpt lat="44.65128" lon="-0.84202">
        <ele>41.47</ele>
        <time>2012-04-16T14:00:26Z</time>
      </trkpt>
      <trkpt lat="44.65136" lon="-0.84193">
        <ele>42.44</ele>
        <time>2012-04-16T14:00:30Z</time>
      </trkpt>
      <trkpt lat="44.65143" lon="-0.84185">
        <ele>42.92</ele>
        <time>2012-04-16T14:00:34Z</time>
      </trkpt>
      <trkpt lat="44.65152" lon="-0.84182">
        <ele>43.4</ele>
        <time>2012-04-16T14:00:38Z</time>
      </trkpt>
      <trkpt lat="44.65161" lon="-0.84185">
        <ele>43.4</ele>
        <time>2012-04-16T14:00:42Z</time>
      </trkpt>
      <trkpt lat="44.65169" lon="-0.84195">
        <ele>43.4</ele>
        <time>2012-04-16T14:00:46Z</time>
      </trkpt>
      <trkpt lat="44.65177" lon="-0.84206">
        <ele>43.4</ele>
        <time>2012-04-16T14:00:50Z</time>
      </trkpt>
      <trkpt lat="44.65183" lon="-0.84216">
        <ele>43.4</ele>
        <time>2012-04-16T14:00:53Z</time>
      </trkpt>
      <trkpt lat="44.6519" lon="-0.84226">
        <ele>42.92</ele>
        <time>2012-04-16T14:00:56Z</time>
      </trkpt>
      <trkpt lat="44.65197" lon="-0.84237">
        <ele>42.92</ele>
        <time>2012-04-16T14:00:59Z</time>
      </trkpt>
      <trkpt lat="44.65203" lon="-0.84248">
        <ele>42.92</ele>
        <time>2012-04-16T14:01:02Z</time>
      </trkpt>
      <trkpt lat="44.65209" lon="-0.8426">
        <ele>43.4</ele>
        <time>2012-04-16T14:01:05Z</time>
      </trkpt>
      <trkpt lat="44.65214" lon="-0.84273">
        <ele>43.4</ele>
        <time>2012-04-16T14:01:08Z</time>
      </trkpt>
      <trkpt lat="44.6522" lon="-0.84286">
        <ele>43.4</ele>
        <time>2012-04-16T14:01:11Z</time>
      </trkpt>
      <trkpt lat="44.65227" lon="-0.84297">
        <ele>43.4</ele>
        <time>2012-04-16T14:01:14Z</time>
      </trkpt>
      <trkpt lat="44.65236" lon="-0.84306">
        <ele>42.92</ele>
        <time>2012-04-16T14:01:17Z</time>
      </trkpt>
      <trkpt lat="44.65244" lon="-0.84316">
        <ele>43.4</ele>
        <time>2012-04-16T14:01:20Z</time>
      </trkpt>
      <trkpt lat="44.65252" lon="-0.84327">
        <ele>43.88</ele>
        <time>2012-04-16T14:01:23Z</time>
      </trkpt>
      <trkpt lat="44.6526" lon="-0.84337">
        <ele>43.4</ele>
        <time>2012-04-16T14:01:26Z</time>
      </trkpt>
      <trkpt lat="44.65271" lon="-0.84342">
        <ele>43.88</ele>
        <time>2012-04-16T14:01:29Z</time>
      </trkpt>
      <trkpt lat="44.6528" lon="-0.84342">
        <ele>43.4</ele>
        <time>2012-04-16T14:01:32Z</time>
      </trkpt>
      <trkpt lat="44.6529" lon="-0.84338">
        <ele>43.4</ele>
        <time>2012-04-16T14:01:35Z</time>
      </trkpt>
      <trkpt lat="44.653" lon="-0.84334">
        <ele>43.88</ele>
        <time>2012-04-16T14:01:38Z</time>
      </trkpt>
      <trkpt lat="44.6531" lon="-0.8433">
        <ele>43.88</ele>
        <time>2012-04-16T14:01:41Z</time>
      </trkpt>
      <trkpt lat="44.65321" lon="-0.84326">
        <ele>43.88</ele>
        <time>2012-04-16T14:01:44Z</time>
      </trkpt>
      <trkpt lat="44.65331" lon="-0.84321">
        <ele>43.4</ele>
        <time>2012-04-16T14:01:47Z</time>
      </trkpt>
      <trkpt lat="44.65342" lon="-0.84313">
        <ele>42.92</ele>
        <time>2012-04-16T14:01:50Z</time>
      </trkpt>
      <trkpt lat="44.65352" lon="-0.84307">
        <ele>44.36</ele>
        <time>2012-04-16T14:01:54Z</time>
      </trkpt>
      <trkpt lat="44.65361" lon="-0.84301">
        <ele>44.36</ele>
        <time>2012-04-16T14:01:59Z</time>
      </trkpt>
      <trkpt lat="44.6537" lon="-0.84295">
        <ele>43.4</ele>
        <time>2012-04-16T14:02:04Z</time>
      </trkpt>
      <trkpt lat="44.65378" lon="-0.84287">
        <ele>43.4</ele>
        <time>2012-04-16T14:02:08Z</time>
      </trkpt>
      <trkpt lat="44.65385" lon="-0.84276">
        <ele>43.4</ele>
        <time>2012-04-16T14:02:12Z</time>
      </trkpt>
      <trkpt lat="44.65392" lon="-0.84264">
        <ele>43.88</ele>
        <time>2012-04-16T14:02:16Z</time>
      </trkpt>
      <trkpt lat="44.65398" lon="-0.84249">
        <ele>43.4</ele>
        <time>2012-04-16T14:02:20Z</time>
      </trkpt>
      <trkpt lat="44.65401" lon="-0.84237">
        <ele>43.88</ele>
        <time>2012-04-16T14:02:23Z</time>
      </trkpt>
      <trkpt lat="44.65404" lon="-0.84224">
        <ele>43.4</ele>
        <time>2012-04-16T14:02:26Z</time>
      </trkpt>
      <trkpt lat="44.65408" lon="-0.84213">
        <ele>43.88</ele>
        <time>2012-04-16T14:02:29Z</time>
      </trkpt>
      <trkpt lat="44.65412" lon="-0.842">
        <ele>43.4</ele>
        <time>2012-04-16T14:02:32Z</time>
      </trkpt>
      <trkpt lat="44.65416" lon="-0.84188">
        <ele>43.88</ele>
        <time>2012-04-16T14:02:35Z</time>
      </trkpt>
      <trkpt lat="44.65422" lon="-0.84178">
        <ele>44.36</ele>
        <time>2012-04-16T14:02:38Z</time>
      </trkpt>
      <trkpt lat="44.6543" lon="-0.84172">
        <ele>44.36</ele>
        <time>2012-04-16T14:02:41Z</time>
      </trkpt>
      <trkpt lat="44.65439" lon="-0.84167">
        <ele>44.36</ele>
        <time>2012-04-16T14:02:44Z</time>
      </trkpt>
      <trkpt lat="44.65448" lon="-0.84162">
        <ele>44.84</ele>
        <time>2012-04-16T14:02:47Z</time>
      </trkpt>
      <trkpt lat="44.65458" lon="-0.84154">
        <ele>43.88</ele>
        <time>2012-04-16T14:02:50Z</time>
      </trkpt>
      <trkpt lat="44.65467" lon="-0.84146">
        <ele>44.36</ele>
        <time>2012-04-16T14:02:53Z</time>
      </trkpt>
      <trkpt lat="44.65476" lon="-0.84137">
        <ele>44.36</ele>
        <time>2012-04-16T14:02:56Z</time>
      </trkpt>
      <trkpt lat="44.65484" lon="-0.84125">
        <ele>44.36</ele>
        <time>2012-04-16T14:02:59Z</time>
      </trkpt>
      <trkpt lat="44.6549" lon="-0.8411">
        <ele>44.36</ele>
        <time>2012-04-16T14:03:02Z</time>
      </trkpt>
      <trkpt lat="44.65494" lon="-0.84096">
        <ele>44.36</ele>
        <time>2012-04-16T14:03:05Z</time>
      </trkpt>
      <trkpt lat="44.655" lon="-0.84081">
        <ele>45.32</ele>
        <time>2012-04-16T14:03:08Z</time>
      </trkpt>
      <trkpt lat="44.65511" lon="-0.84073">
        <ele>45.32</ele>
        <time>2012-04-16T14:03:11Z</time>
      </trkpt>
      <trkpt lat="44.65522" lon="-0.84069">
        <ele>44.84</ele>
        <time>2012-04-16T14:03:14Z</time>
      </trkpt>
      <trkpt lat="44.65533" lon="-0.84067">
        <ele>44.84</ele>
        <time>2012-04-16T14:03:17Z</time>
      </trkpt>
      <trkpt lat="44.65544" lon="-0.84065">
        <ele>44.84</ele>
        <time>2012-04-16T14:03:20Z</time>
      </trkpt>
      <trkpt lat="44.65556" lon="-0.84062">
        <ele>45.8</ele>
        <time>2012-04-16T14:03:23Z</time>
      </trkpt>
      <trkpt lat="44.65567" lon="-0.84059">
        <ele>45.32</ele>
        <time>2012-04-16T14:03:26Z</time>
      </trkpt>
      <trkpt lat="44.65579" lon="-0.84053">
        <ele>45.8</ele>
        <time>2012-04-16T14:03:29Z</time>
      </trkpt>
      <trkpt lat="44.65591" lon="-0.84046">
        <ele>45.32</ele>
        <time>2012-04-16T14:03:32Z</time>
      </trkpt>
      <trkpt lat="44.65603" lon="-0.84039">
        <ele>45.8</ele>
        <time>2012-04-16T14:03:35Z</time>
      </trkpt>
      <trkpt lat="44.65614" lon="-0.84031">
        <ele>45.32</ele>
        <time>2012-04-16T14:03:38Z</time>
      </trkpt>
      <trkpt lat="44.65625" lon="-0.84023">
        <ele>45.32</ele>
        <time>2012-04-16T14:03:41Z</time>
      </trkpt>
      <trkpt lat="44.65636" lon="-0.84017">
        <ele>45.8</ele>
        <time>2012-04-16T14:03:44Z</time>
      </trkpt>
      <trkpt lat="44.65648" lon="-0.84014">
        <ele>45.8</ele>
        <time>2012-04-16T14:03:47Z</time>
      </trkpt>
      <trkpt lat="44.65661" lon="-0.8401">
        <ele>45.8</ele>
        <time>2012-04-16T14:03:50Z</time>
      </trkpt>
      <trkpt lat="44.65673" lon="-0.84005">
        <ele>45.8</ele>
        <time>2012-04-16T14:03:53Z</time>
      </trkpt>
      <trkpt lat="44.65685" lon="-0.83999">
        <ele>46.28</ele>
        <time>2012-04-16T14:03:56Z</time>
      </trkpt>
      <trkpt lat="44.65697" lon="-0.83994">
        <ele>45.8</ele>
        <time>2012-04-16T14:03:59Z</time>
      </trkpt>
      <trkpt lat="44.65709" lon="-0.83989">
        <ele>45.8</ele>
        <time>2012-04-16T14:04:02Z</time>
      </trkpt>
      <trkpt lat="44.65721" lon="-0.83983">
        <ele>45.8</ele>
        <time>2012-04-16T14:04:05Z</time>
      </trkpt>
      <trkpt lat="44.65733" lon="-0.83979">
        <ele>46.28</ele>
        <time>2012-04-16T14:04:08Z</time>
      </trkpt>
      <trkpt lat="44.65744" lon="-0.83977">
        <ele>46.28</ele>
        <time>2012-04-16T14:04:11Z</time>
      </trkpt>
      <trkpt lat="44.65755" lon="-0.83975">
        <ele>46.28</ele>
        <time>2012-04-16T14:04:14Z</time>
      </trkpt>
      <trkpt lat="44.65767" lon="-0.83972">
        <ele>46.28</ele>
        <time>2012-04-16T14:04:17Z</time>
      </trkpt>
      <trkpt lat="44.65779" lon="-0.83971">
        <ele>46.76</ele>
        <time>2012-04-16T14:04:20Z</time>
      </trkpt>
      <trkpt lat="44.65791" lon="-0.83971">
        <ele>46.28</ele>
        <time>2012-04-16T14:04:23Z</time>
      </trkpt>
      <trkpt lat="44.65802" lon="-0.83968">
        <ele>46.28</ele>
        <time>2012-04-16T14:04:26Z</time>
      </trkpt>
      <trkpt lat="44.65809" lon="-0.83961">
        <ele>46.28</ele>
        <time>2012-04-16T14:04:29Z</time>
      </trkpt>
      <trkpt lat="44.65819" lon="-0.8396">
        <ele>46.76</ele>
        <time>2012-04-16T14:04:33Z</time>
      </trkpt>
      <trkpt lat="44.65828" lon="-0.83962">
        <ele>47.24</ele>
        <time>2012-04-16T14:04:36Z</time>
      </trkpt>
      <trkpt lat="44.65837" lon="-0.83964">
        <ele>47.72</ele>
        <time>2012-04-16T14:04:39Z</time>
      </trkpt>
      <trkpt lat="44.65847" lon="-0.83966">
        <ele>47.24</ele>
        <time>2012-04-16T14:04:42Z</time>
      </trkpt>
      <trkpt lat="44.65858" lon="-0.83968">
        <ele>47.24</ele>
        <time>2012-04-16T14:04:45Z</time>
      </trkpt>
      <trkpt lat="44.65868" lon="-0.8397">
        <ele>46.76</ele>
        <time>2012-04-16T14:04:48Z</time>
      </trkpt>
      <trkpt lat="44.65879" lon="-0.83971">
        <ele>47.24</ele>
        <time>2012-04-16T14:04:51Z</time>
      </trkpt>
      <trkpt lat="44.6589" lon="-0.83973">
        <ele>46.76</ele>
        <time>2012-04-16T14:04:54Z</time>
      </trkpt>
      <trkpt lat="44.65901" lon="-0.83976">
        <ele>46.76</ele>
        <time>2012-04-16T14:04:57Z</time>
      </trkpt>
      <trkpt lat="44.65912" lon="-0.83978">
        <ele>46.76</ele>
        <time>2012-04-16T14:05:00Z</time>
      </trkpt>
      <trkpt lat="44.65923" lon="-0.83979">
        <ele>47.24</ele>
        <time>2012-04-16T14:05:03Z</time>
      </trkpt>
      <trkpt lat="44.65933" lon="-0.83981">
        <ele>46.76</ele>
        <time>2012-04-16T14:05:06Z</time>
      </trkpt>
      <trkpt lat="44.65943" lon="-0.83986">
        <ele>46.28</ele>
        <time>2012-04-16T14:05:10Z</time>
      </trkpt>
      <trkpt lat="44.65951" lon="-0.83989">
        <ele>46.76</ele>
        <time>2012-04-16T14:05:20Z</time>
      </trkpt>
      <trkpt lat="44.65961" lon="-0.83991">
        <ele>46.76</ele>
        <time>2012-04-16T14:05:23Z</time>
      </trkpt>
      <trkpt lat="44.65971" lon="-0.83991">
        <ele>46.76</ele>
        <time>2012-04-16T14:05:26Z</time>
      </trkpt>
      <trkpt lat="44.65983" lon="-0.83994">
        <ele>46.76</ele>
        <time>2012-04-16T14:05:29Z</time>
      </trkpt>
      <trkpt lat="44.65996" lon="-0.83996">
        <ele>46.76</ele>
        <time>2012-04-16T14:05:32Z</time>
      </trkpt>
      <trkpt lat="44.66009" lon="-0.83998">
        <ele>46.76</ele>
        <time>2012-04-16T14:05:35Z</time>
      </trkpt>
      <trkpt lat="44.66021" lon="-0.84">
        <ele>46.76</ele>
        <time>2012-04-16T14:05:38Z</time>
      </trkpt>
      <trkpt lat="44.66034" lon="-0.84003">
        <ele>46.76</ele>
        <time>2012-04-16T14:05:41Z</time>
      </trkpt>
      <trkpt lat="44.66048" lon="-0.84004">
        <ele>46.76</ele>
        <time>2012-04-16T14:05:44Z</time>
      </trkpt>
      <trkpt lat="44.66061" lon="-0.84006">
        <ele>46.76</ele>
        <time>2012-04-16T14:05:47Z</time>
      </trkpt>
      <trkpt lat="44.66073" lon="-0.84008">
        <ele>46.76</ele>
        <time>2012-04-16T14:05:50Z</time>
      </trkpt>
      <trkpt lat="44.66087" lon="-0.8401">
        <ele>46.76</ele>
        <time>2012-04-16T14:05:53Z</time>
      </trkpt>
      <trkpt lat="44.661" lon="-0.84012">
        <ele>47.72</ele>
        <time>2012-04-16T14:05:56Z</time>
      </trkpt>
      <trkpt lat="44.66113" lon="-0.84014">
        <ele>47.72</ele>
        <time>2012-04-16T14:05:59Z</time>
      </trkpt>
      <trkpt lat="44.66125" lon="-0.84016">
        <ele>47.72</ele>
        <time>2012-04-16T14:06:02Z</time>
      </trkpt>
      <trkpt lat="44.66137" lon="-0.84019">
        <ele>47.72</ele>
        <time>2012-04-16T14:06:05Z</time>
      </trkpt>
      <trkpt lat="44.66146" lon="-0.84027">
        <ele>46.76</ele>
        <time>2012-04-16T14:06:08Z</time>
      </trkpt>
      <trkpt lat="44.66143" lon="-0.84042">
        <ele>46.28</ele>
        <time>2012-04-16T14:06:11Z</time>
      </trkpt>
      <trkpt lat="44.6613" lon="-0.84064">
        <ele>46.76</ele>
        <time>2012-04-16T14:06:15Z</time>
      </trkpt>
      <trkpt lat="44.66122" lon="-0.84079">
        <ele>46.76</ele>
        <time>2012-04-16T14:06:18Z</time>
      </trkpt>
      <trkpt lat="44.66116" lon="-0.84096">
        <ele>47.24</ele>
        <time>2012-04-16T14:06:21Z</time>
      </trkpt>
      <trkpt lat="44.66113" lon="-0.84114">
        <ele>46.76</ele>
        <time>2012-04-16T14:06:24Z</time>
      </trkpt>
      <trkpt lat="44.66111" lon="-0.84133">
        <ele>46.76</ele>
        <time>2012-04-16T14:06:27Z</time>
      </trkpt>
      <trkpt lat="44.66109" lon="-0.84145">
        <ele>46.76</ele>
        <time>2012-04-16T14:06:29Z</time>
      </trkpt>
      <trkpt lat="44.66107" lon="-0.84158">
        <ele>46.76</ele>
        <time>2012-04-16T14:06:31Z</time>
      </trkpt>
      <trkpt lat="44.66105" lon="-0.84171">
        <ele>47.24</ele>
        <time>2012-04-16T14:06:33Z</time>
      </trkpt>
      <trkpt lat="44.66104" lon="-0.84184">
        <ele>46.76</ele>
        <time>2012-04-16T14:06:35Z</time>
      </trkpt>
      <trkpt lat="44.66102" lon="-0.84197">
        <ele>46.28</ele>
        <time>2012-04-16T14:06:37Z</time>
      </trkpt>
      <trkpt lat="44.661" lon="-0.8421">
        <ele>46.28</ele>
        <time>2012-04-16T14:06:39Z</time>
      </trkpt>
      <trkpt lat="44.66098" lon="-0.84224">
        <ele>46.28</ele>
        <time>2012-04-16T14:06:41Z</time>
      </trkpt>
      <trkpt lat="44.66097" lon="-0.84237">
        <ele>46.28</ele>
        <time>2012-04-16T14:06:43Z</time>
      </trkpt>
      <trkpt lat="44.66096" lon="-0.8425">
        <ele>46.28</ele>
        <time>2012-04-16T14:06:45Z</time>
      </trkpt>
      <trkpt lat="44.66094" lon="-0.84264">
        <ele>45.8</ele>
        <time>2012-04-16T14:06:47Z</time>
      </trkpt>
      <trkpt lat="44.66092" lon="-0.84278">
        <ele>46.28</ele>
        <time>2012-04-16T14:06:49Z</time>
      </trkpt>
      <trkpt lat="44.6609" lon="-0.84291">
        <ele>45.8</ele>
        <time>2012-04-16T14:06:51Z</time>
      </trkpt>
      <trkpt lat="44.66089" lon="-0.84305">
        <ele>45.8</ele>
        <time>2012-04-16T14:06:53Z</time>
      </trkpt>
      <trkpt lat="44.66087" lon="-0.84318">
        <ele>45.32</ele>
        <time>2012-04-16T14:06:55Z</time>
      </trkpt>
      <trkpt lat="44.66085" lon="-0.84331">
        <ele>45.32</ele>
        <time>2012-04-16T14:06:57Z</time>
      </trkpt>
      <trkpt lat="44.66084" lon="-0.84344">
        <ele>45.32</ele>
        <time>2012-04-16T14:06:59Z</time>
      </trkpt>
      <trkpt lat="44.66082" lon="-0.84358">
        <ele>45.8</ele>
        <time>2012-04-16T14:07:01Z</time>
      </trkpt>
      <trkpt lat="44.6608" lon="-0.84372">
        <ele>46.28</ele>
        <time>2012-04-16T14:07:03Z</time>
      </trkpt>
      <trkpt lat="44.66079" lon="-0.84386">
        <ele>45.32</ele>
        <time>2012-04-16T14:07:05Z</time>
      </trkpt>
      <trkpt lat="44.66078" lon="-0.84399">
        <ele>45.32</ele>
        <time>2012-04-16T14:07:07Z</time>
      </trkpt>
      <trkpt lat="44.66078" lon="-0.84413">
        <ele>44.84</ele>
        <time>2012-04-16T14:07:09Z</time>
      </trkpt>
      <trkpt lat="44.66078" lon="-0.84426">
        <ele>45.32</ele>
        <time>2012-04-16T14:07:11Z</time>
      </trkpt>
      <trkpt lat="44.66078" lon="-0.84439">
        <ele>44.84</ele>
        <time>2012-04-16T14:07:13Z</time>
      </trkpt>
      <trkpt lat="44.66082" lon="-0.84456">
        <ele>45.32</ele>
        <time>2012-04-16T14:07:16Z</time>
      </trkpt>
      <trkpt lat="44.66088" lon="-0.84469">
        <ele>45.8</ele>
        <time>2012-04-16T14:07:19Z</time>
      </trkpt>
      <trkpt lat="44.66097" lon="-0.84473">
        <ele>45.32</ele>
        <time>2012-04-16T14:07:22Z</time>
      </trkpt>
      <trkpt lat="44.66106" lon="-0.84469">
        <ele>45.8</ele>
        <time>2012-04-16T14:07:25Z</time>
      </trkpt>
      <trkpt lat="44.66117" lon="-0.84466">
        <ele>45.32</ele>
        <time>2012-04-16T14:07:28Z</time>
      </trkpt>
      <trkpt lat="44.66129" lon="-0.84461">
        <ele>45.32</ele>
        <time>2012-04-16T14:07:31Z</time>
      </trkpt>
      <trkpt lat="44.6614" lon="-0.84456">
        <ele>45.32</ele>
        <time>2012-04-16T14:07:34Z</time>
      </trkpt>
      <trkpt lat="44.66151" lon="-0.84452">
        <ele>45.32</ele>
        <time>2012-04-16T14:07:37Z</time>
      </trkpt>
      <trkpt lat="44.66164" lon="-0.84448">
        <ele>45.32</ele>
        <time>2012-04-16T14:07:40Z</time>
      </trkpt>
      <trkpt lat="44.66176" lon="-0.84443">
        <ele>45.32</ele>
        <time>2012-04-16T14:07:43Z</time>
      </trkpt>
      <trkpt lat="44.66189" lon="-0.84439">
        <ele>45.32</ele>
        <time>2012-04-16T14:07:46Z</time>
      </trkpt>
      <trkpt lat="44.66201" lon="-0.84435">
        <ele>46.28</ele>
        <time>2012-04-16T14:07:49Z</time>
      </trkpt>
      <trkpt lat="44.66214" lon="-0.8443">
        <ele>45.32</ele>
        <time>2012-04-16T14:07:52Z</time>
      </trkpt>
      <trkpt lat="44.66226" lon="-0.84426">
        <ele>46.28</ele>
        <time>2012-04-16T14:07:55Z</time>
      </trkpt>
      <trkpt lat="44.66239" lon="-0.84421">
        <ele>45.8</ele>
        <time>2012-04-16T14:07:58Z</time>
      </trkpt>
      <trkpt lat="44.66251" lon="-0.84416">
        <ele>46.28</ele>
        <time>2012-04-16T14:08:01Z</time>
      </trkpt>
      <trkpt lat="44.66265" lon="-0.84412">
        <ele>45.8</ele>
        <time>2012-04-16T14:08:04Z</time>
      </trkpt>
      <trkpt lat="44.66277" lon="-0.84407">
        <ele>45.8</ele>
        <time>2012-04-16T14:08:07Z</time>
      </trkpt>
      <trkpt lat="44.66286" lon="-0.84404">
        <ele>46.28</ele>
        <time>2012-04-16T14:08:09Z</time>
      </trkpt>
      <trkpt lat="44.66299" lon="-0.844">
        <ele>45.32</ele>
        <time>2012-04-16T14:08:12Z</time>
      </trkpt>
      <trkpt lat="44.66309" lon="-0.84397">
        <ele>47.24</ele>
        <time>2012-04-16T14:08:14Z</time>
      </trkpt>
      <trkpt lat="44.66318" lon="-0.84393">
        <ele>46.76</ele>
        <time>2012-04-16T14:08:16Z</time>
      </trkpt>
      <trkpt lat="44.66327" lon="-0.8439">
        <ele>46.28</ele>
        <time>2012-04-16T14:08:18Z</time>
      </trkpt>
      <trkpt lat="44.66336" lon="-0.84386">
        <ele>46.28</ele>
        <time>2012-04-16T14:08:20Z</time>
      </trkpt>
      <trkpt lat="44.66345" lon="-0.84383">
        <ele>46.76</ele>
        <time>2012-04-16T14:08:22Z</time>
      </trkpt>
      <trkpt lat="44.66354" lon="-0.8438">
        <ele>46.28</ele>
        <time>2012-04-16T14:08:24Z</time>
      </trkpt>
      <trkpt lat="44.66363" lon="-0.84377">
        <ele>46.28</ele>
        <time>2012-04-16T14:08:26Z</time>
      </trkpt>
      <trkpt lat="44.66372" lon="-0.84373">
        <ele>46.28</ele>
        <time>2012-04-16T14:08:28Z</time>
      </trkpt>
      <trkpt lat="44.66381" lon="-0.8437">
        <ele>46.76</ele>
        <time>2012-04-16T14:08:30Z</time>
      </trkpt>
      <trkpt lat="44.6639" lon="-0.84368">
        <ele>47.24</ele>
        <time>2012-04-16T14:08:32Z</time>
      </trkpt>
      <trkpt lat="44.66399" lon="-0.84366">
        <ele>46.76</ele>
        <time>2012-04-16T14:08:34Z</time>
      </trkpt>
      <trkpt lat="44.66408" lon="-0.84365">
        <ele>47.24</ele>
        <time>2012-04-16T14:08:36Z</time>
      </trkpt>
      <trkpt lat="44.66418" lon="-0.84364">
        <ele>46.28</ele>
        <time>2012-04-16T14:08:38Z</time>
      </trkpt>
      <trkpt lat="44.66431" lon="-0.84362">
        <ele>46.28</ele>
        <time>2012-04-16T14:08:41Z</time>
      </trkpt>
      <trkpt lat="44.66444" lon="-0.84361">
        <ele>46.76</ele>
        <time>2012-04-16T14:08:44Z</time>
      </trkpt>
      <trkpt lat="44.66457" lon="-0.8436">
        <ele>46.28</ele>
        <time>2012-04-16T14:08:47Z</time>
      </trkpt>
      <trkpt lat="44.66469" lon="-0.84359">
        <ele>46.28</ele>
        <time>2012-04-16T14:08:50Z</time>
      </trkpt>
      <trkpt lat="44.6648" lon="-0.84358">
        <ele>46.28</ele>
        <time>2012-04-16T14:08:53Z</time>
      </trkpt>
      <trkpt lat="44.66492" lon="-0.84358">
        <ele>46.76</ele>
        <time>2012-04-16T14:08:56Z</time>
      </trkpt>
      <trkpt lat="44.66504" lon="-0.84358">
        <ele>47.24</ele>
        <time>2012-04-16T14:08:59Z</time>
      </trkpt>
      <trkpt lat="44.66517" lon="-0.84357">
        <ele>46.76</ele>
        <time>2012-04-16T14:09:02Z</time>
      </trkpt>
      <trkpt lat="44.66529" lon="-0.84356">
        <ele>47.24</ele>
        <time>2012-04-16T14:09:05Z</time>
      </trkpt>
      <trkpt lat="44.66541" lon="-0.84355">
        <ele>47.24</ele>
        <time>2012-04-16T14:09:08Z</time>
      </trkpt>
      <trkpt lat="44.66554" lon="-0.84355">
        <ele>47.24</ele>
        <time>2012-04-16T14:09:11Z</time>
      </trkpt>
      <trkpt lat="44.66566" lon="-0.84354">
        <ele>47.24</ele>
        <time>2012-04-16T14:09:14Z</time>
      </trkpt>
      <trkpt lat="44.66579" lon="-0.84353">
        <ele>47.24</ele>
        <time>2012-04-16T14:09:17Z</time>
      </trkpt>
      <trkpt lat="44.66591" lon="-0.84353">
        <ele>47.72</ele>
        <time>2012-04-16T14:09:20Z</time>
      </trkpt>
      <trkpt lat="44.66604" lon="-0.84351">
        <ele>47.72</ele>
        <time>2012-04-16T14:09:23Z</time>
      </trkpt>
      <trkpt lat="44.66617" lon="-0.84347">
        <ele>47.24</ele>
        <time>2012-04-16T14:09:26Z</time>
      </trkpt>
      <trkpt lat="44.66628" lon="-0.84342">
        <ele>48.2</ele>
        <time>2012-04-16T14:09:29Z</time>
      </trkpt>
      <trkpt lat="44.66639" lon="-0.84335">
        <ele>47.72</ele>
        <time>2012-04-16T14:09:32Z</time>
      </trkpt>
      <trkpt lat="44.6665" lon="-0.84327">
        <ele>48.2</ele>
        <time>2012-04-16T14:09:35Z</time>
      </trkpt>
      <trkpt lat="44.66662" lon="-0.8432">
        <ele>48.2</ele>
        <time>2012-04-16T14:09:38Z</time>
      </trkpt>
      <trkpt lat="44.66674" lon="-0.84312">
        <ele>48.2</ele>
        <time>2012-04-16T14:09:41Z</time>
      </trkpt>
      <trkpt lat="44.66682" lon="-0.84306">
        <ele>48.2</ele>
        <time>2012-04-16T14:09:43Z</time>
      </trkpt>
      <trkpt lat="44.66691" lon="-0.84301">
        <ele>48.2</ele>
        <time>2012-04-16T14:09:45Z</time>
      </trkpt>
      <trkpt lat="44.66703" lon="-0.84293">
        <ele>48.68</ele>
        <time>2012-04-16T14:09:48Z</time>
      </trkpt>
      <trkpt lat="44.66715" lon="-0.84285">
        <ele>47.72</ele>
        <time>2012-04-16T14:09:51Z</time>
      </trkpt>
      <trkpt lat="44.66727" lon="-0.84276">
        <ele>47.72</ele>
        <time>2012-04-16T14:09:54Z</time>
      </trkpt>
      <trkpt lat="44.66736" lon="-0.84271">
        <ele>48.68</ele>
        <time>2012-04-16T14:09:56Z</time>
      </trkpt>
      <trkpt lat="44.66745" lon="-0.84266">
        <ele>48.68</ele>
        <time>2012-04-16T14:09:58Z</time>
      </trkpt>
      <trkpt lat="44.66754" lon="-0.8426">
        <ele>48.2</ele>
        <time>2012-04-16T14:10:00Z</time>
      </trkpt>
      <trkpt lat="44.66763" lon="-0.84255">
        <ele>48.2</ele>
        <time>2012-04-16T14:10:02Z</time>
      </trkpt>
      <trkpt lat="44.66771" lon="-0.84249">
        <ele>48.2</ele>
        <time>2012-04-16T14:10:04Z</time>
      </trkpt>
      <trkpt lat="44.6678" lon="-0.84243">
        <ele>48.2</ele>
        <time>2012-04-16T14:10:06Z</time>
      </trkpt>
      <trkpt lat="44.66789" lon="-0.84238">
        <ele>48.2</ele>
        <time>2012-04-16T14:10:08Z</time>
      </trkpt>
      <trkpt lat="44.66797" lon="-0.84232">
        <ele>48.2</ele>
        <time>2012-04-16T14:10:10Z</time>
      </trkpt>
      <trkpt lat="44.66806" lon="-0.84227">
        <ele>48.2</ele>
        <time>2012-04-16T14:10:12Z</time>
      </trkpt>
      <trkpt lat="44.66815" lon="-0.84221">
        <ele>48.2</ele>
        <time>2012-04-16T14:10:14Z</time>
      </trkpt>
      <trkpt lat="44.66824" lon="-0.84215">
        <ele>48.2</ele>
        <time>2012-04-16T14:10:16Z</time>
      </trkpt>
      <trkpt lat="44.66833" lon="-0.8421">
        <ele>48.2</ele>
        <time>2012-04-16T14:10:18Z</time>
      </trkpt>
      <trkpt lat="44.66842" lon="-0.84205">
        <ele>48.2</ele>
        <time>2012-04-16T14:10:20Z</time>
      </trkpt>
      <trkpt lat="44.6685" lon="-0.84199">
        <ele>48.2</ele>
        <time>2012-04-16T14:10:22Z</time>
      </trkpt>
      <trkpt lat="44.66859" lon="-0.84194">
        <ele>48.2</ele>
        <time>2012-04-16T14:10:24Z</time>
      </trkpt>
      <trkpt lat="44.66868" lon="-0.84188">
        <ele>48.68</ele>
        <time>2012-04-16T14:10:26Z</time>
      </trkpt>
      <trkpt lat="44.66877" lon="-0.84182">
        <ele>48.68</ele>
        <time>2012-04-16T14:10:28Z</time>
      </trkpt>
      <trkpt lat="44.66885" lon="-0.84177">
        <ele>48.68</ele>
        <time>2012-04-16T14:10:30Z</time>
      </trkpt>
      <trkpt lat="44.66893" lon="-0.84171">
        <ele>49.16</ele>
        <time>2012-04-16T14:10:32Z</time>
      </trkpt>
      <trkpt lat="44.66901" lon="-0.84166">
        <ele>49.16</ele>
        <time>2012-04-16T14:10:34Z</time>
      </trkpt>
      <trkpt lat="44.66914" lon="-0.84162">
        <ele>48.68</ele>
        <time>2012-04-16T14:10:37Z</time>
      </trkpt>
      <trkpt lat="44.66924" lon="-0.8417">
        <ele>48.2</ele>
        <time>2012-04-16T14:10:40Z</time>
      </trkpt>
      <trkpt lat="44.66928" lon="-0.8419">
        <ele>48.68</ele>
        <time>2012-04-16T14:10:43Z</time>
      </trkpt>
      <trkpt lat="44.66932" lon="-0.84205">
        <ele>49.16</ele>
        <time>2012-04-16T14:10:46Z</time>
      </trkpt>
      <trkpt lat="44.66936" lon="-0.84222">
        <ele>48.2</ele>
        <time>2012-04-16T14:10:49Z</time>
      </trkpt>
      <trkpt lat="44.6694" lon="-0.84239">
        <ele>48.2</ele>
        <time>2012-04-16T14:10:52Z</time>
      </trkpt>
      <trkpt lat="44.66945" lon="-0.84256">
        <ele>48.68</ele>
        <time>2012-04-16T14:10:55Z</time>
      </trkpt>
      <trkpt lat="44.6695" lon="-0.84272">
        <ele>48.68</ele>
        <time>2012-04-16T14:10:58Z</time>
      </trkpt>
      <trkpt lat="44.66955" lon="-0.84289">
        <ele>48.68</ele>
        <time>2012-04-16T14:11:01Z</time>
      </trkpt>
      <trkpt lat="44.6696" lon="-0.84307">
        <ele>48.68</ele>
        <time>2012-04-16T14:11:04Z</time>
      </trkpt>
      <trkpt lat="44.66965" lon="-0.84323">
        <ele>48.68</ele>
        <time>2012-04-16T14:11:07Z</time>
      </trkpt>
      <trkpt lat="44.66968" lon="-0.84337">
        <ele>48.68</ele>
        <time>2012-04-16T14:11:10Z</time>
      </trkpt>
      <trkpt lat="44.66972" lon="-0.84351">
        <ele>48.68</ele>
        <time>2012-04-16T14:11:14Z</time>
      </trkpt>
      <trkpt lat="44.66975" lon="-0.84365">
        <ele>48.2</ele>
        <time>2012-04-16T14:11:17Z</time>
      </trkpt>
      <trkpt lat="44.6698" lon="-0.84379">
        <ele>49.16</ele>
        <time>2012-04-16T14:11:20Z</time>
      </trkpt>
      <trkpt lat="44.66985" lon="-0.84394">
        <ele>48.68</ele>
        <time>2012-04-16T14:11:23Z</time>
      </trkpt>
      <trkpt lat="44.66989" lon="-0.8441">
        <ele>48.68</ele>
        <time>2012-04-16T14:11:26Z</time>
      </trkpt>
      <trkpt lat="44.66994" lon="-0.84427">
        <ele>48.2</ele>
        <time>2012-04-16T14:11:29Z</time>
      </trkpt>
      <trkpt lat="44.66999" lon="-0.84444">
        <ele>48.68</ele>
        <time>2012-04-16T14:11:32Z</time>
      </trkpt>
      <trkpt lat="44.67003" lon="-0.84456">
        <ele>48.2</ele>
        <time>2012-04-16T14:11:34Z</time>
      </trkpt>
      <trkpt lat="44.67006" lon="-0.84468">
        <ele>48.2</ele>
        <time>2012-04-16T14:11:36Z</time>
      </trkpt>
      <trkpt lat="44.67009" lon="-0.8448">
        <ele>48.2</ele>
        <time>2012-04-16T14:11:38Z</time>
      </trkpt>
      <trkpt lat="44.67012" lon="-0.84493">
        <ele>48.68</ele>
        <time>2012-04-16T14:11:40Z</time>
      </trkpt>
      <trkpt lat="44.67015" lon="-0.84507">
        <ele>48.68</ele>
        <time>2012-04-16T14:11:42Z</time>
      </trkpt>
      <trkpt lat="44.67019" lon="-0.8452">
        <ele>48.2</ele>
        <time>2012-04-16T14:11:44Z</time>
      </trkpt>
      <trkpt lat="44.67022" lon="-0.84533">
        <ele>48.2</ele>
        <time>2012-04-16T14:11:46Z</time>
      </trkpt>
      <trkpt lat="44.67026" lon="-0.84546">
        <ele>48.68</ele>
        <time>2012-04-16T14:11:48Z</time>
      </trkpt>
      <trkpt lat="44.67029" lon="-0.8456">
        <ele>48.68</ele>
        <time>2012-04-16T14:11:50Z</time>
      </trkpt>
      <trkpt lat="44.67032" lon="-0.84574">
        <ele>48.2</ele>
        <time>2012-04-16T14:11:52Z</time>
      </trkpt>
      <trkpt lat="44.67035" lon="-0.84588">
        <ele>48.68</ele>
        <time>2012-04-16T14:11:54Z</time>
      </trkpt>
      <trkpt lat="44.67038" lon="-0.84602">
        <ele>48.68</ele>
        <time>2012-04-16T14:11:56Z</time>
      </trkpt>
      <trkpt lat="44.67041" lon="-0.84616">
        <ele>48.68</ele>
        <time>2012-04-16T14:11:58Z</time>
      </trkpt>
      <trkpt lat="44.67044" lon="-0.84629">
        <ele>48.68</ele>
        <time>2012-04-16T14:12:00Z</time>
      </trkpt>
      <trkpt lat="44.67048" lon="-0.84643">
        <ele>48.68</ele>
        <time>2012-04-16T14:12:02Z</time>
      </trkpt>
      <trkpt lat="44.67051" lon="-0.84657">
        <ele>49.16</ele>
        <time>2012-04-16T14:12:04Z</time>
      </trkpt>
      <trkpt lat="44.67053" lon="-0.8467">
        <ele>49.16</ele>
        <time>2012-04-16T14:12:06Z</time>
      </trkpt>
      <trkpt lat="44.67057" lon="-0.84683">
        <ele>49.16</ele>
        <time>2012-04-16T14:12:08Z</time>
      </trkpt>
      <trkpt lat="44.67059" lon="-0.84697">
        <ele>49.16</ele>
        <time>2012-04-16T14:12:10Z</time>
      </trkpt>
      <trkpt lat="44.67062" lon="-0.8471">
        <ele>49.16</ele>
        <time>2012-04-16T14:12:12Z</time>
      </trkpt>
      <trkpt lat="44.67065" lon="-0.84723">
        <ele>49.16</ele>
        <time>2012-04-16T14:12:14Z</time>
      </trkpt>
      <trkpt lat="44.67068" lon="-0.84737">
        <ele>48.68</ele>
        <time>2012-04-16T14:12:16Z</time>
      </trkpt>
      <trkpt lat="44.6707" lon="-0.8475">
        <ele>48.2</ele>
        <time>2012-04-16T14:12:18Z</time>
      </trkpt>
      <trkpt lat="44.67073" lon="-0.84762">
        <ele>48.2</ele>
        <time>2012-04-16T14:12:20Z</time>
      </trkpt>
      <trkpt lat="44.67075" lon="-0.84775">
        <ele>47.72</ele>
        <time>2012-04-16T14:12:22Z</time>
      </trkpt>
      <trkpt lat="44.67078" lon="-0.84793">
        <ele>47.72</ele>
        <time>2012-04-16T14:12:25Z</time>
      </trkpt>
      <trkpt lat="44.67081" lon="-0.84806">
        <ele>48.2</ele>
        <time>2012-04-16T14:12:27Z</time>
      </trkpt>
      <trkpt lat="44.67084" lon="-0.84819">
        <ele>48.2</ele>
        <time>2012-04-16T14:12:29Z</time>
      </trkpt>
      <trkpt lat="44.67086" lon="-0.84832">
        <ele>47.72</ele>
        <time>2012-04-16T14:12:31Z</time>
      </trkpt>
      <trkpt lat="44.67089" lon="-0.84845">
        <ele>48.2</ele>
        <time>2012-04-16T14:12:33Z</time>
      </trkpt>
      <trkpt lat="44.67092" lon="-0.84858">
        <ele>48.2</ele>
        <time>2012-04-16T14:12:35Z</time>
      </trkpt>
      <trkpt lat="44.67095" lon="-0.84872">
        <ele>48.2</ele>
        <time>2012-04-16T14:12:37Z</time>
      </trkpt>
      <trkpt lat="44.67098" lon="-0.84885">
        <ele>48.2</ele>
        <time>2012-04-16T14:12:39Z</time>
      </trkpt>
      <trkpt lat="44.671" lon="-0.84899">
        <ele>48.2</ele>
        <time>2012-04-16T14:12:41Z</time>
      </trkpt>
      <trkpt lat="44.67102" lon="-0.84912">
        <ele>47.72</ele>
        <time>2012-04-16T14:12:43Z</time>
      </trkpt>
      <trkpt lat="44.67105" lon="-0.84924">
        <ele>47.72</ele>
        <time>2012-04-16T14:12:45Z</time>
      </trkpt>
      <trkpt lat="44.67108" lon="-0.84937">
        <ele>47.72</ele>
        <time>2012-04-16T14:12:47Z</time>
      </trkpt>
      <trkpt lat="44.67111" lon="-0.8495">
        <ele>47.72</ele>
        <time>2012-04-16T14:12:49Z</time>
      </trkpt>
      <trkpt lat="44.67114" lon="-0.84964">
        <ele>48.2</ele>
        <time>2012-04-16T14:12:51Z</time>
      </trkpt>
      <trkpt lat="44.67117" lon="-0.84977">
        <ele>48.2</ele>
        <time>2012-04-16T14:12:53Z</time>
      </trkpt>
      <trkpt lat="44.6712" lon="-0.8499">
        <ele>48.2</ele>
        <time>2012-04-16T14:12:55Z</time>
      </trkpt>
      <trkpt lat="44.67123" lon="-0.85004">
        <ele>48.2</ele>
        <time>2012-04-16T14:12:57Z</time>
      </trkpt>
      <trkpt lat="44.67127" lon="-0.85017">
        <ele>48.2</ele>
        <time>2012-04-16T14:12:59Z</time>
      </trkpt>
      <trkpt lat="44.6713" lon="-0.8503">
        <ele>48.2</ele>
        <time>2012-04-16T14:13:01Z</time>
      </trkpt>
      <trkpt lat="44.67133" lon="-0.85043">
        <ele>48.2</ele>
        <time>2012-04-16T14:13:03Z</time>
      </trkpt>
      <trkpt lat="44.67136" lon="-0.85056">
        <ele>47.72</ele>
        <time>2012-04-16T14:13:05Z</time>
      </trkpt>
      <trkpt lat="44.67139" lon="-0.85069">
        <ele>47.24</ele>
        <time>2012-04-16T14:13:07Z</time>
      </trkpt>
      <trkpt lat="44.67142" lon="-0.85081">
        <ele>47.24</ele>
        <time>2012-04-16T14:13:09Z</time>
      </trkpt>
      <trkpt lat="44.67145" lon="-0.85095">
        <ele>47.24</ele>
        <time>2012-04-16T14:13:11Z</time>
      </trkpt>
      <trkpt lat="44.67147" lon="-0.85108">
        <ele>47.24</ele>
        <time>2012-04-16T14:13:13Z</time>
      </trkpt>
      <trkpt lat="44.6715" lon="-0.85121">
        <ele>47.72</ele>
        <time>2012-04-16T14:13:15Z</time>
      </trkpt>
      <trkpt lat="44.67153" lon="-0.85134">
        <ele>47.72</ele>
        <time>2012-04-16T14:13:17Z</time>
      </trkpt>
      <trkpt lat="44.67156" lon="-0.85147">
        <ele>47.72</ele>
        <time>2012-04-16T14:13:19Z</time>
      </trkpt>
      <trkpt lat="44.67159" lon="-0.8516">
        <ele>48.2</ele>
        <time>2012-04-16T14:13:21Z</time>
      </trkpt>
      <trkpt lat="44.67162" lon="-0.85174">
        <ele>47.72</ele>
        <time>2012-04-16T14:13:23Z</time>
      </trkpt>
      <trkpt lat="44.67164" lon="-0.85188">
        <ele>47.72</ele>
        <time>2012-04-16T14:13:25Z</time>
      </trkpt>
      <trkpt lat="44.67165" lon="-0.85202">
        <ele>47.72</ele>
        <time>2012-04-16T14:13:27Z</time>
      </trkpt>
      <trkpt lat="44.67167" lon="-0.85214">
        <ele>47.24</ele>
        <time>2012-04-16T14:13:29Z</time>
      </trkpt>
      <trkpt lat="44.67169" lon="-0.85227">
        <ele>47.72</ele>
        <time>2012-04-16T14:13:31Z</time>
      </trkpt>
      <trkpt lat="44.67172" lon="-0.85245">
        <ele>47.72</ele>
        <time>2012-04-16T14:13:34Z</time>
      </trkpt>
      <trkpt lat="44.67174" lon="-0.85262">
        <ele>48.2</ele>
        <time>2012-04-16T14:13:37Z</time>
      </trkpt>
      <trkpt lat="44.67174" lon="-0.85277">
        <ele>47.72</ele>
        <time>2012-04-16T14:13:42Z</time>
      </trkpt>
      <trkpt lat="44.67174" lon="-0.85293">
        <ele>47.72</ele>
        <time>2012-04-16T14:13:47Z</time>
      </trkpt>
      <trkpt lat="44.67175" lon="-0.85309">
        <ele>47.24</ele>
        <time>2012-04-16T14:13:51Z</time>
      </trkpt>
      <trkpt lat="44.67175" lon="-0.85324">
        <ele>47.24</ele>
        <time>2012-04-16T14:13:54Z</time>
      </trkpt>
      <trkpt lat="44.67174" lon="-0.8534">
        <ele>47.24</ele>
        <time>2012-04-16T14:13:57Z</time>
      </trkpt>
      <trkpt lat="44.67171" lon="-0.85356">
        <ele>46.76</ele>
        <time>2012-04-16T14:14:00Z</time>
      </trkpt>
      <trkpt lat="44.67168" lon="-0.85371">
        <ele>46.76</ele>
        <time>2012-04-16T14:14:03Z</time>
      </trkpt>
      <trkpt lat="44.67164" lon="-0.85385">
        <ele>46.76</ele>
        <time>2012-04-16T14:14:06Z</time>
      </trkpt>
      <trkpt lat="44.67158" lon="-0.85399">
        <ele>46.76</ele>
        <time>2012-04-16T14:14:09Z</time>
      </trkpt>
      <trkpt lat="44.67152" lon="-0.85416">
        <ele>46.76</ele>
        <time>2012-04-16T14:14:12Z</time>
      </trkpt>
      <trkpt lat="44.67146" lon="-0.85433">
        <ele>46.76</ele>
        <time>2012-04-16T14:14:15Z</time>
      </trkpt>
      <trkpt lat="44.67141" lon="-0.8545">
        <ele>46.76</ele>
        <time>2012-04-16T14:14:18Z</time>
      </trkpt>
      <trkpt lat="44.67138" lon="-0.85462">
        <ele>46.76</ele>
        <time>2012-04-16T14:14:20Z</time>
      </trkpt>
      <trkpt lat="44.67135" lon="-0.85474">
        <ele>46.76</ele>
        <time>2012-04-16T14:14:22Z</time>
      </trkpt>
      <trkpt lat="44.67131" lon="-0.85491">
        <ele>47.24</ele>
        <time>2012-04-16T14:14:25Z</time>
      </trkpt>
      <trkpt lat="44.67125" lon="-0.85508">
        <ele>46.76</ele>
        <time>2012-04-16T14:14:28Z</time>
      </trkpt>
      <trkpt lat="44.67121" lon="-0.8552">
        <ele>46.28</ele>
        <time>2012-04-16T14:14:30Z</time>
      </trkpt>
      <trkpt lat="44.67117" lon="-0.85532">
        <ele>45.8</ele>
        <time>2012-04-16T14:14:32Z</time>
      </trkpt>
      <trkpt lat="44.67113" lon="-0.85543">
        <ele>45.32</ele>
        <time>2012-04-16T14:14:34Z</time>
      </trkpt>
      <trkpt lat="44.67104" lon="-0.85555">
        <ele>45.8</ele>
        <time>2012-04-16T14:14:37Z</time>
      </trkpt>
      <trkpt lat="44.67096" lon="-0.85553">
        <ele>46.28</ele>
        <time>2012-04-16T14:14:40Z</time>
      </trkpt>
      <trkpt lat="44.67086" lon="-0.85543">
        <ele>46.28</ele>
        <time>2012-04-16T14:14:44Z</time>
      </trkpt>
      <trkpt lat="44.67075" lon="-0.85536">
        <ele>45.8</ele>
        <time>2012-04-16T14:14:47Z</time>
      </trkpt>
      <trkpt lat="44.67063" lon="-0.8553">
        <ele>45.8</ele>
        <time>2012-04-16T14:14:50Z</time>
      </trkpt>
      <trkpt lat="44.67052" lon="-0.85524">
        <ele>45.8</ele>
        <time>2012-04-16T14:14:53Z</time>
      </trkpt>
      <trkpt lat="44.67042" lon="-0.85518">
        <ele>45.8</ele>
        <time>2012-04-16T14:14:56Z</time>
      </trkpt>
      <trkpt lat="44.6703" lon="-0.85511">
        <ele>46.76</ele>
        <time>2012-04-16T14:14:59Z</time>
      </trkpt>
      <trkpt lat="44.67019" lon="-0.85504">
        <ele>47.72</ele>
        <time>2012-04-16T14:15:02Z</time>
      </trkpt>
      <trkpt lat="44.67007" lon="-0.85497">
        <ele>47.24</ele>
        <time>2012-04-16T14:15:05Z</time>
      </trkpt>
      <trkpt lat="44.66999" lon="-0.85491">
        <ele>47.72</ele>
        <time>2012-04-16T14:15:07Z</time>
      </trkpt>
      <trkpt lat="44.6699" lon="-0.85487">
        <ele>47.24</ele>
        <time>2012-04-16T14:15:09Z</time>
      </trkpt>
      <trkpt lat="44.6698" lon="-0.85481">
        <ele>47.24</ele>
        <time>2012-04-16T14:15:11Z</time>
      </trkpt>
      <trkpt lat="44.66972" lon="-0.85475">
        <ele>46.76</ele>
        <time>2012-04-16T14:15:13Z</time>
      </trkpt>
      <trkpt lat="44.66962" lon="-0.85469">
        <ele>46.76</ele>
        <time>2012-04-16T14:15:15Z</time>
      </trkpt>
      <trkpt lat="44.66952" lon="-0.85463">
        <ele>46.76</ele>
        <time>2012-04-16T14:15:17Z</time>
      </trkpt>
      <trkpt lat="44.66942" lon="-0.85457">
        <ele>46.28</ele>
        <time>2012-04-16T14:15:19Z</time>
      </trkpt>
      <trkpt lat="44.66931" lon="-0.85452">
        <ele>46.28</ele>
        <time>2012-04-16T14:15:21Z</time>
      </trkpt>
      <trkpt lat="44.66922" lon="-0.85445">
        <ele>46.28</ele>
        <time>2012-04-16T14:15:23Z</time>
      </trkpt>
      <trkpt lat="44.66912" lon="-0.85439">
        <ele>45.8</ele>
        <time>2012-04-16T14:15:25Z</time>
      </trkpt>
      <trkpt lat="44.66902" lon="-0.85433">
        <ele>46.28</ele>
        <time>2012-04-16T14:15:27Z</time>
      </trkpt>
      <trkpt lat="44.66892" lon="-0.85426">
        <ele>45.8</ele>
        <time>2012-04-16T14:15:29Z</time>
      </trkpt>
      <trkpt lat="44.66881" lon="-0.8542">
        <ele>45.8</ele>
        <time>2012-04-16T14:15:31Z</time>
      </trkpt>
      <trkpt lat="44.66871" lon="-0.85413">
        <ele>46.28</ele>
        <time>2012-04-16T14:15:33Z</time>
      </trkpt>
      <trkpt lat="44.6686" lon="-0.85407">
        <ele>45.32</ele>
        <time>2012-04-16T14:15:35Z</time>
      </trkpt>
      <trkpt lat="44.66849" lon="-0.854">
        <ele>45.32</ele>
        <time>2012-04-16T14:15:37Z</time>
      </trkpt>
      <trkpt lat="44.66839" lon="-0.85394">
        <ele>45.32</ele>
        <time>2012-04-16T14:15:39Z</time>
      </trkpt>
      <trkpt lat="44.66827" lon="-0.85387">
        <ele>45.32</ele>
        <time>2012-04-16T14:15:41Z</time>
      </trkpt>
      <trkpt lat="44.66817" lon="-0.85382">
        <ele>45.8</ele>
        <time>2012-04-16T14:15:43Z</time>
      </trkpt>
      <trkpt lat="44.66807" lon="-0.85377">
        <ele>45.32</ele>
        <time>2012-04-16T14:15:45Z</time>
      </trkpt>
      <trkpt lat="44.66797" lon="-0.85371">
        <ele>45.8</ele>
        <time>2012-04-16T14:15:47Z</time>
      </trkpt>
      <trkpt lat="44.66788" lon="-0.85365">
        <ele>45.8</ele>
        <time>2012-04-16T14:15:49Z</time>
      </trkpt>
      <trkpt lat="44.66779" lon="-0.85359">
        <ele>46.28</ele>
        <time>2012-04-16T14:15:51Z</time>
      </trkpt>
      <trkpt lat="44.66769" lon="-0.85352">
        <ele>45.8</ele>
        <time>2012-04-16T14:15:53Z</time>
      </trkpt>
      <trkpt lat="44.6676" lon="-0.85345">
        <ele>45.8</ele>
        <time>2012-04-16T14:15:55Z</time>
      </trkpt>
      <trkpt lat="44.6675" lon="-0.8534">
        <ele>45.8</ele>
        <time>2012-04-16T14:15:57Z</time>
      </trkpt>
      <trkpt lat="44.66741" lon="-0.85334">
        <ele>45.8</ele>
        <time>2012-04-16T14:15:59Z</time>
      </trkpt>
      <trkpt lat="44.66731" lon="-0.85328">
        <ele>45.8</ele>
        <time>2012-04-16T14:16:01Z</time>
      </trkpt>
      <trkpt lat="44.66721" lon="-0.85323">
        <ele>45.8</ele>
        <time>2012-04-16T14:16:03Z</time>
      </trkpt>
      <trkpt lat="44.66712" lon="-0.85318">
        <ele>45.8</ele>
        <time>2012-04-16T14:16:05Z</time>
      </trkpt>
      <trkpt lat="44.66703" lon="-0.85312">
        <ele>46.28</ele>
        <time>2012-04-16T14:16:07Z</time>
      </trkpt>
      <trkpt lat="44.66694" lon="-0.85307">
        <ele>46.76</ele>
        <time>2012-04-16T14:16:09Z</time>
      </trkpt>
      <trkpt lat="44.66684" lon="-0.85301">
        <ele>45.8</ele>
        <time>2012-04-16T14:16:11Z</time>
      </trkpt>
      <trkpt lat="44.66674" lon="-0.85295">
        <ele>46.28</ele>
        <time>2012-04-16T14:16:13Z</time>
      </trkpt>
      <trkpt lat="44.66665" lon="-0.8529">
        <ele>45.8</ele>
        <time>2012-04-16T14:16:15Z</time>
      </trkpt>
      <trkpt lat="44.66656" lon="-0.85284">
        <ele>46.28</ele>
        <time>2012-04-16T14:16:17Z</time>
      </trkpt>
      <trkpt lat="44.66646" lon="-0.85278">
        <ele>46.28</ele>
        <time>2012-04-16T14:16:19Z</time>
      </trkpt>
      <trkpt lat="44.66637" lon="-0.85273">
        <ele>46.28</ele>
        <time>2012-04-16T14:16:21Z</time>
      </trkpt>
      <trkpt lat="44.66628" lon="-0.85269">
        <ele>46.28</ele>
        <time>2012-04-16T14:16:23Z</time>
      </trkpt>
      <trkpt lat="44.66618" lon="-0.85264">
        <ele>46.28</ele>
        <time>2012-04-16T14:16:25Z</time>
      </trkpt>
      <trkpt lat="44.6661" lon="-0.85258">
        <ele>45.8</ele>
        <time>2012-04-16T14:16:27Z</time>
      </trkpt>
      <trkpt lat="44.66598" lon="-0.8525">
        <ele>45.8</ele>
        <time>2012-04-16T14:16:30Z</time>
      </trkpt>
      <trkpt lat="44.66589" lon="-0.85244">
        <ele>45.8</ele>
        <time>2012-04-16T14:16:32Z</time>
      </trkpt>
      <trkpt lat="44.66579" lon="-0.85238">
        <ele>45.8</ele>
        <time>2012-04-16T14:16:34Z</time>
      </trkpt>
      <trkpt lat="44.6657" lon="-0.85233">
        <ele>45.32</ele>
        <time>2012-04-16T14:16:36Z</time>
      </trkpt>
      <trkpt lat="44.66561" lon="-0.85228">
        <ele>45.32</ele>
        <time>2012-04-16T14:16:38Z</time>
      </trkpt>
      <trkpt lat="44.66552" lon="-0.85222">
        <ele>45.8</ele>
        <time>2012-04-16T14:16:40Z</time>
      </trkpt>
      <trkpt lat="44.66544" lon="-0.85217">
        <ele>45.8</ele>
        <time>2012-04-16T14:16:42Z</time>
      </trkpt>
      <trkpt lat="44.66535" lon="-0.85212">
        <ele>45.8</ele>
        <time>2012-04-16T14:16:44Z</time>
      </trkpt>
      <trkpt lat="44.66526" lon="-0.85206">
        <ele>45.8</ele>
        <time>2012-04-16T14:16:46Z</time>
      </trkpt>
      <trkpt lat="44.66517" lon="-0.85201">
        <ele>45.32</ele>
        <time>2012-04-16T14:16:48Z</time>
      </trkpt>
      <trkpt lat="44.66508" lon="-0.85196">
        <ele>45.8</ele>
        <time>2012-04-16T14:16:50Z</time>
      </trkpt>
      <trkpt lat="44.66495" lon="-0.85188">
        <ele>45.8</ele>
        <time>2012-04-16T14:16:53Z</time>
      </trkpt>
      <trkpt lat="44.66484" lon="-0.8518">
        <ele>45.32</ele>
        <time>2012-04-16T14:16:56Z</time>
      </trkpt>
      <trkpt lat="44.66472" lon="-0.85173">
        <ele>45.32</ele>
        <time>2012-04-16T14:16:59Z</time>
      </trkpt>
      <trkpt lat="44.6646" lon="-0.85166">
        <ele>46.28</ele>
        <time>2012-04-16T14:17:02Z</time>
      </trkpt>
      <trkpt lat="44.66448" lon="-0.8516">
        <ele>45.8</ele>
        <time>2012-04-16T14:17:05Z</time>
      </trkpt>
      <trkpt lat="44.66436" lon="-0.85153">
        <ele>45.8</ele>
        <time>2012-04-16T14:17:08Z</time>
      </trkpt>
      <trkpt lat="44.66424" lon="-0.85146">
        <ele>45.32</ele>
        <time>2012-04-16T14:17:11Z</time>
      </trkpt>
      <trkpt lat="44.66411" lon="-0.85138">
        <ele>45.8</ele>
        <time>2012-04-16T14:17:14Z</time>
      </trkpt>
      <trkpt lat="44.66403" lon="-0.85133">
        <ele>45.8</ele>
        <time>2012-04-16T14:17:16Z</time>
      </trkpt>
      <trkpt lat="44.66394" lon="-0.85128">
        <ele>45.8</ele>
        <time>2012-04-16T14:17:18Z</time>
      </trkpt>
      <trkpt lat="44.66386" lon="-0.85124">
        <ele>45.8</ele>
        <time>2012-04-16T14:17:20Z</time>
      </trkpt>
      <trkpt lat="44.66376" lon="-0.85119">
        <ele>45.8</ele>
        <time>2012-04-16T14:17:22Z</time>
      </trkpt>
      <trkpt lat="44.66367" lon="-0.85115">
        <ele>45.8</ele>
        <time>2012-04-16T14:17:24Z</time>
      </trkpt>
      <trkpt lat="44.66358" lon="-0.85111">
        <ele>45.8</ele>
        <time>2012-04-16T14:17:26Z</time>
      </trkpt>
      <trkpt lat="44.66349" lon="-0.85108">
        <ele>45.8</ele>
        <time>2012-04-16T14:17:28Z</time>
      </trkpt>
      <trkpt lat="44.66339" lon="-0.85106">
        <ele>46.28</ele>
        <time>2012-04-16T14:17:30Z</time>
      </trkpt>
      <trkpt lat="44.66328" lon="-0.85103">
        <ele>45.8</ele>
        <time>2012-04-16T14:17:32Z</time>
      </trkpt>
      <trkpt lat="44.66319" lon="-0.851">
        <ele>46.28</ele>
        <time>2012-04-16T14:17:34Z</time>
      </trkpt>
      <trkpt lat="44.6631" lon="-0.85097">
        <ele>45.8</ele>
        <time>2012-04-16T14:17:36Z</time>
      </trkpt>
      <trkpt lat="44.66301" lon="-0.85094">
        <ele>45.8</ele>
        <time>2012-04-16T14:17:38Z</time>
      </trkpt>
      <trkpt lat="44.66291" lon="-0.85092">
        <ele>46.28</ele>
        <time>2012-04-16T14:17:40Z</time>
      </trkpt>
      <trkpt lat="44.66282" lon="-0.8509">
        <ele>45.8</ele>
        <time>2012-04-16T14:17:42Z</time>
      </trkpt>
      <trkpt lat="44.66272" lon="-0.85088">
        <ele>45.8</ele>
        <time>2012-04-16T14:17:44Z</time>
      </trkpt>
      <trkpt lat="44.66263" lon="-0.85085">
        <ele>45.8</ele>
        <time>2012-04-16T14:17:46Z</time>
      </trkpt>
      <trkpt lat="44.66254" lon="-0.85083">
        <ele>45.8</ele>
        <time>2012-04-16T14:17:48Z</time>
      </trkpt>
      <trkpt lat="44.66245" lon="-0.8508">
        <ele>45.8</ele>
        <time>2012-04-16T14:17:50Z</time>
      </trkpt>
      <trkpt lat="44.66232" lon="-0.85077">
        <ele>45.8</ele>
        <time>2012-04-16T14:17:53Z</time>
      </trkpt>
      <trkpt lat="44.66219" lon="-0.85074">
        <ele>45.32</ele>
        <time>2012-04-16T14:17:56Z</time>
      </trkpt>
      <trkpt lat="44.66211" lon="-0.85072">
        <ele>45.32</ele>
        <time>2012-04-16T14:17:58Z</time>
      </trkpt>
      <trkpt lat="44.66199" lon="-0.85068">
        <ele>45.8</ele>
        <time>2012-04-16T14:18:01Z</time>
      </trkpt>
      <trkpt lat="44.66188" lon="-0.85065">
        <ele>45.8</ele>
        <time>2012-04-16T14:18:04Z</time>
      </trkpt>
      <trkpt lat="44.6618" lon="-0.85071">
        <ele>45.8</ele>
        <time>2012-04-16T14:18:07Z</time>
      </trkpt>
      <trkpt lat="44.66181" lon="-0.85084">
        <ele>45.32</ele>
        <time>2012-04-16T14:18:10Z</time>
      </trkpt>
      <trkpt lat="44.66184" lon="-0.851">
        <ele>45.32</ele>
        <time>2012-04-16T14:18:13Z</time>
      </trkpt>
      <trkpt lat="44.66186" lon="-0.85118">
        <ele>44.84</ele>
        <time>2012-04-16T14:18:16Z</time>
      </trkpt>
      <trkpt lat="44.66187" lon="-0.85133">
        <ele>44.84</ele>
        <time>2012-04-16T14:18:18Z</time>
      </trkpt>
      <trkpt lat="44.66188" lon="-0.85148">
        <ele>45.32</ele>
        <time>2012-04-16T14:18:20Z</time>
      </trkpt>
      <trkpt lat="44.66189" lon="-0.85161">
        <ele>45.32</ele>
        <time>2012-04-16T14:18:22Z</time>
      </trkpt>
      <trkpt lat="44.6619" lon="-0.85175">
        <ele>45.32</ele>
        <time>2012-04-16T14:18:24Z</time>
      </trkpt>
      <trkpt lat="44.66192" lon="-0.85187">
        <ele>44.84</ele>
        <time>2012-04-16T14:18:26Z</time>
      </trkpt>
      <trkpt lat="44.66194" lon="-0.852">
        <ele>45.32</ele>
        <time>2012-04-16T14:18:28Z</time>
      </trkpt>
      <trkpt lat="44.66194" lon="-0.85214">
        <ele>44.84</ele>
        <time>2012-04-16T14:18:30Z</time>
      </trkpt>
      <trkpt lat="44.66193" lon="-0.85228">
        <ele>43.88</ele>
        <time>2012-04-16T14:18:32Z</time>
      </trkpt>
      <trkpt lat="44.66193" lon="-0.85242">
        <ele>44.36</ele>
        <time>2012-04-16T14:18:34Z</time>
      </trkpt>
      <trkpt lat="44.66193" lon="-0.85256">
        <ele>43.88</ele>
        <time>2012-04-16T14:18:36Z</time>
      </trkpt>
      <trkpt lat="44.66193" lon="-0.8527">
        <ele>44.36</ele>
        <time>2012-04-16T14:18:38Z</time>
      </trkpt>
      <trkpt lat="44.66194" lon="-0.85285">
        <ele>43.88</ele>
        <time>2012-04-16T14:18:40Z</time>
      </trkpt>
      <trkpt lat="44.66193" lon="-0.85297">
        <ele>43.88</ele>
        <time>2012-04-16T14:18:42Z</time>
      </trkpt>
      <trkpt lat="44.66192" lon="-0.85311">
        <ele>43.88</ele>
        <time>2012-04-16T14:18:44Z</time>
      </trkpt>
      <trkpt lat="44.6619" lon="-0.85325">
        <ele>44.36</ele>
        <time>2012-04-16T14:18:46Z</time>
      </trkpt>
      <trkpt lat="44.6619" lon="-0.85339">
        <ele>43.88</ele>
        <time>2012-04-16T14:18:48Z</time>
      </trkpt>
      <trkpt lat="44.66188" lon="-0.85352">
        <ele>43.88</ele>
        <time>2012-04-16T14:18:50Z</time>
      </trkpt>
      <trkpt lat="44.66182" lon="-0.85363">
        <ele>43.4</ele>
        <time>2012-04-16T14:18:52Z</time>
      </trkpt>
      <trkpt lat="44.66175" lon="-0.85372">
        <ele>43.88</ele>
        <time>2012-04-16T14:18:54Z</time>
      </trkpt>
      <trkpt lat="44.66167" lon="-0.85379">
        <ele>43.4</ele>
        <time>2012-04-16T14:18:56Z</time>
      </trkpt>
      <trkpt lat="44.66158" lon="-0.85385">
        <ele>42.92</ele>
        <time>2012-04-16T14:18:58Z</time>
      </trkpt>
      <trkpt lat="44.6615" lon="-0.8539">
        <ele>42.92</ele>
        <time>2012-04-16T14:19:00Z</time>
      </trkpt>
      <trkpt lat="44.6614" lon="-0.85402">
        <ele>43.4</ele>
        <time>2012-04-16T14:19:03Z</time>
      </trkpt>
      <trkpt lat="44.66136" lon="-0.85413">
        <ele>42.92</ele>
        <time>2012-04-16T14:19:05Z</time>
      </trkpt>
      <trkpt lat="44.66134" lon="-0.85426">
        <ele>42.92</ele>
        <time>2012-04-16T14:19:07Z</time>
      </trkpt>
      <trkpt lat="44.66132" lon="-0.85439">
        <ele>42.92</ele>
        <time>2012-04-16T14:19:09Z</time>
      </trkpt>
      <trkpt lat="44.6613" lon="-0.85453">
        <ele>43.4</ele>
        <time>2012-04-16T14:19:11Z</time>
      </trkpt>
      <trkpt lat="44.66127" lon="-0.85466">
        <ele>43.4</ele>
        <time>2012-04-16T14:19:13Z</time>
      </trkpt>
      <trkpt lat="44.66125" lon="-0.85478">
        <ele>43.88</ele>
        <time>2012-04-16T14:19:15Z</time>
      </trkpt>
      <trkpt lat="44.66122" lon="-0.85491">
        <ele>43.4</ele>
        <time>2012-04-16T14:19:17Z</time>
      </trkpt>
      <trkpt lat="44.66116" lon="-0.85502">
        <ele>43.4</ele>
        <time>2012-04-16T14:19:19Z</time>
      </trkpt>
      <trkpt lat="44.66104" lon="-0.85511">
        <ele>43.4</ele>
        <time>2012-04-16T14:19:22Z</time>
      </trkpt>
      <trkpt lat="44.66092" lon="-0.85523">
        <ele>43.4</ele>
        <time>2012-04-16T14:19:25Z</time>
      </trkpt>
      <trkpt lat="44.66085" lon="-0.85532">
        <ele>43.4</ele>
        <time>2012-04-16T14:19:27Z</time>
      </trkpt>
      <trkpt lat="44.66078" lon="-0.85542">
        <ele>43.4</ele>
        <time>2012-04-16T14:19:29Z</time>
      </trkpt>
      <trkpt lat="44.66073" lon="-0.85553">
        <ele>43.88</ele>
        <time>2012-04-16T14:19:31Z</time>
      </trkpt>
      <trkpt lat="44.66069" lon="-0.85564">
        <ele>43.88</ele>
        <time>2012-04-16T14:19:33Z</time>
      </trkpt>
      <trkpt lat="44.66064" lon="-0.85576">
        <ele>43.4</ele>
        <time>2012-04-16T14:19:35Z</time>
      </trkpt>
      <trkpt lat="44.6606" lon="-0.8559">
        <ele>43.88</ele>
        <time>2012-04-16T14:19:37Z</time>
      </trkpt>
      <trkpt lat="44.66058" lon="-0.85603">
        <ele>43.88</ele>
        <time>2012-04-16T14:19:39Z</time>
      </trkpt>
      <trkpt lat="44.66055" lon="-0.85616">
        <ele>43.88</ele>
        <time>2012-04-16T14:19:41Z</time>
      </trkpt>
      <trkpt lat="44.66054" lon="-0.85629">
        <ele>43.88</ele>
        <time>2012-04-16T14:19:43Z</time>
      </trkpt>
      <trkpt lat="44.66054" lon="-0.85643">
        <ele>43.88</ele>
        <time>2012-04-16T14:19:45Z</time>
      </trkpt>
      <trkpt lat="44.66051" lon="-0.85656">
        <ele>43.4</ele>
        <time>2012-04-16T14:19:47Z</time>
      </trkpt>
      <trkpt lat="44.66047" lon="-0.8567">
        <ele>42.92</ele>
        <time>2012-04-16T14:19:49Z</time>
      </trkpt>
      <trkpt lat="44.66041" lon="-0.85682">
        <ele>42.44</ele>
        <time>2012-04-16T14:19:51Z</time>
      </trkpt>
      <trkpt lat="44.66035" lon="-0.85694">
        <ele>42.44</ele>
        <time>2012-04-16T14:19:53Z</time>
      </trkpt>
      <trkpt lat="44.66028" lon="-0.85706">
        <ele>42.92</ele>
        <time>2012-04-16T14:19:55Z</time>
      </trkpt>
      <trkpt lat="44.6602" lon="-0.85716">
        <ele>42.92</ele>
        <time>2012-04-16T14:19:57Z</time>
      </trkpt>
      <trkpt lat="44.66012" lon="-0.85724">
        <ele>42.92</ele>
        <time>2012-04-16T14:19:59Z</time>
      </trkpt>
      <trkpt lat="44.66003" lon="-0.85732">
        <ele>42.92</ele>
        <time>2012-04-16T14:20:01Z</time>
      </trkpt>
      <trkpt lat="44.65994" lon="-0.8574">
        <ele>42.44</ele>
        <time>2012-04-16T14:20:03Z</time>
      </trkpt>
      <trkpt lat="44.65986" lon="-0.8575">
        <ele>42.92</ele>
        <time>2012-04-16T14:20:05Z</time>
      </trkpt>
      <trkpt lat="44.65978" lon="-0.85761">
        <ele>42.44</ele>
        <time>2012-04-16T14:20:07Z</time>
      </trkpt>
      <trkpt lat="44.65971" lon="-0.85773">
        <ele>41.95</ele>
        <time>2012-04-16T14:20:09Z</time>
      </trkpt>
      <trkpt lat="44.65963" lon="-0.85786">
        <ele>41.95</ele>
        <time>2012-04-16T14:20:11Z</time>
      </trkpt>
      <trkpt lat="44.65955" lon="-0.85797">
        <ele>41.95</ele>
        <time>2012-04-16T14:20:13Z</time>
      </trkpt>
      <trkpt lat="44.65949" lon="-0.85808">
        <ele>42.44</ele>
        <time>2012-04-16T14:20:15Z</time>
      </trkpt>
      <trkpt lat="44.6594" lon="-0.85816">
        <ele>41.95</ele>
        <time>2012-04-16T14:20:17Z</time>
      </trkpt>
      <trkpt lat="44.65929" lon="-0.85822">
        <ele>41.47</ele>
        <time>2012-04-16T14:20:19Z</time>
      </trkpt>
      <trkpt lat="44.65918" lon="-0.85825">
        <ele>41.95</ele>
        <time>2012-04-16T14:20:21Z</time>
      </trkpt>
      <trkpt lat="44.65908" lon="-0.85829">
        <ele>41.95</ele>
        <time>2012-04-16T14:20:23Z</time>
      </trkpt>
      <trkpt lat="44.65898" lon="-0.85836">
        <ele>41.95</ele>
        <time>2012-04-16T14:20:25Z</time>
      </trkpt>
      <trkpt lat="44.65889" lon="-0.85845">
        <ele>41.47</ele>
        <time>2012-04-16T14:20:27Z</time>
      </trkpt>
      <trkpt lat="44.65883" lon="-0.85855">
        <ele>41.95</ele>
        <time>2012-04-16T14:20:29Z</time>
      </trkpt>
      <trkpt lat="44.65877" lon="-0.85867">
        <ele>41.47</ele>
        <time>2012-04-16T14:20:31Z</time>
      </trkpt>
      <trkpt lat="44.65873" lon="-0.85881">
        <ele>41.95</ele>
        <time>2012-04-16T14:20:33Z</time>
      </trkpt>
      <trkpt lat="44.6587" lon="-0.85894">
        <ele>40.99</ele>
        <time>2012-04-16T14:20:35Z</time>
      </trkpt>
      <trkpt lat="44.65865" lon="-0.85907">
        <ele>40.99</ele>
        <time>2012-04-16T14:20:37Z</time>
      </trkpt>
      <trkpt lat="44.6586" lon="-0.85919">
        <ele>41.47</ele>
        <time>2012-04-16T14:20:39Z</time>
      </trkpt>
      <trkpt lat="44.65854" lon="-0.8593">
        <ele>40.99</ele>
        <time>2012-04-16T14:20:41Z</time>
      </trkpt>
      <trkpt lat="44.65847" lon="-0.85939">
        <ele>40.99</ele>
        <time>2012-04-16T14:20:43Z</time>
      </trkpt>
      <trkpt lat="44.65838" lon="-0.85946">
        <ele>40.99</ele>
        <time>2012-04-16T14:20:45Z</time>
      </trkpt>
      <trkpt lat="44.65828" lon="-0.85952">
        <ele>40.51</ele>
        <time>2012-04-16T14:20:47Z</time>
      </trkpt>
      <trkpt lat="44.65818" lon="-0.85956">
        <ele>40.51</ele>
        <time>2012-04-16T14:20:49Z</time>
      </trkpt>
      <trkpt lat="44.65808" lon="-0.85959">
        <ele>40.51</ele>
        <time>2012-04-16T14:20:51Z</time>
      </trkpt>
      <trkpt lat="44.65799" lon="-0.85963">
        <ele>40.51</ele>
        <time>2012-04-16T14:20:53Z</time>
      </trkpt>
      <trkpt lat="44.65789" lon="-0.85966">
        <ele>40.51</ele>
        <time>2012-04-16T14:20:55Z</time>
      </trkpt>
      <trkpt lat="44.6578" lon="-0.8597">
        <ele>40.51</ele>
        <time>2012-04-16T14:20:57Z</time>
      </trkpt>
      <trkpt lat="44.65771" lon="-0.85974">
        <ele>40.51</ele>
        <time>2012-04-16T14:20:59Z</time>
      </trkpt>
      <trkpt lat="44.65762" lon="-0.8598">
        <ele>40.51</ele>
        <time>2012-04-16T14:21:01Z</time>
      </trkpt>
      <trkpt lat="44.65752" lon="-0.85985">
        <ele>40.51</ele>
        <time>2012-04-16T14:21:03Z</time>
      </trkpt>
      <trkpt lat="44.65743" lon="-0.8599">
        <ele>40.99</ele>
        <time>2012-04-16T14:21:05Z</time>
      </trkpt>
      <trkpt lat="44.65731" lon="-0.85995">
        <ele>40.51</ele>
        <time>2012-04-16T14:21:08Z</time>
      </trkpt>
      <trkpt lat="44.65722" lon="-0.85997">
        <ele>40.51</ele>
        <time>2012-04-16T14:21:12Z</time>
      </trkpt>
      <trkpt lat="44.65711" lon="-0.85996">
        <ele>40.51</ele>
        <time>2012-04-16T14:21:19Z</time>
      </trkpt>
      <trkpt lat="44.65708" lon="-0.85982">
        <ele>40.03</ele>
        <time>2012-04-16T14:21:24Z</time>
      </trkpt>
      <trkpt lat="44.65708" lon="-0.85965">
        <ele>40.51</ele>
        <time>2012-04-16T14:21:28Z</time>
      </trkpt>
      <trkpt lat="44.65708" lon="-0.85949">
        <ele>40.99</ele>
        <time>2012-04-16T14:21:31Z</time>
      </trkpt>
      <trkpt lat="44.65709" lon="-0.85933">
        <ele>40.51</ele>
        <time>2012-04-16T14:21:34Z</time>
      </trkpt>
      <trkpt lat="44.65705" lon="-0.85921">
        <ele>40.51</ele>
        <time>2012-04-16T14:21:37Z</time>
      </trkpt>
      <trkpt lat="44.65697" lon="-0.85931">
        <ele>40.03</ele>
        <time>2012-04-16T14:21:41Z</time>
      </trkpt>
      <trkpt lat="44.65692" lon="-0.85944">
        <ele>39.55</ele>
        <time>2012-04-16T14:21:44Z</time>
      </trkpt>
      <trkpt lat="44.65688" lon="-0.8596">
        <ele>40.03</ele>
        <time>2012-04-16T14:21:47Z</time>
      </trkpt>
      <trkpt lat="44.65683" lon="-0.85978">
        <ele>39.55</ele>
        <time>2012-04-16T14:21:50Z</time>
      </trkpt>
      <trkpt lat="44.65678" lon="-0.85995">
        <ele>39.55</ele>
        <time>2012-04-16T14:21:53Z</time>
      </trkpt>
      <trkpt lat="44.65671" lon="-0.8601">
        <ele>39.55</ele>
        <time>2012-04-16T14:21:56Z</time>
      </trkpt>
      <trkpt lat="44.65662" lon="-0.86023">
        <ele>40.03</ele>
        <time>2012-04-16T14:21:59Z</time>
      </trkpt>
      <trkpt lat="44.65655" lon="-0.86037">
        <ele>39.55</ele>
        <time>2012-04-16T14:22:02Z</time>
      </trkpt>
      <trkpt lat="44.65648" lon="-0.86049">
        <ele>39.07</ele>
        <time>2012-04-16T14:22:05Z</time>
      </trkpt>
      <trkpt lat="44.6564" lon="-0.86061">
        <ele>39.07</ele>
        <time>2012-04-16T14:22:08Z</time>
      </trkpt>
      <trkpt lat="44.65631" lon="-0.86072">
        <ele>39.07</ele>
        <time>2012-04-16T14:22:11Z</time>
      </trkpt>
      <trkpt lat="44.65622" lon="-0.86083">
        <ele>39.07</ele>
        <time>2012-04-16T14:22:14Z</time>
      </trkpt>
      <trkpt lat="44.65612" lon="-0.86094">
        <ele>39.07</ele>
        <time>2012-04-16T14:22:17Z</time>
      </trkpt>
      <trkpt lat="44.65602" lon="-0.86107">
        <ele>38.59</ele>
        <time>2012-04-16T14:22:20Z</time>
      </trkpt>
      <trkpt lat="44.65593" lon="-0.8612">
        <ele>38.59</ele>
        <time>2012-04-16T14:22:23Z</time>
      </trkpt>
      <trkpt lat="44.65583" lon="-0.86133">
        <ele>38.59</ele>
        <time>2012-04-16T14:22:26Z</time>
      </trkpt>
      <trkpt lat="44.65574" lon="-0.86146">
        <ele>38.11</ele>
        <time>2012-04-16T14:22:29Z</time>
      </trkpt>
      <trkpt lat="44.65565" lon="-0.86157">
        <ele>38.59</ele>
        <time>2012-04-16T14:22:32Z</time>
      </trkpt>
      <trkpt lat="44.65555" lon="-0.86168">
        <ele>38.11</ele>
        <time>2012-04-16T14:22:35Z</time>
      </trkpt>
      <trkpt lat="44.65546" lon="-0.86179">
        <ele>38.11</ele>
        <time>2012-04-16T14:22:38Z</time>
      </trkpt>
      <trkpt lat="44.65538" lon="-0.86188">
        <ele>38.11</ele>
        <time>2012-04-16T14:22:41Z</time>
      </trkpt>
      <trkpt lat="44.65528" lon="-0.86198">
        <ele>37.63</ele>
        <time>2012-04-16T14:22:44Z</time>
      </trkpt>
      <trkpt lat="44.65518" lon="-0.86208">
        <ele>37.63</ele>
        <time>2012-04-16T14:22:47Z</time>
      </trkpt>
      <trkpt lat="44.65506" lon="-0.86219">
        <ele>37.63</ele>
        <time>2012-04-16T14:22:50Z</time>
      </trkpt>
      <trkpt lat="44.65494" lon="-0.86229">
        <ele>37.63</ele>
        <time>2012-04-16T14:22:53Z</time>
      </trkpt>
      <trkpt lat="44.65486" lon="-0.86235">
        <ele>37.15</ele>
        <time>2012-04-16T14:22:55Z</time>
      </trkpt>
      <trkpt lat="44.65479" lon="-0.86242">
        <ele>37.15</ele>
        <time>2012-04-16T14:22:57Z</time>
      </trkpt>
      <trkpt lat="44.6547" lon="-0.86249">
        <ele>37.15</ele>
        <time>2012-04-16T14:22:59Z</time>
      </trkpt>
      <trkpt lat="44.65461" lon="-0.86255">
        <ele>37.15</ele>
        <time>2012-04-16T14:23:01Z</time>
      </trkpt>
      <trkpt lat="44.65453" lon="-0.86261">
        <ele>36.67</ele>
        <time>2012-04-16T14:23:03Z</time>
      </trkpt>
      <trkpt lat="44.65444" lon="-0.86266">
        <ele>37.15</ele>
        <time>2012-04-16T14:23:05Z</time>
      </trkpt>
      <trkpt lat="44.65435" lon="-0.86271">
        <ele>37.15</ele>
        <time>2012-04-16T14:23:07Z</time>
      </trkpt>
      <trkpt lat="44.65427" lon="-0.86278">
        <ele>37.15</ele>
        <time>2012-04-16T14:23:09Z</time>
      </trkpt>
      <trkpt lat="44.65418" lon="-0.86284">
        <ele>36.67</ele>
        <time>2012-04-16T14:23:11Z</time>
      </trkpt>
      <trkpt lat="44.6541" lon="-0.86288">
        <ele>37.15</ele>
        <time>2012-04-16T14:23:13Z</time>
      </trkpt>
      <trkpt lat="44.65399" lon="-0.86295">
        <ele>36.67</ele>
        <time>2012-04-16T14:23:16Z</time>
      </trkpt>
      <trkpt lat="44.65392" lon="-0.86303">
        <ele>34.26</ele>
        <time>2012-04-16T14:25:52Z</time>
      </trkpt>
      <trkpt lat="44.65393" lon="-0.86318">
        <ele>34.74</ele>
        <time>2012-04-16T14:26:03Z</time>
      </trkpt>
      <trkpt lat="44.65389" lon="-0.8633">
        <ele>34.26</ele>
        <time>2012-04-16T14:26:08Z</time>
      </trkpt>
      <trkpt lat="44.65382" lon="-0.86342">
        <ele>33.78</ele>
        <time>2012-04-16T14:26:14Z</time>
      </trkpt>
      <trkpt lat="44.65378" lon="-0.86355">
        <ele>33.78</ele>
        <time>2012-04-16T14:26:20Z</time>
      </trkpt>
      <trkpt lat="44.65363" lon="-0.86346">
        <ele>33.3</ele>
        <time>2012-04-16T14:26:27Z</time>
      </trkpt>
      <trkpt lat="44.65352" lon="-0.86336">
        <ele>32.34</ele>
        <time>2012-04-16T14:26:32Z</time>
      </trkpt>
      <trkpt lat="44.6534" lon="-0.86338">
        <ele>32.34</ele>
        <time>2012-04-16T14:26:36Z</time>
      </trkpt>
      <trkpt lat="44.65337" lon="-0.86353">
        <ele>32.82</ele>
        <time>2012-04-16T14:26:41Z</time>
      </trkpt>
      <trkpt lat="44.65342" lon="-0.86369">
        <ele>32.82</ele>
        <time>2012-04-16T14:26:46Z</time>
      </trkpt>
      <trkpt lat="44.65339" lon="-0.86385">
        <ele>32.34</ele>
        <time>2012-04-16T14:26:51Z</time>
      </trkpt>
      <trkpt lat="44.6534" lon="-0.86401">
        <ele>32.34</ele>
        <time>2012-04-16T14:26:55Z</time>
      </trkpt>
      <trkpt lat="44.65335" lon="-0.86412">
        <ele>32.34</ele>
        <time>2012-04-16T14:26:59Z</time>
      </trkpt>
      <trkpt lat="44.65329" lon="-0.86411">
        <ele>31.86</ele>
        <time>2012-04-16T14:27:39Z</time>
      </trkpt>
      <trkpt lat="44.65319" lon="-0.86411">
        <ele>31.86</ele>
        <time>2012-04-16T14:27:43Z</time>
      </trkpt>
      <trkpt lat="44.65328" lon="-0.86437">
        <ele>31.86</ele>
        <time>2012-04-16T14:27:50Z</time>
      </trkpt>
      <trkpt lat="44.65325" lon="-0.86453">
        <ele>30.9</ele>
        <time>2012-04-16T14:27:54Z</time>
      </trkpt>
      <trkpt lat="44.65324" lon="-0.86469">
        <ele>28.5</ele>
        <time>2012-04-16T14:27:58Z</time>
      </trkpt>
      <trkpt lat="44.65331" lon="-0.86489">
        <ele>27.53</ele>
        <time>2012-04-16T14:37:20Z</time>
      </trkpt>
      <trkpt lat="44.6534" lon="-0.86478">
        <ele>28.02</ele>
        <time>2012-04-16T14:38:17Z</time>
      </trkpt>
      <trkpt lat="44.65348" lon="-0.86468">
        <ele>29.94</ele>
        <time>2012-04-16T14:38:24Z</time>
      </trkpt>
      <trkpt lat="44.65354" lon="-0.86453">
        <ele>30.9</ele>
        <time>2012-04-16T14:38:31Z</time>
      </trkpt>
      <trkpt lat="44.65358" lon="-0.86451">
        <ele>31.86</ele>
        <time>2012-04-16T14:38:42Z</time>
      </trkpt>
      <trkpt lat="44.65368" lon="-0.86455">
        <ele>31.86</ele>
        <time>2012-04-16T14:38:48Z</time>
      </trkpt>
      <trkpt lat="44.65374" lon="-0.86456">
        <ele>30.9</ele>
        <time>2012-04-16T14:48:19Z</time>
      </trkpt>
      <trkpt lat="44.65381" lon="-0.86465">
        <ele>30.42</ele>
        <time>2012-04-16T14:51:15Z</time>
      </trkpt>
      <trkpt lat="44.6539" lon="-0.86477">
        <ele>26.09</ele>
        <time>2012-04-16T14:51:20Z</time>
      </trkpt>
      <trkpt lat="44.65394" lon="-0.86488">
        <ele>26.09</ele>
        <time>2012-04-16T14:51:27Z</time>
      </trkpt>
      <trkpt lat="44.65392" lon="-0.86501">
        <ele>26.57</ele>
        <time>2012-04-16T14:53:13Z</time>
      </trkpt>
      <trkpt lat="44.6539" lon="-0.86514">
        <ele>28.5</ele>
        <time>2012-04-16T14:53:31Z</time>
      </trkpt>
      <trkpt lat="44.65395" lon="-0.86525">
        <ele>31.86</ele>
        <time>2012-04-16T14:53:50Z</time>
      </trkpt>
      <trkpt lat="44.65402" lon="-0.86534">
        <ele>33.3</ele>
        <time>2012-04-16T14:54:03Z</time>
      </trkpt>
      <trkpt lat="44.65408" lon="-0.86548">
        <ele>33.78</ele>
        <time>2012-04-16T14:54:09Z</time>
      </trkpt>
      <trkpt lat="44.65416" lon="-0.86557">
        <ele>33.78</ele>
        <time>2012-04-16T14:54:14Z</time>
      </trkpt>
      <trkpt lat="44.65425" lon="-0.86565">
        <ele>32.82</ele>
        <time>2012-04-16T14:54:21Z</time>
      </trkpt>
      <trkpt lat="44.6543" lon="-0.86578">
        <ele>30.42</ele>
        <time>2012-04-16T14:54:29Z</time>
      </trkpt>
      <trkpt lat="44.65438" lon="-0.86572">
        <ele>33.3</ele>
        <time>2012-04-16T14:54:44Z</time>
      </trkpt>
      <trkpt lat="44.65453" lon="-0.86567">
        <ele>34.26</ele>
        <time>2012-04-16T14:54:52Z</time>
      </trkpt>
      <trkpt lat="44.65466" lon="-0.86565">
        <ele>34.26</ele>
        <time>2012-04-16T14:54:57Z</time>
      </trkpt>
      <trkpt lat="44.65476" lon="-0.86561">
        <ele>34.26</ele>
        <time>2012-04-16T14:55:01Z</time>
      </trkpt>
      <trkpt lat="44.65486" lon="-0.86559">
        <ele>34.26</ele>
        <time>2012-04-16T14:55:04Z</time>
      </trkpt>
      <trkpt lat="44.65499" lon="-0.86567">
        <ele>33.78</ele>
        <time>2012-04-16T14:55:08Z</time>
      </trkpt>
      <trkpt lat="44.65508" lon="-0.86572">
        <ele>33.78</ele>
        <time>2012-04-16T14:55:11Z</time>
      </trkpt>
      <trkpt lat="44.6552" lon="-0.86579">
        <ele>33.78</ele>
        <time>2012-04-16T14:55:15Z</time>
      </trkpt>
      <trkpt lat="44.65532" lon="-0.86585">
        <ele>33.3</ele>
        <time>2012-04-16T14:55:18Z</time>
      </trkpt>
      <trkpt lat="44.65543" lon="-0.86588">
        <ele>34.26</ele>
        <time>2012-04-16T14:55:21Z</time>
      </trkpt>
      <trkpt lat="44.65553" lon="-0.8659">
        <ele>34.26</ele>
        <time>2012-04-16T14:55:24Z</time>
      </trkpt>
      <trkpt lat="44.65561" lon="-0.866">
        <ele>34.26</ele>
        <time>2012-04-16T14:55:27Z</time>
      </trkpt>
      <trkpt lat="44.65567" lon="-0.86616">
        <ele>34.26</ele>
        <time>2012-04-16T14:55:30Z</time>
      </trkpt>
      <trkpt lat="44.65571" lon="-0.86632">
        <ele>34.26</ele>
        <time>2012-04-16T14:55:33Z</time>
      </trkpt>
      <trkpt lat="44.65572" lon="-0.86648">
        <ele>34.26</ele>
        <time>2012-04-16T14:55:36Z</time>
      </trkpt>
      <trkpt lat="44.65575" lon="-0.86661">
        <ele>34.74</ele>
        <time>2012-04-16T14:55:39Z</time>
      </trkpt>
      <trkpt lat="44.65585" lon="-0.86663">
        <ele>33.78</ele>
        <time>2012-04-16T14:55:44Z</time>
      </trkpt>
      <trkpt lat="44.6559" lon="-0.86671">
        <ele>33.3</ele>
        <time>2012-04-16T14:56:04Z</time>
      </trkpt>
      <trkpt lat="44.65595" lon="-0.86681">
        <ele>34.26</ele>
        <time>2012-04-16T14:56:28Z</time>
      </trkpt>
      <trkpt lat="44.65595" lon="-0.86692">
        <ele>34.74</ele>
        <time>2012-04-16T14:57:10Z</time>
      </trkpt>
      <trkpt lat="44.65593" lon="-0.86709">
        <ele>34.26</ele>
        <time>2012-04-16T14:57:16Z</time>
      </trkpt>
      <trkpt lat="44.65588" lon="-0.86722">
        <ele>33.3</ele>
        <time>2012-04-16T14:57:24Z</time>
      </trkpt>
      <trkpt lat="44.65583" lon="-0.86729">
        <ele>33.78</ele>
        <time>2012-04-16T14:58:28Z</time>
      </trkpt>
      <trkpt lat="44.6559" lon="-0.86715">
        <ele>33.78</ele>
        <time>2012-04-16T14:58:34Z</time>
      </trkpt>
      <trkpt lat="44.65593" lon="-0.867">
        <ele>35.23</ele>
        <time>2012-04-16T14:58:40Z</time>
      </trkpt>
      <trkpt lat="44.65593" lon="-0.86699">
        <ele>34.74</ele>
        <time>2012-04-16T14:59:09Z</time>
      </trkpt>
      <trkpt lat="44.65591" lon="-0.86715">
        <ele>34.74</ele>
        <time>2012-04-16T14:59:17Z</time>
      </trkpt>
      <trkpt lat="44.65583" lon="-0.86728">
        <ele>34.74</ele>
        <time>2012-04-16T14:59:21Z</time>
      </trkpt>
      <trkpt lat="44.65583" lon="-0.86742">
        <ele>35.71</ele>
        <time>2012-04-16T14:59:25Z</time>
      </trkpt>
      <trkpt lat="44.6558" lon="-0.86757">
        <ele>35.23</ele>
        <time>2012-04-16T14:59:29Z</time>
      </trkpt>
      <trkpt lat="44.6557" lon="-0.86765">
        <ele>34.74</ele>
        <time>2012-04-16T14:59:33Z</time>
      </trkpt>
      <trkpt lat="44.6556" lon="-0.86771">
        <ele>34.74</ele>
        <time>2012-04-16T14:59:36Z</time>
      </trkpt>
      <trkpt lat="44.65551" lon="-0.86776">
        <ele>34.74</ele>
        <time>2012-04-16T14:59:39Z</time>
      </trkpt>
      <trkpt lat="44.65542" lon="-0.86782">
        <ele>33.78</ele>
        <time>2012-04-16T14:59:42Z</time>
      </trkpt>
      <trkpt lat="44.65533" lon="-0.86787">
        <ele>34.26</ele>
        <time>2012-04-16T14:59:45Z</time>
      </trkpt>
      <trkpt lat="44.65521" lon="-0.86791">
        <ele>33.3</ele>
        <time>2012-04-16T14:59:49Z</time>
      </trkpt>
      <trkpt lat="44.65513" lon="-0.8679">
        <ele>31.86</ele>
        <time>2012-04-16T15:02:14Z</time>
      </trkpt>
      <trkpt lat="44.65503" lon="-0.86784">
        <ele>31.38</ele>
        <time>2012-04-16T15:03:34Z</time>
      </trkpt>
      <trkpt lat="44.65495" lon="-0.86774">
        <ele>29.46</ele>
        <time>2012-04-16T15:03:39Z</time>
      </trkpt>
      <trkpt lat="44.65488" lon="-0.86762">
        <ele>28.98</ele>
        <time>2012-04-16T15:03:47Z</time>
      </trkpt>
      <trkpt lat="44.6548" lon="-0.86753">
        <ele>29.46</ele>
        <time>2012-04-16T15:04:42Z</time>
      </trkpt>
      <trkpt lat="44.65467" lon="-0.86752">
        <ele>28.5</ele>
        <time>2012-04-16T15:04:46Z</time>
      </trkpt>
      <trkpt lat="44.65454" lon="-0.86755">
        <ele>27.53</ele>
        <time>2012-04-16T15:04:49Z</time>
      </trkpt>
      <trkpt lat="44.65444" lon="-0.86758">
        <ele>28.02</ele>
        <time>2012-04-16T15:04:52Z</time>
      </trkpt>
      <trkpt lat="44.65434" lon="-0.86763">
        <ele>28.02</ele>
        <time>2012-04-16T15:04:56Z</time>
      </trkpt>
      <trkpt lat="44.65424" lon="-0.86769">
        <ele>27.53</ele>
        <time>2012-04-16T15:05:03Z</time>
      </trkpt>
      <trkpt lat="44.65416" lon="-0.86773">
        <ele>26.09</ele>
        <time>2012-04-16T15:05:26Z</time>
      </trkpt>
      <trkpt lat="44.6541" lon="-0.86781">
        <ele>25.13</ele>
        <time>2012-04-16T15:05:34Z</time>
      </trkpt>
      <trkpt lat="44.65421" lon="-0.8679">
        <ele>26.57</ele>
        <time>2012-04-16T15:05:50Z</time>
      </trkpt>
      <trkpt lat="44.65426" lon="-0.86804">
        <ele>26.57</ele>
        <time>2012-04-16T15:05:56Z</time>
      </trkpt>
      <trkpt lat="44.65431" lon="-0.86824">
        <ele>25.13</ele>
        <time>2012-04-16T15:06:02Z</time>
      </trkpt>
      <trkpt lat="44.65438" lon="-0.86834">
        <ele>26.09</ele>
        <time>2012-04-16T15:06:15Z</time>
      </trkpt>
      <trkpt lat="44.65443" lon="-0.86849">
        <ele>29.94</ele>
        <time>2012-04-16T15:06:29Z</time>
      </trkpt>
      <trkpt lat="44.65437" lon="-0.86863">
        <ele>31.86</ele>
        <time>2012-04-16T15:06:47Z</time>
      </trkpt>
      <trkpt lat="44.65437" lon="-0.86879">
        <ele>32.34</ele>
        <time>2012-04-16T15:06:54Z</time>
      </trkpt>
      <trkpt lat="44.65442" lon="-0.86892">
        <ele>32.34</ele>
        <time>2012-04-16T15:07:01Z</time>
      </trkpt>
      <trkpt lat="44.6544" lon="-0.86906">
        <ele>33.78</ele>
        <time>2012-04-16T15:07:09Z</time>
      </trkpt>
      <trkpt lat="44.65436" lon="-0.86922">
        <ele>33.3</ele>
        <time>2012-04-16T15:07:16Z</time>
      </trkpt>
      <trkpt lat="44.65425" lon="-0.86926">
        <ele>32.82</ele>
        <time>2012-04-16T15:07:21Z</time>
      </trkpt>
      <trkpt lat="44.65416" lon="-0.86931">
        <ele>31.38</ele>
        <time>2012-04-16T15:07:25Z</time>
      </trkpt>
      <trkpt lat="44.65413" lon="-0.86944">
        <ele>32.34</ele>
        <time>2012-04-16T15:07:29Z</time>
      </trkpt>
      <trkpt lat="44.65427" lon="-0.86947">
        <ele>33.78</ele>
        <time>2012-04-16T15:07:37Z</time>
      </trkpt>
      <trkpt lat="44.65439" lon="-0.86952">
        <ele>33.3</ele>
        <time>2012-04-16T15:07:42Z</time>
      </trkpt>
      <trkpt lat="44.6545" lon="-0.86955">
        <ele>33.3</ele>
        <time>2012-04-16T15:07:46Z</time>
      </trkpt>
      <trkpt lat="44.65457" lon="-0.86966">
        <ele>33.3</ele>
        <time>2012-04-16T15:07:50Z</time>
      </trkpt>
      <trkpt lat="44.65461" lon="-0.8698">
        <ele>31.86</ele>
        <time>2012-04-16T15:07:54Z</time>
      </trkpt>
      <trkpt lat="44.65462" lon="-0.86996">
        <ele>30.9</ele>
        <time>2012-04-16T15:07:58Z</time>
      </trkpt>
      <trkpt lat="44.65469" lon="-0.87011">
        <ele>29.46</ele>
        <time>2012-04-16T15:08:01Z</time>
      </trkpt>
      <trkpt lat="44.65479" lon="-0.87021">
        <ele>30.9</ele>
        <time>2012-04-16T15:08:05Z</time>
      </trkpt>
      <trkpt lat="44.65487" lon="-0.87027">
        <ele>31.86</ele>
        <time>2012-04-16T15:08:09Z</time>
      </trkpt>
      <trkpt lat="44.65496" lon="-0.87036">
        <ele>30.9</ele>
        <time>2012-04-16T15:08:13Z</time>
      </trkpt>
      <trkpt lat="44.65499" lon="-0.87056">
        <ele>28.98</ele>
        <time>2012-04-16T15:08:17Z</time>
      </trkpt>
      <trkpt lat="44.65501" lon="-0.87072">
        <ele>31.86</ele>
        <time>2012-04-16T15:08:21Z</time>
      </trkpt>
      <trkpt lat="44.65504" lon="-0.87078">
        <ele>32.82</ele>
        <time>2012-04-16T15:08:34Z</time>
      </trkpt>
      <trkpt lat="44.65512" lon="-0.87087">
        <ele>33.3</ele>
        <time>2012-04-16T15:08:39Z</time>
      </trkpt>
      <trkpt lat="44.65516" lon="-0.87103">
        <ele>33.3</ele>
        <time>2012-04-16T15:08:45Z</time>
      </trkpt>
      <trkpt lat="44.65519" lon="-0.87116">
        <ele>33.78</ele>
        <time>2012-04-16T15:08:50Z</time>
      </trkpt>
      <trkpt lat="44.65522" lon="-0.87129">
        <ele>33.78</ele>
        <time>2012-04-16T15:08:55Z</time>
      </trkpt>
      <trkpt lat="44.65527" lon="-0.87142">
        <ele>34.26</ele>
        <time>2012-04-16T15:09:00Z</time>
      </trkpt>
      <trkpt lat="44.65531" lon="-0.87154">
        <ele>34.74</ele>
        <time>2012-04-16T15:09:04Z</time>
      </trkpt>
      <trkpt lat="44.65536" lon="-0.87168">
        <ele>34.74</ele>
        <time>2012-04-16T15:09:08Z</time>
      </trkpt>
      <trkpt lat="44.6554" lon="-0.8718">
        <ele>34.26</ele>
        <time>2012-04-16T15:09:13Z</time>
      </trkpt>
      <trkpt lat="44.65545" lon="-0.8719">
        <ele>34.26</ele>
        <time>2012-04-16T15:12:29Z</time>
      </trkpt>
      <trkpt lat="44.6555" lon="-0.87205">
        <ele>34.26</ele>
        <time>2012-04-16T15:12:33Z</time>
      </trkpt>
      <trkpt lat="44.65554" lon="-0.87216">
        <ele>34.74</ele>
        <time>2012-04-16T15:12:36Z</time>
      </trkpt>
      <trkpt lat="44.65562" lon="-0.87228">
        <ele>33.78</ele>
        <time>2012-04-16T15:12:40Z</time>
      </trkpt>
      <trkpt lat="44.65568" lon="-0.8724">
        <ele>32.82</ele>
        <time>2012-04-16T15:12:45Z</time>
      </trkpt>
      <trkpt lat="44.6557" lon="-0.87256">
        <ele>28.98</ele>
        <time>2012-04-16T15:12:49Z</time>
      </trkpt>
      <trkpt lat="44.65562" lon="-0.87269">
        <ele>28.5</ele>
        <time>2012-04-16T15:12:53Z</time>
      </trkpt>
      <trkpt lat="44.65547" lon="-0.87267">
        <ele>28.02</ele>
        <time>2012-04-16T15:12:57Z</time>
      </trkpt>
      <trkpt lat="44.65536" lon="-0.87266">
        <ele>28.02</ele>
        <time>2012-04-16T15:13:00Z</time>
      </trkpt>
      <trkpt lat="44.65527" lon="-0.87272">
        <ele>28.02</ele>
        <time>2012-04-16T15:13:03Z</time>
      </trkpt>
      <trkpt lat="44.65522" lon="-0.87284">
        <ele>28.98</ele>
        <time>2012-04-16T15:13:07Z</time>
      </trkpt>
      <trkpt lat="44.65522" lon="-0.87301">
        <ele>29.46</ele>
        <time>2012-04-16T15:13:12Z</time>
      </trkpt>
      <trkpt lat="44.6552" lon="-0.87316">
        <ele>29.46</ele>
        <time>2012-04-16T15:13:16Z</time>
      </trkpt>
      <trkpt lat="44.65517" lon="-0.87332">
        <ele>30.42</ele>
        <time>2012-04-16T15:13:21Z</time>
      </trkpt>
      <trkpt lat="44.65514" lon="-0.87346">
        <ele>31.86</ele>
        <time>2012-04-16T15:13:27Z</time>
      </trkpt>
      <trkpt lat="44.65513" lon="-0.87363">
        <ele>32.82</ele>
        <time>2012-04-16T15:13:33Z</time>
      </trkpt>
      <trkpt lat="44.65514" lon="-0.87379">
        <ele>32.82</ele>
        <time>2012-04-16T15:13:37Z</time>
      </trkpt>
      <trkpt lat="44.65515" lon="-0.87393">
        <ele>32.34</ele>
        <time>2012-04-16T15:13:41Z</time>
      </trkpt>
      <trkpt lat="44.65516" lon="-0.87408">
        <ele>31.86</ele>
        <time>2012-04-16T15:13:46Z</time>
      </trkpt>
      <trkpt lat="44.65517" lon="-0.87424">
        <ele>31.86</ele>
        <time>2012-04-16T15:13:51Z</time>
      </trkpt>
      <trkpt lat="44.6552" lon="-0.87439">
        <ele>32.34</ele>
        <time>2012-04-16T15:13:55Z</time>
      </trkpt>
      <trkpt lat="44.65522" lon="-0.87454">
        <ele>32.34</ele>
        <time>2012-04-16T15:14:00Z</time>
      </trkpt>
      <trkpt lat="44.65525" lon="-0.87467">
        <ele>32.34</ele>
        <time>2012-04-16T15:14:07Z</time>
      </trkpt>
      <trkpt lat="44.65533" lon="-0.87467">
        <ele>32.34</ele>
        <time>2012-04-16T15:14:11Z</time>
      </trkpt>
      <trkpt lat="44.65544" lon="-0.87465">
        <ele>32.34</ele>
        <time>2012-04-16T15:14:15Z</time>
      </trkpt>
      <trkpt lat="44.65555" lon="-0.87461">
        <ele>32.82</ele>
        <time>2012-04-16T15:14:19Z</time>
      </trkpt>
      <trkpt lat="44.65564" lon="-0.87458">
        <ele>32.82</ele>
        <time>2012-04-16T15:14:23Z</time>
      </trkpt>
      <trkpt lat="44.65574" lon="-0.87455">
        <ele>33.3</ele>
        <time>2012-04-16T15:14:27Z</time>
      </trkpt>
      <trkpt lat="44.65584" lon="-0.87452">
        <ele>33.3</ele>
        <time>2012-04-16T15:14:31Z</time>
      </trkpt>
      <trkpt lat="44.65595" lon="-0.87448">
        <ele>33.78</ele>
        <time>2012-04-16T15:14:35Z</time>
      </trkpt>
      <trkpt lat="44.65606" lon="-0.87444">
        <ele>33.78</ele>
        <time>2012-04-16T15:14:39Z</time>
      </trkpt>
      <trkpt lat="44.65615" lon="-0.87442">
        <ele>33.3</ele>
        <time>2012-04-16T15:14:42Z</time>
      </trkpt>
      <trkpt lat="44.65625" lon="-0.87438">
        <ele>33.78</ele>
        <time>2012-04-16T15:14:45Z</time>
      </trkpt>
      <trkpt lat="44.65635" lon="-0.87435">
        <ele>33.78</ele>
        <time>2012-04-16T15:14:48Z</time>
      </trkpt>
      <trkpt lat="44.65644" lon="-0.8743">
        <ele>33.3</ele>
        <time>2012-04-16T15:14:51Z</time>
      </trkpt>
      <trkpt lat="44.65654" lon="-0.87427">
        <ele>33.3</ele>
        <time>2012-04-16T15:14:54Z</time>
      </trkpt>
      <trkpt lat="44.65665" lon="-0.87429">
        <ele>32.34</ele>
        <time>2012-04-16T15:14:58Z</time>
      </trkpt>
      <trkpt lat="44.65672" lon="-0.87442">
        <ele>32.82</ele>
        <time>2012-04-16T15:15:02Z</time>
      </trkpt>
      <trkpt lat="44.65673" lon="-0.87456">
        <ele>32.34</ele>
        <time>2012-04-16T15:15:05Z</time>
      </trkpt>
      <trkpt lat="44.65673" lon="-0.8747">
        <ele>32.82</ele>
        <time>2012-04-16T15:15:08Z</time>
      </trkpt>
      <trkpt lat="44.65674" lon="-0.87484">
        <ele>32.82</ele>
        <time>2012-04-16T15:15:11Z</time>
      </trkpt>
      <trkpt lat="44.65674" lon="-0.875">
        <ele>32.34</ele>
        <time>2012-04-16T15:15:14Z</time>
      </trkpt>
      <trkpt lat="44.65674" lon="-0.87516">
        <ele>32.82</ele>
        <time>2012-04-16T15:15:17Z</time>
      </trkpt>
      <trkpt lat="44.65673" lon="-0.87533">
        <ele>33.3</ele>
        <time>2012-04-16T15:15:20Z</time>
      </trkpt>
      <trkpt lat="44.65674" lon="-0.87551">
        <ele>32.82</ele>
        <time>2012-04-16T15:15:23Z</time>
      </trkpt>
      <trkpt lat="44.65675" lon="-0.87568">
        <ele>32.82</ele>
        <time>2012-04-16T15:15:26Z</time>
      </trkpt>
      <trkpt lat="44.65677" lon="-0.87584">
        <ele>33.3</ele>
        <time>2012-04-16T15:15:29Z</time>
      </trkpt>
      <trkpt lat="44.65678" lon="-0.876">
        <ele>32.82</ele>
        <time>2012-04-16T15:15:32Z</time>
      </trkpt>
      <trkpt lat="44.65678" lon="-0.87615">
        <ele>32.34</ele>
        <time>2012-04-16T15:15:35Z</time>
      </trkpt>
      <trkpt lat="44.65678" lon="-0.87631">
        <ele>32.82</ele>
        <time>2012-04-16T15:15:38Z</time>
      </trkpt>
      <trkpt lat="44.65679" lon="-0.87646">
        <ele>32.82</ele>
        <time>2012-04-16T15:15:41Z</time>
      </trkpt>
      <trkpt lat="44.65679" lon="-0.8766">
        <ele>32.82</ele>
        <time>2012-04-16T15:15:44Z</time>
      </trkpt>
      <trkpt lat="44.6568" lon="-0.87674">
        <ele>32.82</ele>
        <time>2012-04-16T15:15:47Z</time>
      </trkpt>
      <trkpt lat="44.65681" lon="-0.87686">
        <ele>32.82</ele>
        <time>2012-04-16T15:15:50Z</time>
      </trkpt>
      <trkpt lat="44.65681" lon="-0.877">
        <ele>32.82</ele>
        <time>2012-04-16T15:15:53Z</time>
      </trkpt>
      <trkpt lat="44.65681" lon="-0.87715">
        <ele>32.82</ele>
        <time>2012-04-16T15:15:56Z</time>
      </trkpt>
      <trkpt lat="44.65681" lon="-0.87729">
        <ele>32.34</ele>
        <time>2012-04-16T15:15:59Z</time>
      </trkpt>
      <trkpt lat="44.65681" lon="-0.87744">
        <ele>32.34</ele>
        <time>2012-04-16T15:16:02Z</time>
      </trkpt>
      <trkpt lat="44.65682" lon="-0.87759">
        <ele>32.34</ele>
        <time>2012-04-16T15:16:05Z</time>
      </trkpt>
      <trkpt lat="44.65682" lon="-0.87775">
        <ele>32.82</ele>
        <time>2012-04-16T15:16:08Z</time>
      </trkpt>
      <trkpt lat="44.65682" lon="-0.87791">
        <ele>32.34</ele>
        <time>2012-04-16T15:16:11Z</time>
      </trkpt>
      <trkpt lat="44.65682" lon="-0.87807">
        <ele>32.34</ele>
        <time>2012-04-16T15:16:14Z</time>
      </trkpt>
      <trkpt lat="44.65684" lon="-0.87823">
        <ele>31.86</ele>
        <time>2012-04-16T15:16:17Z</time>
      </trkpt>
      <trkpt lat="44.65683" lon="-0.87839">
        <ele>32.34</ele>
        <time>2012-04-16T15:16:20Z</time>
      </trkpt>
      <trkpt lat="44.65684" lon="-0.87854">
        <ele>32.34</ele>
        <time>2012-04-16T15:16:23Z</time>
      </trkpt>
      <trkpt lat="44.65685" lon="-0.8787">
        <ele>31.86</ele>
        <time>2012-04-16T15:16:27Z</time>
      </trkpt>
      <trkpt lat="44.6568" lon="-0.87879">
        <ele>31.86</ele>
        <time>2012-04-16T15:16:31Z</time>
      </trkpt>
      <trkpt lat="44.65671" lon="-0.87884">
        <ele>31.86</ele>
        <time>2012-04-16T15:16:35Z</time>
      </trkpt>
      <trkpt lat="44.65662" lon="-0.87889">
        <ele>32.82</ele>
        <time>2012-04-16T15:16:39Z</time>
      </trkpt>
      <trkpt lat="44.65652" lon="-0.87895">
        <ele>33.3</ele>
        <time>2012-04-16T15:16:44Z</time>
      </trkpt>
      <trkpt lat="44.65643" lon="-0.879">
        <ele>33.3</ele>
        <time>2012-04-16T15:16:48Z</time>
      </trkpt>
      <trkpt lat="44.65634" lon="-0.87906">
        <ele>33.3</ele>
        <time>2012-04-16T15:16:52Z</time>
      </trkpt>
      <trkpt lat="44.65625" lon="-0.87912">
        <ele>32.34</ele>
        <time>2012-04-16T15:16:56Z</time>
      </trkpt>
      <trkpt lat="44.65614" lon="-0.87918">
        <ele>30.9</ele>
        <time>2012-04-16T15:17:00Z</time>
      </trkpt>
      <trkpt lat="44.65608" lon="-0.87925">
        <ele>30.42</ele>
        <time>2012-04-16T15:17:11Z</time>
      </trkpt>
      <trkpt lat="44.65597" lon="-0.87929">
        <ele>29.46</ele>
        <time>2012-04-16T15:17:18Z</time>
      </trkpt>
      <trkpt lat="44.65586" lon="-0.87934">
        <ele>29.46</ele>
        <time>2012-04-16T15:17:25Z</time>
      </trkpt>
      <trkpt lat="44.65575" lon="-0.87932">
        <ele>29.46</ele>
        <time>2012-04-16T15:17:44Z</time>
      </trkpt>
      <trkpt lat="44.6557" lon="-0.87944">
        <ele>28.98</ele>
        <time>2012-04-16T15:17:58Z</time>
      </trkpt>
      <trkpt lat="44.65559" lon="-0.8795">
        <ele>28.98</ele>
        <time>2012-04-16T15:18:05Z</time>
      </trkpt>
      <trkpt lat="44.65551" lon="-0.87954">
        <ele>28.5</ele>
        <time>2012-04-16T15:18:19Z</time>
      </trkpt>
      <trkpt lat="44.65543" lon="-0.87959">
        <ele>28.5</ele>
        <time>2012-04-16T15:18:35Z</time>
      </trkpt>
      <trkpt lat="44.65532" lon="-0.87966">
        <ele>28.98</ele>
        <time>2012-04-16T15:18:46Z</time>
      </trkpt>
      <trkpt lat="44.6552" lon="-0.87973">
        <ele>29.94</ele>
        <time>2012-04-16T15:18:53Z</time>
      </trkpt>
      <trkpt lat="44.65514" lon="-0.87976">
        <ele>32.34</ele>
        <time>2012-04-16T15:19:28Z</time>
      </trkpt>
      <trkpt lat="44.65507" lon="-0.87982">
        <ele>33.3</ele>
        <time>2012-04-16T15:19:52Z</time>
      </trkpt>
      <trkpt lat="44.65496" lon="-0.87991">
        <ele>34.26</ele>
        <time>2012-04-16T15:19:59Z</time>
      </trkpt>
      <trkpt lat="44.65495" lon="-0.88006">
        <ele>33.78</ele>
        <time>2012-04-16T15:20:05Z</time>
      </trkpt>
      <trkpt lat="44.65496" lon="-0.88021">
        <ele>32.82</ele>
        <time>2012-04-16T15:20:10Z</time>
      </trkpt>
      <trkpt lat="44.65497" lon="-0.88035">
        <ele>30.9</ele>
        <time>2012-04-16T15:20:16Z</time>
      </trkpt>
      <trkpt lat="44.65498" lon="-0.88039">
        <ele>29.94</ele>
        <time>2012-04-16T15:21:20Z</time>
      </trkpt>
      <trkpt lat="44.65498" lon="-0.88055">
        <ele>29.46</ele>
        <time>2012-04-16T15:21:30Z</time>
      </trkpt>
      <trkpt lat="44.65494" lon="-0.8807">
        <ele>28.98</ele>
        <time>2012-04-16T15:21:36Z</time>
      </trkpt>
      <trkpt lat="44.65485" lon="-0.88079">
        <ele>28.5</ele>
        <time>2012-04-16T15:21:42Z</time>
      </trkpt>
      <trkpt lat="44.65475" lon="-0.88077">
        <ele>27.53</ele>
        <time>2012-04-16T15:21:50Z</time>
      </trkpt>
      <trkpt lat="44.65465" lon="-0.88075">
        <ele>27.53</ele>
        <time>2012-04-16T15:21:58Z</time>
      </trkpt>
      <trkpt lat="44.65458" lon="-0.88087">
        <ele>27.53</ele>
        <time>2012-04-16T15:22:05Z</time>
      </trkpt>
      <trkpt lat="44.65451" lon="-0.88097">
        <ele>27.05</ele>
        <time>2012-04-16T15:22:11Z</time>
      </trkpt>
      <trkpt lat="44.65444" lon="-0.88108">
        <ele>27.05</ele>
        <time>2012-04-16T15:22:17Z</time>
      </trkpt>
      <trkpt lat="44.65436" lon="-0.88118">
        <ele>27.05</ele>
        <time>2012-04-16T15:22:21Z</time>
      </trkpt>
      <trkpt lat="44.65428" lon="-0.88129">
        <ele>26.57</ele>
        <time>2012-04-16T15:22:25Z</time>
      </trkpt>
      <trkpt lat="44.65419" lon="-0.8814">
        <ele>26.57</ele>
        <time>2012-04-16T15:22:29Z</time>
      </trkpt>
      <trkpt lat="44.65411" lon="-0.8815">
        <ele>26.57</ele>
        <time>2012-04-16T15:22:33Z</time>
      </trkpt>
      <trkpt lat="44.65401" lon="-0.88159">
        <ele>26.09</ele>
        <time>2012-04-16T15:22:37Z</time>
      </trkpt>
      <trkpt lat="44.65393" lon="-0.88171">
        <ele>26.09</ele>
        <time>2012-04-16T15:22:41Z</time>
      </trkpt>
      <trkpt lat="44.65386" lon="-0.88184">
        <ele>26.09</ele>
        <time>2012-04-16T15:22:45Z</time>
      </trkpt>
      <trkpt lat="44.65385" lon="-0.882">
        <ele>26.09</ele>
        <time>2012-04-16T15:22:49Z</time>
      </trkpt>
      <trkpt lat="44.65384" lon="-0.88216">
        <ele>26.09</ele>
        <time>2012-04-16T15:22:54Z</time>
      </trkpt>
      <trkpt lat="44.65375" lon="-0.88228">
        <ele>25.61</ele>
        <time>2012-04-16T15:22:59Z</time>
      </trkpt>
      <trkpt lat="44.65368" lon="-0.88239">
        <ele>25.13</ele>
        <time>2012-04-16T15:23:03Z</time>
      </trkpt>
      <trkpt lat="44.6536" lon="-0.88249">
        <ele>25.13</ele>
        <time>2012-04-16T15:23:07Z</time>
      </trkpt>
      <trkpt lat="44.65353" lon="-0.88259">
        <ele>25.13</ele>
        <time>2012-04-16T15:23:11Z</time>
      </trkpt>
      <trkpt lat="44.65344" lon="-0.88269">
        <ele>25.13</ele>
        <time>2012-04-16T15:23:15Z</time>
      </trkpt>
      <trkpt lat="44.65334" lon="-0.88276">
        <ele>25.13</ele>
        <time>2012-04-16T15:23:19Z</time>
      </trkpt>
      <trkpt lat="44.65325" lon="-0.88286">
        <ele>25.13</ele>
        <time>2012-04-16T15:23:23Z</time>
      </trkpt>
      <trkpt lat="44.65316" lon="-0.88295">
        <ele>24.65</ele>
        <time>2012-04-16T15:23:27Z</time>
      </trkpt>
      <trkpt lat="44.65306" lon="-0.88306">
        <ele>24.65</ele>
        <time>2012-04-16T15:23:31Z</time>
      </trkpt>
      <trkpt lat="44.65297" lon="-0.88317">
        <ele>24.17</ele>
        <time>2012-04-16T15:23:35Z</time>
      </trkpt>
      <trkpt lat="44.65289" lon="-0.88326">
        <ele>24.17</ele>
        <time>2012-04-16T15:23:39Z</time>
      </trkpt>
      <trkpt lat="44.65282" lon="-0.88334">
        <ele>24.17</ele>
        <time>2012-04-16T15:23:44Z</time>
      </trkpt>
      <trkpt lat="44.6528" lon="-0.88351">
        <ele>24.65</ele>
        <time>2012-04-16T15:23:49Z</time>
      </trkpt>
      <trkpt lat="44.65279" lon="-0.88366">
        <ele>24.17</ele>
        <time>2012-04-16T15:23:53Z</time>
      </trkpt>
      <trkpt lat="44.65277" lon="-0.88381">
        <ele>25.13</ele>
        <time>2012-04-16T15:23:57Z</time>
      </trkpt>
      <trkpt lat="44.65275" lon="-0.88397">
        <ele>25.13</ele>
        <time>2012-04-16T15:24:01Z</time>
      </trkpt>
      <trkpt lat="44.65274" lon="-0.88412">
        <ele>25.61</ele>
        <time>2012-04-16T15:24:05Z</time>
      </trkpt>
      <trkpt lat="44.65273" lon="-0.88425">
        <ele>25.13</ele>
        <time>2012-04-16T15:24:08Z</time>
      </trkpt>
      <trkpt lat="44.65272" lon="-0.88438">
        <ele>25.13</ele>
        <time>2012-04-16T15:24:11Z</time>
      </trkpt>
      <trkpt lat="44.65271" lon="-0.88452">
        <ele>25.61</ele>
        <time>2012-04-16T15:24:14Z</time>
      </trkpt>
      <trkpt lat="44.6527" lon="-0.88467">
        <ele>25.61</ele>
        <time>2012-04-16T15:24:17Z</time>
      </trkpt>
      <trkpt lat="44.65268" lon="-0.88481">
        <ele>25.61</ele>
        <time>2012-04-16T15:24:20Z</time>
      </trkpt>
      <trkpt lat="44.65266" lon="-0.88496">
        <ele>26.09</ele>
        <time>2012-04-16T15:24:23Z</time>
      </trkpt>
      <trkpt lat="44.65265" lon="-0.8851">
        <ele>26.09</ele>
        <time>2012-04-16T15:24:26Z</time>
      </trkpt>
      <trkpt lat="44.65264" lon="-0.88525">
        <ele>26.09</ele>
        <time>2012-04-16T15:24:29Z</time>
      </trkpt>
      <trkpt lat="44.65263" lon="-0.8854">
        <ele>26.09</ele>
        <time>2012-04-16T15:24:32Z</time>
      </trkpt>
      <trkpt lat="44.65262" lon="-0.88555">
        <ele>25.61</ele>
        <time>2012-04-16T15:24:35Z</time>
      </trkpt>
      <trkpt lat="44.6526" lon="-0.8857">
        <ele>26.09</ele>
        <time>2012-04-16T15:24:38Z</time>
      </trkpt>
      <trkpt lat="44.65258" lon="-0.88584">
        <ele>25.61</ele>
        <time>2012-04-16T15:24:41Z</time>
      </trkpt>
      <trkpt lat="44.65257" lon="-0.88598">
        <ele>25.13</ele>
        <time>2012-04-16T15:24:44Z</time>
      </trkpt>
      <trkpt lat="44.65255" lon="-0.88613">
        <ele>25.13</ele>
        <time>2012-04-16T15:24:47Z</time>
      </trkpt>
      <trkpt lat="44.65254" lon="-0.88628">
        <ele>24.65</ele>
        <time>2012-04-16T15:24:50Z</time>
      </trkpt>
      <trkpt lat="44.65253" lon="-0.88642">
        <ele>24.65</ele>
        <time>2012-04-16T15:24:53Z</time>
      </trkpt>
      <trkpt lat="44.65251" lon="-0.88657">
        <ele>24.65</ele>
        <time>2012-04-16T15:24:56Z</time>
      </trkpt>
      <trkpt lat="44.65251" lon="-0.88671">
        <ele>24.65</ele>
        <time>2012-04-16T15:24:59Z</time>
      </trkpt>
      <trkpt lat="44.6525" lon="-0.88684">
        <ele>24.17</ele>
        <time>2012-04-16T15:25:02Z</time>
      </trkpt>
      <trkpt lat="44.65247" lon="-0.887">
        <ele>24.65</ele>
        <time>2012-04-16T15:25:06Z</time>
      </trkpt>
      <trkpt lat="44.65246" lon="-0.88718">
        <ele>25.13</ele>
        <time>2012-04-16T15:25:10Z</time>
      </trkpt>
      <trkpt lat="44.65243" lon="-0.88732">
        <ele>25.13</ele>
        <time>2012-04-16T15:25:14Z</time>
      </trkpt>
      <trkpt lat="44.65241" lon="-0.88748">
        <ele>25.13</ele>
        <time>2012-04-16T15:25:18Z</time>
      </trkpt>
      <trkpt lat="44.65239" lon="-0.88761">
        <ele>25.13</ele>
        <time>2012-04-16T15:25:21Z</time>
      </trkpt>
      <trkpt lat="44.65237" lon="-0.88778">
        <ele>24.65</ele>
        <time>2012-04-16T15:25:25Z</time>
      </trkpt>
      <trkpt lat="44.65236" lon="-0.88791">
        <ele>24.17</ele>
        <time>2012-04-16T15:25:28Z</time>
      </trkpt>
      <trkpt lat="44.65235" lon="-0.88805">
        <ele>24.17</ele>
        <time>2012-04-16T15:25:31Z</time>
      </trkpt>
      <trkpt lat="44.65234" lon="-0.88819">
        <ele>24.17</ele>
        <time>2012-04-16T15:25:34Z</time>
      </trkpt>
      <trkpt lat="44.65232" lon="-0.88834">
        <ele>24.17</ele>
        <time>2012-04-16T15:25:37Z</time>
      </trkpt>
      <trkpt lat="44.65231" lon="-0.8885">
        <ele>23.69</ele>
        <time>2012-04-16T15:25:40Z</time>
      </trkpt>
      <trkpt lat="44.65231" lon="-0.88865">
        <ele>24.17</ele>
        <time>2012-04-16T15:25:43Z</time>
      </trkpt>
      <trkpt lat="44.65229" lon="-0.88881">
        <ele>24.17</ele>
        <time>2012-04-16T15:25:46Z</time>
      </trkpt>
      <trkpt lat="44.65228" lon="-0.88896">
        <ele>24.17</ele>
        <time>2012-04-16T15:25:49Z</time>
      </trkpt>
      <trkpt lat="44.65227" lon="-0.8891">
        <ele>24.65</ele>
        <time>2012-04-16T15:25:52Z</time>
      </trkpt>
      <trkpt lat="44.65226" lon="-0.88926">
        <ele>24.17</ele>
        <time>2012-04-16T15:25:55Z</time>
      </trkpt>
      <trkpt lat="44.65224" lon="-0.88941">
        <ele>24.17</ele>
        <time>2012-04-16T15:25:58Z</time>
      </trkpt>
      <trkpt lat="44.65223" lon="-0.88956">
        <ele>24.17</ele>
        <time>2012-04-16T15:26:01Z</time>
      </trkpt>
      <trkpt lat="44.65221" lon="-0.88972">
        <ele>24.65</ele>
        <time>2012-04-16T15:26:04Z</time>
      </trkpt>
      <trkpt lat="44.6522" lon="-0.88987">
        <ele>24.17</ele>
        <time>2012-04-16T15:26:07Z</time>
      </trkpt>
      <trkpt lat="44.65217" lon="-0.89002">
        <ele>24.65</ele>
        <time>2012-04-16T15:26:10Z</time>
      </trkpt>
      <trkpt lat="44.65215" lon="-0.89017">
        <ele>24.65</ele>
        <time>2012-04-16T15:26:13Z</time>
      </trkpt>
      <trkpt lat="44.65213" lon="-0.89032">
        <ele>25.13</ele>
        <time>2012-04-16T15:26:16Z</time>
      </trkpt>
      <trkpt lat="44.65212" lon="-0.89046">
        <ele>25.61</ele>
        <time>2012-04-16T15:26:19Z</time>
      </trkpt>
      <trkpt lat="44.6521" lon="-0.8906">
        <ele>25.61</ele>
        <time>2012-04-16T15:26:22Z</time>
      </trkpt>
      <trkpt lat="44.65208" lon="-0.89076">
        <ele>25.13</ele>
        <time>2012-04-16T15:26:26Z</time>
      </trkpt>
      <trkpt lat="44.65215" lon="-0.89082">
        <ele>24.65</ele>
        <time>2012-04-16T15:26:31Z</time>
      </trkpt>
      <trkpt lat="44.65229" lon="-0.89058">
        <ele>25.13</ele>
        <time>2012-04-16T15:26:39Z</time>
      </trkpt>
      <trkpt lat="44.65238" lon="-0.89044">
        <ele>25.13</ele>
        <time>2012-04-16T15:26:43Z</time>
      </trkpt>
      <trkpt lat="44.65247" lon="-0.89031">
        <ele>24.65</ele>
        <time>2012-04-16T15:26:46Z</time>
      </trkpt>
      <trkpt lat="44.65256" lon="-0.8902">
        <ele>25.13</ele>
        <time>2012-04-16T15:26:49Z</time>
      </trkpt>
      <trkpt lat="44.65265" lon="-0.89009">
        <ele>24.65</ele>
        <time>2012-04-16T15:26:52Z</time>
      </trkpt>
      <trkpt lat="44.65274" lon="-0.88997">
        <ele>24.65</ele>
        <time>2012-04-16T15:26:55Z</time>
      </trkpt>
      <trkpt lat="44.65281" lon="-0.88986">
        <ele>24.65</ele>
        <time>2012-04-16T15:26:58Z</time>
      </trkpt>
      <trkpt lat="44.65289" lon="-0.88973">
        <ele>25.13</ele>
        <time>2012-04-16T15:27:01Z</time>
      </trkpt>
      <trkpt lat="44.65296" lon="-0.88961">
        <ele>25.61</ele>
        <time>2012-04-16T15:27:04Z</time>
      </trkpt>
      <trkpt lat="44.65303" lon="-0.88951">
        <ele>25.61</ele>
        <time>2012-04-16T15:27:07Z</time>
      </trkpt>
      <trkpt lat="44.6531" lon="-0.88941">
        <ele>25.61</ele>
        <time>2012-04-16T15:27:10Z</time>
      </trkpt>
      <trkpt lat="44.65318" lon="-0.8893">
        <ele>25.61</ele>
        <time>2012-04-16T15:27:13Z</time>
      </trkpt>
      <trkpt lat="44.65323" lon="-0.88918">
        <ele>25.61</ele>
        <time>2012-04-16T15:27:16Z</time>
      </trkpt>
      <trkpt lat="44.65329" lon="-0.88908">
        <ele>25.13</ele>
        <time>2012-04-16T15:27:19Z</time>
      </trkpt>
      <trkpt lat="44.65336" lon="-0.88898">
        <ele>25.13</ele>
        <time>2012-04-16T15:27:22Z</time>
      </trkpt>
      <trkpt lat="44.65344" lon="-0.88887">
        <ele>24.65</ele>
        <time>2012-04-16T15:27:25Z</time>
      </trkpt>
      <trkpt lat="44.65355" lon="-0.88883">
        <ele>26.09</ele>
        <time>2012-04-16T15:27:28Z</time>
      </trkpt>
      <trkpt lat="44.65366" lon="-0.88884">
        <ele>25.61</ele>
        <time>2012-04-16T15:27:31Z</time>
      </trkpt>
      <trkpt lat="44.65373" lon="-0.88892">
        <ele>25.61</ele>
        <time>2012-04-16T15:27:34Z</time>
      </trkpt>
      <trkpt lat="44.6538" lon="-0.889">
        <ele>24.65</ele>
        <time>2012-04-16T15:27:37Z</time>
      </trkpt>
      <trkpt lat="44.65387" lon="-0.88908">
        <ele>25.13</ele>
        <time>2012-04-16T15:27:40Z</time>
      </trkpt>
      <trkpt lat="44.65397" lon="-0.88916">
        <ele>26.09</ele>
        <time>2012-04-16T15:27:44Z</time>
      </trkpt>
      <trkpt lat="44.65406" lon="-0.88924">
        <ele>25.61</ele>
        <time>2012-04-16T15:27:48Z</time>
      </trkpt>
      <trkpt lat="44.65415" lon="-0.88935">
        <ele>26.09</ele>
        <time>2012-04-16T15:27:52Z</time>
      </trkpt>
      <trkpt lat="44.65423" lon="-0.88944">
        <ele>26.57</ele>
        <time>2012-04-16T15:27:56Z</time>
      </trkpt>
      <trkpt lat="44.65433" lon="-0.88952">
        <ele>26.09</ele>
        <time>2012-04-16T15:28:00Z</time>
      </trkpt>
      <trkpt lat="44.65443" lon="-0.8896">
        <ele>25.61</ele>
        <time>2012-04-16T15:28:04Z</time>
      </trkpt>
      <trkpt lat="44.65453" lon="-0.88964">
        <ele>25.13</ele>
        <time>2012-04-16T15:28:08Z</time>
      </trkpt>
      <trkpt lat="44.65467" lon="-0.88958">
        <ele>23.21</ele>
        <time>2012-04-16T15:28:12Z</time>
      </trkpt>
      <trkpt lat="44.65478" lon="-0.88944">
        <ele>23.69</ele>
        <time>2012-04-16T15:28:16Z</time>
      </trkpt>
      <trkpt lat="44.65485" lon="-0.88929">
        <ele>24.17</ele>
        <time>2012-04-16T15:28:20Z</time>
      </trkpt>
      <trkpt lat="44.65488" lon="-0.88915">
        <ele>24.17</ele>
        <time>2012-04-16T15:28:24Z</time>
      </trkpt>
      <trkpt lat="44.65496" lon="-0.88903">
        <ele>22.25</ele>
        <time>2012-04-16T15:28:28Z</time>
      </trkpt>
      <trkpt lat="44.65503" lon="-0.88885">
        <ele>20.32</ele>
        <time>2012-04-16T15:28:32Z</time>
      </trkpt>
      <trkpt lat="44.6551" lon="-0.8887">
        <ele>20.81</ele>
        <time>2012-04-16T15:28:35Z</time>
      </trkpt>
      <trkpt lat="44.65517" lon="-0.88854">
        <ele>20.32</ele>
        <time>2012-04-16T15:28:39Z</time>
      </trkpt>
      <trkpt lat="44.65525" lon="-0.88843">
        <ele>19.84</ele>
        <time>2012-04-16T15:28:42Z</time>
      </trkpt>
      <trkpt lat="44.65536" lon="-0.88835">
        <ele>17.44</ele>
        <time>2012-04-16T15:28:45Z</time>
      </trkpt>
      <trkpt lat="44.65548" lon="-0.88826">
        <ele>17.92</ele>
        <time>2012-04-16T15:28:48Z</time>
      </trkpt>
      <trkpt lat="44.65556" lon="-0.88819">
        <ele>19.84</ele>
        <time>2012-04-16T15:28:51Z</time>
      </trkpt>
      <trkpt lat="44.65564" lon="-0.88814">
        <ele>21.77</ele>
        <time>2012-04-16T15:28:55Z</time>
      </trkpt>
      <trkpt lat="44.65573" lon="-0.88809">
        <ele>23.21</ele>
        <time>2012-04-16T15:29:02Z</time>
      </trkpt>
      <trkpt lat="44.65583" lon="-0.88806">
        <ele>24.65</ele>
        <time>2012-04-16T15:29:08Z</time>
      </trkpt>
      <trkpt lat="44.65593" lon="-0.88803">
        <ele>24.17</ele>
        <time>2012-04-16T15:29:13Z</time>
      </trkpt>
      <trkpt lat="44.65602" lon="-0.88799">
        <ele>25.13</ele>
        <time>2012-04-16T15:29:18Z</time>
      </trkpt>
      <trkpt lat="44.65612" lon="-0.8879">
        <ele>25.13</ele>
        <time>2012-04-16T15:29:23Z</time>
      </trkpt>
      <trkpt lat="44.65618" lon="-0.8878">
        <ele>25.13</ele>
        <time>2012-04-16T15:29:28Z</time>
      </trkpt>
      <trkpt lat="44.65625" lon="-0.88769">
        <ele>24.65</ele>
        <time>2012-04-16T15:29:33Z</time>
      </trkpt>
      <trkpt lat="44.65628" lon="-0.88757">
        <ele>25.13</ele>
        <time>2012-04-16T15:29:37Z</time>
      </trkpt>
      <trkpt lat="44.65628" lon="-0.88743">
        <ele>25.13</ele>
        <time>2012-04-16T15:29:42Z</time>
      </trkpt>
      <trkpt lat="44.65624" lon="-0.88731">
        <ele>25.13</ele>
        <time>2012-04-16T15:29:47Z</time>
      </trkpt>
      <trkpt lat="44.65621" lon="-0.88718">
        <ele>24.65</ele>
        <time>2012-04-16T15:29:51Z</time>
      </trkpt>
      <trkpt lat="44.65617" lon="-0.88704">
        <ele>24.65</ele>
        <time>2012-04-16T15:29:56Z</time>
      </trkpt>
      <trkpt lat="44.65615" lon="-0.88688">
        <ele>25.13</ele>
        <time>2012-04-16T15:30:01Z</time>
      </trkpt>
      <trkpt lat="44.65612" lon="-0.88676">
        <ele>25.61</ele>
        <time>2012-04-16T15:30:05Z</time>
      </trkpt>
      <trkpt lat="44.6561" lon="-0.88661">
        <ele>26.09</ele>
        <time>2012-04-16T15:30:09Z</time>
      </trkpt>
      <trkpt lat="44.65608" lon="-0.88646">
        <ele>26.09</ele>
        <time>2012-04-16T15:30:13Z</time>
      </trkpt>
      <trkpt lat="44.65605" lon="-0.88632">
        <ele>27.05</ele>
        <time>2012-04-16T15:30:17Z</time>
      </trkpt>
      <trkpt lat="44.65602" lon="-0.88616">
        <ele>26.57</ele>
        <time>2012-04-16T15:30:21Z</time>
      </trkpt>
      <trkpt lat="44.65599" lon="-0.88601">
        <ele>26.57</ele>
        <time>2012-04-16T15:30:25Z</time>
      </trkpt>
      <trkpt lat="44.65595" lon="-0.88589">
        <ele>26.57</ele>
        <time>2012-04-16T15:30:28Z</time>
      </trkpt>
      <trkpt lat="44.65593" lon="-0.88575">
        <ele>26.09</ele>
        <time>2012-04-16T15:30:31Z</time>
      </trkpt>
      <trkpt lat="44.65589" lon="-0.8856">
        <ele>25.61</ele>
        <time>2012-04-16T15:30:34Z</time>
      </trkpt>
      <trkpt lat="44.65586" lon="-0.88546">
        <ele>26.09</ele>
        <time>2012-04-16T15:30:37Z</time>
      </trkpt>
      <trkpt lat="44.65583" lon="-0.88533">
        <ele>26.09</ele>
        <time>2012-04-16T15:30:40Z</time>
      </trkpt>
      <trkpt lat="44.65581" lon="-0.8852">
        <ele>26.09</ele>
        <time>2012-04-16T15:30:43Z</time>
      </trkpt>
      <trkpt lat="44.65577" lon="-0.88506">
        <ele>25.61</ele>
        <time>2012-04-16T15:30:47Z</time>
      </trkpt>
      <trkpt lat="44.65581" lon="-0.88493">
        <ele>25.61</ele>
        <time>2012-04-16T15:30:51Z</time>
      </trkpt>
      <trkpt lat="44.6559" lon="-0.88482">
        <ele>26.09</ele>
        <time>2012-04-16T15:30:55Z</time>
      </trkpt>
      <trkpt lat="44.656" lon="-0.88475">
        <ele>26.57</ele>
        <time>2012-04-16T15:30:59Z</time>
      </trkpt>
      <trkpt lat="44.6561" lon="-0.88466">
        <ele>27.05</ele>
        <time>2012-04-16T15:31:03Z</time>
      </trkpt>
      <trkpt lat="44.65619" lon="-0.88458">
        <ele>27.53</ele>
        <time>2012-04-16T15:31:07Z</time>
      </trkpt>
      <trkpt lat="44.65628" lon="-0.88449">
        <ele>27.53</ele>
        <time>2012-04-16T15:31:11Z</time>
      </trkpt>
      <trkpt lat="44.65637" lon="-0.88441">
        <ele>27.53</ele>
        <time>2012-04-16T15:31:15Z</time>
      </trkpt>
      <trkpt lat="44.65647" lon="-0.88432">
        <ele>27.53</ele>
        <time>2012-04-16T15:31:19Z</time>
      </trkpt>
      <trkpt lat="44.65657" lon="-0.88425">
        <ele>27.53</ele>
        <time>2012-04-16T15:31:23Z</time>
      </trkpt>
      <trkpt lat="44.65666" lon="-0.88421">
        <ele>27.53</ele>
        <time>2012-04-16T15:31:26Z</time>
      </trkpt>
      <trkpt lat="44.65678" lon="-0.88422">
        <ele>27.53</ele>
        <time>2012-04-16T15:31:30Z</time>
      </trkpt>
      <trkpt lat="44.65689" lon="-0.88425">
        <ele>27.05</ele>
        <time>2012-04-16T15:31:33Z</time>
      </trkpt>
      <trkpt lat="44.657" lon="-0.88425">
        <ele>27.05</ele>
        <time>2012-04-16T15:31:36Z</time>
      </trkpt>
      <trkpt lat="44.65709" lon="-0.8842">
        <ele>27.53</ele>
        <time>2012-04-16T15:31:39Z</time>
      </trkpt>
      <trkpt lat="44.65719" lon="-0.88416">
        <ele>27.05</ele>
        <time>2012-04-16T15:31:43Z</time>
      </trkpt>
      <trkpt lat="44.65729" lon="-0.88411">
        <ele>27.53</ele>
        <time>2012-04-16T15:31:48Z</time>
      </trkpt>
      <trkpt lat="44.65739" lon="-0.88403">
        <ele>27.05</ele>
        <time>2012-04-16T15:31:52Z</time>
      </trkpt>
      <trkpt lat="44.65748" lon="-0.88397">
        <ele>27.53</ele>
        <time>2012-04-16T15:31:55Z</time>
      </trkpt>
      <trkpt lat="44.65758" lon="-0.8839">
        <ele>28.5</ele>
        <time>2012-04-16T15:31:59Z</time>
      </trkpt>
      <trkpt lat="44.65766" lon="-0.88382">
        <ele>28.02</ele>
        <time>2012-04-16T15:32:02Z</time>
      </trkpt>
      <trkpt lat="44.65776" lon="-0.88374">
        <ele>28.02</ele>
        <time>2012-04-16T15:32:06Z</time>
      </trkpt>
      <trkpt lat="44.65787" lon="-0.88369">
        <ele>28.02</ele>
        <time>2012-04-16T15:32:10Z</time>
      </trkpt>
      <trkpt lat="44.65797" lon="-0.88365">
        <ele>28.02</ele>
        <time>2012-04-16T15:32:14Z</time>
      </trkpt>
      <trkpt lat="44.65807" lon="-0.8836">
        <ele>28.02</ele>
        <time>2012-04-16T15:32:18Z</time>
      </trkpt>
      <trkpt lat="44.65815" lon="-0.88355">
        <ele>27.53</ele>
        <time>2012-04-16T15:32:21Z</time>
      </trkpt>
      <trkpt lat="44.65826" lon="-0.88348">
        <ele>28.5</ele>
        <time>2012-04-16T15:32:25Z</time>
      </trkpt>
      <trkpt lat="44.65835" lon="-0.88342">
        <ele>28.02</ele>
        <time>2012-04-16T15:32:29Z</time>
      </trkpt>
      <trkpt lat="44.65845" lon="-0.88336">
        <ele>28.02</ele>
        <time>2012-04-16T15:32:33Z</time>
      </trkpt>
      <trkpt lat="44.65856" lon="-0.88326">
        <ele>28.02</ele>
        <time>2012-04-16T15:32:37Z</time>
      </trkpt>
      <trkpt lat="44.65863" lon="-0.88317">
        <ele>28.02</ele>
        <time>2012-04-16T15:32:40Z</time>
      </trkpt>
      <trkpt lat="44.65869" lon="-0.88307">
        <ele>28.02</ele>
        <time>2012-04-16T15:32:43Z</time>
      </trkpt>
      <trkpt lat="44.65876" lon="-0.88297">
        <ele>28.02</ele>
        <time>2012-04-16T15:32:46Z</time>
      </trkpt>
      <trkpt lat="44.65883" lon="-0.88288">
        <ele>28.02</ele>
        <time>2012-04-16T15:32:49Z</time>
      </trkpt>
      <trkpt lat="44.65889" lon="-0.88278">
        <ele>27.53</ele>
        <time>2012-04-16T15:32:52Z</time>
      </trkpt>
      <trkpt lat="44.65896" lon="-0.88268">
        <ele>28.02</ele>
        <time>2012-04-16T15:32:55Z</time>
      </trkpt>
      <trkpt lat="44.65904" lon="-0.88258">
        <ele>28.98</ele>
        <time>2012-04-16T15:32:59Z</time>
      </trkpt>
      <trkpt lat="44.65913" lon="-0.88249">
        <ele>28.5</ele>
        <time>2012-04-16T15:33:03Z</time>
      </trkpt>
      <trkpt lat="44.65923" lon="-0.8824">
        <ele>28.5</ele>
        <time>2012-04-16T15:33:07Z</time>
      </trkpt>
      <trkpt lat="44.65931" lon="-0.88233">
        <ele>28.98</ele>
        <time>2012-04-16T15:33:11Z</time>
      </trkpt>
      <trkpt lat="44.6594" lon="-0.88224">
        <ele>29.46</ele>
        <time>2012-04-16T15:33:16Z</time>
      </trkpt>
      <trkpt lat="44.65948" lon="-0.88217">
        <ele>29.46</ele>
        <time>2012-04-16T15:33:20Z</time>
      </trkpt>
      <trkpt lat="44.65957" lon="-0.88209">
        <ele>29.46</ele>
        <time>2012-04-16T15:33:24Z</time>
      </trkpt>
      <trkpt lat="44.65967" lon="-0.88199">
        <ele>29.46</ele>
        <time>2012-04-16T15:33:28Z</time>
      </trkpt>
      <trkpt lat="44.65975" lon="-0.88192">
        <ele>29.46</ele>
        <time>2012-04-16T15:33:31Z</time>
      </trkpt>
      <trkpt lat="44.65984" lon="-0.88186">
        <ele>28.98</ele>
        <time>2012-04-16T15:33:35Z</time>
      </trkpt>
      <trkpt lat="44.65994" lon="-0.88182">
        <ele>30.42</ele>
        <time>2012-04-16T15:33:40Z</time>
      </trkpt>
      <trkpt lat="44.65995" lon="-0.88197">
        <ele>29.46</ele>
        <time>2012-04-16T15:33:45Z</time>
      </trkpt>
      <trkpt lat="44.65994" lon="-0.88215">
        <ele>29.46</ele>
        <time>2012-04-16T15:33:49Z</time>
      </trkpt>
      <trkpt lat="44.65994" lon="-0.88229">
        <ele>28.98</ele>
        <time>2012-04-16T15:33:52Z</time>
      </trkpt>
      <trkpt lat="44.65993" lon="-0.88244">
        <ele>28.5</ele>
        <time>2012-04-16T15:33:55Z</time>
      </trkpt>
      <trkpt lat="44.65992" lon="-0.88258">
        <ele>28.98</ele>
        <time>2012-04-16T15:33:58Z</time>
      </trkpt>
      <trkpt lat="44.65991" lon="-0.88274">
        <ele>28.98</ele>
        <time>2012-04-16T15:34:01Z</time>
      </trkpt>
      <trkpt lat="44.6599" lon="-0.88289">
        <ele>28.98</ele>
        <time>2012-04-16T15:34:04Z</time>
      </trkpt>
      <trkpt lat="44.65989" lon="-0.88305">
        <ele>28.98</ele>
        <time>2012-04-16T15:34:07Z</time>
      </trkpt>
      <trkpt lat="44.65987" lon="-0.88322">
        <ele>28.5</ele>
        <time>2012-04-16T15:34:10Z</time>
      </trkpt>
      <trkpt lat="44.65985" lon="-0.8834">
        <ele>28.98</ele>
        <time>2012-04-16T15:34:13Z</time>
      </trkpt>
      <trkpt lat="44.65984" lon="-0.88357">
        <ele>28.02</ele>
        <time>2012-04-16T15:34:16Z</time>
      </trkpt>
      <trkpt lat="44.65983" lon="-0.88373">
        <ele>28.02</ele>
        <time>2012-04-16T15:34:19Z</time>
      </trkpt>
      <trkpt lat="44.65981" lon="-0.88391">
        <ele>27.53</ele>
        <time>2012-04-16T15:34:22Z</time>
      </trkpt>
      <trkpt lat="44.65981" lon="-0.88406">
        <ele>27.53</ele>
        <time>2012-04-16T15:34:25Z</time>
      </trkpt>
      <trkpt lat="44.65979" lon="-0.88422">
        <ele>27.53</ele>
        <time>2012-04-16T15:34:28Z</time>
      </trkpt>
      <trkpt lat="44.65981" lon="-0.88425">
        <ele>28.02</ele>
        <time>2012-04-16T15:35:01Z</time>
      </trkpt>
      <trkpt lat="44.65991" lon="-0.88429">
        <ele>27.53</ele>
        <time>2012-04-16T15:35:06Z</time>
      </trkpt>
      <trkpt lat="44.66" lon="-0.88434">
        <ele>27.53</ele>
        <time>2012-04-16T15:35:10Z</time>
      </trkpt>
      <trkpt lat="44.6601" lon="-0.88413">
        <ele>27.53</ele>
        <time>2012-04-16T15:35:16Z</time>
      </trkpt>
      <trkpt lat="44.66022" lon="-0.88406">
        <ele>28.5</ele>
        <time>2012-04-16T15:35:20Z</time>
      </trkpt>
      <trkpt lat="44.66032" lon="-0.88405">
        <ele>28.5</ele>
        <time>2012-04-16T15:35:24Z</time>
      </trkpt>
      <trkpt lat="44.66043" lon="-0.88407">
        <ele>28.5</ele>
        <time>2012-04-16T15:35:29Z</time>
      </trkpt>
      <trkpt lat="44.66053" lon="-0.88405">
        <ele>28.5</ele>
        <time>2012-04-16T15:35:33Z</time>
      </trkpt>
      <trkpt lat="44.66064" lon="-0.88402">
        <ele>28.5</ele>
        <time>2012-04-16T15:35:37Z</time>
      </trkpt>
      <trkpt lat="44.66074" lon="-0.88403">
        <ele>28.02</ele>
        <time>2012-04-16T15:35:40Z</time>
      </trkpt>
      <trkpt lat="44.66085" lon="-0.88405">
        <ele>28.02</ele>
        <time>2012-04-16T15:35:43Z</time>
      </trkpt>
      <trkpt lat="44.66095" lon="-0.88407">
        <ele>27.53</ele>
        <time>2012-04-16T15:35:46Z</time>
      </trkpt>
      <trkpt lat="44.66104" lon="-0.88411">
        <ele>27.05</ele>
        <time>2012-04-16T15:35:49Z</time>
      </trkpt>
      <trkpt lat="44.66115" lon="-0.88412">
        <ele>26.57</ele>
        <time>2012-04-16T15:35:53Z</time>
      </trkpt>
      <trkpt lat="44.66125" lon="-0.88423">
        <ele>24.65</ele>
        <time>2012-04-16T15:35:57Z</time>
      </trkpt>
      <trkpt lat="44.66129" lon="-0.88436">
        <ele>25.13</ele>
        <time>2012-04-16T15:36:01Z</time>
      </trkpt>
      <trkpt lat="44.66131" lon="-0.88448">
        <ele>26.57</ele>
        <time>2012-04-16T15:36:06Z</time>
      </trkpt>
      <trkpt lat="44.66138" lon="-0.88457">
        <ele>28.02</ele>
        <time>2012-04-16T15:36:12Z</time>
      </trkpt>
      <trkpt lat="44.66148" lon="-0.88455">
        <ele>28.02</ele>
        <time>2012-04-16T15:36:19Z</time>
      </trkpt>
      <trkpt lat="44.66158" lon="-0.88451">
        <ele>28.5</ele>
        <time>2012-04-16T15:36:24Z</time>
      </trkpt>
      <trkpt lat="44.66168" lon="-0.88446">
        <ele>28.5</ele>
        <time>2012-04-16T15:36:28Z</time>
      </trkpt>
      <trkpt lat="44.66178" lon="-0.88443">
        <ele>28.98</ele>
        <time>2012-04-16T15:36:32Z</time>
      </trkpt>
      <trkpt lat="44.66189" lon="-0.8844">
        <ele>28.98</ele>
        <time>2012-04-16T15:36:36Z</time>
      </trkpt>
      <trkpt lat="44.66199" lon="-0.88441">
        <ele>28.98</ele>
        <time>2012-04-16T15:36:40Z</time>
      </trkpt>
      <trkpt lat="44.66211" lon="-0.88441">
        <ele>28.98</ele>
        <time>2012-04-16T15:36:44Z</time>
      </trkpt>
      <trkpt lat="44.66223" lon="-0.88441">
        <ele>28.98</ele>
        <time>2012-04-16T15:36:49Z</time>
      </trkpt>
      <trkpt lat="44.66231" lon="-0.88446">
        <ele>28.5</ele>
        <time>2012-04-16T15:36:52Z</time>
      </trkpt>
      <trkpt lat="44.6624" lon="-0.88448">
        <ele>28.02</ele>
        <time>2012-04-16T15:36:55Z</time>
      </trkpt>
      <trkpt lat="44.66252" lon="-0.88453">
        <ele>28.02</ele>
        <time>2012-04-16T15:36:59Z</time>
      </trkpt>
      <trkpt lat="44.66265" lon="-0.88457">
        <ele>25.61</ele>
        <time>2012-04-16T15:37:03Z</time>
      </trkpt>
      <trkpt lat="44.66274" lon="-0.88465">
        <ele>25.61</ele>
        <time>2012-04-16T15:37:07Z</time>
      </trkpt>
      <trkpt lat="44.66275" lon="-0.88478">
        <ele>27.05</ele>
        <time>2012-04-16T15:37:11Z</time>
      </trkpt>
      <trkpt lat="44.66275" lon="-0.88496">
        <ele>25.61</ele>
        <time>2012-04-16T15:37:16Z</time>
      </trkpt>
      <trkpt lat="44.66279" lon="-0.88513">
        <ele>25.61</ele>
        <time>2012-04-16T15:37:20Z</time>
      </trkpt>
      <trkpt lat="44.66288" lon="-0.88526">
        <ele>26.57</ele>
        <time>2012-04-16T15:37:24Z</time>
      </trkpt>
      <trkpt lat="44.66294" lon="-0.8854">
        <ele>27.53</ele>
        <time>2012-04-16T15:37:29Z</time>
      </trkpt>
      <trkpt lat="44.663" lon="-0.88552">
        <ele>27.05</ele>
        <time>2012-04-16T15:37:33Z</time>
      </trkpt>
      <trkpt lat="44.66302" lon="-0.88569">
        <ele>26.09</ele>
        <time>2012-04-16T15:37:37Z</time>
      </trkpt>
      <trkpt lat="44.66309" lon="-0.88583">
        <ele>25.61</ele>
        <time>2012-04-16T15:37:41Z</time>
      </trkpt>
      <trkpt lat="44.6632" lon="-0.88591">
        <ele>25.13</ele>
        <time>2012-04-16T15:37:44Z</time>
      </trkpt>
      <trkpt lat="44.6633" lon="-0.88596">
        <ele>25.61</ele>
        <time>2012-04-16T15:37:47Z</time>
      </trkpt>
      <trkpt lat="44.6634" lon="-0.88601">
        <ele>26.57</ele>
        <time>2012-04-16T15:37:50Z</time>
      </trkpt>
      <trkpt lat="44.66349" lon="-0.88606">
        <ele>26.57</ele>
        <time>2012-04-16T15:37:53Z</time>
      </trkpt>
      <trkpt lat="44.66358" lon="-0.88613">
        <ele>25.61</ele>
        <time>2012-04-16T15:37:56Z</time>
      </trkpt>
      <trkpt lat="44.66366" lon="-0.88625">
        <ele>23.69</ele>
        <time>2012-04-16T15:37:59Z</time>
      </trkpt>
      <trkpt lat="44.66373" lon="-0.88643">
        <ele>21.77</ele>
        <time>2012-04-16T15:38:02Z</time>
      </trkpt>
      <trkpt lat="44.66376" lon="-0.88662">
        <ele>21.77</ele>
        <time>2012-04-16T15:38:05Z</time>
      </trkpt>
      <trkpt lat="44.66382" lon="-0.88675">
        <ele>22.25</ele>
        <time>2012-04-16T15:38:08Z</time>
      </trkpt>
      <trkpt lat="44.66389" lon="-0.88683">
        <ele>22.73</ele>
        <time>2012-04-16T15:38:11Z</time>
      </trkpt>
      <trkpt lat="44.66398" lon="-0.8869">
        <ele>22.25</ele>
        <time>2012-04-16T15:38:14Z</time>
      </trkpt>
      <trkpt lat="44.66406" lon="-0.88688">
        <ele>23.69</ele>
        <time>2012-04-16T15:38:17Z</time>
      </trkpt>
      <trkpt lat="44.66412" lon="-0.8868">
        <ele>25.13</ele>
        <time>2012-04-16T15:38:21Z</time>
      </trkpt>
      <trkpt lat="44.66415" lon="-0.88665">
        <ele>25.61</ele>
        <time>2012-04-16T15:38:28Z</time>
      </trkpt>
      <trkpt lat="44.66422" lon="-0.88657">
        <ele>25.13</ele>
        <time>2012-04-16T15:39:32Z</time>
      </trkpt>
      <trkpt lat="44.66431" lon="-0.88649">
        <ele>25.13</ele>
        <time>2012-04-16T15:39:39Z</time>
      </trkpt>
      <trkpt lat="44.66441" lon="-0.88643">
        <ele>25.13</ele>
        <time>2012-04-16T15:39:44Z</time>
      </trkpt>
      <trkpt lat="44.66452" lon="-0.8864">
        <ele>24.17</ele>
        <time>2012-04-16T15:39:48Z</time>
      </trkpt>
      <trkpt lat="44.66463" lon="-0.8864">
        <ele>22.73</ele>
        <time>2012-04-16T15:39:51Z</time>
      </trkpt>
      <trkpt lat="44.66474" lon="-0.88639">
        <ele>22.73</ele>
        <time>2012-04-16T15:39:54Z</time>
      </trkpt>
      <trkpt lat="44.66486" lon="-0.88642">
        <ele>22.25</ele>
        <time>2012-04-16T15:39:59Z</time>
      </trkpt>
      <trkpt lat="44.66497" lon="-0.88644">
        <ele>22.73</ele>
        <time>2012-04-16T15:40:04Z</time>
      </trkpt>
      <trkpt lat="44.66508" lon="-0.88644">
        <ele>22.73</ele>
        <time>2012-04-16T15:40:08Z</time>
      </trkpt>
      <trkpt lat="44.66519" lon="-0.88641">
        <ele>23.21</ele>
        <time>2012-04-16T15:40:12Z</time>
      </trkpt>
      <trkpt lat="44.66528" lon="-0.88632">
        <ele>22.73</ele>
        <time>2012-04-16T15:40:16Z</time>
      </trkpt>
      <trkpt lat="44.66536" lon="-0.88622">
        <ele>22.73</ele>
        <time>2012-04-16T15:40:20Z</time>
      </trkpt>
      <trkpt lat="44.66544" lon="-0.88614">
        <ele>22.25</ele>
        <time>2012-04-16T15:40:24Z</time>
      </trkpt>
      <trkpt lat="44.66554" lon="-0.88604">
        <ele>22.25</ele>
        <time>2012-04-16T15:40:28Z</time>
      </trkpt>
      <trkpt lat="44.66565" lon="-0.88599">
        <ele>22.73</ele>
        <time>2012-04-16T15:40:32Z</time>
      </trkpt>
      <trkpt lat="44.66574" lon="-0.88594">
        <ele>22.73</ele>
        <time>2012-04-16T15:40:35Z</time>
      </trkpt>
      <trkpt lat="44.66585" lon="-0.8859">
        <ele>22.73</ele>
        <time>2012-04-16T15:40:38Z</time>
      </trkpt>
      <trkpt lat="44.66596" lon="-0.88585">
        <ele>23.21</ele>
        <time>2012-04-16T15:40:42Z</time>
      </trkpt>
      <trkpt lat="44.66604" lon="-0.88576">
        <ele>23.21</ele>
        <time>2012-04-16T15:40:45Z</time>
      </trkpt>
      <trkpt lat="44.6661" lon="-0.88564">
        <ele>23.21</ele>
        <time>2012-04-16T15:40:48Z</time>
      </trkpt>
      <trkpt lat="44.66616" lon="-0.88554">
        <ele>23.21</ele>
        <time>2012-04-16T15:40:51Z</time>
      </trkpt>
      <trkpt lat="44.66623" lon="-0.8854">
        <ele>23.21</ele>
        <time>2012-04-16T15:40:55Z</time>
      </trkpt>
      <trkpt lat="44.66628" lon="-0.88525">
        <ele>23.69</ele>
        <time>2012-04-16T15:40:59Z</time>
      </trkpt>
      <trkpt lat="44.66637" lon="-0.88514">
        <ele>23.69</ele>
        <time>2012-04-16T15:41:03Z</time>
      </trkpt>
      <trkpt lat="44.66644" lon="-0.88505">
        <ele>24.17</ele>
        <time>2012-04-16T15:41:07Z</time>
      </trkpt>
      <trkpt lat="44.66652" lon="-0.88496">
        <ele>23.69</ele>
        <time>2012-04-16T15:41:11Z</time>
      </trkpt>
      <trkpt lat="44.66662" lon="-0.88488">
        <ele>24.17</ele>
        <time>2012-04-16T15:41:15Z</time>
      </trkpt>
      <trkpt lat="44.66672" lon="-0.88486">
        <ele>24.65</ele>
        <time>2012-04-16T15:41:20Z</time>
      </trkpt>
      <trkpt lat="44.6668" lon="-0.88481">
        <ele>24.65</ele>
        <time>2012-04-16T15:41:41Z</time>
      </trkpt>
      <trkpt lat="44.66691" lon="-0.88478">
        <ele>25.13</ele>
        <time>2012-04-16T15:41:45Z</time>
      </trkpt>
      <trkpt lat="44.66703" lon="-0.88475">
        <ele>24.17</ele>
        <time>2012-04-16T15:41:49Z</time>
      </trkpt>
      <trkpt lat="44.66715" lon="-0.88476">
        <ele>24.17</ele>
        <time>2012-04-16T15:41:53Z</time>
      </trkpt>
      <trkpt lat="44.66724" lon="-0.88478">
        <ele>24.17</ele>
        <time>2012-04-16T15:41:56Z</time>
      </trkpt>
      <trkpt lat="44.66732" lon="-0.88479">
        <ele>24.65</ele>
        <time>2012-04-16T15:42:11Z</time>
      </trkpt>
      <trkpt lat="44.66736" lon="-0.88469">
        <ele>23.69</ele>
        <time>2012-04-16T15:42:17Z</time>
      </trkpt>
      <trkpt lat="44.6674" lon="-0.88457">
        <ele>23.69</ele>
        <time>2012-04-16T15:42:22Z</time>
      </trkpt>
      <trkpt lat="44.6675" lon="-0.88457">
        <ele>23.21</ele>
        <time>2012-04-16T15:42:28Z</time>
      </trkpt>
      <trkpt lat="44.6676" lon="-0.88461">
        <ele>22.25</ele>
        <time>2012-04-16T15:42:32Z</time>
      </trkpt>
      <trkpt lat="44.66769" lon="-0.88451">
        <ele>22.73</ele>
        <time>2012-04-16T15:42:38Z</time>
      </trkpt>
      <trkpt lat="44.66782" lon="-0.88437">
        <ele>24.17</ele>
        <time>2012-04-16T15:42:44Z</time>
      </trkpt>
      <trkpt lat="44.66794" lon="-0.88431">
        <ele>26.09</ele>
        <time>2012-04-16T15:42:57Z</time>
      </trkpt>
      <trkpt lat="44.66802" lon="-0.88419">
        <ele>27.53</ele>
        <time>2012-04-16T15:43:09Z</time>
      </trkpt>
      <trkpt lat="44.66812" lon="-0.88418">
        <ele>21.77</ele>
        <time>2012-04-16T15:43:17Z</time>
      </trkpt>
      <trkpt lat="44.66824" lon="-0.88417">
        <ele>21.77</ele>
        <time>2012-04-16T15:43:21Z</time>
      </trkpt>
      <trkpt lat="44.66835" lon="-0.88406">
        <ele>22.73</ele>
        <time>2012-04-16T15:43:27Z</time>
      </trkpt>
      <trkpt lat="44.66852" lon="-0.88399">
        <ele>21.77</ele>
        <time>2012-04-16T15:43:32Z</time>
      </trkpt>
      <trkpt lat="44.66865" lon="-0.88393">
        <ele>20.81</ele>
        <time>2012-04-16T15:43:36Z</time>
      </trkpt>
      <trkpt lat="44.66875" lon="-0.88392">
        <ele>21.29</ele>
        <time>2012-04-16T15:43:40Z</time>
      </trkpt>
      <trkpt lat="44.66889" lon="-0.88388">
        <ele>21.77</ele>
        <time>2012-04-16T15:43:45Z</time>
      </trkpt>
      <trkpt lat="44.669" lon="-0.88379">
        <ele>21.77</ele>
        <time>2012-04-16T15:43:51Z</time>
      </trkpt>
      <trkpt lat="44.66909" lon="-0.88373">
        <ele>21.29</ele>
        <time>2012-04-16T15:43:56Z</time>
      </trkpt>
      <trkpt lat="44.66918" lon="-0.88364">
        <ele>21.29</ele>
        <time>2012-04-16T15:44:00Z</time>
      </trkpt>
      <trkpt lat="44.66928" lon="-0.88358">
        <ele>20.81</ele>
        <time>2012-04-16T15:44:04Z</time>
      </trkpt>
      <trkpt lat="44.66937" lon="-0.88348">
        <ele>20.81</ele>
        <time>2012-04-16T15:44:08Z</time>
      </trkpt>
      <trkpt lat="44.66942" lon="-0.88335">
        <ele>21.29</ele>
        <time>2012-04-16T15:44:12Z</time>
      </trkpt>
      <trkpt lat="44.66943" lon="-0.88317">
        <ele>21.29</ele>
        <time>2012-04-16T15:44:16Z</time>
      </trkpt>
      <trkpt lat="44.66944" lon="-0.883">
        <ele>21.77</ele>
        <time>2012-04-16T15:44:20Z</time>
      </trkpt>
      <trkpt lat="44.66946" lon="-0.88286">
        <ele>21.77</ele>
        <time>2012-04-16T15:44:23Z</time>
      </trkpt>
      <trkpt lat="44.66948" lon="-0.88272">
        <ele>22.25</ele>
        <time>2012-04-16T15:44:26Z</time>
      </trkpt>
      <trkpt lat="44.66951" lon="-0.8826">
        <ele>21.77</ele>
        <time>2012-04-16T15:44:29Z</time>
      </trkpt>
      <trkpt lat="44.66955" lon="-0.88248">
        <ele>22.25</ele>
        <time>2012-04-16T15:44:32Z</time>
      </trkpt>
      <trkpt lat="44.66956" lon="-0.88234">
        <ele>22.25</ele>
        <time>2012-04-16T15:44:35Z</time>
      </trkpt>
      <trkpt lat="44.66958" lon="-0.88218">
        <ele>21.77</ele>
        <time>2012-04-16T15:44:39Z</time>
      </trkpt>
      <trkpt lat="44.66963" lon="-0.88209">
        <ele>21.29</ele>
        <time>2012-04-16T15:44:43Z</time>
      </trkpt>
      <trkpt lat="44.66969" lon="-0.88203">
        <ele>22.25</ele>
        <time>2012-04-16T15:44:49Z</time>
      </trkpt>
      <trkpt lat="44.66979" lon="-0.88198">
        <ele>21.77</ele>
        <time>2012-04-16T15:44:54Z</time>
      </trkpt>
      <trkpt lat="44.66986" lon="-0.88185">
        <ele>22.25</ele>
        <time>2012-04-16T15:45:01Z</time>
      </trkpt>
      <trkpt lat="44.66988" lon="-0.88163">
        <ele>23.21</ele>
        <time>2012-04-16T15:45:07Z</time>
      </trkpt>
      <trkpt lat="44.66986" lon="-0.88145">
        <ele>24.65</ele>
        <time>2012-04-16T15:45:13Z</time>
      </trkpt>
      <trkpt lat="44.66979" lon="-0.88126">
        <ele>24.17</ele>
        <time>2012-04-16T15:45:18Z</time>
      </trkpt>
      <trkpt lat="44.66973" lon="-0.88116">
        <ele>24.17</ele>
        <time>2012-04-16T15:45:23Z</time>
      </trkpt>
      <trkpt lat="44.66967" lon="-0.88104">
        <ele>25.13</ele>
        <time>2012-04-16T15:45:30Z</time>
      </trkpt>
      <trkpt lat="44.66974" lon="-0.881">
        <ele>24.17</ele>
        <time>2012-04-16T15:45:38Z</time>
      </trkpt>
      <trkpt lat="44.66979" lon="-0.8809">
        <ele>23.69</ele>
        <time>2012-04-16T15:46:14Z</time>
      </trkpt>
      <trkpt lat="44.66975" lon="-0.88076">
        <ele>23.69</ele>
        <time>2012-04-16T15:46:22Z</time>
      </trkpt>
      <trkpt lat="44.6697" lon="-0.88064">
        <ele>24.65</ele>
        <time>2012-04-16T15:46:30Z</time>
      </trkpt>
      <trkpt lat="44.66971" lon="-0.88051">
        <ele>24.65</ele>
        <time>2012-04-16T15:46:55Z</time>
      </trkpt>
      <trkpt lat="44.66978" lon="-0.88037">
        <ele>24.65</ele>
        <time>2012-04-16T15:47:01Z</time>
      </trkpt>
      <trkpt lat="44.66987" lon="-0.8803">
        <ele>22.73</ele>
        <time>2012-04-16T15:47:05Z</time>
      </trkpt>
      <trkpt lat="44.66995" lon="-0.88019">
        <ele>22.73</ele>
        <time>2012-04-16T15:47:10Z</time>
      </trkpt>
      <trkpt lat="44.67001" lon="-0.88007">
        <ele>24.17</ele>
        <time>2012-04-16T15:47:15Z</time>
      </trkpt>
      <trkpt lat="44.67011" lon="-0.88003">
        <ele>23.21</ele>
        <time>2012-04-16T15:47:21Z</time>
      </trkpt>
      <trkpt lat="44.67025" lon="-0.88011">
        <ele>23.21</ele>
        <time>2012-04-16T15:47:25Z</time>
      </trkpt>
      <trkpt lat="44.67037" lon="-0.88013">
        <ele>22.73</ele>
        <time>2012-04-16T15:47:28Z</time>
      </trkpt>
      <trkpt lat="44.67047" lon="-0.88008">
        <ele>22.73</ele>
        <time>2012-04-16T15:47:32Z</time>
      </trkpt>
      <trkpt lat="44.67048" lon="-0.87993">
        <ele>24.17</ele>
        <time>2012-04-16T15:47:37Z</time>
      </trkpt>
      <trkpt lat="44.67044" lon="-0.87977">
        <ele>25.13</ele>
        <time>2012-04-16T15:47:41Z</time>
      </trkpt>
      <trkpt lat="44.67046" lon="-0.87963">
        <ele>26.09</ele>
        <time>2012-04-16T15:47:46Z</time>
      </trkpt>
      <trkpt lat="44.67048" lon="-0.87944">
        <ele>25.61</ele>
        <time>2012-04-16T15:47:51Z</time>
      </trkpt>
      <trkpt lat="44.67051" lon="-0.87924">
        <ele>23.69</ele>
        <time>2012-04-16T15:47:55Z</time>
      </trkpt>
      <trkpt lat="44.67054" lon="-0.87906">
        <ele>23.69</ele>
        <time>2012-04-16T15:47:58Z</time>
      </trkpt>
      <trkpt lat="44.67059" lon="-0.87891">
        <ele>23.69</ele>
        <time>2012-04-16T15:48:03Z</time>
      </trkpt>
      <trkpt lat="44.67066" lon="-0.87879">
        <ele>23.69</ele>
        <time>2012-04-16T15:48:08Z</time>
      </trkpt>
      <trkpt lat="44.67065" lon="-0.87865">
        <ele>26.09</ele>
        <time>2012-04-16T15:48:13Z</time>
      </trkpt>
      <trkpt lat="44.67056" lon="-0.8786">
        <ele>28.5</ele>
        <time>2012-04-16T15:48:20Z</time>
      </trkpt>
      <trkpt lat="44.67047" lon="-0.87852">
        <ele>30.9</ele>
        <time>2012-04-16T15:48:27Z</time>
      </trkpt>
      <trkpt lat="44.67041" lon="-0.87844">
        <ele>30.9</ele>
        <time>2012-04-16T15:48:33Z</time>
      </trkpt>
      <trkpt lat="44.67038" lon="-0.87831">
        <ele>31.38</ele>
        <time>2012-04-16T15:48:39Z</time>
      </trkpt>
      <trkpt lat="44.67038" lon="-0.87818">
        <ele>30.42</ele>
        <time>2012-04-16T15:48:46Z</time>
      </trkpt>
      <trkpt lat="44.67043" lon="-0.87798">
        <ele>29.46</ele>
        <time>2012-04-16T15:48:50Z</time>
      </trkpt>
      <trkpt lat="44.67049" lon="-0.87785">
        <ele>25.61</ele>
        <time>2012-04-16T15:48:53Z</time>
      </trkpt>
      <trkpt lat="44.67057" lon="-0.87769">
        <ele>26.09</ele>
        <time>2012-04-16T15:48:56Z</time>
      </trkpt>
      <trkpt lat="44.67067" lon="-0.87755">
        <ele>25.13</ele>
        <time>2012-04-16T15:48:59Z</time>
      </trkpt>
      <trkpt lat="44.67076" lon="-0.87742">
        <ele>24.65</ele>
        <time>2012-04-16T15:49:02Z</time>
      </trkpt>
      <trkpt lat="44.67081" lon="-0.87732">
        <ele>25.61</ele>
        <time>2012-04-16T15:49:06Z</time>
      </trkpt>
      <trkpt lat="44.67088" lon="-0.87719">
        <ele>25.13</ele>
        <time>2012-04-16T15:49:12Z</time>
      </trkpt>
      <trkpt lat="44.67101" lon="-0.87715">
        <ele>24.17</ele>
        <time>2012-04-16T15:49:18Z</time>
      </trkpt>
      <trkpt lat="44.67112" lon="-0.87715">
        <ele>24.17</ele>
        <time>2012-04-16T15:49:21Z</time>
      </trkpt>
      <trkpt lat="44.67121" lon="-0.8771">
        <ele>23.69</ele>
        <time>2012-04-16T15:49:25Z</time>
      </trkpt>
      <trkpt lat="44.67125" lon="-0.87699">
        <ele>24.65</ele>
        <time>2012-04-16T15:49:31Z</time>
      </trkpt>
      <trkpt lat="44.67135" lon="-0.87695">
        <ele>24.17</ele>
        <time>2012-04-16T15:49:37Z</time>
      </trkpt>
      <trkpt lat="44.67141" lon="-0.87685">
        <ele>25.13</ele>
        <time>2012-04-16T15:49:43Z</time>
      </trkpt>
      <trkpt lat="44.6715" lon="-0.87676">
        <ele>23.69</ele>
        <time>2012-04-16T15:49:50Z</time>
      </trkpt>
      <trkpt lat="44.67152" lon="-0.87661">
        <ele>25.13</ele>
        <time>2012-04-16T15:49:55Z</time>
      </trkpt>
      <trkpt lat="44.6715" lon="-0.87648">
        <ele>25.61</ele>
        <time>2012-04-16T15:50:00Z</time>
      </trkpt>
      <trkpt lat="44.67148" lon="-0.87633">
        <ele>26.09</ele>
        <time>2012-04-16T15:50:05Z</time>
      </trkpt>
      <trkpt lat="44.67147" lon="-0.87619">
        <ele>26.09</ele>
        <time>2012-04-16T15:50:11Z</time>
      </trkpt>
      <trkpt lat="44.67144" lon="-0.87607">
        <ele>27.05</ele>
        <time>2012-04-16T15:50:18Z</time>
      </trkpt>
      <trkpt lat="44.67141" lon="-0.87595">
        <ele>26.09</ele>
        <time>2012-04-16T15:50:26Z</time>
      </trkpt>
      <trkpt lat="44.67135" lon="-0.87584">
        <ele>26.09</ele>
        <time>2012-04-16T15:50:34Z</time>
      </trkpt>
      <trkpt lat="44.67129" lon="-0.87576">
        <ele>25.61</ele>
        <time>2012-04-16T15:50:40Z</time>
      </trkpt>
      <trkpt lat="44.67121" lon="-0.87567">
        <ele>25.61</ele>
        <time>2012-04-16T15:50:44Z</time>
      </trkpt>
      <trkpt lat="44.67112" lon="-0.87559">
        <ele>26.09</ele>
        <time>2012-04-16T15:50:48Z</time>
      </trkpt>
      <trkpt lat="44.67101" lon="-0.8755">
        <ele>26.57</ele>
        <time>2012-04-16T15:50:52Z</time>
      </trkpt>
      <trkpt lat="44.67093" lon="-0.87542">
        <ele>26.57</ele>
        <time>2012-04-16T15:50:55Z</time>
      </trkpt>
      <trkpt lat="44.67087" lon="-0.87531">
        <ele>27.05</ele>
        <time>2012-04-16T15:50:58Z</time>
      </trkpt>
      <trkpt lat="44.67085" lon="-0.87517">
        <ele>27.05</ele>
        <time>2012-04-16T15:51:01Z</time>
      </trkpt>
      <trkpt lat="44.67085" lon="-0.87501">
        <ele>27.53</ele>
        <time>2012-04-16T15:51:04Z</time>
      </trkpt>
      <trkpt lat="44.67088" lon="-0.87487">
        <ele>27.05</ele>
        <time>2012-04-16T15:51:07Z</time>
      </trkpt>
      <trkpt lat="44.67094" lon="-0.87475">
        <ele>28.02</ele>
        <time>2012-04-16T15:51:10Z</time>
      </trkpt>
      <trkpt lat="44.671" lon="-0.87463">
        <ele>28.02</ele>
        <time>2012-04-16T15:51:13Z</time>
      </trkpt>
      <trkpt lat="44.67105" lon="-0.87451">
        <ele>28.02</ele>
        <time>2012-04-16T15:51:16Z</time>
      </trkpt>
      <trkpt lat="44.67108" lon="-0.87437">
        <ele>29.46</ele>
        <time>2012-04-16T15:51:19Z</time>
      </trkpt>
      <trkpt lat="44.67107" lon="-0.87422">
        <ele>28.5</ele>
        <time>2012-04-16T15:51:22Z</time>
      </trkpt>
      <trkpt lat="44.67105" lon="-0.87406">
        <ele>28.5</ele>
        <time>2012-04-16T15:51:25Z</time>
      </trkpt>
      <trkpt lat="44.67102" lon="-0.87391">
        <ele>28.5</ele>
        <time>2012-04-16T15:51:28Z</time>
      </trkpt>
      <trkpt lat="44.671" lon="-0.87374">
        <ele>28.02</ele>
        <time>2012-04-16T15:51:31Z</time>
      </trkpt>
      <trkpt lat="44.67098" lon="-0.87356">
        <ele>28.5</ele>
        <time>2012-04-16T15:51:34Z</time>
      </trkpt>
      <trkpt lat="44.67096" lon="-0.87339">
        <ele>28.5</ele>
        <time>2012-04-16T15:51:37Z</time>
      </trkpt>
      <trkpt lat="44.67094" lon="-0.87322">
        <ele>28.98</ele>
        <time>2012-04-16T15:51:40Z</time>
      </trkpt>
      <trkpt lat="44.67093" lon="-0.87305">
        <ele>29.46</ele>
        <time>2012-04-16T15:51:43Z</time>
      </trkpt>
      <trkpt lat="44.67092" lon="-0.87289">
        <ele>29.94</ele>
        <time>2012-04-16T15:51:46Z</time>
      </trkpt>
      <trkpt lat="44.67091" lon="-0.87276">
        <ele>29.94</ele>
        <time>2012-04-16T15:51:49Z</time>
      </trkpt>
      <trkpt lat="44.6709" lon="-0.87262">
        <ele>30.42</ele>
        <time>2012-04-16T15:51:52Z</time>
      </trkpt>
      <trkpt lat="44.67089" lon="-0.87247">
        <ele>30.9</ele>
        <time>2012-04-16T15:51:55Z</time>
      </trkpt>
      <trkpt lat="44.67088" lon="-0.87233">
        <ele>30.42</ele>
        <time>2012-04-16T15:51:58Z</time>
      </trkpt>
      <trkpt lat="44.67088" lon="-0.87219">
        <ele>30.9</ele>
        <time>2012-04-16T15:52:01Z</time>
      </trkpt>
      <trkpt lat="44.67087" lon="-0.87205">
        <ele>30.9</ele>
        <time>2012-04-16T15:52:04Z</time>
      </trkpt>
      <trkpt lat="44.67086" lon="-0.87192">
        <ele>30.9</ele>
        <time>2012-04-16T15:52:07Z</time>
      </trkpt>
      <trkpt lat="44.67084" lon="-0.87178">
        <ele>30.9</ele>
        <time>2012-04-16T15:52:10Z</time>
      </trkpt>
      <trkpt lat="44.67083" lon="-0.87165">
        <ele>31.38</ele>
        <time>2012-04-16T15:52:13Z</time>
      </trkpt>
      <trkpt lat="44.67083" lon="-0.87149">
        <ele>30.42</ele>
        <time>2012-04-16T15:52:17Z</time>
      </trkpt>
      <trkpt lat="44.67098" lon="-0.87158">
        <ele>30.9</ele>
        <time>2012-04-16T15:52:23Z</time>
      </trkpt>
      <trkpt lat="44.67106" lon="-0.87177">
        <ele>30.9</ele>
        <time>2012-04-16T15:52:27Z</time>
      </trkpt>
      <trkpt lat="44.67111" lon="-0.87192">
        <ele>31.86</ele>
        <time>2012-04-16T15:52:31Z</time>
      </trkpt>
      <trkpt lat="44.67116" lon="-0.87206">
        <ele>33.3</ele>
        <time>2012-04-16T15:52:35Z</time>
      </trkpt>
      <trkpt lat="44.67123" lon="-0.87218">
        <ele>33.78</ele>
        <time>2012-04-16T15:52:39Z</time>
      </trkpt>
      <trkpt lat="44.67131" lon="-0.8723">
        <ele>31.38</ele>
        <time>2012-04-16T15:52:42Z</time>
      </trkpt>
      <trkpt lat="44.67137" lon="-0.87241">
        <ele>30.9</ele>
        <time>2012-04-16T15:52:44Z</time>
      </trkpt>
      <trkpt lat="44.67145" lon="-0.87256">
        <ele>31.38</ele>
        <time>2012-04-16T15:52:47Z</time>
      </trkpt>
      <trkpt lat="44.67153" lon="-0.8727">
        <ele>30.9</ele>
        <time>2012-04-16T15:52:50Z</time>
      </trkpt>
      <trkpt lat="44.6716" lon="-0.87284">
        <ele>31.38</ele>
        <time>2012-04-16T15:52:53Z</time>
      </trkpt>
      <trkpt lat="44.67165" lon="-0.87296">
        <ele>32.34</ele>
        <time>2012-04-16T15:52:56Z</time>
      </trkpt>
      <trkpt lat="44.67173" lon="-0.87308">
        <ele>33.3</ele>
        <time>2012-04-16T15:53:00Z</time>
      </trkpt>
      <trkpt lat="44.6718" lon="-0.8732">
        <ele>33.78</ele>
        <time>2012-04-16T15:53:04Z</time>
      </trkpt>
      <trkpt lat="44.67186" lon="-0.87331">
        <ele>33.78</ele>
        <time>2012-04-16T15:53:07Z</time>
      </trkpt>
      <trkpt lat="44.67192" lon="-0.87343">
        <ele>33.78</ele>
        <time>2012-04-16T15:53:10Z</time>
      </trkpt>
      <trkpt lat="44.67199" lon="-0.87355">
        <ele>33.78</ele>
        <time>2012-04-16T15:53:13Z</time>
      </trkpt>
      <trkpt lat="44.67205" lon="-0.87366">
        <ele>33.78</ele>
        <time>2012-04-16T15:53:16Z</time>
      </trkpt>
      <trkpt lat="44.67212" lon="-0.87379">
        <ele>33.78</ele>
        <time>2012-04-16T15:53:19Z</time>
      </trkpt>
      <trkpt lat="44.6722" lon="-0.87392">
        <ele>33.78</ele>
        <time>2012-04-16T15:53:22Z</time>
      </trkpt>
      <trkpt lat="44.67228" lon="-0.87406">
        <ele>34.26</ele>
        <time>2012-04-16T15:53:25Z</time>
      </trkpt>
      <trkpt lat="44.67235" lon="-0.87419">
        <ele>34.26</ele>
        <time>2012-04-16T15:53:28Z</time>
      </trkpt>
      <trkpt lat="44.67242" lon="-0.87432">
        <ele>33.78</ele>
        <time>2012-04-16T15:53:31Z</time>
      </trkpt>
      <trkpt lat="44.67249" lon="-0.87444">
        <ele>34.26</ele>
        <time>2012-04-16T15:53:34Z</time>
      </trkpt>
      <trkpt lat="44.67256" lon="-0.87457">
        <ele>32.82</ele>
        <time>2012-04-16T15:53:37Z</time>
      </trkpt>
      <trkpt lat="44.67262" lon="-0.87467">
        <ele>32.34</ele>
        <time>2012-04-16T15:53:39Z</time>
      </trkpt>
      <trkpt lat="44.67268" lon="-0.87477">
        <ele>31.38</ele>
        <time>2012-04-16T15:53:41Z</time>
      </trkpt>
      <trkpt lat="44.67274" lon="-0.87487">
        <ele>30.9</ele>
        <time>2012-04-16T15:53:43Z</time>
      </trkpt>
      <trkpt lat="44.67282" lon="-0.87502">
        <ele>31.38</ele>
        <time>2012-04-16T15:53:46Z</time>
      </trkpt>
      <trkpt lat="44.67287" lon="-0.87512">
        <ele>32.82</ele>
        <time>2012-04-16T15:53:49Z</time>
      </trkpt>
      <trkpt lat="44.67293" lon="-0.87526">
        <ele>33.3</ele>
        <time>2012-04-16T15:53:53Z</time>
      </trkpt>
      <trkpt lat="44.67299" lon="-0.87536">
        <ele>33.78</ele>
        <time>2012-04-16T15:53:56Z</time>
      </trkpt>
      <trkpt lat="44.67306" lon="-0.8755">
        <ele>32.34</ele>
        <time>2012-04-16T15:53:59Z</time>
      </trkpt>
      <trkpt lat="44.67311" lon="-0.87562">
        <ele>31.86</ele>
        <time>2012-04-16T15:54:01Z</time>
      </trkpt>
      <trkpt lat="44.67319" lon="-0.87576">
        <ele>30.42</ele>
        <time>2012-04-16T15:54:03Z</time>
      </trkpt>
      <trkpt lat="44.67327" lon="-0.87591">
        <ele>28.98</ele>
        <time>2012-04-16T15:54:05Z</time>
      </trkpt>
      <trkpt lat="44.67335" lon="-0.87603">
        <ele>27.53</ele>
        <time>2012-04-16T15:54:07Z</time>
      </trkpt>
      <trkpt lat="44.67344" lon="-0.87605">
        <ele>27.53</ele>
        <time>2012-04-16T15:54:09Z</time>
      </trkpt>
      <trkpt lat="44.67355" lon="-0.87601">
        <ele>27.53</ele>
        <time>2012-04-16T15:54:12Z</time>
      </trkpt>
      <trkpt lat="44.67364" lon="-0.87594">
        <ele>28.5</ele>
        <time>2012-04-16T15:54:16Z</time>
      </trkpt>
      <trkpt lat="44.67371" lon="-0.87585">
        <ele>29.46</ele>
        <time>2012-04-16T15:54:20Z</time>
      </trkpt>
      <trkpt lat="44.67406" lon="-0.87558">
        <ele>44.84</ele>
        <time>2012-04-16T15:59:32Z</time>
      </trkpt>
      <trkpt lat="44.67418" lon="-0.87562">
        <ele>42.92</ele>
        <time>2012-04-16T15:59:36Z</time>
      </trkpt>
      <trkpt lat="44.6743" lon="-0.87566">
        <ele>41.95</ele>
        <time>2012-04-16T15:59:40Z</time>
      </trkpt>
      <trkpt lat="44.6744" lon="-0.87563">
        <ele>41.47</ele>
        <time>2012-04-16T15:59:43Z</time>
      </trkpt>
      <trkpt lat="44.67448" lon="-0.87553">
        <ele>41.47</ele>
        <time>2012-04-16T15:59:47Z</time>
      </trkpt>
      <trkpt lat="44.67454" lon="-0.87536">
        <ele>41.47</ele>
        <time>2012-04-16T15:59:52Z</time>
      </trkpt>
      <trkpt lat="44.67455" lon="-0.87523">
        <ele>41.95</ele>
        <time>2012-04-16T15:59:58Z</time>
      </trkpt>
      <trkpt lat="44.67458" lon="-0.87511">
        <ele>42.44</ele>
        <time>2012-04-16T16:00:03Z</time>
      </trkpt>
      <trkpt lat="44.67461" lon="-0.87493">
        <ele>41.95</ele>
        <time>2012-04-16T16:00:07Z</time>
      </trkpt>
      <trkpt lat="44.67459" lon="-0.87478">
        <ele>42.44</ele>
        <time>2012-04-16T16:00:11Z</time>
      </trkpt>
      <trkpt lat="44.67452" lon="-0.87466">
        <ele>42.92</ele>
        <time>2012-04-16T16:00:15Z</time>
      </trkpt>
      <trkpt lat="44.67445" lon="-0.87453">
        <ele>43.88</ele>
        <time>2012-04-16T16:00:19Z</time>
      </trkpt>
      <trkpt lat="44.67442" lon="-0.87437">
        <ele>44.36</ele>
        <time>2012-04-16T16:00:23Z</time>
      </trkpt>
      <trkpt lat="44.67442" lon="-0.87423">
        <ele>44.36</ele>
        <time>2012-04-16T16:00:26Z</time>
      </trkpt>
      <trkpt lat="44.67442" lon="-0.8741">
        <ele>44.36</ele>
        <time>2012-04-16T16:00:29Z</time>
      </trkpt>
      <trkpt lat="44.67439" lon="-0.87397">
        <ele>44.84</ele>
        <time>2012-04-16T16:00:32Z</time>
      </trkpt>
      <trkpt lat="44.67434" lon="-0.87385">
        <ele>46.28</ele>
        <time>2012-04-16T16:00:36Z</time>
      </trkpt>
      <trkpt lat="44.67428" lon="-0.87372">
        <ele>46.76</ele>
        <time>2012-04-16T16:00:40Z</time>
      </trkpt>
      <trkpt lat="44.67419" lon="-0.87366">
        <ele>47.72</ele>
        <time>2012-04-16T16:00:43Z</time>
      </trkpt>
      <trkpt lat="44.67408" lon="-0.87367">
        <ele>48.2</ele>
        <time>2012-04-16T16:00:47Z</time>
      </trkpt>
      <trkpt lat="44.67403" lon="-0.87357">
        <ele>48.2</ele>
        <time>2012-04-16T16:00:54Z</time>
      </trkpt>
      <trkpt lat="44.67404" lon="-0.87338">
        <ele>48.2</ele>
        <time>2012-04-16T16:00:59Z</time>
      </trkpt>
      <trkpt lat="44.67403" lon="-0.87321">
        <ele>46.76</ele>
        <time>2012-04-16T16:01:03Z</time>
      </trkpt>
      <trkpt lat="44.67405" lon="-0.873">
        <ele>43.4</ele>
        <time>2012-04-16T16:01:07Z</time>
      </trkpt>
      <trkpt lat="44.67403" lon="-0.87282">
        <ele>44.84</ele>
        <time>2012-04-16T16:01:12Z</time>
      </trkpt>
      <trkpt lat="44.67406" lon="-0.87267">
        <ele>43.4</ele>
        <time>2012-04-16T16:01:18Z</time>
      </trkpt>
      <trkpt lat="44.6741" lon="-0.87251">
        <ele>43.4</ele>
        <time>2012-04-16T16:01:23Z</time>
      </trkpt>
      <trkpt lat="44.67414" lon="-0.87235">
        <ele>43.4</ele>
        <time>2012-04-16T16:01:27Z</time>
      </trkpt>
      <trkpt lat="44.67416" lon="-0.8722">
        <ele>43.4</ele>
        <time>2012-04-16T16:01:31Z</time>
      </trkpt>
      <trkpt lat="44.67419" lon="-0.87205">
        <ele>42.44</ele>
        <time>2012-04-16T16:01:35Z</time>
      </trkpt>
      <trkpt lat="44.67426" lon="-0.87194">
        <ele>42.92</ele>
        <time>2012-04-16T16:01:39Z</time>
      </trkpt>
      <trkpt lat="44.67433" lon="-0.87184">
        <ele>43.4</ele>
        <time>2012-04-16T16:01:44Z</time>
      </trkpt>
      <trkpt lat="44.67439" lon="-0.8717">
        <ele>43.88</ele>
        <time>2012-04-16T16:01:48Z</time>
      </trkpt>
      <trkpt lat="44.6744" lon="-0.87157">
        <ele>43.4</ele>
        <time>2012-04-16T16:01:51Z</time>
      </trkpt>
      <trkpt lat="44.67442" lon="-0.8714">
        <ele>44.36</ele>
        <time>2012-04-16T16:01:54Z</time>
      </trkpt>
      <trkpt lat="44.67444" lon="-0.87129">
        <ele>44.84</ele>
        <time>2012-04-16T16:01:58Z</time>
      </trkpt>
      <trkpt lat="44.67451" lon="-0.87122">
        <ele>44.36</ele>
        <time>2012-04-16T16:02:02Z</time>
      </trkpt>
      <trkpt lat="44.67453" lon="-0.87107">
        <ele>43.88</ele>
        <time>2012-04-16T16:02:06Z</time>
      </trkpt>
      <trkpt lat="44.67447" lon="-0.87096">
        <ele>45.32</ele>
        <time>2012-04-16T16:02:10Z</time>
      </trkpt>
      <trkpt lat="44.67436" lon="-0.87088">
        <ele>45.8</ele>
        <time>2012-04-16T16:02:15Z</time>
      </trkpt>
      <trkpt lat="44.6743" lon="-0.87076">
        <ele>46.28</ele>
        <time>2012-04-16T16:02:19Z</time>
      </trkpt>
      <trkpt lat="44.67425" lon="-0.8706">
        <ele>46.28</ele>
        <time>2012-04-16T16:02:23Z</time>
      </trkpt>
      <trkpt lat="44.67422" lon="-0.87047">
        <ele>46.76</ele>
        <time>2012-04-16T16:02:26Z</time>
      </trkpt>
      <trkpt lat="44.67419" lon="-0.87033">
        <ele>48.68</ele>
        <time>2012-04-16T16:02:32Z</time>
      </trkpt>
      <trkpt lat="44.67419" lon="-0.87017">
        <ele>48.68</ele>
        <time>2012-04-16T16:02:37Z</time>
      </trkpt>
      <trkpt lat="44.67413" lon="-0.87007">
        <ele>47.72</ele>
        <time>2012-04-16T16:02:41Z</time>
      </trkpt>
      <trkpt lat="44.67391" lon="-0.87026">
        <ele>47.72</ele>
        <time>2012-04-16T16:02:47Z</time>
      </trkpt>
      <trkpt lat="44.67378" lon="-0.8702">
        <ele>47.24</ele>
        <time>2012-04-16T16:02:51Z</time>
      </trkpt>
      <trkpt lat="44.67367" lon="-0.87017">
        <ele>47.72</ele>
        <time>2012-04-16T16:02:54Z</time>
      </trkpt>
      <trkpt lat="44.67358" lon="-0.87017">
        <ele>48.2</ele>
        <time>2012-04-16T16:02:57Z</time>
      </trkpt>
      <trkpt lat="44.67348" lon="-0.87003">
        <ele>47.72</ele>
        <time>2012-04-16T16:03:02Z</time>
      </trkpt>
      <trkpt lat="44.6734" lon="-0.86983">
        <ele>46.76</ele>
        <time>2012-04-16T16:03:06Z</time>
      </trkpt>
      <trkpt lat="44.67341" lon="-0.86961">
        <ele>46.76</ele>
        <time>2012-04-16T16:03:11Z</time>
      </trkpt>
      <trkpt lat="44.67338" lon="-0.86945">
        <ele>46.76</ele>
        <time>2012-04-16T16:03:14Z</time>
      </trkpt>
      <trkpt lat="44.67335" lon="-0.8693">
        <ele>46.76</ele>
        <time>2012-04-16T16:03:17Z</time>
      </trkpt>
      <trkpt lat="44.67333" lon="-0.86916">
        <ele>46.76</ele>
        <time>2012-04-16T16:03:20Z</time>
      </trkpt>
      <trkpt lat="44.67333" lon="-0.86903">
        <ele>46.76</ele>
        <time>2012-04-16T16:03:23Z</time>
      </trkpt>
      <trkpt lat="44.67339" lon="-0.86888">
        <ele>47.24</ele>
        <time>2012-04-16T16:03:26Z</time>
      </trkpt>
      <trkpt lat="44.67343" lon="-0.86873">
        <ele>47.24</ele>
        <time>2012-04-16T16:03:29Z</time>
      </trkpt>
      <trkpt lat="44.67344" lon="-0.86859">
        <ele>46.76</ele>
        <time>2012-04-16T16:03:32Z</time>
      </trkpt>
      <trkpt lat="44.67344" lon="-0.86843">
        <ele>46.76</ele>
        <time>2012-04-16T16:03:36Z</time>
      </trkpt>
      <trkpt lat="44.67343" lon="-0.86828">
        <ele>46.76</ele>
        <time>2012-04-16T16:03:40Z</time>
      </trkpt>
      <trkpt lat="44.67345" lon="-0.86813">
        <ele>46.76</ele>
        <time>2012-04-16T16:03:44Z</time>
      </trkpt>
      <trkpt lat="44.67351" lon="-0.86802">
        <ele>46.76</ele>
        <time>2012-04-16T16:03:48Z</time>
      </trkpt>
      <trkpt lat="44.67359" lon="-0.86788">
        <ele>46.76</ele>
        <time>2012-04-16T16:03:52Z</time>
      </trkpt>
      <trkpt lat="44.67357" lon="-0.86771">
        <ele>47.24</ele>
        <time>2012-04-16T16:03:56Z</time>
      </trkpt>
      <trkpt lat="44.67353" lon="-0.86758">
        <ele>47.24</ele>
        <time>2012-04-16T16:03:59Z</time>
      </trkpt>
      <trkpt lat="44.6735" lon="-0.86744">
        <ele>47.24</ele>
        <time>2012-04-16T16:04:02Z</time>
      </trkpt>
      <trkpt lat="44.67348" lon="-0.86731">
        <ele>46.76</ele>
        <time>2012-04-16T16:04:05Z</time>
      </trkpt>
      <trkpt lat="44.67343" lon="-0.86718">
        <ele>47.24</ele>
        <time>2012-04-16T16:04:08Z</time>
      </trkpt>
      <trkpt lat="44.67338" lon="-0.86705">
        <ele>46.76</ele>
        <time>2012-04-16T16:04:12Z</time>
      </trkpt>
      <trkpt lat="44.67343" lon="-0.86699">
        <ele>46.76</ele>
        <time>2012-04-16T16:04:17Z</time>
      </trkpt>
      <trkpt lat="44.67352" lon="-0.86703">
        <ele>47.24</ele>
        <time>2012-04-16T16:04:36Z</time>
      </trkpt>
      <trkpt lat="44.67363" lon="-0.86702">
        <ele>47.24</ele>
        <time>2012-04-16T16:04:58Z</time>
      </trkpt>
      <trkpt lat="44.67366" lon="-0.86717">
        <ele>47.24</ele>
        <time>2012-04-16T16:05:05Z</time>
      </trkpt>
      <trkpt lat="44.67363" lon="-0.86731">
        <ele>47.24</ele>
        <time>2012-04-16T16:05:09Z</time>
      </trkpt>
      <trkpt lat="44.67364" lon="-0.86746">
        <ele>47.72</ele>
        <time>2012-04-16T16:05:13Z</time>
      </trkpt>
      <trkpt lat="44.67368" lon="-0.86761">
        <ele>47.72</ele>
        <time>2012-04-16T16:05:17Z</time>
      </trkpt>
      <trkpt lat="44.67373" lon="-0.86773">
        <ele>47.24</ele>
        <time>2012-04-16T16:05:20Z</time>
      </trkpt>
      <trkpt lat="44.67374" lon="-0.86786">
        <ele>47.24</ele>
        <time>2012-04-16T16:05:23Z</time>
      </trkpt>
      <trkpt lat="44.6737" lon="-0.86803">
        <ele>47.24</ele>
        <time>2012-04-16T16:05:26Z</time>
      </trkpt>
      <trkpt lat="44.67365" lon="-0.86817">
        <ele>47.24</ele>
        <time>2012-04-16T16:05:29Z</time>
      </trkpt>
      <trkpt lat="44.67364" lon="-0.86832">
        <ele>47.24</ele>
        <time>2012-04-16T16:05:32Z</time>
      </trkpt>
      <trkpt lat="44.67364" lon="-0.86847">
        <ele>47.24</ele>
        <time>2012-04-16T16:05:35Z</time>
      </trkpt>
      <trkpt lat="44.67366" lon="-0.86864">
        <ele>47.24</ele>
        <time>2012-04-16T16:05:38Z</time>
      </trkpt>
      <trkpt lat="44.67368" lon="-0.86879">
        <ele>46.76</ele>
        <time>2012-04-16T16:05:41Z</time>
      </trkpt>
      <trkpt lat="44.67365" lon="-0.86892">
        <ele>46.76</ele>
        <time>2012-04-16T16:05:44Z</time>
      </trkpt>
      <trkpt lat="44.67358" lon="-0.86906">
        <ele>46.76</ele>
        <time>2012-04-16T16:05:47Z</time>
      </trkpt>
      <trkpt lat="44.67357" lon="-0.86923">
        <ele>46.76</ele>
        <time>2012-04-16T16:05:50Z</time>
      </trkpt>
      <trkpt lat="44.6736" lon="-0.86938">
        <ele>46.76</ele>
        <time>2012-04-16T16:05:53Z</time>
      </trkpt>
      <trkpt lat="44.67368" lon="-0.86951">
        <ele>46.28</ele>
        <time>2012-04-16T16:05:56Z</time>
      </trkpt>
      <trkpt lat="44.67377" lon="-0.86962">
        <ele>46.28</ele>
        <time>2012-04-16T16:05:59Z</time>
      </trkpt>
      <trkpt lat="44.67384" lon="-0.86973">
        <ele>46.28</ele>
        <time>2012-04-16T16:06:02Z</time>
      </trkpt>
      <trkpt lat="44.67389" lon="-0.86985">
        <ele>46.76</ele>
        <time>2012-04-16T16:06:05Z</time>
      </trkpt>
      <trkpt lat="44.67395" lon="-0.86995">
        <ele>45.8</ele>
        <time>2012-04-16T16:06:08Z</time>
      </trkpt>
      <trkpt lat="44.67404" lon="-0.86988">
        <ele>46.28</ele>
        <time>2012-04-16T16:06:12Z</time>
      </trkpt>
      <trkpt lat="44.67412" lon="-0.86957">
        <ele>46.28</ele>
        <time>2012-04-16T16:06:18Z</time>
      </trkpt>
      <trkpt lat="44.67431" lon="-0.86945">
        <ele>46.28</ele>
        <time>2012-04-16T16:06:23Z</time>
      </trkpt>
      <trkpt lat="44.67448" lon="-0.86938">
        <ele>46.28</ele>
        <time>2012-04-16T16:06:27Z</time>
      </trkpt>
      <trkpt lat="44.67456" lon="-0.86946">
        <ele>46.28</ele>
        <time>2012-04-16T16:06:30Z</time>
      </trkpt>
      <trkpt lat="44.67463" lon="-0.86956">
        <ele>45.32</ele>
        <time>2012-04-16T16:06:35Z</time>
      </trkpt>
      <trkpt lat="44.67469" lon="-0.8697">
        <ele>45.8</ele>
        <time>2012-04-16T16:06:44Z</time>
      </trkpt>
      <trkpt lat="44.67476" lon="-0.86992">
        <ele>45.32</ele>
        <time>2012-04-16T16:06:49Z</time>
      </trkpt>
      <trkpt lat="44.6748" lon="-0.87009">
        <ele>45.8</ele>
        <time>2012-04-16T16:06:52Z</time>
      </trkpt>
      <trkpt lat="44.6748" lon="-0.87024">
        <ele>46.28</ele>
        <time>2012-04-16T16:06:55Z</time>
      </trkpt>
      <trkpt lat="44.67475" lon="-0.87039">
        <ele>46.28</ele>
        <time>2012-04-16T16:06:58Z</time>
      </trkpt>
      <trkpt lat="44.67466" lon="-0.87051">
        <ele>46.28</ele>
        <time>2012-04-16T16:07:01Z</time>
      </trkpt>
      <trkpt lat="44.67461" lon="-0.87064">
        <ele>45.32</ele>
        <time>2012-04-16T16:07:04Z</time>
      </trkpt>
      <trkpt lat="44.67459" lon="-0.87078">
        <ele>44.84</ele>
        <time>2012-04-16T16:07:07Z</time>
      </trkpt>
      <trkpt lat="44.6746" lon="-0.87092">
        <ele>44.84</ele>
        <time>2012-04-16T16:07:10Z</time>
      </trkpt>
      <trkpt lat="44.67469" lon="-0.87106">
        <ele>43.4</ele>
        <time>2012-04-16T16:07:14Z</time>
      </trkpt>
      <trkpt lat="44.67477" lon="-0.87114">
        <ele>43.88</ele>
        <time>2012-04-16T16:07:17Z</time>
      </trkpt>
      <trkpt lat="44.67483" lon="-0.8711">
        <ele>44.36</ele>
        <time>2012-04-16T16:07:21Z</time>
      </trkpt>
      <trkpt lat="44.67499" lon="-0.87081">
        <ele>45.8</ele>
        <time>2012-04-16T16:07:27Z</time>
      </trkpt>
      <trkpt lat="44.67511" lon="-0.87073">
        <ele>45.32</ele>
        <time>2012-04-16T16:07:31Z</time>
      </trkpt>
      <trkpt lat="44.67524" lon="-0.87062">
        <ele>43.88</ele>
        <time>2012-04-16T16:07:35Z</time>
      </trkpt>
      <trkpt lat="44.67537" lon="-0.87048">
        <ele>43.4</ele>
        <time>2012-04-16T16:07:38Z</time>
      </trkpt>
      <trkpt lat="44.67546" lon="-0.87035">
        <ele>43.4</ele>
        <time>2012-04-16T16:07:41Z</time>
      </trkpt>
      <trkpt lat="44.67553" lon="-0.87027">
        <ele>44.36</ele>
        <time>2012-04-16T16:07:44Z</time>
      </trkpt>
      <trkpt lat="44.67564" lon="-0.87018">
        <ele>45.32</ele>
        <time>2012-04-16T16:07:49Z</time>
      </trkpt>
      <trkpt lat="44.67567" lon="-0.87005">
        <ele>46.28</ele>
        <time>2012-04-16T16:07:54Z</time>
      </trkpt>
      <trkpt lat="44.6757" lon="-0.86989">
        <ele>45.8</ele>
        <time>2012-04-16T16:07:58Z</time>
      </trkpt>
      <trkpt lat="44.67569" lon="-0.86974">
        <ele>47.72</ele>
        <time>2012-04-16T16:08:02Z</time>
      </trkpt>
      <trkpt lat="44.67572" lon="-0.86962">
        <ele>47.24</ele>
        <time>2012-04-16T16:08:07Z</time>
      </trkpt>
      <trkpt lat="44.6758" lon="-0.86947">
        <ele>46.28</ele>
        <time>2012-04-16T16:08:11Z</time>
      </trkpt>
      <trkpt lat="44.67588" lon="-0.86936">
        <ele>44.84</ele>
        <time>2012-04-16T16:08:15Z</time>
      </trkpt>
      <trkpt lat="44.67598" lon="-0.86937">
        <ele>44.36</ele>
        <time>2012-04-16T16:08:27Z</time>
      </trkpt>
      <trkpt lat="44.6761" lon="-0.86944">
        <ele>44.84</ele>
        <time>2012-04-16T16:08:33Z</time>
      </trkpt>
      <trkpt lat="44.67618" lon="-0.86955">
        <ele>45.8</ele>
        <time>2012-04-16T16:08:39Z</time>
      </trkpt>
      <trkpt lat="44.67625" lon="-0.86967">
        <ele>46.76</ele>
        <time>2012-04-16T16:08:45Z</time>
      </trkpt>
      <trkpt lat="44.67635" lon="-0.86976">
        <ele>47.72</ele>
        <time>2012-04-16T16:08:50Z</time>
      </trkpt>
      <trkpt lat="44.67644" lon="-0.8698">
        <ele>48.68</ele>
        <time>2012-04-16T16:08:55Z</time>
      </trkpt>
      <trkpt lat="44.67653" lon="-0.86986">
        <ele>49.16</ele>
        <time>2012-04-16T16:09:01Z</time>
      </trkpt>
      <trkpt lat="44.67662" lon="-0.86993">
        <ele>50.13</ele>
        <time>2012-04-16T16:09:06Z</time>
      </trkpt>
      <trkpt lat="44.67659" lon="-0.87005">
        <ele>49.65</ele>
        <time>2012-04-16T16:09:12Z</time>
      </trkpt>
      <trkpt lat="44.67651" lon="-0.87015">
        <ele>48.68</ele>
        <time>2012-04-16T16:09:16Z</time>
      </trkpt>
      <trkpt lat="44.67645" lon="-0.87027">
        <ele>48.2</ele>
        <time>2012-04-16T16:09:19Z</time>
      </trkpt>
      <trkpt lat="44.67641" lon="-0.87044">
        <ele>47.24</ele>
        <time>2012-04-16T16:09:22Z</time>
      </trkpt>
      <trkpt lat="44.67636" lon="-0.8706">
        <ele>46.76</ele>
        <time>2012-04-16T16:09:25Z</time>
      </trkpt>
      <trkpt lat="44.67633" lon="-0.87072">
        <ele>46.76</ele>
        <time>2012-04-16T16:09:28Z</time>
      </trkpt>
      <trkpt lat="44.67632" lon="-0.8709">
        <ele>46.28</ele>
        <time>2012-04-16T16:09:32Z</time>
      </trkpt>
      <trkpt lat="44.67633" lon="-0.87104">
        <ele>46.28</ele>
        <time>2012-04-16T16:09:35Z</time>
      </trkpt>
      <trkpt lat="44.67632" lon="-0.87118">
        <ele>46.28</ele>
        <time>2012-04-16T16:09:38Z</time>
      </trkpt>
      <trkpt lat="44.67628" lon="-0.87132">
        <ele>46.28</ele>
        <time>2012-04-16T16:09:41Z</time>
      </trkpt>
      <trkpt lat="44.67625" lon="-0.87149">
        <ele>46.28</ele>
        <time>2012-04-16T16:09:44Z</time>
      </trkpt>
      <trkpt lat="44.67623" lon="-0.87165">
        <ele>45.8</ele>
        <time>2012-04-16T16:09:47Z</time>
      </trkpt>
      <trkpt lat="44.67618" lon="-0.87182">
        <ele>45.8</ele>
        <time>2012-04-16T16:09:50Z</time>
      </trkpt>
      <trkpt lat="44.67613" lon="-0.87198">
        <ele>46.28</ele>
        <time>2012-04-16T16:09:53Z</time>
      </trkpt>
      <trkpt lat="44.67607" lon="-0.87216">
        <ele>45.32</ele>
        <time>2012-04-16T16:09:56Z</time>
      </trkpt>
      <trkpt lat="44.67602" lon="-0.87233">
        <ele>45.32</ele>
        <time>2012-04-16T16:09:59Z</time>
      </trkpt>
      <trkpt lat="44.67595" lon="-0.87247">
        <ele>45.32</ele>
        <time>2012-04-16T16:10:02Z</time>
      </trkpt>
      <trkpt lat="44.67589" lon="-0.87264">
        <ele>45.32</ele>
        <time>2012-04-16T16:10:05Z</time>
      </trkpt>
      <trkpt lat="44.67588" lon="-0.87282">
        <ele>45.32</ele>
        <time>2012-04-16T16:10:08Z</time>
      </trkpt>
      <trkpt lat="44.67591" lon="-0.87289">
        <ele>44.84</ele>
        <time>2012-04-16T16:12:40Z</time>
      </trkpt>
      <trkpt lat="44.676" lon="-0.87301">
        <ele>44.36</ele>
        <time>2012-04-16T16:12:44Z</time>
      </trkpt>
      <trkpt lat="44.67606" lon="-0.87313">
        <ele>43.88</ele>
        <time>2012-04-16T16:12:47Z</time>
      </trkpt>
      <trkpt lat="44.67614" lon="-0.87328">
        <ele>42.44</ele>
        <time>2012-04-16T16:12:51Z</time>
      </trkpt>
      <trkpt lat="44.67621" lon="-0.87339">
        <ele>41.47</ele>
        <time>2012-04-16T16:12:54Z</time>
      </trkpt>
      <trkpt lat="44.67631" lon="-0.87347">
        <ele>40.99</ele>
        <time>2012-04-16T16:12:57Z</time>
      </trkpt>
      <trkpt lat="44.67644" lon="-0.87352">
        <ele>41.95</ele>
        <time>2012-04-16T16:13:01Z</time>
      </trkpt>
      <trkpt lat="44.67656" lon="-0.87357">
        <ele>43.4</ele>
        <time>2012-04-16T16:13:06Z</time>
      </trkpt>
      <trkpt lat="44.67664" lon="-0.87362">
        <ele>44.36</ele>
        <time>2012-04-16T16:13:18Z</time>
      </trkpt>
      <trkpt lat="44.67665" lon="-0.87377">
        <ele>44.36</ele>
        <time>2012-04-16T16:13:31Z</time>
      </trkpt>
      <trkpt lat="44.67663" lon="-0.87385">
        <ele>43.88</ele>
        <time>2012-04-16T16:15:54Z</time>
      </trkpt>
      <trkpt lat="44.67651" lon="-0.87383">
        <ele>41.95</ele>
        <time>2012-04-16T16:16:00Z</time>
      </trkpt>
      <trkpt lat="44.67639" lon="-0.87381">
        <ele>41.47</ele>
        <time>2012-04-16T16:16:05Z</time>
      </trkpt>
      <trkpt lat="44.67629" lon="-0.87379">
        <ele>40.03</ele>
        <time>2012-04-16T16:16:11Z</time>
      </trkpt>
      <trkpt lat="44.67619" lon="-0.87388">
        <ele>40.99</ele>
        <time>2012-04-16T16:16:17Z</time>
      </trkpt>
      <trkpt lat="44.67613" lon="-0.87401">
        <ele>41.47</ele>
        <time>2012-04-16T16:16:24Z</time>
      </trkpt>
      <trkpt lat="44.67609" lon="-0.87415">
        <ele>41.95</ele>
        <time>2012-04-16T16:16:29Z</time>
      </trkpt>
      <trkpt lat="44.67603" lon="-0.87429">
        <ele>40.99</ele>
        <time>2012-04-16T16:16:33Z</time>
      </trkpt>
      <trkpt lat="44.67591" lon="-0.87438">
        <ele>40.51</ele>
        <time>2012-04-16T16:16:37Z</time>
      </trkpt>
      <trkpt lat="44.67581" lon="-0.87445">
        <ele>40.51</ele>
        <time>2012-04-16T16:16:41Z</time>
      </trkpt>
      <trkpt lat="44.67572" lon="-0.87453">
        <ele>40.03</ele>
        <time>2012-04-16T16:16:45Z</time>
      </trkpt>
      <trkpt lat="44.67563" lon="-0.87461">
        <ele>39.07</ele>
        <time>2012-04-16T16:16:48Z</time>
      </trkpt>
      <trkpt lat="44.67554" lon="-0.87466">
        <ele>38.59</ele>
        <time>2012-04-16T16:16:51Z</time>
      </trkpt>
      <trkpt lat="44.67549" lon="-0.87479">
        <ele>39.07</ele>
        <time>2012-04-16T16:16:55Z</time>
      </trkpt>
      <trkpt lat="44.67542" lon="-0.8749">
        <ele>38.11</ele>
        <time>2012-04-16T16:16:59Z</time>
      </trkpt>
      <trkpt lat="44.67536" lon="-0.875">
        <ele>38.59</ele>
        <time>2012-04-16T16:17:03Z</time>
      </trkpt>
      <trkpt lat="44.67535" lon="-0.87512">
        <ele>40.51</ele>
        <time>2012-04-16T16:17:09Z</time>
      </trkpt>
      <trkpt lat="44.67532" lon="-0.87526">
        <ele>44.36</ele>
        <time>2012-04-16T16:17:16Z</time>
      </trkpt>
      <trkpt lat="44.67525" lon="-0.87532">
        <ele>43.4</ele>
        <time>2012-04-16T16:18:01Z</time>
      </trkpt>
      <trkpt lat="44.67518" lon="-0.87538">
        <ele>43.4</ele>
        <time>2012-04-16T16:18:26Z</time>
      </trkpt>
      <trkpt lat="44.67509" lon="-0.87546">
        <ele>42.44</ele>
        <time>2012-04-16T16:18:30Z</time>
      </trkpt>
      <trkpt lat="44.67502" lon="-0.87558">
        <ele>41.95</ele>
        <time>2012-04-16T16:18:35Z</time>
      </trkpt>
      <trkpt lat="44.67498" lon="-0.87573">
        <ele>42.92</ele>
        <time>2012-04-16T16:18:40Z</time>
      </trkpt>
      <trkpt lat="44.67489" lon="-0.87584">
        <ele>43.4</ele>
        <time>2012-04-16T16:18:45Z</time>
      </trkpt>
      <trkpt lat="44.67482" lon="-0.87592">
        <ele>42.92</ele>
        <time>2012-04-16T16:18:49Z</time>
      </trkpt>
      <trkpt lat="44.67474" lon="-0.87599">
        <ele>41.95</ele>
        <time>2012-04-16T16:18:54Z</time>
      </trkpt>
      <trkpt lat="44.67462" lon="-0.87601">
        <ele>38.11</ele>
        <time>2012-04-16T16:18:58Z</time>
      </trkpt>
      <trkpt lat="44.6745" lon="-0.87602">
        <ele>37.15</ele>
        <time>2012-04-16T16:19:01Z</time>
      </trkpt>
      <trkpt lat="44.67432" lon="-0.87599">
        <ele>36.67</ele>
        <time>2012-04-16T16:19:04Z</time>
      </trkpt>
      <trkpt lat="44.67419" lon="-0.87602">
        <ele>36.67</ele>
        <time>2012-04-16T16:19:07Z</time>
      </trkpt>
      <trkpt lat="44.67408" lon="-0.87607">
        <ele>37.15</ele>
        <time>2012-04-16T16:19:11Z</time>
      </trkpt>
      <trkpt lat="44.674" lon="-0.87612">
        <ele>36.67</ele>
        <time>2012-04-16T16:19:15Z</time>
      </trkpt>
      <trkpt lat="44.67388" lon="-0.87614">
        <ele>36.19</ele>
        <time>2012-04-16T16:19:20Z</time>
      </trkpt>
      <trkpt lat="44.67379" lon="-0.87621">
        <ele>36.19</ele>
        <time>2012-04-16T16:19:24Z</time>
      </trkpt>
      <trkpt lat="44.67373" lon="-0.87631">
        <ele>36.19</ele>
        <time>2012-04-16T16:19:28Z</time>
      </trkpt>
      <trkpt lat="44.67369" lon="-0.87643">
        <ele>37.63</ele>
        <time>2012-04-16T16:19:34Z</time>
      </trkpt>
      <trkpt lat="44.67366" lon="-0.87652">
        <ele>39.07</ele>
        <time>2012-04-16T16:19:49Z</time>
      </trkpt>
      <trkpt lat="44.67357" lon="-0.87658">
        <ele>39.55</ele>
        <time>2012-04-16T16:19:55Z</time>
      </trkpt>
      <trkpt lat="44.67347" lon="-0.87664">
        <ele>40.99</ele>
        <time>2012-04-16T16:20:01Z</time>
      </trkpt>
      <trkpt lat="44.67338" lon="-0.87663">
        <ele>40.99</ele>
        <time>2012-04-16T16:20:06Z</time>
      </trkpt>
      <trkpt lat="44.67327" lon="-0.87665">
        <ele>41.47</ele>
        <time>2012-04-16T16:20:11Z</time>
      </trkpt>
      <trkpt lat="44.6732" lon="-0.87677">
        <ele>41.47</ele>
        <time>2012-04-16T16:20:16Z</time>
      </trkpt>
      <trkpt lat="44.67313" lon="-0.87687">
        <ele>41.47</ele>
        <time>2012-04-16T16:20:20Z</time>
      </trkpt>
      <trkpt lat="44.67303" lon="-0.87692">
        <ele>40.03</ele>
        <time>2012-04-16T16:20:23Z</time>
      </trkpt>
      <trkpt lat="44.67293" lon="-0.87695">
        <ele>38.59</ele>
        <time>2012-04-16T16:20:25Z</time>
      </trkpt>
      <trkpt lat="44.67283" lon="-0.877">
        <ele>38.59</ele>
        <time>2012-04-16T16:20:27Z</time>
      </trkpt>
      <trkpt lat="44.6727" lon="-0.87699">
        <ele>38.11</ele>
        <time>2012-04-16T16:20:30Z</time>
      </trkpt>
      <trkpt lat="44.6726" lon="-0.87698">
        <ele>38.59</ele>
        <time>2012-04-16T16:20:33Z</time>
      </trkpt>
      <trkpt lat="44.67249" lon="-0.87698">
        <ele>38.59</ele>
        <time>2012-04-16T16:20:37Z</time>
      </trkpt>
      <trkpt lat="44.67237" lon="-0.87701">
        <ele>39.07</ele>
        <time>2012-04-16T16:20:41Z</time>
      </trkpt>
      <trkpt lat="44.67228" lon="-0.87704">
        <ele>38.59</ele>
        <time>2012-04-16T16:20:44Z</time>
      </trkpt>
      <trkpt lat="44.6722" lon="-0.87711">
        <ele>38.11</ele>
        <time>2012-04-16T16:20:47Z</time>
      </trkpt>
      <trkpt lat="44.67212" lon="-0.87722">
        <ele>38.59</ele>
        <time>2012-04-16T16:20:51Z</time>
      </trkpt>
      <trkpt lat="44.67202" lon="-0.87727">
        <ele>40.03</ele>
        <time>2012-04-16T16:20:55Z</time>
      </trkpt>
      <trkpt lat="44.67193" lon="-0.87726">
        <ele>41.95</ele>
        <time>2012-04-16T16:21:01Z</time>
      </trkpt>
      <trkpt lat="44.67181" lon="-0.87727">
        <ele>40.03</ele>
        <time>2012-04-16T16:21:05Z</time>
      </trkpt>
      <trkpt lat="44.67171" lon="-0.87725">
        <ele>38.11</ele>
        <time>2012-04-16T16:21:07Z</time>
      </trkpt>
      <trkpt lat="44.67162" lon="-0.87719">
        <ele>37.15</ele>
        <time>2012-04-16T16:21:09Z</time>
      </trkpt>
      <trkpt lat="44.67153" lon="-0.87716">
        <ele>36.19</ele>
        <time>2012-04-16T16:21:11Z</time>
      </trkpt>
      <trkpt lat="44.67144" lon="-0.87714">
        <ele>35.23</ele>
        <time>2012-04-16T16:21:14Z</time>
      </trkpt>
      <trkpt lat="44.67135" lon="-0.8772">
        <ele>34.74</ele>
        <time>2012-04-16T16:21:18Z</time>
      </trkpt>
      <trkpt lat="44.67127" lon="-0.87727">
        <ele>35.23</ele>
        <time>2012-04-16T16:21:22Z</time>
      </trkpt>
      <trkpt lat="44.67118" lon="-0.87734">
        <ele>35.23</ele>
        <time>2012-04-16T16:21:26Z</time>
      </trkpt>
      <trkpt lat="44.67114" lon="-0.87746">
        <ele>35.71</ele>
        <time>2012-04-16T16:21:31Z</time>
      </trkpt>
      <trkpt lat="44.67106" lon="-0.87757">
        <ele>35.71</ele>
        <time>2012-04-16T16:21:35Z</time>
      </trkpt>
      <trkpt lat="44.67096" lon="-0.87769">
        <ele>34.74</ele>
        <time>2012-04-16T16:21:38Z</time>
      </trkpt>
      <trkpt lat="44.67086" lon="-0.87779">
        <ele>34.74</ele>
        <time>2012-04-16T16:21:41Z</time>
      </trkpt>
      <trkpt lat="44.67084" lon="-0.87794">
        <ele>34.74</ele>
        <time>2012-04-16T16:21:45Z</time>
      </trkpt>
      <trkpt lat="44.67077" lon="-0.87807">
        <ele>34.74</ele>
        <time>2012-04-16T16:21:50Z</time>
      </trkpt>
      <trkpt lat="44.67078" lon="-0.87824">
        <ele>34.74</ele>
        <time>2012-04-16T16:21:55Z</time>
      </trkpt>
      <trkpt lat="44.67084" lon="-0.87836">
        <ele>34.74</ele>
        <time>2012-04-16T16:22:00Z</time>
      </trkpt>
      <trkpt lat="44.67087" lon="-0.8785">
        <ele>34.74</ele>
        <time>2012-04-16T16:22:04Z</time>
      </trkpt>
      <trkpt lat="44.67088" lon="-0.87866">
        <ele>34.26</ele>
        <time>2012-04-16T16:22:09Z</time>
      </trkpt>
      <trkpt lat="44.67083" lon="-0.87877">
        <ele>33.3</ele>
        <time>2012-04-16T16:22:13Z</time>
      </trkpt>
      <trkpt lat="44.67078" lon="-0.87888">
        <ele>34.26</ele>
        <time>2012-04-16T16:22:18Z</time>
      </trkpt>
      <trkpt lat="44.67072" lon="-0.87902">
        <ele>31.38</ele>
        <time>2012-04-16T16:22:24Z</time>
      </trkpt>
      <trkpt lat="44.67068" lon="-0.87914">
        <ele>31.38</ele>
        <time>2012-04-16T16:22:30Z</time>
      </trkpt>
      <trkpt lat="44.67064" lon="-0.87931">
        <ele>33.78</ele>
        <time>2012-04-16T16:22:36Z</time>
      </trkpt>
      <trkpt lat="44.67063" lon="-0.87944">
        <ele>33.3</ele>
        <time>2012-04-16T16:22:40Z</time>
      </trkpt>
      <trkpt lat="44.67062" lon="-0.87958">
        <ele>33.78</ele>
        <time>2012-04-16T16:22:44Z</time>
      </trkpt>
      <trkpt lat="44.67068" lon="-0.87971">
        <ele>33.3</ele>
        <time>2012-04-16T16:22:49Z</time>
      </trkpt>
      <trkpt lat="44.67067" lon="-0.87983">
        <ele>33.3</ele>
        <time>2012-04-16T16:22:53Z</time>
      </trkpt>
      <trkpt lat="44.67067" lon="-0.87998">
        <ele>33.78</ele>
        <time>2012-04-16T16:22:57Z</time>
      </trkpt>
      <trkpt lat="44.67064" lon="-0.88015">
        <ele>33.3</ele>
        <time>2012-04-16T16:23:01Z</time>
      </trkpt>
      <trkpt lat="44.67064" lon="-0.88029">
        <ele>33.3</ele>
        <time>2012-04-16T16:23:05Z</time>
      </trkpt>
      <trkpt lat="44.67061" lon="-0.88042">
        <ele>32.82</ele>
        <time>2012-04-16T16:23:09Z</time>
      </trkpt>
      <trkpt lat="44.67055" lon="-0.88054">
        <ele>33.78</ele>
        <time>2012-04-16T16:23:13Z</time>
      </trkpt>
      <trkpt lat="44.67045" lon="-0.88058">
        <ele>33.78</ele>
        <time>2012-04-16T16:23:17Z</time>
      </trkpt>
      <trkpt lat="44.67039" lon="-0.88067">
        <ele>34.26</ele>
        <time>2012-04-16T16:23:21Z</time>
      </trkpt>
      <trkpt lat="44.67044" lon="-0.88076">
        <ele>33.78</ele>
        <time>2012-04-16T16:23:25Z</time>
      </trkpt>
      <trkpt lat="44.67043" lon="-0.88092">
        <ele>34.74</ele>
        <time>2012-04-16T16:23:30Z</time>
      </trkpt>
      <trkpt lat="44.67045" lon="-0.88105">
        <ele>34.26</ele>
        <time>2012-04-16T16:23:35Z</time>
      </trkpt>
      <trkpt lat="44.67052" lon="-0.88117">
        <ele>35.23</ele>
        <time>2012-04-16T16:23:43Z</time>
      </trkpt>
      <trkpt lat="44.67059" lon="-0.88129">
        <ele>34.74</ele>
        <time>2012-04-16T16:23:48Z</time>
      </trkpt>
      <trkpt lat="44.67055" lon="-0.88143">
        <ele>35.71</ele>
        <time>2012-04-16T16:23:53Z</time>
      </trkpt>
      <trkpt lat="44.67046" lon="-0.88151">
        <ele>35.71</ele>
        <time>2012-04-16T16:23:57Z</time>
      </trkpt>
      <trkpt lat="44.67035" lon="-0.88159">
        <ele>34.26</ele>
        <time>2012-04-16T16:24:01Z</time>
      </trkpt>
      <trkpt lat="44.67028" lon="-0.88169">
        <ele>35.23</ele>
        <time>2012-04-16T16:24:05Z</time>
      </trkpt>
      <trkpt lat="44.67025" lon="-0.88182">
        <ele>35.71</ele>
        <time>2012-04-16T16:24:09Z</time>
      </trkpt>
      <trkpt lat="44.67019" lon="-0.88199">
        <ele>35.23</ele>
        <time>2012-04-16T16:24:13Z</time>
      </trkpt>
      <trkpt lat="44.67012" lon="-0.88212">
        <ele>35.23</ele>
        <time>2012-04-16T16:24:17Z</time>
      </trkpt>
      <trkpt lat="44.67008" lon="-0.88224">
        <ele>34.74</ele>
        <time>2012-04-16T16:24:20Z</time>
      </trkpt>
      <trkpt lat="44.67005" lon="-0.88238">
        <ele>35.71</ele>
        <time>2012-04-16T16:24:23Z</time>
      </trkpt>
      <trkpt lat="44.66997" lon="-0.8825">
        <ele>34.74</ele>
        <time>2012-04-16T16:24:26Z</time>
      </trkpt>
      <trkpt lat="44.6699" lon="-0.88263">
        <ele>35.23</ele>
        <time>2012-04-16T16:24:29Z</time>
      </trkpt>
      <trkpt lat="44.66985" lon="-0.88275">
        <ele>34.26</ele>
        <time>2012-04-16T16:24:32Z</time>
      </trkpt>
      <trkpt lat="44.66984" lon="-0.88289">
        <ele>34.74</ele>
        <time>2012-04-16T16:24:35Z</time>
      </trkpt>
      <trkpt lat="44.66979" lon="-0.88301">
        <ele>33.3</ele>
        <time>2012-04-16T16:24:40Z</time>
      </trkpt>
      <trkpt lat="44.66972" lon="-0.88311">
        <ele>32.82</ele>
        <time>2012-04-16T16:24:45Z</time>
      </trkpt>
      <trkpt lat="44.66962" lon="-0.88326">
        <ele>32.82</ele>
        <time>2012-04-16T16:24:49Z</time>
      </trkpt>
      <trkpt lat="44.66957" lon="-0.8834">
        <ele>33.3</ele>
        <time>2012-04-16T16:24:53Z</time>
      </trkpt>
      <trkpt lat="44.66952" lon="-0.88353">
        <ele>33.78</ele>
        <time>2012-04-16T16:24:57Z</time>
      </trkpt>
      <trkpt lat="44.66948" lon="-0.88368">
        <ele>34.74</ele>
        <time>2012-04-16T16:25:01Z</time>
      </trkpt>
      <trkpt lat="44.66938" lon="-0.88379">
        <ele>33.78</ele>
        <time>2012-04-16T16:25:06Z</time>
      </trkpt>
      <trkpt lat="44.66925" lon="-0.88387">
        <ele>31.86</ele>
        <time>2012-04-16T16:25:10Z</time>
      </trkpt>
      <trkpt lat="44.66915" lon="-0.88395">
        <ele>31.38</ele>
        <time>2012-04-16T16:25:13Z</time>
      </trkpt>
      <trkpt lat="44.66904" lon="-0.88403">
        <ele>31.86</ele>
        <time>2012-04-16T16:25:17Z</time>
      </trkpt>
      <trkpt lat="44.66894" lon="-0.88406">
        <ele>30.9</ele>
        <time>2012-04-16T16:25:20Z</time>
      </trkpt>
      <trkpt lat="44.66883" lon="-0.88409">
        <ele>31.38</ele>
        <time>2012-04-16T16:25:24Z</time>
      </trkpt>
      <trkpt lat="44.6687" lon="-0.88413">
        <ele>31.38</ele>
        <time>2012-04-16T16:25:28Z</time>
      </trkpt>
      <trkpt lat="44.66859" lon="-0.88421">
        <ele>31.38</ele>
        <time>2012-04-16T16:25:32Z</time>
      </trkpt>
      <trkpt lat="44.66849" lon="-0.88425">
        <ele>30.9</ele>
        <time>2012-04-16T16:25:35Z</time>
      </trkpt>
      <trkpt lat="44.66838" lon="-0.88425">
        <ele>30.9</ele>
        <time>2012-04-16T16:25:38Z</time>
      </trkpt>
      <trkpt lat="44.6683" lon="-0.88425">
        <ele>30.9</ele>
        <time>2012-04-16T16:25:41Z</time>
      </trkpt>
      <trkpt lat="44.66825" lon="-0.88426">
        <ele>30.42</ele>
        <time>2012-04-16T16:25:45Z</time>
      </trkpt>
      <trkpt lat="44.6682" lon="-0.88427">
        <ele>30.9</ele>
        <time>2012-04-16T16:25:50Z</time>
      </trkpt>
      <trkpt lat="44.66811" lon="-0.88427">
        <ele>30.9</ele>
        <time>2012-04-16T16:25:54Z</time>
      </trkpt>
      <trkpt lat="44.66802" lon="-0.88435">
        <ele>30.9</ele>
        <time>2012-04-16T16:25:58Z</time>
      </trkpt>
      <trkpt lat="44.66795" lon="-0.88445">
        <ele>30.9</ele>
        <time>2012-04-16T16:26:01Z</time>
      </trkpt>
      <trkpt lat="44.66786" lon="-0.88455">
        <ele>30.9</ele>
        <time>2012-04-16T16:26:05Z</time>
      </trkpt>
      <trkpt lat="44.66776" lon="-0.88463">
        <ele>31.38</ele>
        <time>2012-04-16T16:26:09Z</time>
      </trkpt>
      <trkpt lat="44.66767" lon="-0.88473">
        <ele>31.38</ele>
        <time>2012-04-16T16:26:13Z</time>
      </trkpt>
      <trkpt lat="44.6676" lon="-0.88486">
        <ele>30.42</ele>
        <time>2012-04-16T16:26:17Z</time>
      </trkpt>
      <trkpt lat="44.66751" lon="-0.88498">
        <ele>30.42</ele>
        <time>2012-04-16T16:26:22Z</time>
      </trkpt>
      <trkpt lat="44.66747" lon="-0.88509">
        <ele>29.94</ele>
        <time>2012-04-16T16:26:27Z</time>
      </trkpt>
      <trkpt lat="44.66733" lon="-0.88512">
        <ele>30.42</ele>
        <time>2012-04-16T16:26:32Z</time>
      </trkpt>
      <trkpt lat="44.66721" lon="-0.88515">
        <ele>30.42</ele>
        <time>2012-04-16T16:26:36Z</time>
      </trkpt>
      <trkpt lat="44.66711" lon="-0.88515">
        <ele>29.94</ele>
        <time>2012-04-16T16:26:40Z</time>
      </trkpt>
      <trkpt lat="44.66699" lon="-0.88517">
        <ele>29.94</ele>
        <time>2012-04-16T16:26:52Z</time>
      </trkpt>
      <trkpt lat="44.6669" lon="-0.88515">
        <ele>29.94</ele>
        <time>2012-04-16T16:26:57Z</time>
      </trkpt>
      <trkpt lat="44.66679" lon="-0.8852">
        <ele>30.42</ele>
        <time>2012-04-16T16:27:01Z</time>
      </trkpt>
      <trkpt lat="44.66669" lon="-0.88529">
        <ele>29.94</ele>
        <time>2012-04-16T16:27:05Z</time>
      </trkpt>
      <trkpt lat="44.66658" lon="-0.88532">
        <ele>29.94</ele>
        <time>2012-04-16T16:27:09Z</time>
      </trkpt>
      <trkpt lat="44.66651" lon="-0.88539">
        <ele>29.94</ele>
        <time>2012-04-16T16:27:13Z</time>
      </trkpt>
      <trkpt lat="44.66654" lon="-0.88563">
        <ele>29.94</ele>
        <time>2012-04-16T16:27:19Z</time>
      </trkpt>
      <trkpt lat="44.66644" lon="-0.88575">
        <ele>29.94</ele>
        <time>2012-04-16T16:27:25Z</time>
      </trkpt>
      <trkpt lat="44.66638" lon="-0.88587">
        <ele>29.46</ele>
        <time>2012-04-16T16:27:29Z</time>
      </trkpt>
      <trkpt lat="44.66633" lon="-0.886">
        <ele>28.98</ele>
        <time>2012-04-16T16:27:33Z</time>
      </trkpt>
      <trkpt lat="44.66624" lon="-0.88611">
        <ele>29.46</ele>
        <time>2012-04-16T16:27:38Z</time>
      </trkpt>
      <trkpt lat="44.66614" lon="-0.88616">
        <ele>29.46</ele>
        <time>2012-04-16T16:27:42Z</time>
      </trkpt>
      <trkpt lat="44.66601" lon="-0.88619">
        <ele>29.46</ele>
        <time>2012-04-16T16:27:46Z</time>
      </trkpt>
      <trkpt lat="44.66593" lon="-0.88629">
        <ele>28.98</ele>
        <time>2012-04-16T16:27:50Z</time>
      </trkpt>
      <trkpt lat="44.66583" lon="-0.88638">
        <ele>28.5</ele>
        <time>2012-04-16T16:27:55Z</time>
      </trkpt>
      <trkpt lat="44.66571" lon="-0.88641">
        <ele>28.5</ele>
        <time>2012-04-16T16:28:00Z</time>
      </trkpt>
      <trkpt lat="44.6656" lon="-0.88639">
        <ele>28.5</ele>
        <time>2012-04-16T16:28:06Z</time>
      </trkpt>
      <trkpt lat="44.66551" lon="-0.88643">
        <ele>28.5</ele>
        <time>2012-04-16T16:28:10Z</time>
      </trkpt>
      <trkpt lat="44.6654" lon="-0.88652">
        <ele>28.5</ele>
        <time>2012-04-16T16:28:14Z</time>
      </trkpt>
      <trkpt lat="44.66531" lon="-0.88659">
        <ele>28.5</ele>
        <time>2012-04-16T16:28:18Z</time>
      </trkpt>
      <trkpt lat="44.66524" lon="-0.88667">
        <ele>28.98</ele>
        <time>2012-04-16T16:28:22Z</time>
      </trkpt>
      <trkpt lat="44.66517" lon="-0.88672">
        <ele>28.98</ele>
        <time>2012-04-16T16:28:36Z</time>
      </trkpt>
      <trkpt lat="44.66508" lon="-0.8867">
        <ele>28.5</ele>
        <time>2012-04-16T16:28:48Z</time>
      </trkpt>
      <trkpt lat="44.66497" lon="-0.88675">
        <ele>28.5</ele>
        <time>2012-04-16T16:28:55Z</time>
      </trkpt>
      <trkpt lat="44.66485" lon="-0.88675">
        <ele>28.5</ele>
        <time>2012-04-16T16:29:00Z</time>
      </trkpt>
      <trkpt lat="44.66476" lon="-0.88672">
        <ele>28.5</ele>
        <time>2012-04-16T16:29:04Z</time>
      </trkpt>
      <trkpt lat="44.66466" lon="-0.88675">
        <ele>28.5</ele>
        <time>2012-04-16T16:29:09Z</time>
      </trkpt>
      <trkpt lat="44.66456" lon="-0.88678">
        <ele>28.02</ele>
        <time>2012-04-16T16:29:15Z</time>
      </trkpt>
      <trkpt lat="44.66446" lon="-0.88678">
        <ele>28.5</ele>
        <time>2012-04-16T16:29:20Z</time>
      </trkpt>
      <trkpt lat="44.66435" lon="-0.88681">
        <ele>28.02</ele>
        <time>2012-04-16T16:29:25Z</time>
      </trkpt>
      <trkpt lat="44.66426" lon="-0.8869">
        <ele>28.02</ele>
        <time>2012-04-16T16:29:30Z</time>
      </trkpt>
      <trkpt lat="44.66419" lon="-0.88703">
        <ele>28.02</ele>
        <time>2012-04-16T16:29:35Z</time>
      </trkpt>
      <trkpt lat="44.6641" lon="-0.88713">
        <ele>28.02</ele>
        <time>2012-04-16T16:29:40Z</time>
      </trkpt>
      <trkpt lat="44.66401" lon="-0.88721">
        <ele>27.53</ele>
        <time>2012-04-16T16:29:45Z</time>
      </trkpt>
      <trkpt lat="44.66392" lon="-0.88727">
        <ele>27.53</ele>
        <time>2012-04-16T16:29:50Z</time>
      </trkpt>
      <trkpt lat="44.66382" lon="-0.88729">
        <ele>28.02</ele>
        <time>2012-04-16T16:29:55Z</time>
      </trkpt>
      <trkpt lat="44.66372" lon="-0.88726">
        <ele>27.05</ele>
        <time>2012-04-16T16:30:00Z</time>
      </trkpt>
      <trkpt lat="44.66362" lon="-0.88724">
        <ele>28.02</ele>
        <time>2012-04-16T16:30:05Z</time>
      </trkpt>
      <trkpt lat="44.66356" lon="-0.88714">
        <ele>27.53</ele>
        <time>2012-04-16T16:30:11Z</time>
      </trkpt>
      <trkpt lat="44.66355" lon="-0.88702">
        <ele>27.05</ele>
        <time>2012-04-16T16:30:17Z</time>
      </trkpt>
      <trkpt lat="44.66353" lon="-0.88686">
        <ele>27.53</ele>
        <time>2012-04-16T16:30:22Z</time>
      </trkpt>
      <trkpt lat="44.66344" lon="-0.88677">
        <ele>27.53</ele>
        <time>2012-04-16T16:30:27Z</time>
      </trkpt>
      <trkpt lat="44.66334" lon="-0.88674">
        <ele>28.02</ele>
        <time>2012-04-16T16:30:34Z</time>
      </trkpt>
      <trkpt lat="44.66332" lon="-0.88661">
        <ele>27.05</ele>
        <time>2012-04-16T16:30:47Z</time>
      </trkpt>
      <trkpt lat="44.66323" lon="-0.88652">
        <ele>27.05</ele>
        <time>2012-04-16T16:30:52Z</time>
      </trkpt>
      <trkpt lat="44.66315" lon="-0.88645">
        <ele>26.57</ele>
        <time>2012-04-16T16:30:57Z</time>
      </trkpt>
      <trkpt lat="44.66307" lon="-0.88636">
        <ele>26.57</ele>
        <time>2012-04-16T16:31:02Z</time>
      </trkpt>
      <trkpt lat="44.66296" lon="-0.88632">
        <ele>26.57</ele>
        <time>2012-04-16T16:31:20Z</time>
      </trkpt>
      <trkpt lat="44.66283" lon="-0.8863">
        <ele>26.57</ele>
        <time>2012-04-16T16:31:28Z</time>
      </trkpt>
      <trkpt lat="44.66274" lon="-0.88621">
        <ele>26.57</ele>
        <time>2012-04-16T16:31:40Z</time>
      </trkpt>
      <trkpt lat="44.66268" lon="-0.88609">
        <ele>27.05</ele>
        <time>2012-04-16T16:31:47Z</time>
      </trkpt>
      <trkpt lat="44.66259" lon="-0.88603">
        <ele>27.05</ele>
        <time>2012-04-16T16:31:54Z</time>
      </trkpt>
      <trkpt lat="44.6625" lon="-0.88603">
        <ele>29.94</ele>
        <time>2012-04-16T16:34:44Z</time>
      </trkpt>
      <trkpt lat="44.66241" lon="-0.8861">
        <ele>32.82</ele>
        <time>2012-04-16T16:35:01Z</time>
      </trkpt>
      <trkpt lat="44.66233" lon="-0.88614">
        <ele>34.74</ele>
        <time>2012-04-16T16:35:17Z</time>
      </trkpt>
      <trkpt lat="44.66229" lon="-0.88625">
        <ele>35.71</ele>
        <time>2012-04-16T16:35:29Z</time>
      </trkpt>
      <trkpt lat="44.66231" lon="-0.88638">
        <ele>35.71</ele>
        <time>2012-04-16T16:35:39Z</time>
      </trkpt>
      <trkpt lat="44.66231" lon="-0.88651">
        <ele>36.19</ele>
        <time>2012-04-16T16:35:50Z</time>
      </trkpt>
      <trkpt lat="44.66222" lon="-0.88647">
        <ele>35.71</ele>
        <time>2012-04-16T16:36:32Z</time>
      </trkpt>
      <trkpt lat="44.66215" lon="-0.88636">
        <ele>35.23</ele>
        <time>2012-04-16T16:36:38Z</time>
      </trkpt>
      <trkpt lat="44.66207" lon="-0.88627">
        <ele>36.19</ele>
        <time>2012-04-16T16:36:43Z</time>
      </trkpt>
      <trkpt lat="44.66198" lon="-0.8862">
        <ele>36.19</ele>
        <time>2012-04-16T16:36:47Z</time>
      </trkpt>
      <trkpt lat="44.66188" lon="-0.88616">
        <ele>36.19</ele>
        <time>2012-04-16T16:36:51Z</time>
      </trkpt>
      <trkpt lat="44.66178" lon="-0.88618">
        <ele>35.71</ele>
        <time>2012-04-16T16:36:55Z</time>
      </trkpt>
      <trkpt lat="44.66169" lon="-0.88623">
        <ele>35.71</ele>
        <time>2012-04-16T16:36:59Z</time>
      </trkpt>
      <trkpt lat="44.66159" lon="-0.88628">
        <ele>35.23</ele>
        <time>2012-04-16T16:37:03Z</time>
      </trkpt>
      <trkpt lat="44.6615" lon="-0.88631">
        <ele>35.23</ele>
        <time>2012-04-16T16:37:06Z</time>
      </trkpt>
      <trkpt lat="44.66138" lon="-0.88634">
        <ele>35.23</ele>
        <time>2012-04-16T16:37:10Z</time>
      </trkpt>
      <trkpt lat="44.66129" lon="-0.88637">
        <ele>35.23</ele>
        <time>2012-04-16T16:37:13Z</time>
      </trkpt>
      <trkpt lat="44.66117" lon="-0.8864">
        <ele>35.23</ele>
        <time>2012-04-16T16:37:17Z</time>
      </trkpt>
      <trkpt lat="44.66107" lon="-0.88646">
        <ele>34.74</ele>
        <time>2012-04-16T16:37:21Z</time>
      </trkpt>
      <trkpt lat="44.66096" lon="-0.88652">
        <ele>34.26</ele>
        <time>2012-04-16T16:37:25Z</time>
      </trkpt>
      <trkpt lat="44.66086" lon="-0.88652">
        <ele>34.26</ele>
        <time>2012-04-16T16:37:28Z</time>
      </trkpt>
      <trkpt lat="44.66076" lon="-0.88655">
        <ele>34.26</ele>
        <time>2012-04-16T16:37:31Z</time>
      </trkpt>
      <trkpt lat="44.66067" lon="-0.88659">
        <ele>34.26</ele>
        <time>2012-04-16T16:37:34Z</time>
      </trkpt>
      <trkpt lat="44.66057" lon="-0.88664">
        <ele>34.26</ele>
        <time>2012-04-16T16:37:37Z</time>
      </trkpt>
      <trkpt lat="44.66048" lon="-0.88668">
        <ele>34.26</ele>
        <time>2012-04-16T16:37:40Z</time>
      </trkpt>
      <trkpt lat="44.66038" lon="-0.88671">
        <ele>34.26</ele>
        <time>2012-04-16T16:37:43Z</time>
      </trkpt>
      <trkpt lat="44.66029" lon="-0.88675">
        <ele>34.26</ele>
        <time>2012-04-16T16:37:46Z</time>
      </trkpt>
      <trkpt lat="44.66019" lon="-0.88678">
        <ele>33.78</ele>
        <time>2012-04-16T16:37:49Z</time>
      </trkpt>
      <trkpt lat="44.66008" lon="-0.88677">
        <ele>33.78</ele>
        <time>2012-04-16T16:37:53Z</time>
      </trkpt>
      <trkpt lat="44.65998" lon="-0.88677">
        <ele>33.3</ele>
        <time>2012-04-16T16:37:56Z</time>
      </trkpt>
      <trkpt lat="44.65988" lon="-0.88679">
        <ele>33.3</ele>
        <time>2012-04-16T16:37:59Z</time>
      </trkpt>
      <trkpt lat="44.65979" lon="-0.88684">
        <ele>33.3</ele>
        <time>2012-04-16T16:38:02Z</time>
      </trkpt>
      <trkpt lat="44.65971" lon="-0.88691">
        <ele>33.3</ele>
        <time>2012-04-16T16:38:05Z</time>
      </trkpt>
      <trkpt lat="44.65962" lon="-0.88697">
        <ele>33.78</ele>
        <time>2012-04-16T16:38:08Z</time>
      </trkpt>
      <trkpt lat="44.65952" lon="-0.88701">
        <ele>33.3</ele>
        <time>2012-04-16T16:38:11Z</time>
      </trkpt>
      <trkpt lat="44.6594" lon="-0.88704">
        <ele>32.82</ele>
        <time>2012-04-16T16:38:14Z</time>
      </trkpt>
      <trkpt lat="44.65929" lon="-0.88707">
        <ele>32.82</ele>
        <time>2012-04-16T16:38:17Z</time>
      </trkpt>
      <trkpt lat="44.65918" lon="-0.8871">
        <ele>32.82</ele>
        <time>2012-04-16T16:38:20Z</time>
      </trkpt>
      <trkpt lat="44.65908" lon="-0.88714">
        <ele>32.82</ele>
        <time>2012-04-16T16:38:23Z</time>
      </trkpt>
      <trkpt lat="44.65897" lon="-0.88719">
        <ele>31.86</ele>
        <time>2012-04-16T16:38:26Z</time>
      </trkpt>
      <trkpt lat="44.65886" lon="-0.88721">
        <ele>32.82</ele>
        <time>2012-04-16T16:38:29Z</time>
      </trkpt>
      <trkpt lat="44.65875" lon="-0.88725">
        <ele>32.34</ele>
        <time>2012-04-16T16:38:32Z</time>
      </trkpt>
      <trkpt lat="44.65868" lon="-0.88737">
        <ele>32.34</ele>
        <time>2012-04-16T16:38:36Z</time>
      </trkpt>
      <trkpt lat="44.6587" lon="-0.88752">
        <ele>32.34</ele>
        <time>2012-04-16T16:38:41Z</time>
      </trkpt>
      <trkpt lat="44.65873" lon="-0.88766">
        <ele>32.82</ele>
        <time>2012-04-16T16:38:45Z</time>
      </trkpt>
      <trkpt lat="44.65876" lon="-0.88782">
        <ele>32.82</ele>
        <time>2012-04-16T16:38:49Z</time>
      </trkpt>
      <trkpt lat="44.65879" lon="-0.88799">
        <ele>33.3</ele>
        <time>2012-04-16T16:38:53Z</time>
      </trkpt>
      <trkpt lat="44.65881" lon="-0.88813">
        <ele>33.78</ele>
        <time>2012-04-16T16:38:56Z</time>
      </trkpt>
      <trkpt lat="44.65885" lon="-0.88829">
        <ele>33.78</ele>
        <time>2012-04-16T16:38:59Z</time>
      </trkpt>
      <trkpt lat="44.65888" lon="-0.88846">
        <ele>33.78</ele>
        <time>2012-04-16T16:39:02Z</time>
      </trkpt>
      <trkpt lat="44.6589" lon="-0.88862">
        <ele>33.3</ele>
        <time>2012-04-16T16:39:05Z</time>
      </trkpt>
      <trkpt lat="44.65893" lon="-0.88877">
        <ele>33.78</ele>
        <time>2012-04-16T16:39:08Z</time>
      </trkpt>
      <trkpt lat="44.65896" lon="-0.88893">
        <ele>33.3</ele>
        <time>2012-04-16T16:39:11Z</time>
      </trkpt>
      <trkpt lat="44.65897" lon="-0.88907">
        <ele>33.78</ele>
        <time>2012-04-16T16:39:14Z</time>
      </trkpt>
      <trkpt lat="44.659" lon="-0.88922">
        <ele>33.3</ele>
        <time>2012-04-16T16:39:17Z</time>
      </trkpt>
      <trkpt lat="44.65902" lon="-0.88935">
        <ele>33.3</ele>
        <time>2012-04-16T16:39:20Z</time>
      </trkpt>
      <trkpt lat="44.65899" lon="-0.88948">
        <ele>32.82</ele>
        <time>2012-04-16T16:39:24Z</time>
      </trkpt>
      <trkpt lat="44.6589" lon="-0.88958">
        <ele>32.82</ele>
        <time>2012-04-16T16:39:28Z</time>
      </trkpt>
      <trkpt lat="44.65881" lon="-0.88963">
        <ele>32.82</ele>
        <time>2012-04-16T16:39:31Z</time>
      </trkpt>
      <trkpt lat="44.65873" lon="-0.88968">
        <ele>33.78</ele>
        <time>2012-04-16T16:39:34Z</time>
      </trkpt>
      <trkpt lat="44.65864" lon="-0.88981">
        <ele>33.78</ele>
        <time>2012-04-16T16:39:38Z</time>
      </trkpt>
      <trkpt lat="44.65857" lon="-0.8899">
        <ele>33.3</ele>
        <time>2012-04-16T16:39:41Z</time>
      </trkpt>
      <trkpt lat="44.6585" lon="-0.88999">
        <ele>33.3</ele>
        <time>2012-04-16T16:39:44Z</time>
      </trkpt>
      <trkpt lat="44.65842" lon="-0.89005">
        <ele>33.3</ele>
        <time>2012-04-16T16:39:47Z</time>
      </trkpt>
      <trkpt lat="44.65832" lon="-0.89015">
        <ele>33.3</ele>
        <time>2012-04-16T16:39:51Z</time>
      </trkpt>
      <trkpt lat="44.65824" lon="-0.89023">
        <ele>33.3</ele>
        <time>2012-04-16T16:39:54Z</time>
      </trkpt>
      <trkpt lat="44.65816" lon="-0.8903">
        <ele>33.3</ele>
        <time>2012-04-16T16:39:57Z</time>
      </trkpt>
      <trkpt lat="44.65807" lon="-0.89036">
        <ele>32.82</ele>
        <time>2012-04-16T16:40:00Z</time>
      </trkpt>
      <trkpt lat="44.65801" lon="-0.89045">
        <ele>32.82</ele>
        <time>2012-04-16T16:40:03Z</time>
      </trkpt>
      <trkpt lat="44.65794" lon="-0.89054">
        <ele>32.82</ele>
        <time>2012-04-16T16:40:06Z</time>
      </trkpt>
      <trkpt lat="44.65787" lon="-0.89063">
        <ele>32.82</ele>
        <time>2012-04-16T16:40:09Z</time>
      </trkpt>
      <trkpt lat="44.65779" lon="-0.89072">
        <ele>32.82</ele>
        <time>2012-04-16T16:40:12Z</time>
      </trkpt>
      <trkpt lat="44.65771" lon="-0.8908">
        <ele>32.82</ele>
        <time>2012-04-16T16:40:15Z</time>
      </trkpt>
      <trkpt lat="44.65763" lon="-0.89087">
        <ele>32.82</ele>
        <time>2012-04-16T16:40:18Z</time>
      </trkpt>
      <trkpt lat="44.65755" lon="-0.89096">
        <ele>32.82</ele>
        <time>2012-04-16T16:40:21Z</time>
      </trkpt>
      <trkpt lat="44.65747" lon="-0.89107">
        <ele>31.86</ele>
        <time>2012-04-16T16:40:24Z</time>
      </trkpt>
      <trkpt lat="44.65739" lon="-0.89116">
        <ele>31.86</ele>
        <time>2012-04-16T16:40:27Z</time>
      </trkpt>
      <trkpt lat="44.65731" lon="-0.89124">
        <ele>32.34</ele>
        <time>2012-04-16T16:40:30Z</time>
      </trkpt>
      <trkpt lat="44.65722" lon="-0.89134">
        <ele>32.82</ele>
        <time>2012-04-16T16:40:34Z</time>
      </trkpt>
      <trkpt lat="44.65712" lon="-0.89144">
        <ele>32.82</ele>
        <time>2012-04-16T16:40:38Z</time>
      </trkpt>
      <trkpt lat="44.65706" lon="-0.89153">
        <ele>32.82</ele>
        <time>2012-04-16T16:40:41Z</time>
      </trkpt>
      <trkpt lat="44.65695" lon="-0.89161">
        <ele>32.82</ele>
        <time>2012-04-16T16:40:45Z</time>
      </trkpt>
      <trkpt lat="44.65688" lon="-0.8917">
        <ele>32.82</ele>
        <time>2012-04-16T16:40:48Z</time>
      </trkpt>
      <trkpt lat="44.65681" lon="-0.8918">
        <ele>32.82</ele>
        <time>2012-04-16T16:40:51Z</time>
      </trkpt>
      <trkpt lat="44.65673" lon="-0.89189">
        <ele>32.34</ele>
        <time>2012-04-16T16:40:54Z</time>
      </trkpt>
      <trkpt lat="44.65664" lon="-0.89197">
        <ele>33.3</ele>
        <time>2012-04-16T16:40:57Z</time>
      </trkpt>
      <trkpt lat="44.65657" lon="-0.89204">
        <ele>33.3</ele>
        <time>2012-04-16T16:41:00Z</time>
      </trkpt>
      <trkpt lat="44.65646" lon="-0.89215">
        <ele>32.82</ele>
        <time>2012-04-16T16:41:04Z</time>
      </trkpt>
      <trkpt lat="44.65637" lon="-0.89224">
        <ele>32.34</ele>
        <time>2012-04-16T16:41:07Z</time>
      </trkpt>
      <trkpt lat="44.6563" lon="-0.89232">
        <ele>32.34</ele>
        <time>2012-04-16T16:41:10Z</time>
      </trkpt>
      <trkpt lat="44.65622" lon="-0.89242">
        <ele>31.38</ele>
        <time>2012-04-16T16:41:14Z</time>
      </trkpt>
      <trkpt lat="44.65613" lon="-0.89253">
        <ele>31.38</ele>
        <time>2012-04-16T16:41:19Z</time>
      </trkpt>
      <trkpt lat="44.65605" lon="-0.89262">
        <ele>31.38</ele>
        <time>2012-04-16T16:41:24Z</time>
      </trkpt>
      <trkpt lat="44.65597" lon="-0.89271">
        <ele>30.9</ele>
        <time>2012-04-16T16:41:29Z</time>
      </trkpt>
      <trkpt lat="44.65589" lon="-0.8928">
        <ele>30.42</ele>
        <time>2012-04-16T16:41:35Z</time>
      </trkpt>
      <trkpt lat="44.6558" lon="-0.89289">
        <ele>31.38</ele>
        <time>2012-04-16T16:41:39Z</time>
      </trkpt>
      <trkpt lat="44.65572" lon="-0.89298">
        <ele>30.9</ele>
        <time>2012-04-16T16:41:43Z</time>
      </trkpt>
      <trkpt lat="44.65563" lon="-0.89307">
        <ele>30.9</ele>
        <time>2012-04-16T16:41:47Z</time>
      </trkpt>
      <trkpt lat="44.65554" lon="-0.89317">
        <ele>30.9</ele>
        <time>2012-04-16T16:41:51Z</time>
      </trkpt>
      <trkpt lat="44.65545" lon="-0.89326">
        <ele>30.9</ele>
        <time>2012-04-16T16:41:55Z</time>
      </trkpt>
      <trkpt lat="44.65536" lon="-0.89335">
        <ele>30.9</ele>
        <time>2012-04-16T16:41:59Z</time>
      </trkpt>
      <trkpt lat="44.65527" lon="-0.89344">
        <ele>30.9</ele>
        <time>2012-04-16T16:42:03Z</time>
      </trkpt>
      <trkpt lat="44.65519" lon="-0.89353">
        <ele>30.42</ele>
        <time>2012-04-16T16:42:07Z</time>
      </trkpt>
      <trkpt lat="44.65509" lon="-0.89364">
        <ele>30.42</ele>
        <time>2012-04-16T16:42:11Z</time>
      </trkpt>
      <trkpt lat="44.655" lon="-0.89373">
        <ele>30.42</ele>
        <time>2012-04-16T16:42:15Z</time>
      </trkpt>
      <trkpt lat="44.65491" lon="-0.89382">
        <ele>30.42</ele>
        <time>2012-04-16T16:42:19Z</time>
      </trkpt>
      <trkpt lat="44.65484" lon="-0.89391">
        <ele>30.42</ele>
        <time>2012-04-16T16:42:22Z</time>
      </trkpt>
      <trkpt lat="44.65477" lon="-0.89399">
        <ele>30.42</ele>
        <time>2012-04-16T16:42:25Z</time>
      </trkpt>
      <trkpt lat="44.65469" lon="-0.89407">
        <ele>30.42</ele>
        <time>2012-04-16T16:42:28Z</time>
      </trkpt>
      <trkpt lat="44.65459" lon="-0.89418">
        <ele>30.42</ele>
        <time>2012-04-16T16:42:32Z</time>
      </trkpt>
      <trkpt lat="44.65452" lon="-0.89426">
        <ele>29.94</ele>
        <time>2012-04-16T16:42:35Z</time>
      </trkpt>
      <trkpt lat="44.65443" lon="-0.89432">
        <ele>29.94</ele>
        <time>2012-04-16T16:42:38Z</time>
      </trkpt>
      <trkpt lat="44.65434" lon="-0.89441">
        <ele>29.94</ele>
        <time>2012-04-16T16:42:41Z</time>
      </trkpt>
      <trkpt lat="44.65425" lon="-0.8945">
        <ele>29.94</ele>
        <time>2012-04-16T16:42:44Z</time>
      </trkpt>
      <trkpt lat="44.65417" lon="-0.89455">
        <ele>29.94</ele>
        <time>2012-04-16T16:42:47Z</time>
      </trkpt>
      <trkpt lat="44.6541" lon="-0.89465">
        <ele>29.46</ele>
        <time>2012-04-16T16:42:51Z</time>
      </trkpt>
      <trkpt lat="44.65403" lon="-0.89475">
        <ele>29.46</ele>
        <time>2012-04-16T16:42:54Z</time>
      </trkpt>
      <trkpt lat="44.65394" lon="-0.89483">
        <ele>28.98</ele>
        <time>2012-04-16T16:42:57Z</time>
      </trkpt>
      <trkpt lat="44.65385" lon="-0.89493">
        <ele>29.94</ele>
        <time>2012-04-16T16:43:00Z</time>
      </trkpt>
      <trkpt lat="44.65375" lon="-0.89504">
        <ele>29.46</ele>
        <time>2012-04-16T16:43:03Z</time>
      </trkpt>
      <trkpt lat="44.65367" lon="-0.89514">
        <ele>28.98</ele>
        <time>2012-04-16T16:43:06Z</time>
      </trkpt>
      <trkpt lat="44.65359" lon="-0.8952">
        <ele>28.02</ele>
        <time>2012-04-16T16:43:09Z</time>
      </trkpt>
      <trkpt lat="44.6535" lon="-0.89526">
        <ele>28.02</ele>
        <time>2012-04-16T16:43:12Z</time>
      </trkpt>
      <trkpt lat="44.6534" lon="-0.89527">
        <ele>27.53</ele>
        <time>2012-04-16T16:43:15Z</time>
      </trkpt>
      <trkpt lat="44.65329" lon="-0.89533">
        <ele>26.57</ele>
        <time>2012-04-16T16:43:18Z</time>
      </trkpt>
      <trkpt lat="44.65321" lon="-0.8954">
        <ele>25.61</ele>
        <time>2012-04-16T16:43:20Z</time>
      </trkpt>
      <trkpt lat="44.65314" lon="-0.89547">
        <ele>24.17</ele>
        <time>2012-04-16T16:43:22Z</time>
      </trkpt>
      <trkpt lat="44.65302" lon="-0.89552">
        <ele>22.25</ele>
        <time>2012-04-16T16:43:25Z</time>
      </trkpt>
      <trkpt lat="44.65297" lon="-0.8956">
        <ele>21.29</ele>
        <time>2012-04-16T16:43:28Z</time>
      </trkpt>
      <trkpt lat="44.65293" lon="-0.8957">
        <ele>20.32</ele>
        <time>2012-04-16T16:43:31Z</time>
      </trkpt>
      <trkpt lat="44.65286" lon="-0.8958">
        <ele>19.84</ele>
        <time>2012-04-16T16:43:35Z</time>
      </trkpt>
      <trkpt lat="44.65285" lon="-0.89596">
        <ele>18.88</ele>
        <time>2012-04-16T16:43:40Z</time>
      </trkpt>
      <trkpt lat="44.65282" lon="-0.89612">
        <ele>18.88</ele>
        <time>2012-04-16T16:43:44Z</time>
      </trkpt>
      <trkpt lat="44.65277" lon="-0.89624">
        <ele>19.36</ele>
        <time>2012-04-16T16:43:48Z</time>
      </trkpt>
      <trkpt lat="44.65271" lon="-0.89637">
        <ele>20.81</ele>
        <time>2012-04-16T16:43:53Z</time>
      </trkpt>
      <trkpt lat="44.65282" lon="-0.89648">
        <ele>21.29</ele>
        <time>2012-04-16T16:44:08Z</time>
      </trkpt>
      <trkpt lat="44.65293" lon="-0.89656">
        <ele>21.29</ele>
        <time>2012-04-16T16:44:12Z</time>
      </trkpt>
      <trkpt lat="44.65303" lon="-0.8966">
        <ele>21.77</ele>
        <time>2012-04-16T16:44:15Z</time>
      </trkpt>
      <trkpt lat="44.65315" lon="-0.89667">
        <ele>22.25</ele>
        <time>2012-04-16T16:44:19Z</time>
      </trkpt>
      <trkpt lat="44.65327" lon="-0.89674">
        <ele>23.21</ele>
        <time>2012-04-16T16:44:24Z</time>
      </trkpt>
      <trkpt lat="44.65334" lon="-0.89685">
        <ele>25.61</ele>
        <time>2012-04-16T16:44:31Z</time>
      </trkpt>
      <trkpt lat="44.65341" lon="-0.89695">
        <ele>26.57</ele>
        <time>2012-04-16T16:44:46Z</time>
      </trkpt>
      <trkpt lat="44.65345" lon="-0.89706">
        <ele>27.53</ele>
        <time>2012-04-16T16:44:53Z</time>
      </trkpt>
      <trkpt lat="44.65342" lon="-0.89724">
        <ele>27.53</ele>
        <time>2012-04-16T16:44:59Z</time>
      </trkpt>
      <trkpt lat="44.65343" lon="-0.89741">
        <ele>28.02</ele>
        <time>2012-04-16T16:45:04Z</time>
      </trkpt>
      <trkpt lat="44.65345" lon="-0.89754">
        <ele>27.53</ele>
        <time>2012-04-16T16:45:10Z</time>
      </trkpt>
      <trkpt lat="44.65355" lon="-0.89762">
        <ele>28.02</ele>
        <time>2012-04-16T16:45:16Z</time>
      </trkpt>
      <trkpt lat="44.65361" lon="-0.89773">
        <ele>28.5</ele>
        <time>2012-04-16T16:45:21Z</time>
      </trkpt>
      <trkpt lat="44.65367" lon="-0.89787">
        <ele>28.5</ele>
        <time>2012-04-16T16:45:27Z</time>
      </trkpt>
      <trkpt lat="44.6537" lon="-0.89801">
        <ele>28.5</ele>
        <time>2012-04-16T16:45:31Z</time>
      </trkpt>
      <trkpt lat="44.65368" lon="-0.89815">
        <ele>28.5</ele>
        <time>2012-04-16T16:45:35Z</time>
      </trkpt>
      <trkpt lat="44.65368" lon="-0.89832">
        <ele>28.98</ele>
        <time>2012-04-16T16:45:39Z</time>
      </trkpt>
      <trkpt lat="44.65368" lon="-0.89845">
        <ele>28.98</ele>
        <time>2012-04-16T16:45:42Z</time>
      </trkpt>
      <trkpt lat="44.65364" lon="-0.89858">
        <ele>28.5</ele>
        <time>2012-04-16T16:45:45Z</time>
      </trkpt>
      <trkpt lat="44.65359" lon="-0.89872">
        <ele>28.02</ele>
        <time>2012-04-16T16:45:49Z</time>
      </trkpt>
      <trkpt lat="44.65356" lon="-0.89881">
        <ele>28.02</ele>
        <time>2012-04-16T16:45:53Z</time>
      </trkpt>
      <trkpt lat="44.65344" lon="-0.89878">
        <ele>28.5</ele>
        <time>2012-04-16T16:45:57Z</time>
      </trkpt>
      <trkpt lat="44.65334" lon="-0.89873">
        <ele>28.5</ele>
        <time>2012-04-16T16:46:00Z</time>
      </trkpt>
      <trkpt lat="44.65323" lon="-0.8987">
        <ele>28.5</ele>
        <time>2012-04-16T16:46:04Z</time>
      </trkpt>
      <trkpt lat="44.65311" lon="-0.89867">
        <ele>28.5</ele>
        <time>2012-04-16T16:46:08Z</time>
      </trkpt>
      <trkpt lat="44.653" lon="-0.89864">
        <ele>28.5</ele>
        <time>2012-04-16T16:46:11Z</time>
      </trkpt>
      <trkpt lat="44.6529" lon="-0.89863">
        <ele>28.5</ele>
        <time>2012-04-16T16:46:14Z</time>
      </trkpt>
      <trkpt lat="44.65281" lon="-0.89861">
        <ele>28.5</ele>
        <time>2012-04-16T16:46:17Z</time>
      </trkpt>
      <trkpt lat="44.65271" lon="-0.89859">
        <ele>28.98</ele>
        <time>2012-04-16T16:46:20Z</time>
      </trkpt>
      <trkpt lat="44.65263" lon="-0.89856">
        <ele>27.53</ele>
        <time>2012-04-16T16:46:23Z</time>
      </trkpt>
      <trkpt lat="44.65252" lon="-0.89854">
        <ele>27.53</ele>
        <time>2012-04-16T16:46:27Z</time>
      </trkpt>
      <trkpt lat="44.65241" lon="-0.89853">
        <ele>27.53</ele>
        <time>2012-04-16T16:46:31Z</time>
      </trkpt>
      <trkpt lat="44.65232" lon="-0.89857">
        <ele>27.05</ele>
        <time>2012-04-16T16:46:34Z</time>
      </trkpt>
      <trkpt lat="44.6523" lon="-0.89867">
        <ele>27.05</ele>
        <time>2012-04-16T16:46:38Z</time>
      </trkpt>
      <trkpt lat="44.65252" lon="-0.89899">
        <ele>28.02</ele>
        <time>2012-04-16T16:46:45Z</time>
      </trkpt>
      <trkpt lat="44.65258" lon="-0.89913">
        <ele>28.02</ele>
        <time>2012-04-16T16:46:48Z</time>
      </trkpt>
      <trkpt lat="44.65264" lon="-0.89927">
        <ele>28.5</ele>
        <time>2012-04-16T16:46:51Z</time>
      </trkpt>
      <trkpt lat="44.65271" lon="-0.89942">
        <ele>28.98</ele>
        <time>2012-04-16T16:46:54Z</time>
      </trkpt>
      <trkpt lat="44.65276" lon="-0.89958">
        <ele>28.5</ele>
        <time>2012-04-16T16:46:57Z</time>
      </trkpt>
      <trkpt lat="44.65281" lon="-0.89975">
        <ele>28.5</ele>
        <time>2012-04-16T16:47:00Z</time>
      </trkpt>
      <trkpt lat="44.65285" lon="-0.89992">
        <ele>28.5</ele>
        <time>2012-04-16T16:47:03Z</time>
      </trkpt>
      <trkpt lat="44.65289" lon="-0.90011">
        <ele>28.5</ele>
        <time>2012-04-16T16:47:06Z</time>
      </trkpt>
      <trkpt lat="44.65292" lon="-0.90023">
        <ele>28.98</ele>
        <time>2012-04-16T16:47:08Z</time>
      </trkpt>
      <trkpt lat="44.65295" lon="-0.90041">
        <ele>28.98</ele>
        <time>2012-04-16T16:47:11Z</time>
      </trkpt>
      <trkpt lat="44.65297" lon="-0.90055">
        <ele>28.5</ele>
        <time>2012-04-16T16:47:13Z</time>
      </trkpt>
      <trkpt lat="44.653" lon="-0.90069">
        <ele>28.5</ele>
        <time>2012-04-16T16:47:15Z</time>
      </trkpt>
      <trkpt lat="44.65302" lon="-0.90083">
        <ele>28.98</ele>
        <time>2012-04-16T16:47:17Z</time>
      </trkpt>
      <trkpt lat="44.65304" lon="-0.90097">
        <ele>28.02</ele>
        <time>2012-04-16T16:47:19Z</time>
      </trkpt>
      <trkpt lat="44.65306" lon="-0.90111">
        <ele>27.53</ele>
        <time>2012-04-16T16:47:21Z</time>
      </trkpt>
      <trkpt lat="44.65308" lon="-0.90126">
        <ele>27.53</ele>
        <time>2012-04-16T16:47:23Z</time>
      </trkpt>
      <trkpt lat="44.6531" lon="-0.9014">
        <ele>27.53</ele>
        <time>2012-04-16T16:47:25Z</time>
      </trkpt>
      <trkpt lat="44.65313" lon="-0.90154">
        <ele>27.53</ele>
        <time>2012-04-16T16:47:27Z</time>
      </trkpt>
      <trkpt lat="44.65314" lon="-0.90169">
        <ele>26.57</ele>
        <time>2012-04-16T16:47:29Z</time>
      </trkpt>
      <trkpt lat="44.65316" lon="-0.90183">
        <ele>26.57</ele>
        <time>2012-04-16T16:47:31Z</time>
      </trkpt>
      <trkpt lat="44.65317" lon="-0.90197">
        <ele>27.53</ele>
        <time>2012-04-16T16:47:33Z</time>
      </trkpt>
      <trkpt lat="44.65319" lon="-0.90212">
        <ele>28.02</ele>
        <time>2012-04-16T16:47:35Z</time>
      </trkpt>
      <trkpt lat="44.65321" lon="-0.90228">
        <ele>28.02</ele>
        <time>2012-04-16T16:47:37Z</time>
      </trkpt>
      <trkpt lat="44.65324" lon="-0.90243">
        <ele>28.02</ele>
        <time>2012-04-16T16:47:39Z</time>
      </trkpt>
      <trkpt lat="44.65327" lon="-0.90258">
        <ele>27.05</ele>
        <time>2012-04-16T16:47:41Z</time>
      </trkpt>
      <trkpt lat="44.65331" lon="-0.90273">
        <ele>27.53</ele>
        <time>2012-04-16T16:47:43Z</time>
      </trkpt>
      <trkpt lat="44.65334" lon="-0.90288">
        <ele>27.53</ele>
        <time>2012-04-16T16:47:45Z</time>
      </trkpt>
      <trkpt lat="44.65339" lon="-0.90304">
        <ele>27.53</ele>
        <time>2012-04-16T16:47:47Z</time>
      </trkpt>
      <trkpt lat="44.65344" lon="-0.90319">
        <ele>26.57</ele>
        <time>2012-04-16T16:47:49Z</time>
      </trkpt>
      <trkpt lat="44.65349" lon="-0.90335">
        <ele>26.57</ele>
        <time>2012-04-16T16:47:51Z</time>
      </trkpt>
      <trkpt lat="44.65354" lon="-0.9035">
        <ele>26.57</ele>
        <time>2012-04-16T16:47:53Z</time>
      </trkpt>
      <trkpt lat="44.65359" lon="-0.90366">
        <ele>26.57</ele>
        <time>2012-04-16T16:47:55Z</time>
      </trkpt>
      <trkpt lat="44.65365" lon="-0.90381">
        <ele>26.57</ele>
        <time>2012-04-16T16:47:57Z</time>
      </trkpt>
      <trkpt lat="44.65371" lon="-0.90397">
        <ele>26.09</ele>
        <time>2012-04-16T16:47:59Z</time>
      </trkpt>
      <trkpt lat="44.65376" lon="-0.90413">
        <ele>26.09</ele>
        <time>2012-04-16T16:48:01Z</time>
      </trkpt>
      <trkpt lat="44.65381" lon="-0.90428">
        <ele>26.57</ele>
        <time>2012-04-16T16:48:03Z</time>
      </trkpt>
      <trkpt lat="44.65386" lon="-0.90442">
        <ele>26.57</ele>
        <time>2012-04-16T16:48:05Z</time>
      </trkpt>
      <trkpt lat="44.65391" lon="-0.90457">
        <ele>26.57</ele>
        <time>2012-04-16T16:48:07Z</time>
      </trkpt>
      <trkpt lat="44.65395" lon="-0.90472">
        <ele>26.57</ele>
        <time>2012-04-16T16:48:09Z</time>
      </trkpt>
      <trkpt lat="44.65399" lon="-0.90489">
        <ele>25.61</ele>
        <time>2012-04-16T16:48:11Z</time>
      </trkpt>
      <trkpt lat="44.65403" lon="-0.90505">
        <ele>25.61</ele>
        <time>2012-04-16T16:48:13Z</time>
      </trkpt>
      <trkpt lat="44.65407" lon="-0.90522">
        <ele>25.13</ele>
        <time>2012-04-16T16:48:15Z</time>
      </trkpt>
      <trkpt lat="44.65411" lon="-0.90539">
        <ele>25.13</ele>
        <time>2012-04-16T16:48:17Z</time>
      </trkpt>
      <trkpt lat="44.65416" lon="-0.90556">
        <ele>23.21</ele>
        <time>2012-04-16T16:48:19Z</time>
      </trkpt>
      <trkpt lat="44.65422" lon="-0.90572">
        <ele>23.21</ele>
        <time>2012-04-16T16:48:21Z</time>
      </trkpt>
      <trkpt lat="44.6543" lon="-0.90585">
        <ele>23.21</ele>
        <time>2012-04-16T16:48:23Z</time>
      </trkpt>
      <trkpt lat="44.65438" lon="-0.90594">
        <ele>23.21</ele>
        <time>2012-04-16T16:48:25Z</time>
      </trkpt>
      <trkpt lat="44.65446" lon="-0.90603">
        <ele>24.17</ele>
        <time>2012-04-16T16:48:27Z</time>
      </trkpt>
      <trkpt lat="44.65453" lon="-0.90612">
        <ele>24.65</ele>
        <time>2012-04-16T16:48:29Z</time>
      </trkpt>
      <trkpt lat="44.65461" lon="-0.9062">
        <ele>25.13</ele>
        <time>2012-04-16T16:48:31Z</time>
      </trkpt>
      <trkpt lat="44.65471" lon="-0.90632">
        <ele>26.09</ele>
        <time>2012-04-16T16:48:34Z</time>
      </trkpt>
      <trkpt lat="44.65482" lon="-0.90641">
        <ele>27.05</ele>
        <time>2012-04-16T16:48:37Z</time>
      </trkpt>
      <trkpt lat="44.65493" lon="-0.90648">
        <ele>26.57</ele>
        <time>2012-04-16T16:48:40Z</time>
      </trkpt>
      <trkpt lat="44.65505" lon="-0.90653">
        <ele>26.57</ele>
        <time>2012-04-16T16:48:43Z</time>
      </trkpt>
      <trkpt lat="44.65518" lon="-0.90655">
        <ele>27.05</ele>
        <time>2012-04-16T16:48:46Z</time>
      </trkpt>
      <trkpt lat="44.6553" lon="-0.90658">
        <ele>27.53</ele>
        <time>2012-04-16T16:48:49Z</time>
      </trkpt>
      <trkpt lat="44.65538" lon="-0.90665">
        <ele>27.53</ele>
        <time>2012-04-16T16:48:51Z</time>
      </trkpt>
      <trkpt lat="44.65544" lon="-0.90676">
        <ele>28.02</ele>
        <time>2012-04-16T16:48:53Z</time>
      </trkpt>
      <trkpt lat="44.65547" lon="-0.90688">
        <ele>28.02</ele>
        <time>2012-04-16T16:48:55Z</time>
      </trkpt>
      <trkpt lat="44.6555" lon="-0.90702">
        <ele>27.53</ele>
        <time>2012-04-16T16:48:57Z</time>
      </trkpt>
      <trkpt lat="44.65552" lon="-0.90716">
        <ele>27.05</ele>
        <time>2012-04-16T16:48:59Z</time>
      </trkpt>
      <trkpt lat="44.65554" lon="-0.9073">
        <ele>27.53</ele>
        <time>2012-04-16T16:49:01Z</time>
      </trkpt>
      <trkpt lat="44.65556" lon="-0.90744">
        <ele>27.05</ele>
        <time>2012-04-16T16:49:03Z</time>
      </trkpt>
      <trkpt lat="44.65558" lon="-0.90758">
        <ele>27.53</ele>
        <time>2012-04-16T16:49:05Z</time>
      </trkpt>
      <trkpt lat="44.6556" lon="-0.90773">
        <ele>27.05</ele>
        <time>2012-04-16T16:49:07Z</time>
      </trkpt>
      <trkpt lat="44.65562" lon="-0.90787">
        <ele>27.05</ele>
        <time>2012-04-16T16:49:09Z</time>
      </trkpt>
      <trkpt lat="44.65565" lon="-0.90802">
        <ele>27.53</ele>
        <time>2012-04-16T16:49:11Z</time>
      </trkpt>
      <trkpt lat="44.65568" lon="-0.90816">
        <ele>26.57</ele>
        <time>2012-04-16T16:49:13Z</time>
      </trkpt>
      <trkpt lat="44.65572" lon="-0.90831">
        <ele>27.05</ele>
        <time>2012-04-16T16:49:15Z</time>
      </trkpt>
      <trkpt lat="44.65576" lon="-0.90845">
        <ele>28.02</ele>
        <time>2012-04-16T16:49:17Z</time>
      </trkpt>
      <trkpt lat="44.65581" lon="-0.9086">
        <ele>27.53</ele>
        <time>2012-04-16T16:49:19Z</time>
      </trkpt>
      <trkpt lat="44.65586" lon="-0.90873">
        <ele>27.53</ele>
        <time>2012-04-16T16:49:21Z</time>
      </trkpt>
      <trkpt lat="44.65592" lon="-0.90886">
        <ele>27.53</ele>
        <time>2012-04-16T16:49:23Z</time>
      </trkpt>
      <trkpt lat="44.65598" lon="-0.909">
        <ele>27.05</ele>
        <time>2012-04-16T16:49:25Z</time>
      </trkpt>
      <trkpt lat="44.65604" lon="-0.90913">
        <ele>27.05</ele>
        <time>2012-04-16T16:49:27Z</time>
      </trkpt>
      <trkpt lat="44.6561" lon="-0.90926">
        <ele>27.53</ele>
        <time>2012-04-16T16:49:29Z</time>
      </trkpt>
      <trkpt lat="44.65616" lon="-0.90938">
        <ele>27.05</ele>
        <time>2012-04-16T16:49:31Z</time>
      </trkpt>
      <trkpt lat="44.65622" lon="-0.90951">
        <ele>27.53</ele>
        <time>2012-04-16T16:49:33Z</time>
      </trkpt>
      <trkpt lat="44.65627" lon="-0.90964">
        <ele>27.53</ele>
        <time>2012-04-16T16:49:35Z</time>
      </trkpt>
      <trkpt lat="44.65632" lon="-0.90979">
        <ele>27.53</ele>
        <time>2012-04-16T16:49:37Z</time>
      </trkpt>
      <trkpt lat="44.65636" lon="-0.90994">
        <ele>27.53</ele>
        <time>2012-04-16T16:49:39Z</time>
      </trkpt>
      <trkpt lat="44.65638" lon="-0.9101">
        <ele>27.53</ele>
        <time>2012-04-16T16:49:41Z</time>
      </trkpt>
      <trkpt lat="44.65641" lon="-0.91025">
        <ele>27.05</ele>
        <time>2012-04-16T16:49:43Z</time>
      </trkpt>
      <trkpt lat="44.65643" lon="-0.91041">
        <ele>26.57</ele>
        <time>2012-04-16T16:49:45Z</time>
      </trkpt>
      <trkpt lat="44.65644" lon="-0.91057">
        <ele>27.05</ele>
        <time>2012-04-16T16:49:47Z</time>
      </trkpt>
      <trkpt lat="44.65645" lon="-0.91072">
        <ele>27.05</ele>
        <time>2012-04-16T16:49:49Z</time>
      </trkpt>
      <trkpt lat="44.65646" lon="-0.91087">
        <ele>27.05</ele>
        <time>2012-04-16T16:49:51Z</time>
      </trkpt>
      <trkpt lat="44.65648" lon="-0.91102">
        <ele>26.09</ele>
        <time>2012-04-16T16:49:53Z</time>
      </trkpt>
      <trkpt lat="44.65648" lon="-0.91115">
        <ele>26.57</ele>
        <time>2012-04-16T16:49:55Z</time>
      </trkpt>
      <trkpt lat="44.65647" lon="-0.91128">
        <ele>26.57</ele>
        <time>2012-04-16T16:49:57Z</time>
      </trkpt>
      <trkpt lat="44.65644" lon="-0.91142">
        <ele>26.09</ele>
        <time>2012-04-16T16:49:59Z</time>
      </trkpt>
      <trkpt lat="44.65641" lon="-0.91155">
        <ele>26.09</ele>
        <time>2012-04-16T16:50:01Z</time>
      </trkpt>
      <trkpt lat="44.65638" lon="-0.91169">
        <ele>26.09</ele>
        <time>2012-04-16T16:50:03Z</time>
      </trkpt>
      <trkpt lat="44.65634" lon="-0.91182">
        <ele>26.57</ele>
        <time>2012-04-16T16:50:05Z</time>
      </trkpt>
      <trkpt lat="44.6563" lon="-0.91195">
        <ele>26.09</ele>
        <time>2012-04-16T16:50:07Z</time>
      </trkpt>
      <trkpt lat="44.65625" lon="-0.91207">
        <ele>26.09</ele>
        <time>2012-04-16T16:50:09Z</time>
      </trkpt>
      <trkpt lat="44.6562" lon="-0.91218">
        <ele>26.57</ele>
        <time>2012-04-16T16:50:11Z</time>
      </trkpt>
      <trkpt lat="44.65615" lon="-0.9123">
        <ele>26.57</ele>
        <time>2012-04-16T16:50:13Z</time>
      </trkpt>
      <trkpt lat="44.6561" lon="-0.91241">
        <ele>26.09</ele>
        <time>2012-04-16T16:50:15Z</time>
      </trkpt>
      <trkpt lat="44.65604" lon="-0.91252">
        <ele>26.09</ele>
        <time>2012-04-16T16:50:17Z</time>
      </trkpt>
      <trkpt lat="44.65598" lon="-0.91261">
        <ele>26.57</ele>
        <time>2012-04-16T16:50:19Z</time>
      </trkpt>
      <trkpt lat="44.65589" lon="-0.91275">
        <ele>26.09</ele>
        <time>2012-04-16T16:50:22Z</time>
      </trkpt>
      <trkpt lat="44.6558" lon="-0.91288">
        <ele>25.61</ele>
        <time>2012-04-16T16:50:25Z</time>
      </trkpt>
      <trkpt lat="44.6557" lon="-0.91302">
        <ele>25.61</ele>
        <time>2012-04-16T16:50:28Z</time>
      </trkpt>
      <trkpt lat="44.65564" lon="-0.91311">
        <ele>25.61</ele>
        <time>2012-04-16T16:50:30Z</time>
      </trkpt>
      <trkpt lat="44.65557" lon="-0.9132">
        <ele>26.09</ele>
        <time>2012-04-16T16:50:32Z</time>
      </trkpt>
      <trkpt lat="44.6555" lon="-0.91331">
        <ele>26.09</ele>
        <time>2012-04-16T16:50:34Z</time>
      </trkpt>
      <trkpt lat="44.65543" lon="-0.91341">
        <ele>26.09</ele>
        <time>2012-04-16T16:50:36Z</time>
      </trkpt>
      <trkpt lat="44.65536" lon="-0.91352">
        <ele>26.57</ele>
        <time>2012-04-16T16:50:38Z</time>
      </trkpt>
      <trkpt lat="44.6553" lon="-0.91363">
        <ele>26.09</ele>
        <time>2012-04-16T16:50:40Z</time>
      </trkpt>
      <trkpt lat="44.65523" lon="-0.91374">
        <ele>25.61</ele>
        <time>2012-04-16T16:50:42Z</time>
      </trkpt>
      <trkpt lat="44.65517" lon="-0.91386">
        <ele>25.61</ele>
        <time>2012-04-16T16:50:44Z</time>
      </trkpt>
      <trkpt lat="44.65512" lon="-0.91398">
        <ele>25.61</ele>
        <time>2012-04-16T16:50:46Z</time>
      </trkpt>
      <trkpt lat="44.65507" lon="-0.91411">
        <ele>25.61</ele>
        <time>2012-04-16T16:50:48Z</time>
      </trkpt>
      <trkpt lat="44.65504" lon="-0.91424">
        <ele>25.61</ele>
        <time>2012-04-16T16:50:50Z</time>
      </trkpt>
      <trkpt lat="44.655" lon="-0.91438">
        <ele>25.61</ele>
        <time>2012-04-16T16:50:52Z</time>
      </trkpt>
      <trkpt lat="44.65496" lon="-0.91451">
        <ele>25.13</ele>
        <time>2012-04-16T16:50:54Z</time>
      </trkpt>
      <trkpt lat="44.65491" lon="-0.91464">
        <ele>25.13</ele>
        <time>2012-04-16T16:50:56Z</time>
      </trkpt>
      <trkpt lat="44.65487" lon="-0.91476">
        <ele>24.65</ele>
        <time>2012-04-16T16:50:58Z</time>
      </trkpt>
      <trkpt lat="44.65482" lon="-0.91488">
        <ele>24.17</ele>
        <time>2012-04-16T16:51:00Z</time>
      </trkpt>
      <trkpt lat="44.65479" lon="-0.91501">
        <ele>23.69</ele>
        <time>2012-04-16T16:51:02Z</time>
      </trkpt>
      <trkpt lat="44.65476" lon="-0.91515">
        <ele>23.21</ele>
        <time>2012-04-16T16:51:04Z</time>
      </trkpt>
      <trkpt lat="44.65471" lon="-0.91529">
        <ele>23.21</ele>
        <time>2012-04-16T16:51:06Z</time>
      </trkpt>
      <trkpt lat="44.65465" lon="-0.91543">
        <ele>23.69</ele>
        <time>2012-04-16T16:51:08Z</time>
      </trkpt>
      <trkpt lat="44.6546" lon="-0.91556">
        <ele>23.21</ele>
        <time>2012-04-16T16:51:10Z</time>
      </trkpt>
      <trkpt lat="44.65456" lon="-0.91569">
        <ele>23.69</ele>
        <time>2012-04-16T16:51:12Z</time>
      </trkpt>
      <trkpt lat="44.65451" lon="-0.91581">
        <ele>24.17</ele>
        <time>2012-04-16T16:51:14Z</time>
      </trkpt>
      <trkpt lat="44.65448" lon="-0.91593">
        <ele>24.17</ele>
        <time>2012-04-16T16:51:16Z</time>
      </trkpt>
      <trkpt lat="44.65445" lon="-0.91606">
        <ele>24.65</ele>
        <time>2012-04-16T16:51:18Z</time>
      </trkpt>
      <trkpt lat="44.65441" lon="-0.91619">
        <ele>24.65</ele>
        <time>2012-04-16T16:51:20Z</time>
      </trkpt>
      <trkpt lat="44.65437" lon="-0.91631">
        <ele>24.17</ele>
        <time>2012-04-16T16:51:22Z</time>
      </trkpt>
      <trkpt lat="44.65433" lon="-0.91643">
        <ele>24.17</ele>
        <time>2012-04-16T16:51:24Z</time>
      </trkpt>
      <trkpt lat="44.6543" lon="-0.91655">
        <ele>24.65</ele>
        <time>2012-04-16T16:51:26Z</time>
      </trkpt>
      <trkpt lat="44.65428" lon="-0.91669">
        <ele>24.17</ele>
        <time>2012-04-16T16:51:28Z</time>
      </trkpt>
      <trkpt lat="44.65424" lon="-0.91682">
        <ele>24.65</ele>
        <time>2012-04-16T16:51:30Z</time>
      </trkpt>
      <trkpt lat="44.6542" lon="-0.91696">
        <ele>24.65</ele>
        <time>2012-04-16T16:51:32Z</time>
      </trkpt>
      <trkpt lat="44.65416" lon="-0.91709">
        <ele>24.17</ele>
        <time>2012-04-16T16:51:34Z</time>
      </trkpt>
      <trkpt lat="44.65413" lon="-0.91722">
        <ele>23.69</ele>
        <time>2012-04-16T16:51:36Z</time>
      </trkpt>
      <trkpt lat="44.6541" lon="-0.91734">
        <ele>24.65</ele>
        <time>2012-04-16T16:51:38Z</time>
      </trkpt>
      <trkpt lat="44.65406" lon="-0.91748">
        <ele>25.13</ele>
        <time>2012-04-16T16:51:40Z</time>
      </trkpt>
      <trkpt lat="44.65403" lon="-0.91761">
        <ele>25.13</ele>
        <time>2012-04-16T16:51:42Z</time>
      </trkpt>
      <trkpt lat="44.65399" lon="-0.91774">
        <ele>25.13</ele>
        <time>2012-04-16T16:51:44Z</time>
      </trkpt>
      <trkpt lat="44.65395" lon="-0.91787">
        <ele>24.65</ele>
        <time>2012-04-16T16:51:46Z</time>
      </trkpt>
      <trkpt lat="44.65391" lon="-0.918">
        <ele>24.65</ele>
        <time>2012-04-16T16:51:48Z</time>
      </trkpt>
      <trkpt lat="44.65387" lon="-0.91811">
        <ele>24.17</ele>
        <time>2012-04-16T16:51:50Z</time>
      </trkpt>
      <trkpt lat="44.65382" lon="-0.91823">
        <ele>24.65</ele>
        <time>2012-04-16T16:51:52Z</time>
      </trkpt>
      <trkpt lat="44.65377" lon="-0.91839">
        <ele>24.65</ele>
        <time>2012-04-16T16:51:55Z</time>
      </trkpt>
      <trkpt lat="44.65371" lon="-0.91856">
        <ele>24.65</ele>
        <time>2012-04-16T16:51:58Z</time>
      </trkpt>
      <trkpt lat="44.65367" lon="-0.91873">
        <ele>23.69</ele>
        <time>2012-04-16T16:52:01Z</time>
      </trkpt>
      <trkpt lat="44.65369" lon="-0.91888">
        <ele>23.69</ele>
        <time>2012-04-16T16:52:04Z</time>
      </trkpt>
      <trkpt lat="44.65374" lon="-0.91899">
        <ele>23.69</ele>
        <time>2012-04-16T16:52:07Z</time>
      </trkpt>
      <trkpt lat="44.6538" lon="-0.91913">
        <ele>23.69</ele>
        <time>2012-04-16T16:52:11Z</time>
      </trkpt>
      <trkpt lat="44.65372" lon="-0.91923">
        <ele>23.69</ele>
        <time>2012-04-16T16:52:15Z</time>
      </trkpt>
      <trkpt lat="44.65362" lon="-0.9193">
        <ele>23.69</ele>
        <time>2012-04-16T16:52:18Z</time>
      </trkpt>
      <trkpt lat="44.6535" lon="-0.91937">
        <ele>23.21</ele>
        <time>2012-04-16T16:52:21Z</time>
      </trkpt>
      <trkpt lat="44.6534" lon="-0.91943">
        <ele>23.21</ele>
        <time>2012-04-16T16:52:23Z</time>
      </trkpt>
      <trkpt lat="44.65331" lon="-0.91947">
        <ele>23.21</ele>
        <time>2012-04-16T16:52:25Z</time>
      </trkpt>
      <trkpt lat="44.6532" lon="-0.91953">
        <ele>23.21</ele>
        <time>2012-04-16T16:52:27Z</time>
      </trkpt>
      <trkpt lat="44.65309" lon="-0.91958">
        <ele>23.21</ele>
        <time>2012-04-16T16:52:29Z</time>
      </trkpt>
      <trkpt lat="44.65299" lon="-0.91964">
        <ele>23.21</ele>
        <time>2012-04-16T16:52:31Z</time>
      </trkpt>
      <trkpt lat="44.65288" lon="-0.91969">
        <ele>23.21</ele>
        <time>2012-04-16T16:52:33Z</time>
      </trkpt>
      <trkpt lat="44.65277" lon="-0.91975">
        <ele>23.69</ele>
        <time>2012-04-16T16:52:35Z</time>
      </trkpt>
      <trkpt lat="44.6527" lon="-0.91986">
        <ele>23.21</ele>
        <time>2012-04-16T16:52:37Z</time>
      </trkpt>
      <trkpt lat="44.65264" lon="-0.92001">
        <ele>23.21</ele>
        <time>2012-04-16T16:52:39Z</time>
      </trkpt>
      <trkpt lat="44.65258" lon="-0.92014">
        <ele>23.21</ele>
        <time>2012-04-16T16:52:41Z</time>
      </trkpt>
      <trkpt lat="44.65254" lon="-0.92028">
        <ele>23.21</ele>
        <time>2012-04-16T16:52:43Z</time>
      </trkpt>
      <trkpt lat="44.65247" lon="-0.92043">
        <ele>22.73</ele>
        <time>2012-04-16T16:52:46Z</time>
      </trkpt>
      <trkpt lat="44.65241" lon="-0.92052">
        <ele>22.73</ele>
        <time>2012-04-16T16:52:48Z</time>
      </trkpt>
      <trkpt lat="44.65236" lon="-0.92063">
        <ele>23.21</ele>
        <time>2012-04-16T16:52:50Z</time>
      </trkpt>
      <trkpt lat="44.6523" lon="-0.92076">
        <ele>22.73</ele>
        <time>2012-04-16T16:52:52Z</time>
      </trkpt>
      <trkpt lat="44.65225" lon="-0.92088">
        <ele>22.73</ele>
        <time>2012-04-16T16:52:54Z</time>
      </trkpt>
      <trkpt lat="44.6522" lon="-0.92101">
        <ele>22.73</ele>
        <time>2012-04-16T16:52:56Z</time>
      </trkpt>
      <trkpt lat="44.65215" lon="-0.92114">
        <ele>22.73</ele>
        <time>2012-04-16T16:52:58Z</time>
      </trkpt>
      <trkpt lat="44.6521" lon="-0.92127">
        <ele>23.21</ele>
        <time>2012-04-16T16:53:00Z</time>
      </trkpt>
      <trkpt lat="44.65207" lon="-0.92141">
        <ele>23.21</ele>
        <time>2012-04-16T16:53:02Z</time>
      </trkpt>
      <trkpt lat="44.65203" lon="-0.92156">
        <ele>23.21</ele>
        <time>2012-04-16T16:53:04Z</time>
      </trkpt>
      <trkpt lat="44.65199" lon="-0.92171">
        <ele>22.73</ele>
        <time>2012-04-16T16:53:06Z</time>
      </trkpt>
      <trkpt lat="44.65196" lon="-0.92185">
        <ele>23.21</ele>
        <time>2012-04-16T16:53:08Z</time>
      </trkpt>
      <trkpt lat="44.65192" lon="-0.92199">
        <ele>22.73</ele>
        <time>2012-04-16T16:53:10Z</time>
      </trkpt>
      <trkpt lat="44.65188" lon="-0.92214">
        <ele>22.25</ele>
        <time>2012-04-16T16:53:12Z</time>
      </trkpt>
      <trkpt lat="44.65185" lon="-0.92229">
        <ele>22.25</ele>
        <time>2012-04-16T16:53:14Z</time>
      </trkpt>
      <trkpt lat="44.65182" lon="-0.92244">
        <ele>22.25</ele>
        <time>2012-04-16T16:53:16Z</time>
      </trkpt>
      <trkpt lat="44.65179" lon="-0.92256">
        <ele>21.77</ele>
        <time>2012-04-16T16:53:18Z</time>
      </trkpt>
      <trkpt lat="44.65174" lon="-0.92271">
        <ele>21.77</ele>
        <time>2012-04-16T16:53:21Z</time>
      </trkpt>
      <trkpt lat="44.65167" lon="-0.92285">
        <ele>21.77</ele>
        <time>2012-04-16T16:53:24Z</time>
      </trkpt>
      <trkpt lat="44.65158" lon="-0.92298">
        <ele>21.29</ele>
        <time>2012-04-16T16:53:27Z</time>
      </trkpt>
      <trkpt lat="44.65148" lon="-0.92312">
        <ele>21.77</ele>
        <time>2012-04-16T16:53:30Z</time>
      </trkpt>
      <trkpt lat="44.6514" lon="-0.92324">
        <ele>21.77</ele>
        <time>2012-04-16T16:53:33Z</time>
      </trkpt>
      <trkpt lat="44.65131" lon="-0.92336">
        <ele>21.77</ele>
        <time>2012-04-16T16:53:36Z</time>
      </trkpt>
      <trkpt lat="44.65122" lon="-0.92348">
        <ele>21.29</ele>
        <time>2012-04-16T16:53:39Z</time>
      </trkpt>
      <trkpt lat="44.65112" lon="-0.9236">
        <ele>22.25</ele>
        <time>2012-04-16T16:53:42Z</time>
      </trkpt>
      <trkpt lat="44.65103" lon="-0.92372">
        <ele>21.29</ele>
        <time>2012-04-16T16:53:45Z</time>
      </trkpt>
      <trkpt lat="44.65094" lon="-0.92386">
        <ele>21.77</ele>
        <time>2012-04-16T16:53:48Z</time>
      </trkpt>
      <trkpt lat="44.65085" lon="-0.924">
        <ele>21.29</ele>
        <time>2012-04-16T16:53:51Z</time>
      </trkpt>
      <trkpt lat="44.65079" lon="-0.9241">
        <ele>20.81</ele>
        <time>2012-04-16T16:53:53Z</time>
      </trkpt>
      <trkpt lat="44.65073" lon="-0.9242">
        <ele>20.81</ele>
        <time>2012-04-16T16:53:55Z</time>
      </trkpt>
      <trkpt lat="44.65067" lon="-0.9243">
        <ele>20.81</ele>
        <time>2012-04-16T16:53:57Z</time>
      </trkpt>
      <trkpt lat="44.6506" lon="-0.9244">
        <ele>20.81</ele>
        <time>2012-04-16T16:53:59Z</time>
      </trkpt>
      <trkpt lat="44.65053" lon="-0.9245">
        <ele>20.81</ele>
        <time>2012-04-16T16:54:01Z</time>
      </trkpt>
      <trkpt lat="44.65045" lon="-0.92459">
        <ele>20.81</ele>
        <time>2012-04-16T16:54:03Z</time>
      </trkpt>
      <trkpt lat="44.65037" lon="-0.92468">
        <ele>20.81</ele>
        <time>2012-04-16T16:54:05Z</time>
      </trkpt>
      <trkpt lat="44.65028" lon="-0.92474">
        <ele>20.81</ele>
        <time>2012-04-16T16:54:07Z</time>
      </trkpt>
      <trkpt lat="44.65019" lon="-0.92481">
        <ele>20.32</ele>
        <time>2012-04-16T16:54:09Z</time>
      </trkpt>
      <trkpt lat="44.6501" lon="-0.92488">
        <ele>20.32</ele>
        <time>2012-04-16T16:54:11Z</time>
      </trkpt>
      <trkpt lat="44.65001" lon="-0.92494">
        <ele>20.32</ele>
        <time>2012-04-16T16:54:13Z</time>
      </trkpt>
      <trkpt lat="44.64993" lon="-0.92501">
        <ele>20.81</ele>
        <time>2012-04-16T16:54:15Z</time>
      </trkpt>
      <trkpt lat="44.64984" lon="-0.92508">
        <ele>20.81</ele>
        <time>2012-04-16T16:54:17Z</time>
      </trkpt>
      <trkpt lat="44.64975" lon="-0.92515">
        <ele>20.32</ele>
        <time>2012-04-16T16:54:19Z</time>
      </trkpt>
      <trkpt lat="44.64967" lon="-0.92522">
        <ele>20.32</ele>
        <time>2012-04-16T16:54:21Z</time>
      </trkpt>
      <trkpt lat="44.64957" lon="-0.92529">
        <ele>20.32</ele>
        <time>2012-04-16T16:54:23Z</time>
      </trkpt>
      <trkpt lat="44.64948" lon="-0.92536">
        <ele>20.32</ele>
        <time>2012-04-16T16:54:25Z</time>
      </trkpt>
      <trkpt lat="44.64938" lon="-0.92543">
        <ele>20.32</ele>
        <time>2012-04-16T16:54:27Z</time>
      </trkpt>
      <trkpt lat="44.64928" lon="-0.9255">
        <ele>19.84</ele>
        <time>2012-04-16T16:54:29Z</time>
      </trkpt>
      <trkpt lat="44.64919" lon="-0.92557">
        <ele>20.32</ele>
        <time>2012-04-16T16:54:31Z</time>
      </trkpt>
      <trkpt lat="44.64911" lon="-0.92565">
        <ele>20.81</ele>
        <time>2012-04-16T16:54:33Z</time>
      </trkpt>
      <trkpt lat="44.64904" lon="-0.92574">
        <ele>20.32</ele>
        <time>2012-04-16T16:54:35Z</time>
      </trkpt>
      <trkpt lat="44.64898" lon="-0.92585">
        <ele>20.81</ele>
        <time>2012-04-16T16:54:37Z</time>
      </trkpt>
      <trkpt lat="44.64892" lon="-0.92595">
        <ele>19.84</ele>
        <time>2012-04-16T16:54:39Z</time>
      </trkpt>
      <trkpt lat="44.64886" lon="-0.92604">
        <ele>19.84</ele>
        <time>2012-04-16T16:54:41Z</time>
      </trkpt>
      <trkpt lat="44.6488" lon="-0.92614">
        <ele>19.36</ele>
        <time>2012-04-16T16:54:43Z</time>
      </trkpt>
      <trkpt lat="44.64874" lon="-0.92624">
        <ele>19.84</ele>
        <time>2012-04-16T16:54:45Z</time>
      </trkpt>
      <trkpt lat="44.64868" lon="-0.92635">
        <ele>19.36</ele>
        <time>2012-04-16T16:54:47Z</time>
      </trkpt>
      <trkpt lat="44.64861" lon="-0.92645">
        <ele>19.36</ele>
        <time>2012-04-16T16:54:49Z</time>
      </trkpt>
      <trkpt lat="44.64854" lon="-0.92654">
        <ele>19.36</ele>
        <time>2012-04-16T16:54:51Z</time>
      </trkpt>
      <trkpt lat="44.64846" lon="-0.92662">
        <ele>19.36</ele>
        <time>2012-04-16T16:54:53Z</time>
      </trkpt>
      <trkpt lat="44.64838" lon="-0.9267">
        <ele>19.36</ele>
        <time>2012-04-16T16:54:55Z</time>
      </trkpt>
      <trkpt lat="44.64829" lon="-0.92676">
        <ele>19.36</ele>
        <time>2012-04-16T16:54:57Z</time>
      </trkpt>
      <trkpt lat="44.6482" lon="-0.92682">
        <ele>18.88</ele>
        <time>2012-04-16T16:54:59Z</time>
      </trkpt>
      <trkpt lat="44.64811" lon="-0.92688">
        <ele>18.4</ele>
        <time>2012-04-16T16:55:01Z</time>
      </trkpt>
      <trkpt lat="44.64803" lon="-0.92694">
        <ele>18.88</ele>
        <time>2012-04-16T16:55:03Z</time>
      </trkpt>
      <trkpt lat="44.64795" lon="-0.927">
        <ele>18.4</ele>
        <time>2012-04-16T16:55:05Z</time>
      </trkpt>
      <trkpt lat="44.64787" lon="-0.92707">
        <ele>18.4</ele>
        <time>2012-04-16T16:55:07Z</time>
      </trkpt>
      <trkpt lat="44.64778" lon="-0.92714">
        <ele>18.4</ele>
        <time>2012-04-16T16:55:09Z</time>
      </trkpt>
      <trkpt lat="44.64769" lon="-0.92721">
        <ele>18.4</ele>
        <time>2012-04-16T16:55:11Z</time>
      </trkpt>
      <trkpt lat="44.6476" lon="-0.92727">
        <ele>18.4</ele>
        <time>2012-04-16T16:55:13Z</time>
      </trkpt>
      <trkpt lat="44.64751" lon="-0.92732">
        <ele>18.4</ele>
        <time>2012-04-16T16:55:15Z</time>
      </trkpt>
      <trkpt lat="44.64742" lon="-0.92736">
        <ele>18.88</ele>
        <time>2012-04-16T16:55:17Z</time>
      </trkpt>
      <trkpt lat="44.64733" lon="-0.92741">
        <ele>18.4</ele>
        <time>2012-04-16T16:55:19Z</time>
      </trkpt>
      <trkpt lat="44.64724" lon="-0.92746">
        <ele>18.4</ele>
        <time>2012-04-16T16:55:21Z</time>
      </trkpt>
      <trkpt lat="44.64715" lon="-0.92754">
        <ele>18.4</ele>
        <time>2012-04-16T16:55:23Z</time>
      </trkpt>
      <trkpt lat="44.6471" lon="-0.92766">
        <ele>17.92</ele>
        <time>2012-04-16T16:55:25Z</time>
      </trkpt>
      <trkpt lat="44.64707" lon="-0.92778">
        <ele>18.4</ele>
        <time>2012-04-16T16:55:27Z</time>
      </trkpt>
      <trkpt lat="44.64703" lon="-0.9279">
        <ele>17.92</ele>
        <time>2012-04-16T16:55:29Z</time>
      </trkpt>
      <trkpt lat="44.64696" lon="-0.92806">
        <ele>18.4</ele>
        <time>2012-04-16T16:55:32Z</time>
      </trkpt>
      <trkpt lat="44.64688" lon="-0.92821">
        <ele>18.4</ele>
        <time>2012-04-16T16:55:35Z</time>
      </trkpt>
      <trkpt lat="44.6468" lon="-0.92836">
        <ele>18.4</ele>
        <time>2012-04-16T16:55:38Z</time>
      </trkpt>
      <trkpt lat="44.64672" lon="-0.9285">
        <ele>17.92</ele>
        <time>2012-04-16T16:55:41Z</time>
      </trkpt>
      <trkpt lat="44.64664" lon="-0.92864">
        <ele>17.92</ele>
        <time>2012-04-16T16:55:44Z</time>
      </trkpt>
      <trkpt lat="44.64654" lon="-0.92876">
        <ele>17.92</ele>
        <time>2012-04-16T16:55:47Z</time>
      </trkpt>
      <trkpt lat="44.64643" lon="-0.92884">
        <ele>17.44</ele>
        <time>2012-04-16T16:55:50Z</time>
      </trkpt>
      <trkpt lat="44.64631" lon="-0.92891">
        <ele>17.44</ele>
        <time>2012-04-16T16:55:53Z</time>
      </trkpt>
      <trkpt lat="44.64619" lon="-0.92897">
        <ele>16.96</ele>
        <time>2012-04-16T16:55:56Z</time>
      </trkpt>
      <trkpt lat="44.64608" lon="-0.92901">
        <ele>16.48</ele>
        <time>2012-04-16T16:55:59Z</time>
      </trkpt>
      <trkpt lat="44.64597" lon="-0.92909">
        <ele>16</ele>
        <time>2012-04-16T16:56:02Z</time>
      </trkpt>
      <trkpt lat="44.64586" lon="-0.92918">
        <ele>16.48</ele>
        <time>2012-04-16T16:56:05Z</time>
      </trkpt>
      <trkpt lat="44.64577" lon="-0.92924">
        <ele>16.48</ele>
        <time>2012-04-16T16:56:07Z</time>
      </trkpt>
      <trkpt lat="44.64568" lon="-0.92928">
        <ele>16</ele>
        <time>2012-04-16T16:56:09Z</time>
      </trkpt>
      <trkpt lat="44.64558" lon="-0.92932">
        <ele>16.48</ele>
        <time>2012-04-16T16:56:11Z</time>
      </trkpt>
      <trkpt lat="44.64548" lon="-0.92937">
        <ele>16.96</ele>
        <time>2012-04-16T16:56:13Z</time>
      </trkpt>
      <trkpt lat="44.64539" lon="-0.92945">
        <ele>16.96</ele>
        <time>2012-04-16T16:56:15Z</time>
      </trkpt>
      <trkpt lat="44.64532" lon="-0.92954">
        <ele>16.96</ele>
        <time>2012-04-16T16:56:17Z</time>
      </trkpt>
      <trkpt lat="44.64525" lon="-0.92964">
        <ele>16.48</ele>
        <time>2012-04-16T16:56:19Z</time>
      </trkpt>
      <trkpt lat="44.64519" lon="-0.92975">
        <ele>16.48</ele>
        <time>2012-04-16T16:56:21Z</time>
      </trkpt>
      <trkpt lat="44.64515" lon="-0.92987">
        <ele>16</ele>
        <time>2012-04-16T16:56:23Z</time>
      </trkpt>
      <trkpt lat="44.64514" lon="-0.93001">
        <ele>16.48</ele>
        <time>2012-04-16T16:56:25Z</time>
      </trkpt>
      <trkpt lat="44.64515" lon="-0.93014">
        <ele>16</ele>
        <time>2012-04-16T16:56:27Z</time>
      </trkpt>
      <trkpt lat="44.64515" lon="-0.93029">
        <ele>16.48</ele>
        <time>2012-04-16T16:56:29Z</time>
      </trkpt>
      <trkpt lat="44.64515" lon="-0.93044">
        <ele>16.48</ele>
        <time>2012-04-16T16:56:31Z</time>
      </trkpt>
      <trkpt lat="44.64513" lon="-0.93058">
        <ele>16.96</ele>
        <time>2012-04-16T16:56:33Z</time>
      </trkpt>
      <trkpt lat="44.64511" lon="-0.93073">
        <ele>16.48</ele>
        <time>2012-04-16T16:56:35Z</time>
      </trkpt>
      <trkpt lat="44.64509" lon="-0.93087">
        <ele>16</ele>
        <time>2012-04-16T16:56:37Z</time>
      </trkpt>
      <trkpt lat="44.64507" lon="-0.93099">
        <ele>16</ele>
        <time>2012-04-16T16:56:39Z</time>
      </trkpt>
      <trkpt lat="44.64502" lon="-0.93112">
        <ele>16</ele>
        <time>2012-04-16T16:56:41Z</time>
      </trkpt>
      <trkpt lat="44.64498" lon="-0.93124">
        <ele>16</ele>
        <time>2012-04-16T16:56:43Z</time>
      </trkpt>
      <trkpt lat="44.64494" lon="-0.93138">
        <ele>16.48</ele>
        <time>2012-04-16T16:56:45Z</time>
      </trkpt>
      <trkpt lat="44.64492" lon="-0.93151">
        <ele>15.52</ele>
        <time>2012-04-16T16:56:47Z</time>
      </trkpt>
      <trkpt lat="44.64492" lon="-0.93164">
        <ele>16</ele>
        <time>2012-04-16T16:56:49Z</time>
      </trkpt>
      <trkpt lat="44.64491" lon="-0.93177">
        <ele>16</ele>
        <time>2012-04-16T16:56:51Z</time>
      </trkpt>
      <trkpt lat="44.64489" lon="-0.93195">
        <ele>16</ele>
        <time>2012-04-16T16:56:54Z</time>
      </trkpt>
      <trkpt lat="44.64485" lon="-0.93211">
        <ele>16</ele>
        <time>2012-04-16T16:56:57Z</time>
      </trkpt>
      <trkpt lat="44.6448" lon="-0.93226">
        <ele>16</ele>
        <time>2012-04-16T16:57:00Z</time>
      </trkpt>
      <trkpt lat="44.64478" lon="-0.9324">
        <ele>16</ele>
        <time>2012-04-16T16:57:02Z</time>
      </trkpt>
      <trkpt lat="44.64476" lon="-0.93253">
        <ele>15.52</ele>
        <time>2012-04-16T16:57:04Z</time>
      </trkpt>
      <trkpt lat="44.64473" lon="-0.93266">
        <ele>16</ele>
        <time>2012-04-16T16:57:06Z</time>
      </trkpt>
      <trkpt lat="44.64468" lon="-0.93283">
        <ele>15.52</ele>
        <time>2012-04-16T16:57:09Z</time>
      </trkpt>
      <trkpt lat="44.6446" lon="-0.93297">
        <ele>16</ele>
        <time>2012-04-16T16:57:12Z</time>
      </trkpt>
      <trkpt lat="44.64456" lon="-0.93314">
        <ele>16</ele>
        <time>2012-04-16T16:57:15Z</time>
      </trkpt>
      <trkpt lat="44.64453" lon="-0.93332">
        <ele>16</ele>
        <time>2012-04-16T16:57:18Z</time>
      </trkpt>
      <trkpt lat="44.64448" lon="-0.9335">
        <ele>16</ele>
        <time>2012-04-16T16:57:21Z</time>
      </trkpt>
      <trkpt lat="44.64444" lon="-0.93362">
        <ele>15.52</ele>
        <time>2012-04-16T16:57:23Z</time>
      </trkpt>
      <trkpt lat="44.64438" lon="-0.93374">
        <ele>16</ele>
        <time>2012-04-16T16:57:25Z</time>
      </trkpt>
      <trkpt lat="44.64433" lon="-0.93385">
        <ele>15.52</ele>
        <time>2012-04-16T16:57:27Z</time>
      </trkpt>
      <trkpt lat="44.64426" lon="-0.93396">
        <ele>15.04</ele>
        <time>2012-04-16T16:57:29Z</time>
      </trkpt>
      <trkpt lat="44.64421" lon="-0.93408">
        <ele>15.52</ele>
        <time>2012-04-16T16:57:31Z</time>
      </trkpt>
      <trkpt lat="44.64416" lon="-0.93422">
        <ele>15.04</ele>
        <time>2012-04-16T16:57:33Z</time>
      </trkpt>
      <trkpt lat="44.6441" lon="-0.93434">
        <ele>15.04</ele>
        <time>2012-04-16T16:57:35Z</time>
      </trkpt>
      <trkpt lat="44.64405" lon="-0.93447">
        <ele>14.56</ele>
        <time>2012-04-16T16:57:37Z</time>
      </trkpt>
      <trkpt lat="44.644" lon="-0.9346">
        <ele>14.56</ele>
        <time>2012-04-16T16:57:39Z</time>
      </trkpt>
      <trkpt lat="44.64394" lon="-0.93473">
        <ele>15.04</ele>
        <time>2012-04-16T16:57:41Z</time>
      </trkpt>
      <trkpt lat="44.64389" lon="-0.93487">
        <ele>15.04</ele>
        <time>2012-04-16T16:57:43Z</time>
      </trkpt>
      <trkpt lat="44.64383" lon="-0.93499">
        <ele>15.04</ele>
        <time>2012-04-16T16:57:45Z</time>
      </trkpt>
      <trkpt lat="44.64375" lon="-0.93511">
        <ele>15.04</ele>
        <time>2012-04-16T16:57:47Z</time>
      </trkpt>
      <trkpt lat="44.64368" lon="-0.93523">
        <ele>15.52</ele>
        <time>2012-04-16T16:57:49Z</time>
      </trkpt>
      <trkpt lat="44.64362" lon="-0.93534">
        <ele>15.04</ele>
        <time>2012-04-16T16:57:51Z</time>
      </trkpt>
      <trkpt lat="44.64358" lon="-0.93547">
        <ele>14.56</ele>
        <time>2012-04-16T16:57:53Z</time>
      </trkpt>
      <trkpt lat="44.64356" lon="-0.93559">
        <ele>15.04</ele>
        <time>2012-04-16T16:57:55Z</time>
      </trkpt>
      <trkpt lat="44.64353" lon="-0.93572">
        <ele>14.56</ele>
        <time>2012-04-16T16:57:57Z</time>
      </trkpt>
      <trkpt lat="44.64351" lon="-0.93585">
        <ele>14.56</ele>
        <time>2012-04-16T16:57:59Z</time>
      </trkpt>
      <trkpt lat="44.64349" lon="-0.93598">
        <ele>14.56</ele>
        <time>2012-04-16T16:58:01Z</time>
      </trkpt>
      <trkpt lat="44.64346" lon="-0.93611">
        <ele>14.56</ele>
        <time>2012-04-16T16:58:03Z</time>
      </trkpt>
      <trkpt lat="44.64344" lon="-0.93625">
        <ele>14.56</ele>
        <time>2012-04-16T16:58:05Z</time>
      </trkpt>
      <trkpt lat="44.64341" lon="-0.93638">
        <ele>15.04</ele>
        <time>2012-04-16T16:58:07Z</time>
      </trkpt>
      <trkpt lat="44.6434" lon="-0.93651">
        <ele>15.04</ele>
        <time>2012-04-16T16:58:09Z</time>
      </trkpt>
      <trkpt lat="44.64339" lon="-0.93664">
        <ele>15.04</ele>
        <time>2012-04-16T16:58:11Z</time>
      </trkpt>
      <trkpt lat="44.64339" lon="-0.93678">
        <ele>15.04</ele>
        <time>2012-04-16T16:58:13Z</time>
      </trkpt>
      <trkpt lat="44.64339" lon="-0.93691">
        <ele>15.52</ele>
        <time>2012-04-16T16:58:15Z</time>
      </trkpt>
      <trkpt lat="44.64339" lon="-0.93704">
        <ele>14.08</ele>
        <time>2012-04-16T16:58:17Z</time>
      </trkpt>
      <trkpt lat="44.64339" lon="-0.93717">
        <ele>14.56</ele>
        <time>2012-04-16T16:58:19Z</time>
      </trkpt>
      <trkpt lat="44.6434" lon="-0.93731">
        <ele>15.04</ele>
        <time>2012-04-16T16:58:21Z</time>
      </trkpt>
      <trkpt lat="44.64342" lon="-0.93744">
        <ele>14.56</ele>
        <time>2012-04-16T16:58:23Z</time>
      </trkpt>
      <trkpt lat="44.64343" lon="-0.93757">
        <ele>14.08</ele>
        <time>2012-04-16T16:58:25Z</time>
      </trkpt>
      <trkpt lat="44.64346" lon="-0.93771">
        <ele>15.04</ele>
        <time>2012-04-16T16:58:27Z</time>
      </trkpt>
      <trkpt lat="44.64349" lon="-0.93784">
        <ele>15.04</ele>
        <time>2012-04-16T16:58:29Z</time>
      </trkpt>
      <trkpt lat="44.64353" lon="-0.93797">
        <ele>15.52</ele>
        <time>2012-04-16T16:58:31Z</time>
      </trkpt>
      <trkpt lat="44.64357" lon="-0.93809">
        <ele>15.04</ele>
        <time>2012-04-16T16:58:33Z</time>
      </trkpt>
      <trkpt lat="44.6436" lon="-0.93822">
        <ele>15.04</ele>
        <time>2012-04-16T16:58:35Z</time>
      </trkpt>
      <trkpt lat="44.64362" lon="-0.93836">
        <ele>14.56</ele>
        <time>2012-04-16T16:58:37Z</time>
      </trkpt>
      <trkpt lat="44.64361" lon="-0.9385">
        <ele>15.04</ele>
        <time>2012-04-16T16:58:39Z</time>
      </trkpt>
      <trkpt lat="44.6436" lon="-0.93864">
        <ele>14.56</ele>
        <time>2012-04-16T16:58:41Z</time>
      </trkpt>
      <trkpt lat="44.64358" lon="-0.93878">
        <ele>15.52</ele>
        <time>2012-04-16T16:58:43Z</time>
      </trkpt>
      <trkpt lat="44.64357" lon="-0.93892">
        <ele>15.04</ele>
        <time>2012-04-16T16:58:45Z</time>
      </trkpt>
      <trkpt lat="44.64356" lon="-0.93906">
        <ele>15.04</ele>
        <time>2012-04-16T16:58:47Z</time>
      </trkpt>
      <trkpt lat="44.64356" lon="-0.9392">
        <ele>15.04</ele>
        <time>2012-04-16T16:58:49Z</time>
      </trkpt>
      <trkpt lat="44.64357" lon="-0.93934">
        <ele>15.04</ele>
        <time>2012-04-16T16:58:51Z</time>
      </trkpt>
      <trkpt lat="44.6436" lon="-0.93947">
        <ele>15.04</ele>
        <time>2012-04-16T16:58:53Z</time>
      </trkpt>
      <trkpt lat="44.64362" lon="-0.9396">
        <ele>14.56</ele>
        <time>2012-04-16T16:58:55Z</time>
      </trkpt>
      <trkpt lat="44.64363" lon="-0.93979">
        <ele>14.56</ele>
        <time>2012-04-16T16:58:58Z</time>
      </trkpt>
      <trkpt lat="44.64363" lon="-0.93992">
        <ele>14.08</ele>
        <time>2012-04-16T16:59:00Z</time>
      </trkpt>
      <trkpt lat="44.64363" lon="-0.94009">
        <ele>15.04</ele>
        <time>2012-04-16T16:59:03Z</time>
      </trkpt>
      <trkpt lat="44.64365" lon="-0.94028">
        <ele>14.56</ele>
        <time>2012-04-16T16:59:06Z</time>
      </trkpt>
      <trkpt lat="44.64368" lon="-0.94047">
        <ele>15.04</ele>
        <time>2012-04-16T16:59:09Z</time>
      </trkpt>
      <trkpt lat="44.64372" lon="-0.94064">
        <ele>14.56</ele>
        <time>2012-04-16T16:59:12Z</time>
      </trkpt>
      <trkpt lat="44.64377" lon="-0.9408">
        <ele>14.56</ele>
        <time>2012-04-16T16:59:15Z</time>
      </trkpt>
      <trkpt lat="44.64383" lon="-0.94096">
        <ele>14.56</ele>
        <time>2012-04-16T16:59:18Z</time>
      </trkpt>
      <trkpt lat="44.64387" lon="-0.94108">
        <ele>14.08</ele>
        <time>2012-04-16T16:59:20Z</time>
      </trkpt>
      <trkpt lat="44.64391" lon="-0.9412">
        <ele>14.56</ele>
        <time>2012-04-16T16:59:22Z</time>
      </trkpt>
      <trkpt lat="44.64394" lon="-0.94133">
        <ele>14.08</ele>
        <time>2012-04-16T16:59:24Z</time>
      </trkpt>
      <trkpt lat="44.64399" lon="-0.94145">
        <ele>14.56</ele>
        <time>2012-04-16T16:59:26Z</time>
      </trkpt>
      <trkpt lat="44.64403" lon="-0.94157">
        <ele>15.04</ele>
        <time>2012-04-16T16:59:28Z</time>
      </trkpt>
      <trkpt lat="44.64408" lon="-0.94169">
        <ele>14.56</ele>
        <time>2012-04-16T16:59:30Z</time>
      </trkpt>
      <trkpt lat="44.64414" lon="-0.94179">
        <ele>14.56</ele>
        <time>2012-04-16T16:59:32Z</time>
      </trkpt>
      <trkpt lat="44.6442" lon="-0.9419">
        <ele>14.56</ele>
        <time>2012-04-16T16:59:34Z</time>
      </trkpt>
      <trkpt lat="44.64423" lon="-0.94202">
        <ele>14.56</ele>
        <time>2012-04-16T16:59:36Z</time>
      </trkpt>
      <trkpt lat="44.64421" lon="-0.9422">
        <ele>15.04</ele>
        <time>2012-04-16T16:59:39Z</time>
      </trkpt>
      <trkpt lat="44.64414" lon="-0.94236">
        <ele>14.56</ele>
        <time>2012-04-16T16:59:42Z</time>
      </trkpt>
      <trkpt lat="44.6441" lon="-0.94248">
        <ele>15.04</ele>
        <time>2012-04-16T16:59:44Z</time>
      </trkpt>
      <trkpt lat="44.64406" lon="-0.94261">
        <ele>14.56</ele>
        <time>2012-04-16T16:59:46Z</time>
      </trkpt>
      <trkpt lat="44.64402" lon="-0.94272">
        <ele>14.56</ele>
        <time>2012-04-16T16:59:48Z</time>
      </trkpt>
      <trkpt lat="44.64397" lon="-0.94284">
        <ele>15.04</ele>
        <time>2012-04-16T16:59:50Z</time>
      </trkpt>
      <trkpt lat="44.64393" lon="-0.94297">
        <ele>14.56</ele>
        <time>2012-04-16T16:59:52Z</time>
      </trkpt>
      <trkpt lat="44.6439" lon="-0.9431">
        <ele>14.56</ele>
        <time>2012-04-16T16:59:54Z</time>
      </trkpt>
      <trkpt lat="44.64386" lon="-0.94323">
        <ele>14.56</ele>
        <time>2012-04-16T16:59:56Z</time>
      </trkpt>
      <trkpt lat="44.64382" lon="-0.94336">
        <ele>15.04</ele>
        <time>2012-04-16T16:59:58Z</time>
      </trkpt>
      <trkpt lat="44.64379" lon="-0.94348">
        <ele>15.04</ele>
        <time>2012-04-16T17:00:00Z</time>
      </trkpt>
      <trkpt lat="44.64375" lon="-0.94361">
        <ele>15.04</ele>
        <time>2012-04-16T17:00:02Z</time>
      </trkpt>
      <trkpt lat="44.64371" lon="-0.94375">
        <ele>15.52</ele>
        <time>2012-04-16T17:00:04Z</time>
      </trkpt>
      <trkpt lat="44.64367" lon="-0.94388">
        <ele>15.52</ele>
        <time>2012-04-16T17:00:06Z</time>
      </trkpt>
      <trkpt lat="44.64364" lon="-0.94401">
        <ele>15.04</ele>
        <time>2012-04-16T17:00:08Z</time>
      </trkpt>
      <trkpt lat="44.64359" lon="-0.94414">
        <ele>14.56</ele>
        <time>2012-04-16T17:00:10Z</time>
      </trkpt>
      <trkpt lat="44.64354" lon="-0.94426">
        <ele>14.56</ele>
        <time>2012-04-16T17:00:12Z</time>
      </trkpt>
      <trkpt lat="44.64349" lon="-0.9444">
        <ele>15.04</ele>
        <time>2012-04-16T17:00:14Z</time>
      </trkpt>
      <trkpt lat="44.64344" lon="-0.94454">
        <ele>14.56</ele>
        <time>2012-04-16T17:00:16Z</time>
      </trkpt>
      <trkpt lat="44.64341" lon="-0.94466">
        <ele>14.56</ele>
        <time>2012-04-16T17:00:18Z</time>
      </trkpt>
      <trkpt lat="44.64337" lon="-0.94479">
        <ele>15.04</ele>
        <time>2012-04-16T17:00:20Z</time>
      </trkpt>
      <trkpt lat="44.64334" lon="-0.9449">
        <ele>14.56</ele>
        <time>2012-04-16T17:00:22Z</time>
      </trkpt>
      <trkpt lat="44.64329" lon="-0.94506">
        <ele>14.56</ele>
        <time>2012-04-16T17:00:25Z</time>
      </trkpt>
      <trkpt lat="44.64324" lon="-0.94523">
        <ele>13.6</ele>
        <time>2012-04-16T17:00:28Z</time>
      </trkpt>
      <trkpt lat="44.64322" lon="-0.94536">
        <ele>13.6</ele>
        <time>2012-04-16T17:00:30Z</time>
      </trkpt>
      <trkpt lat="44.6432" lon="-0.9455">
        <ele>13.6</ele>
        <time>2012-04-16T17:00:32Z</time>
      </trkpt>
      <trkpt lat="44.64317" lon="-0.94565">
        <ele>14.08</ele>
        <time>2012-04-16T17:00:34Z</time>
      </trkpt>
      <trkpt lat="44.64314" lon="-0.94579">
        <ele>13.6</ele>
        <time>2012-04-16T17:00:36Z</time>
      </trkpt>
      <trkpt lat="44.6431" lon="-0.94594">
        <ele>14.08</ele>
        <time>2012-04-16T17:00:38Z</time>
      </trkpt>
      <trkpt lat="44.64306" lon="-0.94607">
        <ele>14.08</ele>
        <time>2012-04-16T17:00:40Z</time>
      </trkpt>
      <trkpt lat="44.64301" lon="-0.94619">
        <ele>14.08</ele>
        <time>2012-04-16T17:00:42Z</time>
      </trkpt>
      <trkpt lat="44.64293" lon="-0.9463">
        <ele>13.6</ele>
        <time>2012-04-16T17:00:44Z</time>
      </trkpt>
      <trkpt lat="44.64284" lon="-0.94636">
        <ele>13.12</ele>
        <time>2012-04-16T17:00:46Z</time>
      </trkpt>
      <trkpt lat="44.64274" lon="-0.94642">
        <ele>13.6</ele>
        <time>2012-04-16T17:00:48Z</time>
      </trkpt>
      <trkpt lat="44.64264" lon="-0.94649">
        <ele>13.6</ele>
        <time>2012-04-16T17:00:50Z</time>
      </trkpt>
      <trkpt lat="44.64255" lon="-0.94656">
        <ele>13.12</ele>
        <time>2012-04-16T17:00:52Z</time>
      </trkpt>
      <trkpt lat="44.64246" lon="-0.94663">
        <ele>13.12</ele>
        <time>2012-04-16T17:00:54Z</time>
      </trkpt>
      <trkpt lat="44.64237" lon="-0.94669">
        <ele>13.12</ele>
        <time>2012-04-16T17:00:56Z</time>
      </trkpt>
      <trkpt lat="44.64227" lon="-0.94672">
        <ele>13.12</ele>
        <time>2012-04-16T17:00:58Z</time>
      </trkpt>
      <trkpt lat="44.64218" lon="-0.94673">
        <ele>13.12</ele>
        <time>2012-04-16T17:01:00Z</time>
      </trkpt>
      <trkpt lat="44.64205" lon="-0.94675">
        <ele>12.63</ele>
        <time>2012-04-16T17:01:03Z</time>
      </trkpt>
      <trkpt lat="44.64193" lon="-0.9468">
        <ele>12.63</ele>
        <time>2012-04-16T17:01:06Z</time>
      </trkpt>
      <trkpt lat="44.64182" lon="-0.94686">
        <ele>12.63</ele>
        <time>2012-04-16T17:01:09Z</time>
      </trkpt>
      <trkpt lat="44.64173" lon="-0.94694">
        <ele>12.15</ele>
        <time>2012-04-16T17:01:12Z</time>
      </trkpt>
      <trkpt lat="44.64164" lon="-0.947">
        <ele>12.63</ele>
        <time>2012-04-16T17:01:15Z</time>
      </trkpt>
      <trkpt lat="44.64156" lon="-0.94692">
        <ele>12.15</ele>
        <time>2012-04-16T17:01:21Z</time>
      </trkpt>
      <trkpt lat="44.6415" lon="-0.94682">
        <ele>11.67</ele>
        <time>2012-04-16T17:01:26Z</time>
      </trkpt>
      <trkpt lat="44.6414" lon="-0.94681">
        <ele>12.15</ele>
        <time>2012-04-16T17:01:31Z</time>
      </trkpt>
      <trkpt lat="44.64131" lon="-0.94691">
        <ele>12.15</ele>
        <time>2012-04-16T17:01:35Z</time>
      </trkpt>
      <trkpt lat="44.64124" lon="-0.94702">
        <ele>12.15</ele>
        <time>2012-04-16T17:01:38Z</time>
      </trkpt>
      <trkpt lat="44.64115" lon="-0.94707">
        <ele>12.63</ele>
        <time>2012-04-16T17:01:41Z</time>
      </trkpt>
      <trkpt lat="44.64104" lon="-0.94707">
        <ele>12.15</ele>
        <time>2012-04-16T17:01:45Z</time>
      </trkpt>
      <trkpt lat="44.64093" lon="-0.94708">
        <ele>12.63</ele>
        <time>2012-04-16T17:01:49Z</time>
      </trkpt>
      <trkpt lat="44.64082" lon="-0.94709">
        <ele>12.63</ele>
        <time>2012-04-16T17:01:53Z</time>
      </trkpt>
      <trkpt lat="44.64071" lon="-0.9471">
        <ele>12.15</ele>
        <time>2012-04-16T17:01:57Z</time>
      </trkpt>
      <trkpt lat="44.64059" lon="-0.94708">
        <ele>12.15</ele>
        <time>2012-04-16T17:02:01Z</time>
      </trkpt>
      <trkpt lat="44.64051" lon="-0.94697">
        <ele>12.63</ele>
        <time>2012-04-16T17:02:06Z</time>
      </trkpt>
      <trkpt lat="44.64043" lon="-0.94687">
        <ele>13.12</ele>
        <time>2012-04-16T17:02:10Z</time>
      </trkpt>
      <trkpt lat="44.64033" lon="-0.94692">
        <ele>12.63</ele>
        <time>2012-04-16T17:02:16Z</time>
      </trkpt>
      <trkpt lat="44.64023" lon="-0.94698">
        <ele>12.15</ele>
        <time>2012-04-16T17:02:20Z</time>
      </trkpt>
      <trkpt lat="44.64014" lon="-0.94702">
        <ele>11.67</ele>
        <time>2012-04-16T17:02:23Z</time>
      </trkpt>
      <trkpt lat="44.64005" lon="-0.94708">
        <ele>10.71</ele>
        <time>2012-04-16T17:02:26Z</time>
      </trkpt>
      <trkpt lat="44.63998" lon="-0.94718">
        <ele>9.75</ele>
        <time>2012-04-16T17:02:29Z</time>
      </trkpt>
      <trkpt lat="44.63995" lon="-0.9473">
        <ele>9.75</ele>
        <time>2012-04-16T17:02:32Z</time>
      </trkpt>
      <trkpt lat="44.6399" lon="-0.94735">
        <ele>9.27</ele>
        <time>2012-04-16T17:02:37Z</time>
      </trkpt>
      <trkpt lat="44.63991" lon="-0.94718">
        <ele>9.75</ele>
        <time>2012-04-16T17:02:45Z</time>
      </trkpt>
      <trkpt lat="44.63982" lon="-0.94706">
        <ele>9.27</ele>
        <time>2012-04-16T17:02:49Z</time>
      </trkpt>
      <trkpt lat="44.63974" lon="-0.94695">
        <ele>9.27</ele>
        <time>2012-04-16T17:02:52Z</time>
      </trkpt>
      <trkpt lat="44.63965" lon="-0.94683">
        <ele>9.75</ele>
        <time>2012-04-16T17:02:55Z</time>
      </trkpt>
      <trkpt lat="44.63957" lon="-0.94675">
        <ele>9.75</ele>
        <time>2012-04-16T17:02:58Z</time>
      </trkpt>
      <trkpt lat="44.63944" lon="-0.9468">
        <ele>10.23</ele>
        <time>2012-04-16T17:03:02Z</time>
      </trkpt>
      <trkpt lat="44.63931" lon="-0.94707">
        <ele>10.71</ele>
        <time>2012-04-16T17:03:07Z</time>
      </trkpt>
      <trkpt lat="44.63926" lon="-0.94724">
        <ele>10.71</ele>
        <time>2012-04-16T17:03:10Z</time>
      </trkpt>
      <trkpt lat="44.63917" lon="-0.94741">
        <ele>10.23</ele>
        <time>2012-04-16T17:03:13Z</time>
      </trkpt>
      <trkpt lat="44.6391" lon="-0.94757">
        <ele>10.23</ele>
        <time>2012-04-16T17:03:16Z</time>
      </trkpt>
      <trkpt lat="44.63902" lon="-0.94773">
        <ele>9.75</ele>
        <time>2012-04-16T17:03:19Z</time>
      </trkpt>
      <trkpt lat="44.63895" lon="-0.9479">
        <ele>9.75</ele>
        <time>2012-04-16T17:03:22Z</time>
      </trkpt>
      <trkpt lat="44.63889" lon="-0.94807">
        <ele>10.23</ele>
        <time>2012-04-16T17:03:25Z</time>
      </trkpt>
      <trkpt lat="44.63884" lon="-0.94823">
        <ele>10.23</ele>
        <time>2012-04-16T17:03:28Z</time>
      </trkpt>
      <trkpt lat="44.63878" lon="-0.9484">
        <ele>9.75</ele>
        <time>2012-04-16T17:03:31Z</time>
      </trkpt>
      <trkpt lat="44.63872" lon="-0.94852">
        <ele>10.71</ele>
        <time>2012-04-16T17:03:33Z</time>
      </trkpt>
      <trkpt lat="44.63867" lon="-0.94863">
        <ele>10.71</ele>
        <time>2012-04-16T17:03:35Z</time>
      </trkpt>
      <trkpt lat="44.6386" lon="-0.94879">
        <ele>10.71</ele>
        <time>2012-04-16T17:03:38Z</time>
      </trkpt>
      <trkpt lat="44.63857" lon="-0.94897">
        <ele>10.23</ele>
        <time>2012-04-16T17:03:41Z</time>
      </trkpt>
      <trkpt lat="44.63855" lon="-0.9491">
        <ele>11.19</ele>
        <time>2012-04-16T17:03:43Z</time>
      </trkpt>
      <trkpt lat="44.63852" lon="-0.94928">
        <ele>10.23</ele>
        <time>2012-04-16T17:03:46Z</time>
      </trkpt>
      <trkpt lat="44.63849" lon="-0.94945">
        <ele>10.71</ele>
        <time>2012-04-16T17:03:49Z</time>
      </trkpt>
      <trkpt lat="44.63849" lon="-0.94963">
        <ele>10.23</ele>
        <time>2012-04-16T17:03:52Z</time>
      </trkpt>
      <trkpt lat="44.63852" lon="-0.9498">
        <ele>9.75</ele>
        <time>2012-04-16T17:03:55Z</time>
      </trkpt>
      <trkpt lat="44.63851" lon="-0.94994">
        <ele>10.23</ele>
        <time>2012-04-16T17:03:58Z</time>
      </trkpt>
      <trkpt lat="44.63845" lon="-0.95007">
        <ele>10.23</ele>
        <time>2012-04-16T17:04:01Z</time>
      </trkpt>
      <trkpt lat="44.63836" lon="-0.95011">
        <ele>10.23</ele>
        <time>2012-04-16T17:04:04Z</time>
      </trkpt>
      <trkpt lat="44.63826" lon="-0.95021">
        <ele>9.75</ele>
        <time>2012-04-16T17:04:07Z</time>
      </trkpt>
      <trkpt lat="44.63817" lon="-0.95035">
        <ele>9.75</ele>
        <time>2012-04-16T17:04:10Z</time>
      </trkpt>
      <trkpt lat="44.63812" lon="-0.95046">
        <ele>10.23</ele>
        <time>2012-04-16T17:04:12Z</time>
      </trkpt>
      <trkpt lat="44.63805" lon="-0.95056">
        <ele>9.75</ele>
        <time>2012-04-16T17:04:14Z</time>
      </trkpt>
      <trkpt lat="44.63799" lon="-0.95066">
        <ele>10.71</ele>
        <time>2012-04-16T17:04:16Z</time>
      </trkpt>
      <trkpt lat="44.63793" lon="-0.95075">
        <ele>10.23</ele>
        <time>2012-04-16T17:04:18Z</time>
      </trkpt>
      <trkpt lat="44.63787" lon="-0.95085">
        <ele>9.75</ele>
        <time>2012-04-16T17:04:20Z</time>
      </trkpt>
      <trkpt lat="44.63781" lon="-0.95095">
        <ele>10.23</ele>
        <time>2012-04-16T17:04:22Z</time>
      </trkpt>
      <trkpt lat="44.63774" lon="-0.95106">
        <ele>10.23</ele>
        <time>2012-04-16T17:04:24Z</time>
      </trkpt>
      <trkpt lat="44.63768" lon="-0.95117">
        <ele>9.75</ele>
        <time>2012-04-16T17:04:26Z</time>
      </trkpt>
      <trkpt lat="44.63761" lon="-0.95128">
        <ele>10.23</ele>
        <time>2012-04-16T17:04:28Z</time>
      </trkpt>
      <trkpt lat="44.63754" lon="-0.95139">
        <ele>10.23</ele>
        <time>2012-04-16T17:04:30Z</time>
      </trkpt>
      <trkpt lat="44.63747" lon="-0.9515">
        <ele>10.23</ele>
        <time>2012-04-16T17:04:32Z</time>
      </trkpt>
      <trkpt lat="44.63741" lon="-0.95163">
        <ele>10.23</ele>
        <time>2012-04-16T17:04:34Z</time>
      </trkpt>
      <trkpt lat="44.63736" lon="-0.95176">
        <ele>10.23</ele>
        <time>2012-04-16T17:04:36Z</time>
      </trkpt>
      <trkpt lat="44.63732" lon="-0.9519">
        <ele>9.75</ele>
        <time>2012-04-16T17:04:38Z</time>
      </trkpt>
      <trkpt lat="44.63727" lon="-0.95204">
        <ele>9.75</ele>
        <time>2012-04-16T17:04:40Z</time>
      </trkpt>
      <trkpt lat="44.63723" lon="-0.95219">
        <ele>9.75</ele>
        <time>2012-04-16T17:04:42Z</time>
      </trkpt>
      <trkpt lat="44.63718" lon="-0.95235">
        <ele>9.75</ele>
        <time>2012-04-16T17:04:44Z</time>
      </trkpt>
      <trkpt lat="44.63713" lon="-0.95251">
        <ele>7.83</ele>
        <time>2012-04-16T17:04:46Z</time>
      </trkpt>
      <trkpt lat="44.63708" lon="-0.95268">
        <ele>7.83</ele>
        <time>2012-04-16T17:04:48Z</time>
      </trkpt>
      <trkpt lat="44.63703" lon="-0.95284">
        <ele>7.83</ele>
        <time>2012-04-16T17:04:50Z</time>
      </trkpt>
      <trkpt lat="44.63697" lon="-0.95299">
        <ele>7.35</ele>
        <time>2012-04-16T17:04:52Z</time>
      </trkpt>
      <trkpt lat="44.63692" lon="-0.95315">
        <ele>7.35</ele>
        <time>2012-04-16T17:04:54Z</time>
      </trkpt>
      <trkpt lat="44.63686" lon="-0.9533">
        <ele>7.83</ele>
        <time>2012-04-16T17:04:56Z</time>
      </trkpt>
      <trkpt lat="44.6368" lon="-0.95346">
        <ele>8.79</ele>
        <time>2012-04-16T17:04:58Z</time>
      </trkpt>
      <trkpt lat="44.63674" lon="-0.9536">
        <ele>9.75</ele>
        <time>2012-04-16T17:05:00Z</time>
      </trkpt>
      <trkpt lat="44.63668" lon="-0.95374">
        <ele>10.71</ele>
        <time>2012-04-16T17:05:02Z</time>
      </trkpt>
      <trkpt lat="44.63664" lon="-0.95388">
        <ele>10.23</ele>
        <time>2012-04-16T17:05:04Z</time>
      </trkpt>
      <trkpt lat="44.63658" lon="-0.95401">
        <ele>10.23</ele>
        <time>2012-04-16T17:05:06Z</time>
      </trkpt>
      <trkpt lat="44.63654" lon="-0.95414">
        <ele>9.27</ele>
        <time>2012-04-16T17:05:08Z</time>
      </trkpt>
      <trkpt lat="44.63643" lon="-0.95424">
        <ele>8.79</ele>
        <time>2012-04-16T17:05:11Z</time>
      </trkpt>
      <trkpt lat="44.6363" lon="-0.9543">
        <ele>8.79</ele>
        <time>2012-04-16T17:05:14Z</time>
      </trkpt>
      <trkpt lat="44.63622" lon="-0.95435">
        <ele>8.79</ele>
        <time>2012-04-16T17:05:16Z</time>
      </trkpt>
      <trkpt lat="44.63613" lon="-0.9544">
        <ele>8.79</ele>
        <time>2012-04-16T17:05:18Z</time>
      </trkpt>
      <trkpt lat="44.63605" lon="-0.95446">
        <ele>9.27</ele>
        <time>2012-04-16T17:05:20Z</time>
      </trkpt>
      <trkpt lat="44.63596" lon="-0.95451">
        <ele>8.79</ele>
        <time>2012-04-16T17:05:22Z</time>
      </trkpt>
      <trkpt lat="44.63586" lon="-0.95457">
        <ele>9.27</ele>
        <time>2012-04-16T17:05:24Z</time>
      </trkpt>
      <trkpt lat="44.63577" lon="-0.95462">
        <ele>9.27</ele>
        <time>2012-04-16T17:05:26Z</time>
      </trkpt>
      <trkpt lat="44.63569" lon="-0.95469">
        <ele>9.27</ele>
        <time>2012-04-16T17:05:28Z</time>
      </trkpt>
      <trkpt lat="44.63558" lon="-0.95479">
        <ele>9.75</ele>
        <time>2012-04-16T17:05:31Z</time>
      </trkpt>
      <trkpt lat="44.63551" lon="-0.95487">
        <ele>8.79</ele>
        <time>2012-04-16T17:05:34Z</time>
      </trkpt>
      <trkpt lat="44.63545" lon="-0.95479">
        <ele>8.79</ele>
        <time>2012-04-16T17:05:41Z</time>
      </trkpt>
      <trkpt lat="44.63538" lon="-0.95471">
        <ele>7.83</ele>
        <time>2012-04-16T17:05:44Z</time>
      </trkpt>
      <trkpt lat="44.63525" lon="-0.95472">
        <ele>6.87</ele>
        <time>2012-04-16T17:05:47Z</time>
      </trkpt>
      <trkpt lat="44.63517" lon="-0.95479">
        <ele>6.39</ele>
        <time>2012-04-16T17:05:49Z</time>
      </trkpt>
      <trkpt lat="44.6351" lon="-0.95492">
        <ele>6.39</ele>
        <time>2012-04-16T17:05:52Z</time>
      </trkpt>
      <trkpt lat="44.63505" lon="-0.95504">
        <ele>6.87</ele>
        <time>2012-04-16T17:05:56Z</time>
      </trkpt>
      <trkpt lat="44.63506" lon="-0.95518">
        <ele>6.87</ele>
        <time>2012-04-16T17:06:01Z</time>
      </trkpt>
      <trkpt lat="44.63503" lon="-0.95534">
        <ele>6.87</ele>
        <time>2012-04-16T17:06:05Z</time>
      </trkpt>
      <trkpt lat="44.63499" lon="-0.9555">
        <ele>6.87</ele>
        <time>2012-04-16T17:06:08Z</time>
      </trkpt>
      <trkpt lat="44.63495" lon="-0.95565">
        <ele>6.87</ele>
        <time>2012-04-16T17:06:11Z</time>
      </trkpt>
      <trkpt lat="44.63493" lon="-0.95579">
        <ele>7.35</ele>
        <time>2012-04-16T17:06:14Z</time>
      </trkpt>
      <trkpt lat="44.63491" lon="-0.95596">
        <ele>7.35</ele>
        <time>2012-04-16T17:06:18Z</time>
      </trkpt>
      <trkpt lat="44.63488" lon="-0.95611">
        <ele>7.35</ele>
        <time>2012-04-16T17:06:21Z</time>
      </trkpt>
      <trkpt lat="44.63486" lon="-0.95626">
        <ele>7.35</ele>
        <time>2012-04-16T17:06:24Z</time>
      </trkpt>
      <trkpt lat="44.63484" lon="-0.95642">
        <ele>7.35</ele>
        <time>2012-04-16T17:06:27Z</time>
      </trkpt>
      <trkpt lat="44.6348" lon="-0.9566">
        <ele>6.87</ele>
        <time>2012-04-16T17:06:30Z</time>
      </trkpt>
      <trkpt lat="44.63477" lon="-0.95675">
        <ele>7.35</ele>
        <time>2012-04-16T17:06:33Z</time>
      </trkpt>
      <trkpt lat="44.63472" lon="-0.95691">
        <ele>7.35</ele>
        <time>2012-04-16T17:06:37Z</time>
      </trkpt>
      <trkpt lat="44.63474" lon="-0.95702">
        <ele>8.31</ele>
        <time>2012-04-16T17:19:29Z</time>
      </trkpt>
      <trkpt lat="44.63481" lon="-0.95711">
        <ele>9.27</ele>
        <time>2012-04-16T17:19:35Z</time>
      </trkpt>
      <trkpt lat="44.63491" lon="-0.9572">
        <ele>9.27</ele>
        <time>2012-04-16T17:19:41Z</time>
      </trkpt>
      <trkpt lat="44.63501" lon="-0.95727">
        <ele>8.79</ele>
        <time>2012-04-16T17:19:46Z</time>
      </trkpt>
      <trkpt lat="44.63511" lon="-0.95736">
        <ele>8.79</ele>
        <time>2012-04-16T17:19:51Z</time>
      </trkpt>
      <trkpt lat="44.63522" lon="-0.95746">
        <ele>8.79</ele>
        <time>2012-04-16T17:19:56Z</time>
      </trkpt>
      <trkpt lat="44.6353" lon="-0.95755">
        <ele>8.79</ele>
        <time>2012-04-16T17:20:00Z</time>
      </trkpt>
      <trkpt lat="44.63539" lon="-0.95762">
        <ele>8.79</ele>
        <time>2012-04-16T17:20:04Z</time>
      </trkpt>
      <trkpt lat="44.63548" lon="-0.95771">
        <ele>8.79</ele>
        <time>2012-04-16T17:20:08Z</time>
      </trkpt>
      <trkpt lat="44.63557" lon="-0.95779">
        <ele>8.31</ele>
        <time>2012-04-16T17:20:12Z</time>
      </trkpt>
      <trkpt lat="44.63565" lon="-0.95788">
        <ele>8.31</ele>
        <time>2012-04-16T17:20:17Z</time>
      </trkpt>
      <trkpt lat="44.63572" lon="-0.95797">
        <ele>8.31</ele>
        <time>2012-04-16T17:20:22Z</time>
      </trkpt>
      <trkpt lat="44.63573" lon="-0.95813">
        <ele>8.31</ele>
        <time>2012-04-16T17:20:29Z</time>
      </trkpt>
      <trkpt lat="44.6357" lon="-0.95825">
        <ele>8.31</ele>
        <time>2012-04-16T17:20:35Z</time>
      </trkpt>
      <trkpt lat="44.63565" lon="-0.9585">
        <ele>7.83</ele>
        <time>2012-04-16T17:22:33Z</time>
      </trkpt>
      <trkpt lat="44.63559" lon="-0.95864">
        <ele>8.31</ele>
        <time>2012-04-16T17:22:36Z</time>
      </trkpt>
      <trkpt lat="44.63551" lon="-0.95874">
        <ele>7.83</ele>
        <time>2012-04-16T17:22:39Z</time>
      </trkpt>
      <trkpt lat="44.63543" lon="-0.95881">
        <ele>7.83</ele>
        <time>2012-04-16T17:22:42Z</time>
      </trkpt>
      <trkpt lat="44.63532" lon="-0.95883">
        <ele>8.31</ele>
        <time>2012-04-16T17:22:45Z</time>
      </trkpt>
      <trkpt lat="44.63524" lon="-0.95893">
        <ele>6.87</ele>
        <time>2012-04-16T17:22:48Z</time>
      </trkpt>
      <trkpt lat="44.6352" lon="-0.95907">
        <ele>8.31</ele>
        <time>2012-04-16T17:22:51Z</time>
      </trkpt>
      <trkpt lat="44.63513" lon="-0.9592">
        <ele>7.83</ele>
        <time>2012-04-16T17:22:54Z</time>
      </trkpt>
      <trkpt lat="44.63506" lon="-0.95935">
        <ele>7.35</ele>
        <time>2012-04-16T17:22:57Z</time>
      </trkpt>
      <trkpt lat="44.63498" lon="-0.95948">
        <ele>7.35</ele>
        <time>2012-04-16T17:23:00Z</time>
      </trkpt>
      <trkpt lat="44.63489" lon="-0.9596">
        <ele>6.87</ele>
        <time>2012-04-16T17:23:03Z</time>
      </trkpt>
      <trkpt lat="44.6348" lon="-0.95971">
        <ele>7.35</ele>
        <time>2012-04-16T17:23:06Z</time>
      </trkpt>
      <trkpt lat="44.63471" lon="-0.95981">
        <ele>7.35</ele>
        <time>2012-04-16T17:23:09Z</time>
      </trkpt>
      <trkpt lat="44.63461" lon="-0.95989">
        <ele>7.35</ele>
        <time>2012-04-16T17:23:12Z</time>
      </trkpt>
      <trkpt lat="44.63452" lon="-0.96002">
        <ele>7.35</ele>
        <time>2012-04-16T17:23:16Z</time>
      </trkpt>
      <trkpt lat="44.63445" lon="-0.96011">
        <ele>7.35</ele>
        <time>2012-04-16T17:23:20Z</time>
      </trkpt>
      <trkpt lat="44.63434" lon="-0.96021">
        <ele>7.83</ele>
        <time>2012-04-16T17:23:24Z</time>
      </trkpt>
      <trkpt lat="44.63427" lon="-0.96028">
        <ele>7.35</ele>
        <time>2012-04-16T17:23:27Z</time>
      </trkpt>
      <trkpt lat="44.63416" lon="-0.9604">
        <ele>7.83</ele>
        <time>2012-04-16T17:23:31Z</time>
      </trkpt>
      <trkpt lat="44.63408" lon="-0.96049">
        <ele>8.31</ele>
        <time>2012-04-16T17:23:34Z</time>
      </trkpt>
      <trkpt lat="44.63398" lon="-0.96057">
        <ele>7.83</ele>
        <time>2012-04-16T17:23:37Z</time>
      </trkpt>
      <trkpt lat="44.63388" lon="-0.96064">
        <ele>7.83</ele>
        <time>2012-04-16T17:23:40Z</time>
      </trkpt>
      <trkpt lat="44.63379" lon="-0.9607">
        <ele>7.83</ele>
        <time>2012-04-16T17:23:43Z</time>
      </trkpt>
      <trkpt lat="44.63368" lon="-0.96078">
        <ele>7.83</ele>
        <time>2012-04-16T17:23:46Z</time>
      </trkpt>
      <trkpt lat="44.6336" lon="-0.96075">
        <ele>7.83</ele>
        <time>2012-04-16T17:23:49Z</time>
      </trkpt>
      <trkpt lat="44.63349" lon="-0.96079">
        <ele>8.31</ele>
        <time>2012-04-16T17:23:53Z</time>
      </trkpt>
      <trkpt lat="44.63339" lon="-0.96088">
        <ele>8.31</ele>
        <time>2012-04-16T17:23:57Z</time>
      </trkpt>
      <trkpt lat="44.63337" lon="-0.96103">
        <ele>7.35</ele>
        <time>2012-04-16T17:24:00Z</time>
      </trkpt>
      <trkpt lat="44.63337" lon="-0.9612">
        <ele>7.35</ele>
        <time>2012-04-16T17:24:03Z</time>
      </trkpt>
      <trkpt lat="44.63335" lon="-0.96134">
        <ele>7.35</ele>
        <time>2012-04-16T17:24:06Z</time>
      </trkpt>
      <trkpt lat="44.63332" lon="-0.96146">
        <ele>7.35</ele>
        <time>2012-04-16T17:24:09Z</time>
      </trkpt>
      <trkpt lat="44.63321" lon="-0.96153">
        <ele>8.31</ele>
        <time>2012-04-16T17:24:13Z</time>
      </trkpt>
      <trkpt lat="44.63309" lon="-0.96158">
        <ele>8.79</ele>
        <time>2012-04-16T17:24:16Z</time>
      </trkpt>
      <trkpt lat="44.633" lon="-0.96167">
        <ele>8.79</ele>
        <time>2012-04-16T17:24:19Z</time>
      </trkpt>
      <trkpt lat="44.63298" lon="-0.9618">
        <ele>8.31</ele>
        <time>2012-04-16T17:24:22Z</time>
      </trkpt>
      <trkpt lat="44.63304" lon="-0.96192">
        <ele>7.83</ele>
        <time>2012-04-16T17:24:26Z</time>
      </trkpt>
      <trkpt lat="44.63311" lon="-0.96203">
        <ele>8.79</ele>
        <time>2012-04-16T17:24:29Z</time>
      </trkpt>
      <trkpt lat="44.63316" lon="-0.96214">
        <ele>8.79</ele>
        <time>2012-04-16T17:24:31Z</time>
      </trkpt>
      <trkpt lat="44.63317" lon="-0.96228">
        <ele>9.27</ele>
        <time>2012-04-16T17:24:33Z</time>
      </trkpt>
      <trkpt lat="44.63312" lon="-0.96242">
        <ele>8.31</ele>
        <time>2012-04-16T17:24:35Z</time>
      </trkpt>
      <trkpt lat="44.63302" lon="-0.9625">
        <ele>7.83</ele>
        <time>2012-04-16T17:24:37Z</time>
      </trkpt>
      <trkpt lat="44.63291" lon="-0.96253">
        <ele>8.31</ele>
        <time>2012-04-16T17:24:39Z</time>
      </trkpt>
      <trkpt lat="44.63281" lon="-0.96251">
        <ele>7.83</ele>
        <time>2012-04-16T17:24:41Z</time>
      </trkpt>
      <trkpt lat="44.63273" lon="-0.96245">
        <ele>8.31</ele>
        <time>2012-04-16T17:24:43Z</time>
      </trkpt>
      <trkpt lat="44.63264" lon="-0.96238">
        <ele>7.83</ele>
        <time>2012-04-16T17:24:45Z</time>
      </trkpt>
      <trkpt lat="44.63256" lon="-0.9623">
        <ele>8.31</ele>
        <time>2012-04-16T17:24:47Z</time>
      </trkpt>
      <trkpt lat="44.63248" lon="-0.96222">
        <ele>8.31</ele>
        <time>2012-04-16T17:24:49Z</time>
      </trkpt>
      <trkpt lat="44.63239" lon="-0.96214">
        <ele>8.31</ele>
        <time>2012-04-16T17:24:51Z</time>
      </trkpt>
      <trkpt lat="44.63231" lon="-0.96206">
        <ele>7.83</ele>
        <time>2012-04-16T17:24:53Z</time>
      </trkpt>
      <trkpt lat="44.63223" lon="-0.96199">
        <ele>8.31</ele>
        <time>2012-04-16T17:24:55Z</time>
      </trkpt>
      <trkpt lat="44.63211" lon="-0.9619">
        <ele>7.83</ele>
        <time>2012-04-16T17:24:58Z</time>
      </trkpt>
      <trkpt lat="44.632" lon="-0.9618">
        <ele>7.35</ele>
        <time>2012-04-16T17:25:01Z</time>
      </trkpt>
      <trkpt lat="44.63192" lon="-0.96173">
        <ele>7.35</ele>
        <time>2012-04-16T17:25:03Z</time>
      </trkpt>
      <trkpt lat="44.63184" lon="-0.96166">
        <ele>6.39</ele>
        <time>2012-04-16T17:25:05Z</time>
      </trkpt>
      <trkpt lat="44.63176" lon="-0.9616">
        <ele>6.39</ele>
        <time>2012-04-16T17:25:07Z</time>
      </trkpt>
      <trkpt lat="44.63166" lon="-0.96154">
        <ele>6.39</ele>
        <time>2012-04-16T17:25:09Z</time>
      </trkpt>
      <trkpt lat="44.63156" lon="-0.96149">
        <ele>5.91</ele>
        <time>2012-04-16T17:25:11Z</time>
      </trkpt>
      <trkpt lat="44.63147" lon="-0.96143">
        <ele>5.91</ele>
        <time>2012-04-16T17:25:13Z</time>
      </trkpt>
      <trkpt lat="44.63137" lon="-0.96138">
        <ele>5.91</ele>
        <time>2012-04-16T17:25:15Z</time>
      </trkpt>
      <trkpt lat="44.63126" lon="-0.96135">
        <ele>4.94</ele>
        <time>2012-04-16T17:25:17Z</time>
      </trkpt>
      <trkpt lat="44.63115" lon="-0.96137">
        <ele>4.46</ele>
        <time>2012-04-16T17:25:19Z</time>
      </trkpt>
      <trkpt lat="44.63104" lon="-0.96143">
        <ele>4.46</ele>
        <time>2012-04-16T17:25:21Z</time>
      </trkpt>
      <trkpt lat="44.63094" lon="-0.96138">
        <ele>3.98</ele>
        <time>2012-04-16T17:25:23Z</time>
      </trkpt>
      <trkpt lat="44.63088" lon="-0.96126">
        <ele>3.98</ele>
        <time>2012-04-16T17:25:25Z</time>
      </trkpt>
      <trkpt lat="44.6308" lon="-0.96118">
        <ele>3.5</ele>
        <time>2012-04-16T17:25:27Z</time>
      </trkpt>
      <trkpt lat="44.63068" lon="-0.96117">
        <ele>3.5</ele>
        <time>2012-04-16T17:25:29Z</time>
      </trkpt>
      <trkpt lat="44.63055" lon="-0.96117">
        <ele>3.5</ele>
        <time>2012-04-16T17:25:31Z</time>
      </trkpt>
      <trkpt lat="44.63043" lon="-0.96117">
        <ele>3.98</ele>
        <time>2012-04-16T17:25:33Z</time>
      </trkpt>
      <trkpt lat="44.63031" lon="-0.96117">
        <ele>3.5</ele>
        <time>2012-04-16T17:25:35Z</time>
      </trkpt>
      <trkpt lat="44.63018" lon="-0.96118">
        <ele>3.5</ele>
        <time>2012-04-16T17:25:37Z</time>
      </trkpt>
      <trkpt lat="44.63005" lon="-0.96118">
        <ele>3.5</ele>
        <time>2012-04-16T17:25:39Z</time>
      </trkpt>
      <trkpt lat="44.62992" lon="-0.96119">
        <ele>3.5</ele>
        <time>2012-04-16T17:25:41Z</time>
      </trkpt>
      <trkpt lat="44.6298" lon="-0.96119">
        <ele>3.5</ele>
        <time>2012-04-16T17:25:43Z</time>
      </trkpt>
      <trkpt lat="44.62969" lon="-0.9612">
        <ele>3.5</ele>
        <time>2012-04-16T17:25:45Z</time>
      </trkpt>
      <trkpt lat="44.62957" lon="-0.96121">
        <ele>3.98</ele>
        <time>2012-04-16T17:25:47Z</time>
      </trkpt>
      <trkpt lat="44.62946" lon="-0.96121">
        <ele>4.46</ele>
        <time>2012-04-16T17:25:49Z</time>
      </trkpt>
      <trkpt lat="44.62934" lon="-0.96122">
        <ele>3.98</ele>
        <time>2012-04-16T17:25:51Z</time>
      </trkpt>
      <trkpt lat="44.62922" lon="-0.96123">
        <ele>4.46</ele>
        <time>2012-04-16T17:25:53Z</time>
      </trkpt>
      <trkpt lat="44.62912" lon="-0.96125">
        <ele>4.94</ele>
        <time>2012-04-16T17:25:55Z</time>
      </trkpt>
      <trkpt lat="44.62902" lon="-0.96126">
        <ele>5.42</ele>
        <time>2012-04-16T17:25:57Z</time>
      </trkpt>
      <trkpt lat="44.62892" lon="-0.96128">
        <ele>5.42</ele>
        <time>2012-04-16T17:25:59Z</time>
      </trkpt>
      <trkpt lat="44.62881" lon="-0.96128">
        <ele>6.39</ele>
        <time>2012-04-16T17:26:01Z</time>
      </trkpt>
      <trkpt lat="44.62872" lon="-0.96126">
        <ele>5.42</ele>
        <time>2012-04-16T17:26:03Z</time>
      </trkpt>
      <trkpt lat="44.62864" lon="-0.96123">
        <ele>6.39</ele>
        <time>2012-04-16T17:26:05Z</time>
      </trkpt>
      <trkpt lat="44.62854" lon="-0.9612">
        <ele>6.39</ele>
        <time>2012-04-16T17:26:07Z</time>
      </trkpt>
      <trkpt lat="44.62846" lon="-0.96115">
        <ele>6.87</ele>
        <time>2012-04-16T17:26:09Z</time>
      </trkpt>
      <trkpt lat="44.62838" lon="-0.96109">
        <ele>6.39</ele>
        <time>2012-04-16T17:26:11Z</time>
      </trkpt>
      <trkpt lat="44.6283" lon="-0.96102">
        <ele>6.39</ele>
        <time>2012-04-16T17:26:13Z</time>
      </trkpt>
      <trkpt lat="44.62819" lon="-0.96092">
        <ele>6.39</ele>
        <time>2012-04-16T17:26:16Z</time>
      </trkpt>
      <trkpt lat="44.62808" lon="-0.96083">
        <ele>6.39</ele>
        <time>2012-04-16T17:26:19Z</time>
      </trkpt>
      <trkpt lat="44.62797" lon="-0.96073">
        <ele>6.39</ele>
        <time>2012-04-16T17:26:22Z</time>
      </trkpt>
      <trkpt lat="44.62788" lon="-0.96062">
        <ele>6.87</ele>
        <time>2012-04-16T17:26:25Z</time>
      </trkpt>
      <trkpt lat="44.62779" lon="-0.9605">
        <ele>6.39</ele>
        <time>2012-04-16T17:26:28Z</time>
      </trkpt>
      <trkpt lat="44.6277" lon="-0.96042">
        <ele>6.39</ele>
        <time>2012-04-16T17:26:31Z</time>
      </trkpt>
      <trkpt lat="44.62762" lon="-0.96036">
        <ele>6.39</ele>
        <time>2012-04-16T17:26:34Z</time>
      </trkpt>
      <trkpt lat="44.6276" lon="-0.96023">
        <ele>6.87</ele>
        <time>2012-04-16T17:26:38Z</time>
      </trkpt>
      <trkpt lat="44.62764" lon="-0.96009">
        <ele>6.87</ele>
        <time>2012-04-16T17:26:44Z</time>
      </trkpt>
      <trkpt lat="44.62772" lon="-0.96002">
        <ele>7.35</ele>
        <time>2012-04-16T17:26:47Z</time>
      </trkpt>
      <trkpt lat="44.62783" lon="-0.95996">
        <ele>7.83</ele>
        <time>2012-04-16T17:26:51Z</time>
      </trkpt>
      <trkpt lat="44.62792" lon="-0.96004">
        <ele>8.31</ele>
        <time>2012-04-16T17:26:56Z</time>
      </trkpt>
      <trkpt lat="44.62798" lon="-0.96015">
        <ele>7.83</ele>
        <time>2012-04-16T17:27:01Z</time>
      </trkpt>
      <trkpt lat="44.62803" lon="-0.96022">
        <ele>7.83</ele>
        <time>2012-04-16T17:27:47Z</time>
      </trkpt>
      <trkpt lat="44.62802" lon="-0.96023">
        <ele>7.83</ele>
        <time>2012-04-16T17:27:52Z</time>
      </trkpt>
    </trkseg>
  </trk>
</gpx>